<?xml version="1.0" encoding="UTF-8" standalone="no" ?>
<gpx xmlns="http://www.topografix.com/GPX/1/1" xmlns:xsi="http://www.w3.org/2001/XMLSchema-instance" xsi:schemaLocation="http://www.topografix.com/GPX/1/1 http://www.topografix.com/GPX/1/1/gpx.xsd" version="1.1" creator="VisuGPX - https://www.visugpx.com">
  <metadata>
    <name>St Adrien 15Km5...............</name>
    <desc><![CDATA[Boucle A-R au départ de Franqueville St Pierre]]></desc>
  </metadata>
  <trk>
    <name><![CDATA[St Adrien 15Km5..............._1]]></name>
    <trkseg>
      <trkpt lat="49.40325" lon="1.172">
        <ele>151</ele>
        <time>2017-04-11T13:35:52Z</time>
      </trkpt>
      <trkpt lat="49.40325" lon="1.17202">
        <ele>151</ele>
        <time>2017-04-11T13:35:52Z</time>
      </trkpt>
      <trkpt lat="49.40324" lon="1.17205">
        <ele>151</ele>
        <time>2017-04-11T13:35:52Z</time>
      </trkpt>
      <trkpt lat="49.40322" lon="1.17209">
        <ele>151</ele>
        <time>2017-04-11T13:35:52Z</time>
      </trkpt>
      <trkpt lat="49.40321" lon="1.17215">
        <ele>151</ele>
        <time>2017-04-11T13:35:52Z</time>
      </trkpt>
      <trkpt lat="49.4032" lon="1.17216">
        <ele>151</ele>
        <time>2017-04-11T13:36:07Z</time>
      </trkpt>
      <trkpt lat="49.40319" lon="1.17216">
        <ele>151</ele>
        <time>2017-04-11T13:36:07Z</time>
      </trkpt>
      <trkpt lat="49.40315" lon="1.17218">
        <ele>151</ele>
        <time>2017-04-11T13:36:07Z</time>
      </trkpt>
      <trkpt lat="49.40311" lon="1.17216">
        <ele>151</ele>
        <time>2017-04-11T13:36:07Z</time>
      </trkpt>
      <trkpt lat="49.40311" lon="1.17214">
        <ele>151</ele>
        <time>2017-04-11T13:36:27Z</time>
      </trkpt>
      <trkpt lat="49.40309" lon="1.17212">
        <ele>151</ele>
        <time>2017-04-11T13:36:27Z</time>
      </trkpt>
      <trkpt lat="49.40309" lon="1.17212">
        <ele>151</ele>
        <time>2017-04-11T13:36:27Z</time>
      </trkpt>
      <trkpt lat="49.40304" lon="1.1721">
        <ele>151</ele>
        <time>2017-04-11T13:36:27Z</time>
      </trkpt>
      <trkpt lat="49.403" lon="1.17207">
        <ele>151</ele>
        <time>2017-04-11T13:36:27Z</time>
      </trkpt>
      <trkpt lat="49.40295" lon="1.17205">
        <ele>151</ele>
        <time>2017-04-11T13:36:43Z</time>
      </trkpt>
      <trkpt lat="49.4029" lon="1.17203">
        <ele>150</ele>
        <time>2017-04-11T13:36:43Z</time>
      </trkpt>
      <trkpt lat="49.40284" lon="1.17202">
        <ele>150</ele>
        <time>2017-04-11T13:36:43Z</time>
      </trkpt>
      <trkpt lat="49.40282" lon="1.17195">
        <ele>150</ele>
        <time>2017-04-11T13:36:43Z</time>
      </trkpt>
      <trkpt lat="49.4028" lon="1.17193">
        <ele>150</ele>
        <time>2017-04-11T13:36:59Z</time>
      </trkpt>
      <trkpt lat="49.40272" lon="1.17191">
        <ele>150</ele>
        <time>2017-04-11T13:37:00Z</time>
      </trkpt>
      <trkpt lat="49.40268" lon="1.17188">
        <ele>150</ele>
        <time>2017-04-11T13:37:00Z</time>
      </trkpt>
      <trkpt lat="49.40264" lon="1.17187">
        <ele>150</ele>
        <time>2017-04-11T13:37:00Z</time>
      </trkpt>
      <trkpt lat="49.40259" lon="1.17182">
        <ele>150</ele>
        <time>2017-04-11T13:37:15Z</time>
      </trkpt>
      <trkpt lat="49.40255" lon="1.17178">
        <ele>150</ele>
        <time>2017-04-11T13:37:15Z</time>
      </trkpt>
      <trkpt lat="49.40246" lon="1.17171">
        <ele>150</ele>
        <time>2017-04-11T13:37:15Z</time>
      </trkpt>
      <trkpt lat="49.40242" lon="1.17165">
        <ele>150</ele>
        <time>2017-04-11T13:37:15Z</time>
      </trkpt>
      <trkpt lat="49.40238" lon="1.17162">
        <ele>150</ele>
        <time>2017-04-11T13:37:31Z</time>
      </trkpt>
      <trkpt lat="49.40234" lon="1.17161">
        <ele>150</ele>
        <time>2017-04-11T13:37:31Z</time>
      </trkpt>
      <trkpt lat="49.4023" lon="1.17162">
        <ele>150</ele>
        <time>2017-04-11T13:37:31Z</time>
      </trkpt>
      <trkpt lat="49.40225" lon="1.17162">
        <ele>150</ele>
        <time>2017-04-11T13:37:31Z</time>
      </trkpt>
      <trkpt lat="49.40219" lon="1.17164">
        <ele>150</ele>
        <time>2017-04-11T13:37:49Z</time>
      </trkpt>
      <trkpt lat="49.40215" lon="1.1716">
        <ele>150</ele>
        <time>2017-04-11T13:37:49Z</time>
      </trkpt>
      <trkpt lat="49.4021" lon="1.17156">
        <ele>150</ele>
        <time>2017-04-11T13:37:49Z</time>
      </trkpt>
      <trkpt lat="49.40205" lon="1.17153">
        <ele>147</ele>
        <time>2017-04-11T13:37:49Z</time>
      </trkpt>
      <trkpt lat="49.40201" lon="1.17151">
        <ele>147</ele>
        <time>2017-04-11T13:38:04Z</time>
      </trkpt>
      <trkpt lat="49.40196" lon="1.17149">
        <ele>147</ele>
        <time>2017-04-11T13:38:04Z</time>
      </trkpt>
      <trkpt lat="49.40192" lon="1.17147">
        <ele>147</ele>
        <time>2017-04-11T13:38:04Z</time>
      </trkpt>
      <trkpt lat="49.40188" lon="1.17144">
        <ele>147</ele>
        <time>2017-04-11T13:38:04Z</time>
      </trkpt>
      <trkpt lat="49.40184" lon="1.17141">
        <ele>147</ele>
        <time>2017-04-11T13:38:20Z</time>
      </trkpt>
      <trkpt lat="49.4018" lon="1.17138">
        <ele>147</ele>
        <time>2017-04-11T13:38:20Z</time>
      </trkpt>
      <trkpt lat="49.40177" lon="1.17142">
        <ele>147</ele>
        <time>2017-04-11T13:38:20Z</time>
      </trkpt>
      <trkpt lat="49.40172" lon="1.17146">
        <ele>147</ele>
        <time>2017-04-11T13:38:20Z</time>
      </trkpt>
      <trkpt lat="49.40171" lon="1.17146">
        <ele>147</ele>
        <time>2017-04-11T13:38:36Z</time>
      </trkpt>
      <trkpt lat="49.40168" lon="1.17151">
        <ele>147</ele>
        <time>2017-04-11T13:38:36Z</time>
      </trkpt>
      <trkpt lat="49.40165" lon="1.17156">
        <ele>147</ele>
        <time>2017-04-11T13:38:36Z</time>
      </trkpt>
      <trkpt lat="49.40164" lon="1.17161">
        <ele>147</ele>
        <time>2017-04-11T13:38:36Z</time>
      </trkpt>
      <trkpt lat="49.40162" lon="1.17167">
        <ele>147</ele>
        <time>2017-04-11T13:38:51Z</time>
      </trkpt>
      <trkpt lat="49.40159" lon="1.17172">
        <ele>147</ele>
        <time>2017-04-11T13:38:51Z</time>
      </trkpt>
      <trkpt lat="49.40159" lon="1.17176">
        <ele>147</ele>
        <time>2017-04-11T13:38:51Z</time>
      </trkpt>
      <trkpt lat="49.40155" lon="1.17184">
        <ele>147</ele>
        <time>2017-04-11T13:38:51Z</time>
      </trkpt>
      <trkpt lat="49.40153" lon="1.1719">
        <ele>147</ele>
        <time>2017-04-11T13:39:07Z</time>
      </trkpt>
      <trkpt lat="49.4015" lon="1.17199">
        <ele>147</ele>
        <time>2017-04-11T13:39:08Z</time>
      </trkpt>
      <trkpt lat="49.40148" lon="1.17204">
        <ele>147</ele>
        <time>2017-04-11T13:39:08Z</time>
      </trkpt>
      <trkpt lat="49.40145" lon="1.17212">
        <ele>148</ele>
        <time>2017-04-11T13:39:08Z</time>
      </trkpt>
      <trkpt lat="49.40143" lon="1.17218">
        <ele>148</ele>
        <time>2017-04-11T13:39:23Z</time>
      </trkpt>
      <trkpt lat="49.40141" lon="1.17227">
        <ele>148</ele>
        <time>2017-04-11T13:39:24Z</time>
      </trkpt>
      <trkpt lat="49.40139" lon="1.17233">
        <ele>148</ele>
        <time>2017-04-11T13:39:24Z</time>
      </trkpt>
      <trkpt lat="49.40138" lon="1.17241">
        <ele>148</ele>
        <time>2017-04-11T13:39:24Z</time>
      </trkpt>
      <trkpt lat="49.40135" lon="1.17252">
        <ele>148</ele>
        <time>2017-04-11T13:39:40Z</time>
      </trkpt>
      <trkpt lat="49.40134" lon="1.17259">
        <ele>148</ele>
        <time>2017-04-11T13:39:40Z</time>
      </trkpt>
      <trkpt lat="49.40132" lon="1.17267">
        <ele>148</ele>
        <time>2017-04-11T13:39:40Z</time>
      </trkpt>
      <trkpt lat="49.40129" lon="1.17276">
        <ele>148</ele>
        <time>2017-04-11T13:39:40Z</time>
      </trkpt>
      <trkpt lat="49.40129" lon="1.17283">
        <ele>148</ele>
        <time>2017-04-11T13:39:56Z</time>
      </trkpt>
      <trkpt lat="49.40128" lon="1.17289">
        <ele>148</ele>
        <time>2017-04-11T13:39:56Z</time>
      </trkpt>
      <trkpt lat="49.40128" lon="1.17296">
        <ele>149</ele>
        <time>2017-04-11T13:39:56Z</time>
      </trkpt>
      <trkpt lat="49.40127" lon="1.17303">
        <ele>149</ele>
        <time>2017-04-11T13:39:56Z</time>
      </trkpt>
      <trkpt lat="49.40126" lon="1.17312">
        <ele>149</ele>
        <time>2017-04-11T13:40:12Z</time>
      </trkpt>
      <trkpt lat="49.40125" lon="1.17321">
        <ele>149</ele>
        <time>2017-04-11T13:40:12Z</time>
      </trkpt>
      <trkpt lat="49.40125" lon="1.17328">
        <ele>147</ele>
        <time>2017-04-11T13:40:12Z</time>
      </trkpt>
      <trkpt lat="49.40124" lon="1.17336">
        <ele>147</ele>
        <time>2017-04-11T13:40:12Z</time>
      </trkpt>
      <trkpt lat="49.40122" lon="1.17344">
        <ele>147</ele>
        <time>2017-04-11T13:40:28Z</time>
      </trkpt>
      <trkpt lat="49.40123" lon="1.17348">
        <ele>147</ele>
        <time>2017-04-11T13:40:28Z</time>
      </trkpt>
      <trkpt lat="49.40122" lon="1.17355">
        <ele>147</ele>
        <time>2017-04-11T13:40:28Z</time>
      </trkpt>
      <trkpt lat="49.40122" lon="1.17362">
        <ele>147</ele>
        <time>2017-04-11T13:40:28Z</time>
      </trkpt>
      <trkpt lat="49.40121" lon="1.17369">
        <ele>147</ele>
        <time>2017-04-11T13:40:45Z</time>
      </trkpt>
      <trkpt lat="49.40121" lon="1.17374">
        <ele>147</ele>
        <time>2017-04-11T13:40:45Z</time>
      </trkpt>
      <trkpt lat="49.4012" lon="1.17383">
        <ele>148</ele>
        <time>2017-04-11T13:40:45Z</time>
      </trkpt>
      <trkpt lat="49.40119" lon="1.17388">
        <ele>148</ele>
        <time>2017-04-11T13:40:45Z</time>
      </trkpt>
      <trkpt lat="49.40118" lon="1.17394">
        <ele>148</ele>
        <time>2017-04-11T13:41:00Z</time>
      </trkpt>
      <trkpt lat="49.40117" lon="1.174">
        <ele>148</ele>
        <time>2017-04-11T13:41:01Z</time>
      </trkpt>
      <trkpt lat="49.40115" lon="1.17408">
        <ele>148</ele>
        <time>2017-04-11T13:41:01Z</time>
      </trkpt>
      <trkpt lat="49.40113" lon="1.17416">
        <ele>148</ele>
        <time>2017-04-11T13:41:01Z</time>
      </trkpt>
      <trkpt lat="49.40113" lon="1.17422">
        <ele>148</ele>
        <time>2017-04-11T13:41:15Z</time>
      </trkpt>
      <trkpt lat="49.40112" lon="1.17427">
        <ele>148</ele>
        <time>2017-04-11T13:41:15Z</time>
      </trkpt>
      <trkpt lat="49.40107" lon="1.17437">
        <ele>148</ele>
        <time>2017-04-11T13:41:15Z</time>
      </trkpt>
      <trkpt lat="49.40104" lon="1.17444">
        <ele>148</ele>
        <time>2017-04-11T13:41:15Z</time>
      </trkpt>
      <trkpt lat="49.40102" lon="1.1745">
        <ele>148</ele>
        <time>2017-04-11T13:41:32Z</time>
      </trkpt>
      <trkpt lat="49.40098" lon="1.17458">
        <ele>148</ele>
        <time>2017-04-11T13:41:32Z</time>
      </trkpt>
      <trkpt lat="49.40093" lon="1.17466">
        <ele>150</ele>
        <time>2017-04-11T13:41:32Z</time>
      </trkpt>
      <trkpt lat="49.40091" lon="1.1747">
        <ele>150</ele>
        <time>2017-04-11T13:41:32Z</time>
      </trkpt>
      <trkpt lat="49.40088" lon="1.17476">
        <ele>150</ele>
        <time>2017-04-11T13:41:48Z</time>
      </trkpt>
      <trkpt lat="49.40085" lon="1.17481">
        <ele>150</ele>
        <time>2017-04-11T13:41:48Z</time>
      </trkpt>
      <trkpt lat="49.40082" lon="1.17486">
        <ele>150</ele>
        <time>2017-04-11T13:41:48Z</time>
      </trkpt>
      <trkpt lat="49.40079" lon="1.17494">
        <ele>150</ele>
        <time>2017-04-11T13:41:48Z</time>
      </trkpt>
      <trkpt lat="49.40075" lon="1.17499">
        <ele>150</ele>
        <time>2017-04-11T13:42:03Z</time>
      </trkpt>
      <trkpt lat="49.40071" lon="1.17506">
        <ele>150</ele>
        <time>2017-04-11T13:42:03Z</time>
      </trkpt>
      <trkpt lat="49.40068" lon="1.17511">
        <ele>150</ele>
        <time>2017-04-11T13:42:03Z</time>
      </trkpt>
      <trkpt lat="49.40067" lon="1.17512">
        <ele>150</ele>
        <time>2017-04-11T13:42:03Z</time>
      </trkpt>
      <trkpt lat="49.40064" lon="1.17517">
        <ele>150</ele>
        <time>2017-04-11T13:42:20Z</time>
      </trkpt>
      <trkpt lat="49.4006" lon="1.17525">
        <ele>150</ele>
        <time>2017-04-11T13:42:20Z</time>
      </trkpt>
      <trkpt lat="49.40057" lon="1.17531">
        <ele>150</ele>
        <time>2017-04-11T13:42:20Z</time>
      </trkpt>
      <trkpt lat="49.40054" lon="1.17538">
        <ele>150</ele>
        <time>2017-04-11T13:42:20Z</time>
      </trkpt>
      <trkpt lat="49.40052" lon="1.17543">
        <ele>151</ele>
        <time>2017-04-11T13:42:39Z</time>
      </trkpt>
      <trkpt lat="49.40051" lon="1.17547">
        <ele>151</ele>
        <time>2017-04-11T13:42:39Z</time>
      </trkpt>
      <trkpt lat="49.40051" lon="1.17548">
        <ele>151</ele>
        <time>2017-04-11T13:42:39Z</time>
      </trkpt>
      <trkpt lat="49.40049" lon="1.1755">
        <ele>151</ele>
        <time>2017-04-11T13:42:39Z</time>
      </trkpt>
      <trkpt lat="49.40046" lon="1.17555">
        <ele>151</ele>
        <time>2017-04-11T13:42:39Z</time>
      </trkpt>
      <trkpt lat="49.40043" lon="1.17563">
        <ele>151</ele>
        <time>2017-04-11T13:42:55Z</time>
      </trkpt>
      <trkpt lat="49.4004" lon="1.17572">
        <ele>148</ele>
        <time>2017-04-11T13:42:56Z</time>
      </trkpt>
      <trkpt lat="49.40037" lon="1.17582">
        <ele>148</ele>
        <time>2017-04-11T13:42:56Z</time>
      </trkpt>
      <trkpt lat="49.40036" lon="1.17587">
        <ele>148</ele>
        <time>2017-04-11T13:42:56Z</time>
      </trkpt>
      <trkpt lat="49.40036" lon="1.17589">
        <ele>148</ele>
        <time>2017-04-11T13:43:12Z</time>
      </trkpt>
      <trkpt lat="49.40034" lon="1.17595">
        <ele>148</ele>
        <time>2017-04-11T13:43:12Z</time>
      </trkpt>
      <trkpt lat="49.40029" lon="1.17603">
        <ele>148</ele>
        <time>2017-04-11T13:43:12Z</time>
      </trkpt>
      <trkpt lat="49.40027" lon="1.17611">
        <ele>148</ele>
        <time>2017-04-11T13:43:12Z</time>
      </trkpt>
      <trkpt lat="49.40024" lon="1.17615">
        <ele>148</ele>
        <time>2017-04-11T13:43:27Z</time>
      </trkpt>
      <trkpt lat="49.40022" lon="1.17623">
        <ele>148</ele>
        <time>2017-04-11T13:43:27Z</time>
      </trkpt>
      <trkpt lat="49.40018" lon="1.1763">
        <ele>149</ele>
        <time>2017-04-11T13:43:27Z</time>
      </trkpt>
      <trkpt lat="49.40016" lon="1.17634">
        <ele>149</ele>
        <time>2017-04-11T13:43:27Z</time>
      </trkpt>
      <trkpt lat="49.40013" lon="1.1764">
        <ele>149</ele>
        <time>2017-04-11T13:43:43Z</time>
      </trkpt>
      <trkpt lat="49.40011" lon="1.17648">
        <ele>149</ele>
        <time>2017-04-11T13:43:44Z</time>
      </trkpt>
      <trkpt lat="49.40009" lon="1.17653">
        <ele>149</ele>
        <time>2017-04-11T13:43:44Z</time>
      </trkpt>
      <trkpt lat="49.40005" lon="1.17661">
        <ele>149</ele>
        <time>2017-04-11T13:43:44Z</time>
      </trkpt>
      <trkpt lat="49.40003" lon="1.17669">
        <ele>149</ele>
        <time>2017-04-11T13:43:59Z</time>
      </trkpt>
      <trkpt lat="49.40001" lon="1.17673">
        <ele>149</ele>
        <time>2017-04-11T13:43:59Z</time>
      </trkpt>
      <trkpt lat="49.39996" lon="1.17682">
        <ele>149</ele>
        <time>2017-04-11T13:43:59Z</time>
      </trkpt>
      <trkpt lat="49.39993" lon="1.17688">
        <ele>149</ele>
        <time>2017-04-11T13:43:59Z</time>
      </trkpt>
      <trkpt lat="49.39988" lon="1.17699">
        <ele>149</ele>
        <time>2017-04-11T13:44:27Z</time>
      </trkpt>
      <trkpt lat="49.39982" lon="1.17695">
        <ele>149</ele>
        <time>2017-04-11T13:44:27Z</time>
      </trkpt>
      <trkpt lat="49.39978" lon="1.17693">
        <ele>149</ele>
        <time>2017-04-11T13:44:27Z</time>
      </trkpt>
      <trkpt lat="49.39972" lon="1.17691">
        <ele>149</ele>
        <time>2017-04-11T13:44:27Z</time>
      </trkpt>
      <trkpt lat="49.39967" lon="1.17688">
        <ele>149</ele>
        <time>2017-04-11T13:44:27Z</time>
      </trkpt>
      <trkpt lat="49.39963" lon="1.17684">
        <ele>149</ele>
        <time>2017-04-11T13:44:43Z</time>
      </trkpt>
      <trkpt lat="49.39957" lon="1.17678">
        <ele>147</ele>
        <time>2017-04-11T13:44:43Z</time>
      </trkpt>
      <trkpt lat="49.39955" lon="1.17675">
        <ele>147</ele>
        <time>2017-04-11T13:44:43Z</time>
      </trkpt>
      <trkpt lat="49.3995" lon="1.17672">
        <ele>147</ele>
        <time>2017-04-11T13:44:43Z</time>
      </trkpt>
      <trkpt lat="49.39943" lon="1.1767">
        <ele>147</ele>
        <time>2017-04-11T13:44:59Z</time>
      </trkpt>
      <trkpt lat="49.3994" lon="1.17671">
        <ele>147</ele>
        <time>2017-04-11T13:45:00Z</time>
      </trkpt>
      <trkpt lat="49.39935" lon="1.17678">
        <ele>147</ele>
        <time>2017-04-11T13:45:00Z</time>
      </trkpt>
      <trkpt lat="49.39933" lon="1.1768">
        <ele>147</ele>
        <time>2017-04-11T13:45:00Z</time>
      </trkpt>
      <trkpt lat="49.39928" lon="1.1769">
        <ele>147</ele>
        <time>2017-04-11T13:45:15Z</time>
      </trkpt>
      <trkpt lat="49.39927" lon="1.17691">
        <ele>147</ele>
        <time>2017-04-11T13:45:16Z</time>
      </trkpt>
      <trkpt lat="49.39922" lon="1.17699">
        <ele>147</ele>
        <time>2017-04-11T13:45:16Z</time>
      </trkpt>
      <trkpt lat="49.39921" lon="1.177">
        <ele>147</ele>
        <time>2017-04-11T13:45:16Z</time>
      </trkpt>
      <trkpt lat="49.3992" lon="1.17704">
        <ele>147</ele>
        <time>2017-04-11T13:45:32Z</time>
      </trkpt>
      <trkpt lat="49.39916" lon="1.17712">
        <ele>149</ele>
        <time>2017-04-11T13:45:32Z</time>
      </trkpt>
      <trkpt lat="49.39913" lon="1.17719">
        <ele>149</ele>
        <time>2017-04-11T13:45:32Z</time>
      </trkpt>
      <trkpt lat="49.39912" lon="1.17722">
        <ele>149</ele>
        <time>2017-04-11T13:45:32Z</time>
      </trkpt>
      <trkpt lat="49.3991" lon="1.17727">
        <ele>149</ele>
        <time>2017-04-11T13:45:48Z</time>
      </trkpt>
      <trkpt lat="49.39906" lon="1.17732">
        <ele>149</ele>
        <time>2017-04-11T13:45:48Z</time>
      </trkpt>
      <trkpt lat="49.39903" lon="1.17739">
        <ele>149</ele>
        <time>2017-04-11T13:45:48Z</time>
      </trkpt>
      <trkpt lat="49.399" lon="1.17743">
        <ele>149</ele>
        <time>2017-04-11T13:45:48Z</time>
      </trkpt>
      <trkpt lat="49.39895" lon="1.17754">
        <ele>149</ele>
        <time>2017-04-11T13:46:03Z</time>
      </trkpt>
      <trkpt lat="49.39893" lon="1.1776">
        <ele>149</ele>
        <time>2017-04-11T13:46:03Z</time>
      </trkpt>
      <trkpt lat="49.39889" lon="1.17766">
        <ele>149</ele>
        <time>2017-04-11T13:46:03Z</time>
      </trkpt>
      <trkpt lat="49.39888" lon="1.17768">
        <ele>149</ele>
        <time>2017-04-11T13:46:03Z</time>
      </trkpt>
      <trkpt lat="49.39885" lon="1.17773">
        <ele>149</ele>
        <time>2017-04-11T13:46:19Z</time>
      </trkpt>
      <trkpt lat="49.39883" lon="1.17775">
        <ele>149</ele>
        <time>2017-04-11T13:46:19Z</time>
      </trkpt>
      <trkpt lat="49.39881" lon="1.17786">
        <ele>149</ele>
        <time>2017-04-11T13:46:19Z</time>
      </trkpt>
      <trkpt lat="49.3988" lon="1.17788">
        <ele>149</ele>
        <time>2017-04-11T13:46:19Z</time>
      </trkpt>
      <trkpt lat="49.39875" lon="1.17798">
        <ele>149</ele>
        <time>2017-04-11T13:46:35Z</time>
      </trkpt>
      <trkpt lat="49.39873" lon="1.17802">
        <ele>149</ele>
        <time>2017-04-11T13:46:35Z</time>
      </trkpt>
      <trkpt lat="49.3987" lon="1.17807">
        <ele>149</ele>
        <time>2017-04-11T13:46:35Z</time>
      </trkpt>
      <trkpt lat="49.39867" lon="1.17811">
        <ele>149</ele>
        <time>2017-04-11T13:46:35Z</time>
      </trkpt>
      <trkpt lat="49.39864" lon="1.17816">
        <ele>149</ele>
        <time>2017-04-11T13:46:53Z</time>
      </trkpt>
      <trkpt lat="49.39861" lon="1.17818">
        <ele>149</ele>
        <time>2017-04-11T13:46:53Z</time>
      </trkpt>
      <trkpt lat="49.39855" lon="1.17822">
        <ele>149</ele>
        <time>2017-04-11T13:46:53Z</time>
      </trkpt>
      <trkpt lat="49.39854" lon="1.17821">
        <ele>149</ele>
        <time>2017-04-11T13:46:53Z</time>
      </trkpt>
      <trkpt lat="49.39851" lon="1.17815">
        <ele>149</ele>
        <time>2017-04-11T13:47:07Z</time>
      </trkpt>
      <trkpt lat="49.39848" lon="1.17811">
        <ele>149</ele>
        <time>2017-04-11T13:47:07Z</time>
      </trkpt>
      <trkpt lat="49.39844" lon="1.17805">
        <ele>149</ele>
        <time>2017-04-11T13:47:08Z</time>
      </trkpt>
      <trkpt lat="49.39842" lon="1.17803">
        <ele>149</ele>
        <time>2017-04-11T13:47:08Z</time>
      </trkpt>
      <trkpt lat="49.39836" lon="1.17798">
        <ele>149</ele>
        <time>2017-04-11T13:47:24Z</time>
      </trkpt>
      <trkpt lat="49.39833" lon="1.17795">
        <ele>149</ele>
        <time>2017-04-11T13:47:24Z</time>
      </trkpt>
      <trkpt lat="49.39829" lon="1.1779">
        <ele>147</ele>
        <time>2017-04-11T13:47:25Z</time>
      </trkpt>
      <trkpt lat="49.39827" lon="1.17789">
        <ele>147</ele>
        <time>2017-04-11T13:47:25Z</time>
      </trkpt>
      <trkpt lat="49.39821" lon="1.17783">
        <ele>147</ele>
        <time>2017-04-11T13:47:39Z</time>
      </trkpt>
      <trkpt lat="49.39816" lon="1.17781">
        <ele>147</ele>
        <time>2017-04-11T13:47:39Z</time>
      </trkpt>
      <trkpt lat="49.39809" lon="1.1778">
        <ele>147</ele>
        <time>2017-04-11T13:47:39Z</time>
      </trkpt>
      <trkpt lat="49.39803" lon="1.17779">
        <ele>147</ele>
        <time>2017-04-11T13:47:39Z</time>
      </trkpt>
      <trkpt lat="49.39798" lon="1.1778">
        <ele>147</ele>
        <time>2017-04-11T13:47:55Z</time>
      </trkpt>
      <trkpt lat="49.39793" lon="1.17778">
        <ele>147</ele>
        <time>2017-04-11T13:47:55Z</time>
      </trkpt>
      <trkpt lat="49.39789" lon="1.17778">
        <ele>149</ele>
        <time>2017-04-11T13:47:55Z</time>
      </trkpt>
      <trkpt lat="49.39786" lon="1.17777">
        <ele>149</ele>
        <time>2017-04-11T13:47:55Z</time>
      </trkpt>
      <trkpt lat="49.39785" lon="1.17776">
        <ele>149</ele>
        <time>2017-04-11T13:48:47Z</time>
      </trkpt>
      <trkpt lat="49.39785" lon="1.17776">
        <ele>149</ele>
        <time>2017-04-11T13:48:48Z</time>
      </trkpt>
      <trkpt lat="49.39782" lon="1.17773">
        <ele>149</ele>
        <time>2017-04-11T13:48:48Z</time>
      </trkpt>
      <trkpt lat="49.3978" lon="1.17765">
        <ele>149</ele>
        <time>2017-04-11T13:48:48Z</time>
      </trkpt>
      <trkpt lat="49.39779" lon="1.17759">
        <ele>149</ele>
        <time>2017-04-11T13:48:48Z</time>
      </trkpt>
      <trkpt lat="49.39779" lon="1.17751">
        <ele>149</ele>
        <time>2017-04-11T13:49:03Z</time>
      </trkpt>
      <trkpt lat="49.39776" lon="1.17746">
        <ele>149</ele>
        <time>2017-04-11T13:49:03Z</time>
      </trkpt>
      <trkpt lat="49.39771" lon="1.1774">
        <ele>149</ele>
        <time>2017-04-11T13:49:03Z</time>
      </trkpt>
      <trkpt lat="49.39768" lon="1.17736">
        <ele>149</ele>
        <time>2017-04-11T13:49:03Z</time>
      </trkpt>
      <trkpt lat="49.39763" lon="1.17732">
        <ele>149</ele>
        <time>2017-04-11T13:49:19Z</time>
      </trkpt>
      <trkpt lat="49.39758" lon="1.1773">
        <ele>149</ele>
        <time>2017-04-11T13:49:19Z</time>
      </trkpt>
      <trkpt lat="49.39755" lon="1.17727">
        <ele>149</ele>
        <time>2017-04-11T13:49:19Z</time>
      </trkpt>
      <trkpt lat="49.3975" lon="1.17723">
        <ele>149</ele>
        <time>2017-04-11T13:49:19Z</time>
      </trkpt>
      <trkpt lat="49.39746" lon="1.17718">
        <ele>149</ele>
        <time>2017-04-11T13:49:39Z</time>
      </trkpt>
      <trkpt lat="49.39741" lon="1.17714">
        <ele>149</ele>
        <time>2017-04-11T13:49:39Z</time>
      </trkpt>
      <trkpt lat="49.39734" lon="1.17709">
        <ele>149</ele>
        <time>2017-04-11T13:49:39Z</time>
      </trkpt>
      <trkpt lat="49.39726" lon="1.17703">
        <ele>149</ele>
        <time>2017-04-11T13:49:39Z</time>
      </trkpt>
      <trkpt lat="49.39721" lon="1.177">
        <ele>149</ele>
        <time>2017-04-11T13:49:55Z</time>
      </trkpt>
      <trkpt lat="49.3972" lon="1.17698">
        <ele>149</ele>
        <time>2017-04-11T13:49:55Z</time>
      </trkpt>
      <trkpt lat="49.39715" lon="1.17693">
        <ele>149</ele>
        <time>2017-04-11T13:49:55Z</time>
      </trkpt>
      <trkpt lat="49.3971" lon="1.17689">
        <ele>149</ele>
        <time>2017-04-11T13:49:55Z</time>
      </trkpt>
      <trkpt lat="49.39707" lon="1.17687">
        <ele>149</ele>
        <time>2017-04-11T13:50:15Z</time>
      </trkpt>
      <trkpt lat="49.39701" lon="1.17689">
        <ele>149</ele>
        <time>2017-04-11T13:50:15Z</time>
      </trkpt>
      <trkpt lat="49.39699" lon="1.17689">
        <ele>149</ele>
        <time>2017-04-11T13:50:15Z</time>
      </trkpt>
      <trkpt lat="49.39698" lon="1.17686">
        <ele>149</ele>
        <time>2017-04-11T13:50:16Z</time>
      </trkpt>
      <trkpt lat="49.39695" lon="1.1768">
        <ele>149</ele>
        <time>2017-04-11T13:50:16Z</time>
      </trkpt>
      <trkpt lat="49.39689" lon="1.17674">
        <ele>149</ele>
        <time>2017-04-11T13:50:31Z</time>
      </trkpt>
      <trkpt lat="49.39684" lon="1.17669">
        <ele>149</ele>
        <time>2017-04-11T13:50:31Z</time>
      </trkpt>
      <trkpt lat="49.39679" lon="1.17665">
        <ele>149</ele>
        <time>2017-04-11T13:50:31Z</time>
      </trkpt>
      <trkpt lat="49.39675" lon="1.17661">
        <ele>149</ele>
        <time>2017-04-11T13:50:31Z</time>
      </trkpt>
      <trkpt lat="49.3967" lon="1.17658">
        <ele>149</ele>
        <time>2017-04-11T13:50:47Z</time>
      </trkpt>
      <trkpt lat="49.39666" lon="1.17654">
        <ele>149</ele>
        <time>2017-04-11T13:50:47Z</time>
      </trkpt>
      <trkpt lat="49.3966" lon="1.1765">
        <ele>149</ele>
        <time>2017-04-11T13:50:47Z</time>
      </trkpt>
      <trkpt lat="49.39657" lon="1.17647">
        <ele>149</ele>
        <time>2017-04-11T13:50:47Z</time>
      </trkpt>
      <trkpt lat="49.3965" lon="1.17643">
        <ele>149</ele>
        <time>2017-04-11T13:51:03Z</time>
      </trkpt>
      <trkpt lat="49.39646" lon="1.17639">
        <ele>149</ele>
        <time>2017-04-11T13:51:03Z</time>
      </trkpt>
      <trkpt lat="49.39642" lon="1.17635">
        <ele>149</ele>
        <time>2017-04-11T13:51:03Z</time>
      </trkpt>
      <trkpt lat="49.39637" lon="1.17632">
        <ele>149</ele>
        <time>2017-04-11T13:51:03Z</time>
      </trkpt>
      <trkpt lat="49.39632" lon="1.17628">
        <ele>149</ele>
        <time>2017-04-11T13:51:19Z</time>
      </trkpt>
      <trkpt lat="49.39629" lon="1.17625">
        <ele>148</ele>
        <time>2017-04-11T13:51:19Z</time>
      </trkpt>
      <trkpt lat="49.39623" lon="1.17621">
        <ele>146</ele>
        <time>2017-04-11T13:51:19Z</time>
      </trkpt>
      <trkpt lat="49.39619" lon="1.17619">
        <ele>146</ele>
        <time>2017-04-11T13:51:19Z</time>
      </trkpt>
      <trkpt lat="49.39615" lon="1.17616">
        <ele>146</ele>
        <time>2017-04-11T13:51:35Z</time>
      </trkpt>
      <trkpt lat="49.39608" lon="1.17614">
        <ele>146</ele>
        <time>2017-04-11T13:51:35Z</time>
      </trkpt>
      <trkpt lat="49.39604" lon="1.17616">
        <ele>146</ele>
        <time>2017-04-11T13:51:35Z</time>
      </trkpt>
      <trkpt lat="49.396" lon="1.17617">
        <ele>146</ele>
        <time>2017-04-11T13:51:35Z</time>
      </trkpt>
      <trkpt lat="49.39597" lon="1.17619">
        <ele>146</ele>
        <time>2017-04-11T13:51:51Z</time>
      </trkpt>
      <trkpt lat="49.39592" lon="1.1762">
        <ele>146</ele>
        <time>2017-04-11T13:51:51Z</time>
      </trkpt>
      <trkpt lat="49.39587" lon="1.17623">
        <ele>146</ele>
        <time>2017-04-11T13:51:51Z</time>
      </trkpt>
      <trkpt lat="49.39582" lon="1.17625">
        <ele>145</ele>
        <time>2017-04-11T13:51:51Z</time>
      </trkpt>
      <trkpt lat="49.39577" lon="1.1763">
        <ele>145</ele>
        <time>2017-04-11T13:52:07Z</time>
      </trkpt>
      <trkpt lat="49.39574" lon="1.17633">
        <ele>145</ele>
        <time>2017-04-11T13:52:07Z</time>
      </trkpt>
      <trkpt lat="49.39569" lon="1.17636">
        <ele>145</ele>
        <time>2017-04-11T13:52:07Z</time>
      </trkpt>
      <trkpt lat="49.39564" lon="1.1764">
        <ele>145</ele>
        <time>2017-04-11T13:52:07Z</time>
      </trkpt>
      <trkpt lat="49.39559" lon="1.17644">
        <ele>145</ele>
        <time>2017-04-11T13:52:23Z</time>
      </trkpt>
      <trkpt lat="49.39555" lon="1.17647">
        <ele>145</ele>
        <time>2017-04-11T13:52:23Z</time>
      </trkpt>
      <trkpt lat="49.3955" lon="1.17651">
        <ele>145</ele>
        <time>2017-04-11T13:52:23Z</time>
      </trkpt>
      <trkpt lat="49.39547" lon="1.17653">
        <ele>145</ele>
        <time>2017-04-11T13:52:23Z</time>
      </trkpt>
      <trkpt lat="49.39543" lon="1.17657">
        <ele>145</ele>
        <time>2017-04-11T13:52:39Z</time>
      </trkpt>
      <trkpt lat="49.3954" lon="1.17663">
        <ele>144</ele>
        <time>2017-04-11T13:52:40Z</time>
      </trkpt>
      <trkpt lat="49.39536" lon="1.17667">
        <ele>144</ele>
        <time>2017-04-11T13:52:40Z</time>
      </trkpt>
      <trkpt lat="49.39532" lon="1.1767">
        <ele>144</ele>
        <time>2017-04-11T13:52:40Z</time>
      </trkpt>
      <trkpt lat="49.39528" lon="1.17675">
        <ele>144</ele>
        <time>2017-04-11T13:52:55Z</time>
      </trkpt>
      <trkpt lat="49.39524" lon="1.17681">
        <ele>144</ele>
        <time>2017-04-11T13:52:55Z</time>
      </trkpt>
      <trkpt lat="49.39521" lon="1.17684">
        <ele>144</ele>
        <time>2017-04-11T13:52:56Z</time>
      </trkpt>
      <trkpt lat="49.39517" lon="1.17688">
        <ele>144</ele>
        <time>2017-04-11T13:52:56Z</time>
      </trkpt>
      <trkpt lat="49.39514" lon="1.1769">
        <ele>144</ele>
        <time>2017-04-11T13:53:11Z</time>
      </trkpt>
      <trkpt lat="49.39509" lon="1.17694">
        <ele>144</ele>
        <time>2017-04-11T13:53:11Z</time>
      </trkpt>
      <trkpt lat="49.39504" lon="1.17695">
        <ele>144</ele>
        <time>2017-04-11T13:53:11Z</time>
      </trkpt>
      <trkpt lat="49.39501" lon="1.17692">
        <ele>144</ele>
        <time>2017-04-11T13:53:11Z</time>
      </trkpt>
      <trkpt lat="49.39497" lon="1.17688">
        <ele>144</ele>
        <time>2017-04-11T13:53:28Z</time>
      </trkpt>
      <trkpt lat="49.39495" lon="1.17686">
        <ele>144</ele>
        <time>2017-04-11T13:53:28Z</time>
      </trkpt>
      <trkpt lat="49.39492" lon="1.17679">
        <ele>144</ele>
        <time>2017-04-11T13:53:28Z</time>
      </trkpt>
      <trkpt lat="49.39488" lon="1.17671">
        <ele>144</ele>
        <time>2017-04-11T13:53:28Z</time>
      </trkpt>
      <trkpt lat="49.39486" lon="1.17667">
        <ele>144</ele>
        <time>2017-04-11T13:53:44Z</time>
      </trkpt>
      <trkpt lat="49.3948" lon="1.17658">
        <ele>144</ele>
        <time>2017-04-11T13:53:44Z</time>
      </trkpt>
      <trkpt lat="49.39474" lon="1.17658">
        <ele>144</ele>
        <time>2017-04-11T13:53:44Z</time>
      </trkpt>
      <trkpt lat="49.39468" lon="1.17654">
        <ele>144</ele>
        <time>2017-04-11T13:53:44Z</time>
      </trkpt>
      <trkpt lat="49.39462" lon="1.17652">
        <ele>144</ele>
        <time>2017-04-11T13:53:59Z</time>
      </trkpt>
      <trkpt lat="49.39458" lon="1.1765">
        <ele>142</ele>
        <time>2017-04-11T13:54:00Z</time>
      </trkpt>
      <trkpt lat="49.39453" lon="1.17647">
        <ele>142</ele>
        <time>2017-04-11T13:54:00Z</time>
      </trkpt>
      <trkpt lat="49.39449" lon="1.17646">
        <ele>142</ele>
        <time>2017-04-11T13:54:00Z</time>
      </trkpt>
      <trkpt lat="49.39445" lon="1.17645">
        <ele>142</ele>
        <time>2017-04-11T13:54:15Z</time>
      </trkpt>
      <trkpt lat="49.39438" lon="1.17643">
        <ele>142</ele>
        <time>2017-04-11T13:54:15Z</time>
      </trkpt>
      <trkpt lat="49.39436" lon="1.17642">
        <ele>142</ele>
        <time>2017-04-11T13:54:15Z</time>
      </trkpt>
      <trkpt lat="49.39433" lon="1.1764">
        <ele>142</ele>
        <time>2017-04-11T13:54:15Z</time>
      </trkpt>
      <trkpt lat="49.39427" lon="1.17638">
        <ele>142</ele>
        <time>2017-04-11T13:54:32Z</time>
      </trkpt>
      <trkpt lat="49.39425" lon="1.17638">
        <ele>142</ele>
        <time>2017-04-11T13:54:33Z</time>
      </trkpt>
      <trkpt lat="49.39419" lon="1.17639">
        <ele>142</ele>
        <time>2017-04-11T13:54:33Z</time>
      </trkpt>
      <trkpt lat="49.39414" lon="1.1764">
        <ele>142</ele>
        <time>2017-04-11T13:54:33Z</time>
      </trkpt>
      <trkpt lat="49.39409" lon="1.17642">
        <ele>142</ele>
        <time>2017-04-11T13:54:48Z</time>
      </trkpt>
      <trkpt lat="49.39406" lon="1.17644">
        <ele>142</ele>
        <time>2017-04-11T13:54:48Z</time>
      </trkpt>
      <trkpt lat="49.39401" lon="1.17646">
        <ele>142</ele>
        <time>2017-04-11T13:54:48Z</time>
      </trkpt>
      <trkpt lat="49.39399" lon="1.17647">
        <ele>142</ele>
        <time>2017-04-11T13:54:48Z</time>
      </trkpt>
      <trkpt lat="49.39394" lon="1.17651">
        <ele>142</ele>
        <time>2017-04-11T13:55:03Z</time>
      </trkpt>
      <trkpt lat="49.39391" lon="1.17654">
        <ele>142</ele>
        <time>2017-04-11T13:55:03Z</time>
      </trkpt>
      <trkpt lat="49.39386" lon="1.17657">
        <ele>142</ele>
        <time>2017-04-11T13:55:04Z</time>
      </trkpt>
      <trkpt lat="49.39383" lon="1.17659">
        <ele>142</ele>
        <time>2017-04-11T13:55:04Z</time>
      </trkpt>
      <trkpt lat="49.3938" lon="1.17663">
        <ele>142</ele>
        <time>2017-04-11T13:55:20Z</time>
      </trkpt>
      <trkpt lat="49.39376" lon="1.17665">
        <ele>142</ele>
        <time>2017-04-11T13:55:20Z</time>
      </trkpt>
      <trkpt lat="49.39371" lon="1.17669">
        <ele>142</ele>
        <time>2017-04-11T13:55:20Z</time>
      </trkpt>
      <trkpt lat="49.39366" lon="1.17671">
        <ele>142</ele>
        <time>2017-04-11T13:55:20Z</time>
      </trkpt>
      <trkpt lat="49.39363" lon="1.17673">
        <ele>142</ele>
        <time>2017-04-11T13:55:35Z</time>
      </trkpt>
      <trkpt lat="49.39359" lon="1.17678">
        <ele>142</ele>
        <time>2017-04-11T13:55:35Z</time>
      </trkpt>
      <trkpt lat="49.39355" lon="1.17683">
        <ele>142</ele>
        <time>2017-04-11T13:55:35Z</time>
      </trkpt>
      <trkpt lat="49.39353" lon="1.17683">
        <ele>142</ele>
        <time>2017-04-11T13:55:35Z</time>
      </trkpt>
      <trkpt lat="49.39352" lon="1.17684">
        <ele>142</ele>
        <time>2017-04-11T13:56:11Z</time>
      </trkpt>
      <trkpt lat="49.39355" lon="1.17682">
        <ele>142</ele>
        <time>2017-04-11T13:56:11Z</time>
      </trkpt>
      <trkpt lat="49.39359" lon="1.17678">
        <ele>142</ele>
        <time>2017-04-11T13:56:11Z</time>
      </trkpt>
      <trkpt lat="49.39363" lon="1.17675">
        <ele>142</ele>
        <time>2017-04-11T13:56:11Z</time>
      </trkpt>
      <trkpt lat="49.39363" lon="1.17674">
        <ele>142</ele>
        <time>2017-04-11T13:56:11Z</time>
      </trkpt>
      <trkpt lat="49.39368" lon="1.17668">
        <ele>142</ele>
        <time>2017-04-11T13:56:27Z</time>
      </trkpt>
      <trkpt lat="49.3937" lon="1.17663">
        <ele>142</ele>
        <time>2017-04-11T13:56:27Z</time>
      </trkpt>
      <trkpt lat="49.39375" lon="1.1766">
        <ele>142</ele>
        <time>2017-04-11T13:56:27Z</time>
      </trkpt>
      <trkpt lat="49.39379" lon="1.17656">
        <ele>142</ele>
        <time>2017-04-11T13:56:27Z</time>
      </trkpt>
      <trkpt lat="49.39385" lon="1.17651">
        <ele>142</ele>
        <time>2017-04-11T13:56:43Z</time>
      </trkpt>
      <trkpt lat="49.39389" lon="1.1765">
        <ele>142</ele>
        <time>2017-04-11T13:56:43Z</time>
      </trkpt>
      <trkpt lat="49.39393" lon="1.17648">
        <ele>142</ele>
        <time>2017-04-11T13:56:43Z</time>
      </trkpt>
      <trkpt lat="49.39398" lon="1.17647">
        <ele>142</ele>
        <time>2017-04-11T13:56:43Z</time>
      </trkpt>
      <trkpt lat="49.39402" lon="1.17644">
        <ele>142</ele>
        <time>2017-04-11T13:56:59Z</time>
      </trkpt>
      <trkpt lat="49.39406" lon="1.17642">
        <ele>142</ele>
        <time>2017-04-11T13:56:59Z</time>
      </trkpt>
      <trkpt lat="49.39412" lon="1.1764">
        <ele>142</ele>
        <time>2017-04-11T13:56:59Z</time>
      </trkpt>
      <trkpt lat="49.39416" lon="1.17639">
        <ele>142</ele>
        <time>2017-04-11T13:56:59Z</time>
      </trkpt>
      <trkpt lat="49.39418" lon="1.17639">
        <ele>142</ele>
        <time>2017-04-11T13:57:19Z</time>
      </trkpt>
      <trkpt lat="49.39418" lon="1.17638">
        <ele>142</ele>
        <time>2017-04-11T13:57:19Z</time>
      </trkpt>
      <trkpt lat="49.39419" lon="1.17632">
        <ele>142</ele>
        <time>2017-04-11T13:57:19Z</time>
      </trkpt>
      <trkpt lat="49.39417" lon="1.17626">
        <ele>142</ele>
        <time>2017-04-11T13:57:19Z</time>
      </trkpt>
      <trkpt lat="49.39416" lon="1.17621">
        <ele>140</ele>
        <time>2017-04-11T13:57:19Z</time>
      </trkpt>
      <trkpt lat="49.39413" lon="1.17613">
        <ele>140</ele>
        <time>2017-04-11T13:57:43Z</time>
      </trkpt>
      <trkpt lat="49.39413" lon="1.17613">
        <ele>140</ele>
        <time>2017-04-11T13:57:43Z</time>
      </trkpt>
      <trkpt lat="49.39413" lon="1.1761">
        <ele>140</ele>
        <time>2017-04-11T13:57:44Z</time>
      </trkpt>
      <trkpt lat="49.39411" lon="1.17605">
        <ele>140</ele>
        <time>2017-04-11T13:57:44Z</time>
      </trkpt>
      <trkpt lat="49.3941" lon="1.17601">
        <ele>140</ele>
        <time>2017-04-11T13:57:44Z</time>
      </trkpt>
      <trkpt lat="49.39407" lon="1.17596">
        <ele>140</ele>
        <time>2017-04-11T13:57:59Z</time>
      </trkpt>
      <trkpt lat="49.39405" lon="1.17589">
        <ele>140</ele>
        <time>2017-04-11T13:57:59Z</time>
      </trkpt>
      <trkpt lat="49.39403" lon="1.17582">
        <ele>140</ele>
        <time>2017-04-11T13:57:59Z</time>
      </trkpt>
      <trkpt lat="49.39401" lon="1.17578">
        <ele>140</ele>
        <time>2017-04-11T13:57:59Z</time>
      </trkpt>
      <trkpt lat="49.39399" lon="1.17572">
        <ele>140</ele>
        <time>2017-04-11T13:58:15Z</time>
      </trkpt>
      <trkpt lat="49.39397" lon="1.17566">
        <ele>140</ele>
        <time>2017-04-11T13:58:15Z</time>
      </trkpt>
      <trkpt lat="49.39395" lon="1.1756">
        <ele>140</ele>
        <time>2017-04-11T13:58:15Z</time>
      </trkpt>
      <trkpt lat="49.39393" lon="1.17556">
        <ele>140</ele>
        <time>2017-04-11T13:58:15Z</time>
      </trkpt>
      <trkpt lat="49.3939" lon="1.17548">
        <ele>140</ele>
        <time>2017-04-11T13:58:32Z</time>
      </trkpt>
      <trkpt lat="49.39388" lon="1.17544">
        <ele>140</ele>
        <time>2017-04-11T13:58:32Z</time>
      </trkpt>
      <trkpt lat="49.39386" lon="1.17537">
        <ele>139</ele>
        <time>2017-04-11T13:58:32Z</time>
      </trkpt>
      <trkpt lat="49.39384" lon="1.17531">
        <ele>139</ele>
        <time>2017-04-11T13:58:32Z</time>
      </trkpt>
      <trkpt lat="49.39382" lon="1.17526">
        <ele>139</ele>
        <time>2017-04-11T13:58:47Z</time>
      </trkpt>
      <trkpt lat="49.3938" lon="1.17521">
        <ele>139</ele>
        <time>2017-04-11T13:58:47Z</time>
      </trkpt>
      <trkpt lat="49.39379" lon="1.17517">
        <ele>139</ele>
        <time>2017-04-11T13:58:48Z</time>
      </trkpt>
      <trkpt lat="49.39376" lon="1.17511">
        <ele>139</ele>
        <time>2017-04-11T13:58:48Z</time>
      </trkpt>
      <trkpt lat="49.39373" lon="1.17507">
        <ele>139</ele>
        <time>2017-04-11T13:59:03Z</time>
      </trkpt>
      <trkpt lat="49.39369" lon="1.17502">
        <ele>139</ele>
        <time>2017-04-11T13:59:03Z</time>
      </trkpt>
      <trkpt lat="49.39365" lon="1.17498">
        <ele>139</ele>
        <time>2017-04-11T13:59:03Z</time>
      </trkpt>
      <trkpt lat="49.39362" lon="1.17496">
        <ele>139</ele>
        <time>2017-04-11T13:59:04Z</time>
      </trkpt>
      <trkpt lat="49.39349" lon="1.17485">
        <ele>139</ele>
        <time>2017-04-11T13:59:51Z</time>
      </trkpt>
      <trkpt lat="49.39348" lon="1.17481">
        <ele>139</ele>
        <time>2017-04-11T13:59:51Z</time>
      </trkpt>
      <trkpt lat="49.39347" lon="1.17477">
        <ele>139</ele>
        <time>2017-04-11T13:59:51Z</time>
      </trkpt>
      <trkpt lat="49.39345" lon="1.17473">
        <ele>139</ele>
        <time>2017-04-11T13:59:51Z</time>
      </trkpt>
      <trkpt lat="49.39343" lon="1.17471">
        <ele>139</ele>
        <time>2017-04-11T13:59:51Z</time>
      </trkpt>
      <trkpt lat="49.39342" lon="1.17467">
        <ele>139</ele>
        <time>2017-04-11T14:00:11Z</time>
      </trkpt>
      <trkpt lat="49.39341" lon="1.17464">
        <ele>139</ele>
        <time>2017-04-11T14:00:11Z</time>
      </trkpt>
      <trkpt lat="49.39341" lon="1.17462">
        <ele>139</ele>
        <time>2017-04-11T14:00:11Z</time>
      </trkpt>
      <trkpt lat="49.39338" lon="1.17455">
        <ele>140</ele>
        <time>2017-04-11T14:00:11Z</time>
      </trkpt>
      <trkpt lat="49.39338" lon="1.17452">
        <ele>140</ele>
        <time>2017-04-11T14:00:11Z</time>
      </trkpt>
      <trkpt lat="49.39335" lon="1.17451">
        <ele>140</ele>
        <time>2017-04-11T14:01:04Z</time>
      </trkpt>
      <trkpt lat="49.39332" lon="1.17448">
        <ele>140</ele>
        <time>2017-04-11T14:01:04Z</time>
      </trkpt>
      <trkpt lat="49.39327" lon="1.17444">
        <ele>140</ele>
        <time>2017-04-11T14:01:04Z</time>
      </trkpt>
      <trkpt lat="49.39323" lon="1.17444">
        <ele>140</ele>
        <time>2017-04-11T14:01:04Z</time>
      </trkpt>
      <trkpt lat="49.3932" lon="1.17442">
        <ele>140</ele>
        <time>2017-04-11T14:01:04Z</time>
      </trkpt>
      <trkpt lat="49.39316" lon="1.1744">
        <ele>140</ele>
        <time>2017-04-11T14:01:19Z</time>
      </trkpt>
      <trkpt lat="49.39312" lon="1.17439">
        <ele>140</ele>
        <time>2017-04-11T14:01:19Z</time>
      </trkpt>
      <trkpt lat="49.39309" lon="1.17436">
        <ele>140</ele>
        <time>2017-04-11T14:01:19Z</time>
      </trkpt>
      <trkpt lat="49.39305" lon="1.17434">
        <ele>140</ele>
        <time>2017-04-11T14:01:19Z</time>
      </trkpt>
      <trkpt lat="49.39298" lon="1.17431">
        <ele>140</ele>
        <time>2017-04-11T14:01:35Z</time>
      </trkpt>
      <trkpt lat="49.39296" lon="1.17428">
        <ele>140</ele>
        <time>2017-04-11T14:01:35Z</time>
      </trkpt>
      <trkpt lat="49.39292" lon="1.17426">
        <ele>140</ele>
        <time>2017-04-11T14:01:35Z</time>
      </trkpt>
      <trkpt lat="49.39286" lon="1.17423">
        <ele>143</ele>
        <time>2017-04-11T14:01:35Z</time>
      </trkpt>
      <trkpt lat="49.39281" lon="1.17422">
        <ele>143</ele>
        <time>2017-04-11T14:01:51Z</time>
      </trkpt>
      <trkpt lat="49.39277" lon="1.1742">
        <ele>143</ele>
        <time>2017-04-11T14:01:51Z</time>
      </trkpt>
      <trkpt lat="49.39274" lon="1.17419">
        <ele>143</ele>
        <time>2017-04-11T14:01:51Z</time>
      </trkpt>
      <trkpt lat="49.3927" lon="1.17416">
        <ele>143</ele>
        <time>2017-04-11T14:01:51Z</time>
      </trkpt>
      <trkpt lat="49.39266" lon="1.17409">
        <ele>143</ele>
        <time>2017-04-11T14:02:07Z</time>
      </trkpt>
      <trkpt lat="49.39267" lon="1.17404">
        <ele>143</ele>
        <time>2017-04-11T14:02:07Z</time>
      </trkpt>
      <trkpt lat="49.3927" lon="1.17398">
        <ele>143</ele>
        <time>2017-04-11T14:02:07Z</time>
      </trkpt>
      <trkpt lat="49.39273" lon="1.17391">
        <ele>143</ele>
        <time>2017-04-11T14:02:07Z</time>
      </trkpt>
      <trkpt lat="49.39276" lon="1.17385">
        <ele>143</ele>
        <time>2017-04-11T14:02:23Z</time>
      </trkpt>
      <trkpt lat="49.39279" lon="1.17379">
        <ele>143</ele>
        <time>2017-04-11T14:02:23Z</time>
      </trkpt>
      <trkpt lat="49.39283" lon="1.17374">
        <ele>143</ele>
        <time>2017-04-11T14:02:23Z</time>
      </trkpt>
      <trkpt lat="49.39286" lon="1.17366">
        <ele>143</ele>
        <time>2017-04-11T14:02:23Z</time>
      </trkpt>
      <trkpt lat="49.39288" lon="1.17359">
        <ele>143</ele>
        <time>2017-04-11T14:02:39Z</time>
      </trkpt>
      <trkpt lat="49.3929" lon="1.17352">
        <ele>143</ele>
        <time>2017-04-11T14:02:39Z</time>
      </trkpt>
      <trkpt lat="49.39292" lon="1.17345">
        <ele>140</ele>
        <time>2017-04-11T14:02:39Z</time>
      </trkpt>
      <trkpt lat="49.39295" lon="1.17338">
        <ele>140</ele>
        <time>2017-04-11T14:02:39Z</time>
      </trkpt>
      <trkpt lat="49.39298" lon="1.17331">
        <ele>140</ele>
        <time>2017-04-11T14:02:55Z</time>
      </trkpt>
      <trkpt lat="49.39301" lon="1.17324">
        <ele>140</ele>
        <time>2017-04-11T14:02:55Z</time>
      </trkpt>
      <trkpt lat="49.39303" lon="1.17317">
        <ele>140</ele>
        <time>2017-04-11T14:02:55Z</time>
      </trkpt>
      <trkpt lat="49.39306" lon="1.17309">
        <ele>140</ele>
        <time>2017-04-11T14:02:55Z</time>
      </trkpt>
      <trkpt lat="49.39308" lon="1.17303">
        <ele>140</ele>
        <time>2017-04-11T14:03:13Z</time>
      </trkpt>
      <trkpt lat="49.3931" lon="1.17298">
        <ele>140</ele>
        <time>2017-04-11T14:03:13Z</time>
      </trkpt>
      <trkpt lat="49.39314" lon="1.17289">
        <ele>140</ele>
        <time>2017-04-11T14:03:13Z</time>
      </trkpt>
      <trkpt lat="49.39316" lon="1.17283">
        <ele>140</ele>
        <time>2017-04-11T14:03:13Z</time>
      </trkpt>
      <trkpt lat="49.3932" lon="1.1727">
        <ele>140</ele>
        <time>2017-04-11T14:03:31Z</time>
      </trkpt>
      <trkpt lat="49.39323" lon="1.17264">
        <ele>140</ele>
        <time>2017-04-11T14:03:32Z</time>
      </trkpt>
      <trkpt lat="49.39325" lon="1.17257">
        <ele>140</ele>
        <time>2017-04-11T14:03:32Z</time>
      </trkpt>
      <trkpt lat="49.39327" lon="1.1725">
        <ele>140</ele>
        <time>2017-04-11T14:03:32Z</time>
      </trkpt>
      <trkpt lat="49.39331" lon="1.17245">
        <ele>140</ele>
        <time>2017-04-11T14:03:47Z</time>
      </trkpt>
      <trkpt lat="49.39335" lon="1.17238">
        <ele>140</ele>
        <time>2017-04-11T14:03:48Z</time>
      </trkpt>
      <trkpt lat="49.39338" lon="1.17232">
        <ele>140</ele>
        <time>2017-04-11T14:03:48Z</time>
      </trkpt>
      <trkpt lat="49.3934" lon="1.17227">
        <ele>140</ele>
        <time>2017-04-11T14:03:48Z</time>
      </trkpt>
      <trkpt lat="49.39343" lon="1.17221">
        <ele>140</ele>
        <time>2017-04-11T14:04:03Z</time>
      </trkpt>
      <trkpt lat="49.39347" lon="1.17212">
        <ele>140</ele>
        <time>2017-04-11T14:04:03Z</time>
      </trkpt>
      <trkpt lat="49.39349" lon="1.17206">
        <ele>143</ele>
        <time>2017-04-11T14:04:05Z</time>
      </trkpt>
      <trkpt lat="49.39351" lon="1.17201">
        <ele>143</ele>
        <time>2017-04-11T14:04:05Z</time>
      </trkpt>
      <trkpt lat="49.39354" lon="1.17195">
        <ele>143</ele>
        <time>2017-04-11T14:04:19Z</time>
      </trkpt>
      <trkpt lat="49.39356" lon="1.17188">
        <ele>143</ele>
        <time>2017-04-11T14:04:20Z</time>
      </trkpt>
      <trkpt lat="49.39359" lon="1.17183">
        <ele>143</ele>
        <time>2017-04-11T14:04:20Z</time>
      </trkpt>
      <trkpt lat="49.39362" lon="1.17177">
        <ele>143</ele>
        <time>2017-04-11T14:04:20Z</time>
      </trkpt>
      <trkpt lat="49.39364" lon="1.17169">
        <ele>143</ele>
        <time>2017-04-11T14:04:36Z</time>
      </trkpt>
      <trkpt lat="49.39363" lon="1.17163">
        <ele>143</ele>
        <time>2017-04-11T14:04:37Z</time>
      </trkpt>
      <trkpt lat="49.3936" lon="1.17159">
        <ele>143</ele>
        <time>2017-04-11T14:04:37Z</time>
      </trkpt>
      <trkpt lat="49.39355" lon="1.17157">
        <ele>143</ele>
        <time>2017-04-11T14:04:37Z</time>
      </trkpt>
      <trkpt lat="49.39351" lon="1.17156">
        <ele>143</ele>
        <time>2017-04-11T14:04:52Z</time>
      </trkpt>
      <trkpt lat="49.39348" lon="1.17154">
        <ele>143</ele>
        <time>2017-04-11T14:04:52Z</time>
      </trkpt>
      <trkpt lat="49.39343" lon="1.1715">
        <ele>143</ele>
        <time>2017-04-11T14:04:52Z</time>
      </trkpt>
      <trkpt lat="49.39339" lon="1.17148">
        <ele>143</ele>
        <time>2017-04-11T14:04:52Z</time>
      </trkpt>
      <trkpt lat="49.39333" lon="1.17147">
        <ele>143</ele>
        <time>2017-04-11T14:05:08Z</time>
      </trkpt>
      <trkpt lat="49.39328" lon="1.17144">
        <ele>143</ele>
        <time>2017-04-11T14:05:09Z</time>
      </trkpt>
      <trkpt lat="49.39324" lon="1.17143">
        <ele>143</ele>
        <time>2017-04-11T14:05:09Z</time>
      </trkpt>
      <trkpt lat="49.39319" lon="1.17139">
        <ele>143</ele>
        <time>2017-04-11T14:05:09Z</time>
      </trkpt>
      <trkpt lat="49.39315" lon="1.17138">
        <ele>143</ele>
        <time>2017-04-11T14:05:23Z</time>
      </trkpt>
      <trkpt lat="49.3931" lon="1.17136">
        <ele>143</ele>
        <time>2017-04-11T14:05:23Z</time>
      </trkpt>
      <trkpt lat="49.39304" lon="1.17134">
        <ele>143</ele>
        <time>2017-04-11T14:05:23Z</time>
      </trkpt>
      <trkpt lat="49.39301" lon="1.17133">
        <ele>143</ele>
        <time>2017-04-11T14:05:23Z</time>
      </trkpt>
      <trkpt lat="49.39296" lon="1.17131">
        <ele>143</ele>
        <time>2017-04-11T14:05:39Z</time>
      </trkpt>
      <trkpt lat="49.39292" lon="1.17129">
        <ele>143</ele>
        <time>2017-04-11T14:05:39Z</time>
      </trkpt>
      <trkpt lat="49.39287" lon="1.17127">
        <ele>143</ele>
        <time>2017-04-11T14:05:39Z</time>
      </trkpt>
      <trkpt lat="49.39281" lon="1.17124">
        <ele>146</ele>
        <time>2017-04-11T14:05:39Z</time>
      </trkpt>
      <trkpt lat="49.39276" lon="1.17121">
        <ele>146</ele>
        <time>2017-04-11T14:05:55Z</time>
      </trkpt>
      <trkpt lat="49.39271" lon="1.1712">
        <ele>146</ele>
        <time>2017-04-11T14:05:56Z</time>
      </trkpt>
      <trkpt lat="49.39267" lon="1.17116">
        <ele>146</ele>
        <time>2017-04-11T14:05:56Z</time>
      </trkpt>
      <trkpt lat="49.39264" lon="1.17115">
        <ele>146</ele>
        <time>2017-04-11T14:05:56Z</time>
      </trkpt>
      <trkpt lat="49.39256" lon="1.17112">
        <ele>146</ele>
        <time>2017-04-11T14:06:12Z</time>
      </trkpt>
      <trkpt lat="49.39253" lon="1.17109">
        <ele>146</ele>
        <time>2017-04-11T14:06:12Z</time>
      </trkpt>
      <trkpt lat="49.39249" lon="1.17107">
        <ele>146</ele>
        <time>2017-04-11T14:06:12Z</time>
      </trkpt>
      <trkpt lat="49.39244" lon="1.17106">
        <ele>146</ele>
        <time>2017-04-11T14:06:12Z</time>
      </trkpt>
      <trkpt lat="49.39238" lon="1.17104">
        <ele>146</ele>
        <time>2017-04-11T14:06:28Z</time>
      </trkpt>
      <trkpt lat="49.39234" lon="1.171">
        <ele>146</ele>
        <time>2017-04-11T14:06:29Z</time>
      </trkpt>
      <trkpt lat="49.39231" lon="1.171">
        <ele>146</ele>
        <time>2017-04-11T14:06:29Z</time>
      </trkpt>
      <trkpt lat="49.39226" lon="1.17099">
        <ele>146</ele>
        <time>2017-04-11T14:06:29Z</time>
      </trkpt>
      <trkpt lat="49.39222" lon="1.17096">
        <ele>146</ele>
        <time>2017-04-11T14:06:43Z</time>
      </trkpt>
      <trkpt lat="49.39219" lon="1.17095">
        <ele>146</ele>
        <time>2017-04-11T14:06:44Z</time>
      </trkpt>
      <trkpt lat="49.39215" lon="1.17093">
        <ele>146</ele>
        <time>2017-04-11T14:06:44Z</time>
      </trkpt>
      <trkpt lat="49.39212" lon="1.17091">
        <ele>146</ele>
        <time>2017-04-11T14:06:44Z</time>
      </trkpt>
      <trkpt lat="49.39211" lon="1.1709">
        <ele>146</ele>
        <time>2017-04-11T14:06:59Z</time>
      </trkpt>
      <trkpt lat="49.39202" lon="1.17085">
        <ele>146</ele>
        <time>2017-04-11T14:07:00Z</time>
      </trkpt>
      <trkpt lat="49.39197" lon="1.17082">
        <ele>146</ele>
        <time>2017-04-11T14:07:00Z</time>
      </trkpt>
      <trkpt lat="49.39194" lon="1.1708">
        <ele>146</ele>
        <time>2017-04-11T14:07:00Z</time>
      </trkpt>
      <trkpt lat="49.3919" lon="1.17078">
        <ele>146</ele>
        <time>2017-04-11T14:07:15Z</time>
      </trkpt>
      <trkpt lat="49.39184" lon="1.17074">
        <ele>146</ele>
        <time>2017-04-11T14:07:18Z</time>
      </trkpt>
      <trkpt lat="49.39184" lon="1.17071">
        <ele>146</ele>
        <time>2017-04-11T14:07:18Z</time>
      </trkpt>
      <trkpt lat="49.39181" lon="1.1707">
        <ele>146</ele>
        <time>2017-04-11T14:07:18Z</time>
      </trkpt>
      <trkpt lat="49.39178" lon="1.17067">
        <ele>146</ele>
        <time>2017-04-11T14:07:31Z</time>
      </trkpt>
      <trkpt lat="49.39175" lon="1.17066">
        <ele>146</ele>
        <time>2017-04-11T14:07:31Z</time>
      </trkpt>
      <trkpt lat="49.39171" lon="1.17065">
        <ele>146</ele>
        <time>2017-04-11T14:07:32Z</time>
      </trkpt>
      <trkpt lat="49.39168" lon="1.17062">
        <ele>146</ele>
        <time>2017-04-11T14:07:33Z</time>
      </trkpt>
      <trkpt lat="49.39164" lon="1.17061">
        <ele>146</ele>
        <time>2017-04-11T14:07:48Z</time>
      </trkpt>
      <trkpt lat="49.3916" lon="1.1706">
        <ele>146</ele>
        <time>2017-04-11T14:07:48Z</time>
      </trkpt>
      <trkpt lat="49.39158" lon="1.17059">
        <ele>146</ele>
        <time>2017-04-11T14:07:48Z</time>
      </trkpt>
      <trkpt lat="49.39154" lon="1.17056">
        <ele>146</ele>
        <time>2017-04-11T14:07:48Z</time>
      </trkpt>
      <trkpt lat="49.39148" lon="1.17053">
        <ele>146</ele>
        <time>2017-04-11T14:08:03Z</time>
      </trkpt>
      <trkpt lat="49.39147" lon="1.17052">
        <ele>146</ele>
        <time>2017-04-11T14:08:03Z</time>
      </trkpt>
      <trkpt lat="49.3914" lon="1.1705">
        <ele>146</ele>
        <time>2017-04-11T14:08:03Z</time>
      </trkpt>
      <trkpt lat="49.39137" lon="1.17048">
        <ele>146</ele>
        <time>2017-04-11T14:08:03Z</time>
      </trkpt>
      <trkpt lat="49.39132" lon="1.17045">
        <ele>146</ele>
        <time>2017-04-11T14:08:19Z</time>
      </trkpt>
      <trkpt lat="49.39128" lon="1.17044">
        <ele>146</ele>
        <time>2017-04-11T14:08:19Z</time>
      </trkpt>
      <trkpt lat="49.39123" lon="1.17043">
        <ele>146</ele>
        <time>2017-04-11T14:08:19Z</time>
      </trkpt>
      <trkpt lat="49.39117" lon="1.1704">
        <ele>145</ele>
        <time>2017-04-11T14:08:19Z</time>
      </trkpt>
      <trkpt lat="49.39114" lon="1.17039">
        <ele>145</ele>
        <time>2017-04-11T14:08:35Z</time>
      </trkpt>
      <trkpt lat="49.3911" lon="1.17036">
        <ele>145</ele>
        <time>2017-04-11T14:08:35Z</time>
      </trkpt>
      <trkpt lat="49.39107" lon="1.17035">
        <ele>145</ele>
        <time>2017-04-11T14:08:35Z</time>
      </trkpt>
      <trkpt lat="49.39098" lon="1.17033">
        <ele>145</ele>
        <time>2017-04-11T14:08:35Z</time>
      </trkpt>
      <trkpt lat="49.39096" lon="1.17033">
        <ele>145</ele>
        <time>2017-04-11T14:08:52Z</time>
      </trkpt>
      <trkpt lat="49.3909" lon="1.17031">
        <ele>145</ele>
        <time>2017-04-11T14:08:52Z</time>
      </trkpt>
      <trkpt lat="49.39084" lon="1.17029">
        <ele>145</ele>
        <time>2017-04-11T14:08:52Z</time>
      </trkpt>
      <trkpt lat="49.3908" lon="1.17027">
        <ele>145</ele>
        <time>2017-04-11T14:08:52Z</time>
      </trkpt>
      <trkpt lat="49.39076" lon="1.17025">
        <ele>145</ele>
        <time>2017-04-11T14:09:08Z</time>
      </trkpt>
      <trkpt lat="49.3907" lon="1.17021">
        <ele>145</ele>
        <time>2017-04-11T14:09:08Z</time>
      </trkpt>
      <trkpt lat="49.39066" lon="1.17019">
        <ele>145</ele>
        <time>2017-04-11T14:09:08Z</time>
      </trkpt>
      <trkpt lat="49.3906" lon="1.17018">
        <ele>145</ele>
        <time>2017-04-11T14:09:08Z</time>
      </trkpt>
      <trkpt lat="49.39055" lon="1.17018">
        <ele>145</ele>
        <time>2017-04-11T14:09:24Z</time>
      </trkpt>
      <trkpt lat="49.39051" lon="1.17016">
        <ele>145</ele>
        <time>2017-04-11T14:09:24Z</time>
      </trkpt>
      <trkpt lat="49.39047" lon="1.17015">
        <ele>145</ele>
        <time>2017-04-11T14:09:24Z</time>
      </trkpt>
      <trkpt lat="49.39043" lon="1.17012">
        <ele>145</ele>
        <time>2017-04-11T14:09:24Z</time>
      </trkpt>
      <trkpt lat="49.39038" lon="1.1701">
        <ele>146</ele>
        <time>2017-04-11T14:09:39Z</time>
      </trkpt>
      <trkpt lat="49.39035" lon="1.1701">
        <ele>146</ele>
        <time>2017-04-11T14:09:39Z</time>
      </trkpt>
      <trkpt lat="49.39029" lon="1.17007">
        <ele>146</ele>
        <time>2017-04-11T14:09:39Z</time>
      </trkpt>
      <trkpt lat="49.39024" lon="1.17006">
        <ele>146</ele>
        <time>2017-04-11T14:09:39Z</time>
      </trkpt>
      <trkpt lat="49.3902" lon="1.17002">
        <ele>146</ele>
        <time>2017-04-11T14:09:55Z</time>
      </trkpt>
      <trkpt lat="49.39016" lon="1.17001">
        <ele>146</ele>
        <time>2017-04-11T14:09:56Z</time>
      </trkpt>
      <trkpt lat="49.3901" lon="1.16999">
        <ele>146</ele>
        <time>2017-04-11T14:09:57Z</time>
      </trkpt>
      <trkpt lat="49.39005" lon="1.16997">
        <ele>146</ele>
        <time>2017-04-11T14:09:57Z</time>
      </trkpt>
      <trkpt lat="49.39001" lon="1.16996">
        <ele>146</ele>
        <time>2017-04-11T14:10:19Z</time>
      </trkpt>
      <trkpt lat="49.39001" lon="1.16996">
        <ele>146</ele>
        <time>2017-04-11T14:10:19Z</time>
      </trkpt>
      <trkpt lat="49.38999" lon="1.16994">
        <ele>146</ele>
        <time>2017-04-11T14:10:19Z</time>
      </trkpt>
      <trkpt lat="49.38996" lon="1.16995">
        <ele>146</ele>
        <time>2017-04-11T14:10:19Z</time>
      </trkpt>
      <trkpt lat="49.38989" lon="1.16995">
        <ele>146</ele>
        <time>2017-04-11T14:10:19Z</time>
      </trkpt>
      <trkpt lat="49.38987" lon="1.16991">
        <ele>146</ele>
        <time>2017-04-11T14:10:35Z</time>
      </trkpt>
      <trkpt lat="49.38984" lon="1.16985">
        <ele>146</ele>
        <time>2017-04-11T14:10:36Z</time>
      </trkpt>
      <trkpt lat="49.38978" lon="1.16981">
        <ele>146</ele>
        <time>2017-04-11T14:10:36Z</time>
      </trkpt>
      <trkpt lat="49.38972" lon="1.16979">
        <ele>146</ele>
        <time>2017-04-11T14:10:36Z</time>
      </trkpt>
      <trkpt lat="49.38969" lon="1.16977">
        <ele>146</ele>
        <time>2017-04-11T14:10:51Z</time>
      </trkpt>
      <trkpt lat="49.38963" lon="1.16974">
        <ele>146</ele>
        <time>2017-04-11T14:10:51Z</time>
      </trkpt>
      <trkpt lat="49.3896" lon="1.1697">
        <ele>146</ele>
        <time>2017-04-11T14:10:51Z</time>
      </trkpt>
      <trkpt lat="49.38959" lon="1.16967">
        <ele>146</ele>
        <time>2017-04-11T14:10:51Z</time>
      </trkpt>
      <trkpt lat="49.38955" lon="1.16964">
        <ele>147</ele>
        <time>2017-04-11T14:11:07Z</time>
      </trkpt>
      <trkpt lat="49.3895" lon="1.16959">
        <ele>147</ele>
        <time>2017-04-11T14:11:07Z</time>
      </trkpt>
      <trkpt lat="49.38946" lon="1.16954">
        <ele>145</ele>
        <time>2017-04-11T14:11:07Z</time>
      </trkpt>
      <trkpt lat="49.38943" lon="1.16952">
        <ele>145</ele>
        <time>2017-04-11T14:11:07Z</time>
      </trkpt>
      <trkpt lat="49.38938" lon="1.16946">
        <ele>145</ele>
        <time>2017-04-11T14:11:23Z</time>
      </trkpt>
      <trkpt lat="49.38933" lon="1.16943">
        <ele>145</ele>
        <time>2017-04-11T14:11:23Z</time>
      </trkpt>
      <trkpt lat="49.3893" lon="1.16939">
        <ele>145</ele>
        <time>2017-04-11T14:11:23Z</time>
      </trkpt>
      <trkpt lat="49.38924" lon="1.16932">
        <ele>145</ele>
        <time>2017-04-11T14:11:23Z</time>
      </trkpt>
      <trkpt lat="49.38921" lon="1.16929">
        <ele>145</ele>
        <time>2017-04-11T14:11:39Z</time>
      </trkpt>
      <trkpt lat="49.38916" lon="1.16923">
        <ele>145</ele>
        <time>2017-04-11T14:11:39Z</time>
      </trkpt>
      <trkpt lat="49.38912" lon="1.1692">
        <ele>145</ele>
        <time>2017-04-11T14:11:39Z</time>
      </trkpt>
      <trkpt lat="49.38909" lon="1.16916">
        <ele>145</ele>
        <time>2017-04-11T14:11:39Z</time>
      </trkpt>
      <trkpt lat="49.38906" lon="1.16912">
        <ele>145</ele>
        <time>2017-04-11T14:11:55Z</time>
      </trkpt>
      <trkpt lat="49.389" lon="1.16905">
        <ele>145</ele>
        <time>2017-04-11T14:11:55Z</time>
      </trkpt>
      <trkpt lat="49.38896" lon="1.16899">
        <ele>145</ele>
        <time>2017-04-11T14:11:55Z</time>
      </trkpt>
      <trkpt lat="49.38892" lon="1.16892">
        <ele>145</ele>
        <time>2017-04-11T14:11:55Z</time>
      </trkpt>
      <trkpt lat="49.38887" lon="1.16888">
        <ele>145</ele>
        <time>2017-04-11T14:12:11Z</time>
      </trkpt>
      <trkpt lat="49.38884" lon="1.16883">
        <ele>145</ele>
        <time>2017-04-11T14:12:11Z</time>
      </trkpt>
      <trkpt lat="49.3888" lon="1.1688">
        <ele>145</ele>
        <time>2017-04-11T14:12:11Z</time>
      </trkpt>
      <trkpt lat="49.38877" lon="1.16875">
        <ele>144</ele>
        <time>2017-04-11T14:12:11Z</time>
      </trkpt>
      <trkpt lat="49.38872" lon="1.1687">
        <ele>144</ele>
        <time>2017-04-11T14:12:27Z</time>
      </trkpt>
      <trkpt lat="49.38867" lon="1.16863">
        <ele>144</ele>
        <time>2017-04-11T14:12:27Z</time>
      </trkpt>
      <trkpt lat="49.38864" lon="1.16859">
        <ele>144</ele>
        <time>2017-04-11T14:12:27Z</time>
      </trkpt>
      <trkpt lat="49.3886" lon="1.16856">
        <ele>144</ele>
        <time>2017-04-11T14:12:27Z</time>
      </trkpt>
      <trkpt lat="49.38856" lon="1.16852">
        <ele>144</ele>
        <time>2017-04-11T14:12:43Z</time>
      </trkpt>
      <trkpt lat="49.38851" lon="1.16847">
        <ele>144</ele>
        <time>2017-04-11T14:12:43Z</time>
      </trkpt>
      <trkpt lat="49.38847" lon="1.16845">
        <ele>144</ele>
        <time>2017-04-11T14:12:44Z</time>
      </trkpt>
      <trkpt lat="49.38843" lon="1.16841">
        <ele>144</ele>
        <time>2017-04-11T14:12:44Z</time>
      </trkpt>
      <trkpt lat="49.38841" lon="1.16841">
        <ele>144</ele>
        <time>2017-04-11T14:13:11Z</time>
      </trkpt>
      <trkpt lat="49.38836" lon="1.16842">
        <ele>144</ele>
        <time>2017-04-11T14:13:12Z</time>
      </trkpt>
      <trkpt lat="49.3883" lon="1.16841">
        <ele>144</ele>
        <time>2017-04-11T14:13:12Z</time>
      </trkpt>
      <trkpt lat="49.38826" lon="1.16837">
        <ele>144</ele>
        <time>2017-04-11T14:13:12Z</time>
      </trkpt>
      <trkpt lat="49.38822" lon="1.16834">
        <ele>144</ele>
        <time>2017-04-11T14:13:12Z</time>
      </trkpt>
      <trkpt lat="49.38817" lon="1.16828">
        <ele>144</ele>
        <time>2017-04-11T14:13:27Z</time>
      </trkpt>
      <trkpt lat="49.38814" lon="1.16823">
        <ele>144</ele>
        <time>2017-04-11T14:13:27Z</time>
      </trkpt>
      <trkpt lat="49.3881" lon="1.16816">
        <ele>144</ele>
        <time>2017-04-11T14:13:27Z</time>
      </trkpt>
      <trkpt lat="49.38809" lon="1.1681">
        <ele>144</ele>
        <time>2017-04-11T14:13:27Z</time>
      </trkpt>
      <trkpt lat="49.38807" lon="1.16802">
        <ele>144</ele>
        <time>2017-04-11T14:13:43Z</time>
      </trkpt>
      <trkpt lat="49.38806" lon="1.16793">
        <ele>144</ele>
        <time>2017-04-11T14:13:43Z</time>
      </trkpt>
      <trkpt lat="49.38805" lon="1.16786">
        <ele>143</ele>
        <time>2017-04-11T14:13:43Z</time>
      </trkpt>
      <trkpt lat="49.38803" lon="1.16778">
        <ele>143</ele>
        <time>2017-04-11T14:13:43Z</time>
      </trkpt>
      <trkpt lat="49.38802" lon="1.16771">
        <ele>143</ele>
        <time>2017-04-11T14:13:59Z</time>
      </trkpt>
      <trkpt lat="49.38802" lon="1.16764">
        <ele>143</ele>
        <time>2017-04-11T14:13:59Z</time>
      </trkpt>
      <trkpt lat="49.38801" lon="1.16756">
        <ele>143</ele>
        <time>2017-04-11T14:13:59Z</time>
      </trkpt>
      <trkpt lat="49.38801" lon="1.16746">
        <ele>143</ele>
        <time>2017-04-11T14:13:59Z</time>
      </trkpt>
      <trkpt lat="49.388" lon="1.16741">
        <ele>143</ele>
        <time>2017-04-11T14:14:15Z</time>
      </trkpt>
      <trkpt lat="49.38798" lon="1.16731">
        <ele>143</ele>
        <time>2017-04-11T14:14:15Z</time>
      </trkpt>
      <trkpt lat="49.38797" lon="1.16722">
        <ele>143</ele>
        <time>2017-04-11T14:14:15Z</time>
      </trkpt>
      <trkpt lat="49.38797" lon="1.16714">
        <ele>143</ele>
        <time>2017-04-11T14:14:15Z</time>
      </trkpt>
      <trkpt lat="49.38797" lon="1.16708">
        <ele>145</ele>
        <time>2017-04-11T14:14:32Z</time>
      </trkpt>
      <trkpt lat="49.38797" lon="1.16699">
        <ele>145</ele>
        <time>2017-04-11T14:14:32Z</time>
      </trkpt>
      <trkpt lat="49.38797" lon="1.16695">
        <ele>145</ele>
        <time>2017-04-11T14:14:32Z</time>
      </trkpt>
      <trkpt lat="49.38796" lon="1.16683">
        <ele>145</ele>
        <time>2017-04-11T14:14:32Z</time>
      </trkpt>
      <trkpt lat="49.38795" lon="1.16677">
        <ele>145</ele>
        <time>2017-04-11T14:14:49Z</time>
      </trkpt>
      <trkpt lat="49.38794" lon="1.1667">
        <ele>145</ele>
        <time>2017-04-11T14:14:49Z</time>
      </trkpt>
      <trkpt lat="49.38793" lon="1.16662">
        <ele>145</ele>
        <time>2017-04-11T14:14:49Z</time>
      </trkpt>
      <trkpt lat="49.38792" lon="1.16655">
        <ele>145</ele>
        <time>2017-04-11T14:14:49Z</time>
      </trkpt>
      <trkpt lat="49.3879" lon="1.16647">
        <ele>146</ele>
        <time>2017-04-11T14:15:04Z</time>
      </trkpt>
      <trkpt lat="49.38788" lon="1.1664">
        <ele>146</ele>
        <time>2017-04-11T14:15:04Z</time>
      </trkpt>
      <trkpt lat="49.38787" lon="1.16635">
        <ele>146</ele>
        <time>2017-04-11T14:15:04Z</time>
      </trkpt>
      <trkpt lat="49.38785" lon="1.16625">
        <ele>146</ele>
        <time>2017-04-11T14:15:04Z</time>
      </trkpt>
      <trkpt lat="49.38784" lon="1.1662">
        <ele>146</ele>
        <time>2017-04-11T14:15:19Z</time>
      </trkpt>
      <trkpt lat="49.38783" lon="1.16611">
        <ele>146</ele>
        <time>2017-04-11T14:15:19Z</time>
      </trkpt>
      <trkpt lat="49.38781" lon="1.16604">
        <ele>146</ele>
        <time>2017-04-11T14:15:19Z</time>
      </trkpt>
      <trkpt lat="49.3878" lon="1.166">
        <ele>146</ele>
        <time>2017-04-11T14:15:19Z</time>
      </trkpt>
      <trkpt lat="49.38777" lon="1.16591">
        <ele>146</ele>
        <time>2017-04-11T14:15:35Z</time>
      </trkpt>
      <trkpt lat="49.38775" lon="1.16586">
        <ele>146</ele>
        <time>2017-04-11T14:15:35Z</time>
      </trkpt>
      <trkpt lat="49.38773" lon="1.16578">
        <ele>146</ele>
        <time>2017-04-11T14:15:35Z</time>
      </trkpt>
      <trkpt lat="49.38772" lon="1.16571">
        <ele>146</ele>
        <time>2017-04-11T14:15:35Z</time>
      </trkpt>
      <trkpt lat="49.38769" lon="1.16563">
        <ele>146</ele>
        <time>2017-04-11T14:15:51Z</time>
      </trkpt>
      <trkpt lat="49.38766" lon="1.16556">
        <ele>146</ele>
        <time>2017-04-11T14:15:52Z</time>
      </trkpt>
      <trkpt lat="49.38763" lon="1.16549">
        <ele>146</ele>
        <time>2017-04-11T14:15:52Z</time>
      </trkpt>
      <trkpt lat="49.3876" lon="1.1654">
        <ele>145</ele>
        <time>2017-04-11T14:15:52Z</time>
      </trkpt>
      <trkpt lat="49.38757" lon="1.16533">
        <ele>145</ele>
        <time>2017-04-11T14:16:08Z</time>
      </trkpt>
      <trkpt lat="49.38753" lon="1.16525">
        <ele>145</ele>
        <time>2017-04-11T14:16:09Z</time>
      </trkpt>
      <trkpt lat="49.38751" lon="1.1652">
        <ele>145</ele>
        <time>2017-04-11T14:16:09Z</time>
      </trkpt>
      <trkpt lat="49.38749" lon="1.16515">
        <ele>145</ele>
        <time>2017-04-11T14:16:09Z</time>
      </trkpt>
      <trkpt lat="49.38746" lon="1.16507">
        <ele>145</ele>
        <time>2017-04-11T14:16:23Z</time>
      </trkpt>
      <trkpt lat="49.38743" lon="1.16498">
        <ele>145</ele>
        <time>2017-04-11T14:16:23Z</time>
      </trkpt>
      <trkpt lat="49.3874" lon="1.16493">
        <ele>145</ele>
        <time>2017-04-11T14:16:23Z</time>
      </trkpt>
      <trkpt lat="49.38738" lon="1.16488">
        <ele>145</ele>
        <time>2017-04-11T14:16:23Z</time>
      </trkpt>
      <trkpt lat="49.38736" lon="1.16481">
        <ele>145</ele>
        <time>2017-04-11T14:16:39Z</time>
      </trkpt>
      <trkpt lat="49.38733" lon="1.16475">
        <ele>145</ele>
        <time>2017-04-11T14:16:39Z</time>
      </trkpt>
      <trkpt lat="49.38731" lon="1.16468">
        <ele>145</ele>
        <time>2017-04-11T14:16:39Z</time>
      </trkpt>
      <trkpt lat="49.38728" lon="1.1646">
        <ele>145</ele>
        <time>2017-04-11T14:16:39Z</time>
      </trkpt>
      <trkpt lat="49.38723" lon="1.16449">
        <ele>142</ele>
        <time>2017-04-11T14:17:00Z</time>
      </trkpt>
      <trkpt lat="49.3872" lon="1.16442">
        <ele>142</ele>
        <time>2017-04-11T14:17:00Z</time>
      </trkpt>
      <trkpt lat="49.38717" lon="1.16434">
        <ele>142</ele>
        <time>2017-04-11T14:17:00Z</time>
      </trkpt>
      <trkpt lat="49.38715" lon="1.16428">
        <ele>142</ele>
        <time>2017-04-11T14:17:00Z</time>
      </trkpt>
      <trkpt lat="49.38713" lon="1.16423">
        <ele>142</ele>
        <time>2017-04-11T14:17:15Z</time>
      </trkpt>
      <trkpt lat="49.38708" lon="1.16414">
        <ele>146</ele>
        <time>2017-04-11T14:17:15Z</time>
      </trkpt>
      <trkpt lat="49.38705" lon="1.1641">
        <ele>146</ele>
        <time>2017-04-11T14:17:15Z</time>
      </trkpt>
      <trkpt lat="49.38702" lon="1.16403">
        <ele>146</ele>
        <time>2017-04-11T14:17:15Z</time>
      </trkpt>
      <trkpt lat="49.38699" lon="1.16397">
        <ele>146</ele>
        <time>2017-04-11T14:17:31Z</time>
      </trkpt>
      <trkpt lat="49.38695" lon="1.16391">
        <ele>146</ele>
        <time>2017-04-11T14:17:31Z</time>
      </trkpt>
      <trkpt lat="49.38692" lon="1.16386">
        <ele>146</ele>
        <time>2017-04-11T14:17:31Z</time>
      </trkpt>
      <trkpt lat="49.3869" lon="1.1638">
        <ele>146</ele>
        <time>2017-04-11T14:17:31Z</time>
      </trkpt>
      <trkpt lat="49.38687" lon="1.16375">
        <ele>145</ele>
        <time>2017-04-11T14:17:48Z</time>
      </trkpt>
      <trkpt lat="49.38682" lon="1.16367">
        <ele>145</ele>
        <time>2017-04-11T14:17:48Z</time>
      </trkpt>
      <trkpt lat="49.3868" lon="1.16362">
        <ele>145</ele>
        <time>2017-04-11T14:17:48Z</time>
      </trkpt>
      <trkpt lat="49.38677" lon="1.16357">
        <ele>145</ele>
        <time>2017-04-11T14:17:48Z</time>
      </trkpt>
      <trkpt lat="49.38674" lon="1.1635">
        <ele>145</ele>
        <time>2017-04-11T14:18:03Z</time>
      </trkpt>
      <trkpt lat="49.38671" lon="1.16345">
        <ele>145</ele>
        <time>2017-04-11T14:18:04Z</time>
      </trkpt>
      <trkpt lat="49.3867" lon="1.16341">
        <ele>145</ele>
        <time>2017-04-11T14:18:04Z</time>
      </trkpt>
      <trkpt lat="49.38665" lon="1.16332">
        <ele>145</ele>
        <time>2017-04-11T14:18:04Z</time>
      </trkpt>
      <trkpt lat="49.38662" lon="1.16326">
        <ele>145</ele>
        <time>2017-04-11T14:18:20Z</time>
      </trkpt>
      <trkpt lat="49.38659" lon="1.16321">
        <ele>145</ele>
        <time>2017-04-11T14:18:20Z</time>
      </trkpt>
      <trkpt lat="49.38655" lon="1.16314">
        <ele>145</ele>
        <time>2017-04-11T14:18:20Z</time>
      </trkpt>
      <trkpt lat="49.38652" lon="1.16309">
        <ele>145</ele>
        <time>2017-04-11T14:18:20Z</time>
      </trkpt>
      <trkpt lat="49.3865" lon="1.16305">
        <ele>145</ele>
        <time>2017-04-11T14:18:35Z</time>
      </trkpt>
      <trkpt lat="49.38647" lon="1.16298">
        <ele>145</ele>
        <time>2017-04-11T14:18:35Z</time>
      </trkpt>
      <trkpt lat="49.38644" lon="1.16291">
        <ele>144</ele>
        <time>2017-04-11T14:18:35Z</time>
      </trkpt>
      <trkpt lat="49.38642" lon="1.16287">
        <ele>144</ele>
        <time>2017-04-11T14:18:35Z</time>
      </trkpt>
      <trkpt lat="49.38638" lon="1.16281">
        <ele>144</ele>
        <time>2017-04-11T14:18:52Z</time>
      </trkpt>
      <trkpt lat="49.38634" lon="1.16273">
        <ele>144</ele>
        <time>2017-04-11T14:18:52Z</time>
      </trkpt>
      <trkpt lat="49.38631" lon="1.16267">
        <ele>144</ele>
        <time>2017-04-11T14:18:52Z</time>
      </trkpt>
      <trkpt lat="49.38628" lon="1.16263">
        <ele>144</ele>
        <time>2017-04-11T14:18:52Z</time>
      </trkpt>
      <trkpt lat="49.38624" lon="1.16257">
        <ele>148</ele>
        <time>2017-04-11T14:19:07Z</time>
      </trkpt>
      <trkpt lat="49.38621" lon="1.16252">
        <ele>148</ele>
        <time>2017-04-11T14:19:07Z</time>
      </trkpt>
      <trkpt lat="49.38616" lon="1.16246">
        <ele>148</ele>
        <time>2017-04-11T14:19:07Z</time>
      </trkpt>
      <trkpt lat="49.38612" lon="1.16242">
        <ele>148</ele>
        <time>2017-04-11T14:19:07Z</time>
      </trkpt>
      <trkpt lat="49.38609" lon="1.16236">
        <ele>148</ele>
        <time>2017-04-11T14:19:23Z</time>
      </trkpt>
      <trkpt lat="49.38606" lon="1.16232">
        <ele>148</ele>
        <time>2017-04-11T14:19:23Z</time>
      </trkpt>
      <trkpt lat="49.38603" lon="1.16228">
        <ele>148</ele>
        <time>2017-04-11T14:19:23Z</time>
      </trkpt>
      <trkpt lat="49.38598" lon="1.16223">
        <ele>148</ele>
        <time>2017-04-11T14:19:23Z</time>
      </trkpt>
      <trkpt lat="49.38594" lon="1.16219">
        <ele>148</ele>
        <time>2017-04-11T14:19:39Z</time>
      </trkpt>
      <trkpt lat="49.38591" lon="1.16215">
        <ele>148</ele>
        <time>2017-04-11T14:19:40Z</time>
      </trkpt>
      <trkpt lat="49.38587" lon="1.16212">
        <ele>148</ele>
        <time>2017-04-11T14:19:40Z</time>
      </trkpt>
      <trkpt lat="49.38582" lon="1.16208">
        <ele>147</ele>
        <time>2017-04-11T14:19:40Z</time>
      </trkpt>
      <trkpt lat="49.38579" lon="1.16204">
        <ele>147</ele>
        <time>2017-04-11T14:19:56Z</time>
      </trkpt>
      <trkpt lat="49.38575" lon="1.162">
        <ele>147</ele>
        <time>2017-04-11T14:19:56Z</time>
      </trkpt>
      <trkpt lat="49.38571" lon="1.16195">
        <ele>147</ele>
        <time>2017-04-11T14:19:56Z</time>
      </trkpt>
      <trkpt lat="49.38566" lon="1.16192">
        <ele>147</ele>
        <time>2017-04-11T14:19:56Z</time>
      </trkpt>
      <trkpt lat="49.38562" lon="1.16188">
        <ele>147</ele>
        <time>2017-04-11T14:20:12Z</time>
      </trkpt>
      <trkpt lat="49.38558" lon="1.16185">
        <ele>147</ele>
        <time>2017-04-11T14:20:12Z</time>
      </trkpt>
      <trkpt lat="49.38554" lon="1.16181">
        <ele>147</ele>
        <time>2017-04-11T14:20:12Z</time>
      </trkpt>
      <trkpt lat="49.3855" lon="1.16177">
        <ele>147</ele>
        <time>2017-04-11T14:20:12Z</time>
      </trkpt>
      <trkpt lat="49.38547" lon="1.16173">
        <ele>147</ele>
        <time>2017-04-11T14:20:27Z</time>
      </trkpt>
      <trkpt lat="49.38542" lon="1.16169">
        <ele>147</ele>
        <time>2017-04-11T14:20:28Z</time>
      </trkpt>
      <trkpt lat="49.38537" lon="1.16165">
        <ele>151</ele>
        <time>2017-04-11T14:20:28Z</time>
      </trkpt>
      <trkpt lat="49.38533" lon="1.1616">
        <ele>151</ele>
        <time>2017-04-11T14:20:28Z</time>
      </trkpt>
      <trkpt lat="49.38529" lon="1.16156">
        <ele>151</ele>
        <time>2017-04-11T14:20:43Z</time>
      </trkpt>
      <trkpt lat="49.38526" lon="1.16152">
        <ele>151</ele>
        <time>2017-04-11T14:20:43Z</time>
      </trkpt>
      <trkpt lat="49.38522" lon="1.16145">
        <ele>151</ele>
        <time>2017-04-11T14:20:43Z</time>
      </trkpt>
      <trkpt lat="49.38519" lon="1.16143">
        <ele>151</ele>
        <time>2017-04-11T14:20:43Z</time>
      </trkpt>
      <trkpt lat="49.38512" lon="1.16134">
        <ele>151</ele>
        <time>2017-04-11T14:21:03Z</time>
      </trkpt>
      <trkpt lat="49.38509" lon="1.16131">
        <ele>151</ele>
        <time>2017-04-11T14:21:03Z</time>
      </trkpt>
      <trkpt lat="49.38503" lon="1.16125">
        <ele>150</ele>
        <time>2017-04-11T14:21:03Z</time>
      </trkpt>
      <trkpt lat="49.385" lon="1.1612">
        <ele>150</ele>
        <time>2017-04-11T14:21:03Z</time>
      </trkpt>
      <trkpt lat="49.38496" lon="1.16116">
        <ele>150</ele>
        <time>2017-04-11T14:21:19Z</time>
      </trkpt>
      <trkpt lat="49.38493" lon="1.16111">
        <ele>150</ele>
        <time>2017-04-11T14:21:20Z</time>
      </trkpt>
      <trkpt lat="49.38489" lon="1.16105">
        <ele>150</ele>
        <time>2017-04-11T14:21:20Z</time>
      </trkpt>
      <trkpt lat="49.38486" lon="1.161">
        <ele>150</ele>
        <time>2017-04-11T14:21:20Z</time>
      </trkpt>
      <trkpt lat="49.38482" lon="1.16093">
        <ele>150</ele>
        <time>2017-04-11T14:21:36Z</time>
      </trkpt>
      <trkpt lat="49.38479" lon="1.16088">
        <ele>150</ele>
        <time>2017-04-11T14:21:36Z</time>
      </trkpt>
      <trkpt lat="49.38475" lon="1.16082">
        <ele>150</ele>
        <time>2017-04-11T14:21:36Z</time>
      </trkpt>
      <trkpt lat="49.38472" lon="1.16077">
        <ele>150</ele>
        <time>2017-04-11T14:21:36Z</time>
      </trkpt>
      <trkpt lat="49.3847" lon="1.16074">
        <ele>150</ele>
        <time>2017-04-11T14:21:52Z</time>
      </trkpt>
      <trkpt lat="49.38465" lon="1.16066">
        <ele>150</ele>
        <time>2017-04-11T14:21:52Z</time>
      </trkpt>
      <trkpt lat="49.38461" lon="1.16061">
        <ele>150</ele>
        <time>2017-04-11T14:21:53Z</time>
      </trkpt>
      <trkpt lat="49.38458" lon="1.16056">
        <ele>152</ele>
        <time>2017-04-11T14:21:53Z</time>
      </trkpt>
      <trkpt lat="49.38456" lon="1.16051">
        <ele>152</ele>
        <time>2017-04-11T14:22:07Z</time>
      </trkpt>
      <trkpt lat="49.38451" lon="1.16044">
        <ele>152</ele>
        <time>2017-04-11T14:22:07Z</time>
      </trkpt>
      <trkpt lat="49.38449" lon="1.1604">
        <ele>151</ele>
        <time>2017-04-11T14:22:08Z</time>
      </trkpt>
      <trkpt lat="49.38446" lon="1.16035">
        <ele>151</ele>
        <time>2017-04-11T14:22:08Z</time>
      </trkpt>
      <trkpt lat="49.38441" lon="1.16028">
        <ele>151</ele>
        <time>2017-04-11T14:22:23Z</time>
      </trkpt>
      <trkpt lat="49.38437" lon="1.16022">
        <ele>151</ele>
        <time>2017-04-11T14:22:23Z</time>
      </trkpt>
      <trkpt lat="49.38434" lon="1.16017">
        <ele>151</ele>
        <time>2017-04-11T14:22:23Z</time>
      </trkpt>
      <trkpt lat="49.38431" lon="1.16012">
        <ele>151</ele>
        <time>2017-04-11T14:22:23Z</time>
      </trkpt>
      <trkpt lat="49.38428" lon="1.16004">
        <ele>151</ele>
        <time>2017-04-11T14:22:40Z</time>
      </trkpt>
      <trkpt lat="49.38423" lon="1.15999">
        <ele>151</ele>
        <time>2017-04-11T14:22:40Z</time>
      </trkpt>
      <trkpt lat="49.38422" lon="1.15994">
        <ele>151</ele>
        <time>2017-04-11T14:22:40Z</time>
      </trkpt>
      <trkpt lat="49.38417" lon="1.15987">
        <ele>151</ele>
        <time>2017-04-11T14:22:40Z</time>
      </trkpt>
      <trkpt lat="49.38414" lon="1.15981">
        <ele>151</ele>
        <time>2017-04-11T14:22:55Z</time>
      </trkpt>
      <trkpt lat="49.38411" lon="1.15976">
        <ele>151</ele>
        <time>2017-04-11T14:22:57Z</time>
      </trkpt>
      <trkpt lat="49.38408" lon="1.1597">
        <ele>151</ele>
        <time>2017-04-11T14:22:57Z</time>
      </trkpt>
      <trkpt lat="49.38405" lon="1.15965">
        <ele>151</ele>
        <time>2017-04-11T14:22:57Z</time>
      </trkpt>
      <trkpt lat="49.38402" lon="1.15958">
        <ele>150</ele>
        <time>2017-04-11T14:23:11Z</time>
      </trkpt>
      <trkpt lat="49.384" lon="1.15954">
        <ele>150</ele>
        <time>2017-04-11T14:23:11Z</time>
      </trkpt>
      <trkpt lat="49.38399" lon="1.15952">
        <ele>150</ele>
        <time>2017-04-11T14:23:11Z</time>
      </trkpt>
      <trkpt lat="49.38393" lon="1.15941">
        <ele>150</ele>
        <time>2017-04-11T14:23:11Z</time>
      </trkpt>
      <trkpt lat="49.38389" lon="1.15933">
        <ele>150</ele>
        <time>2017-04-11T14:23:29Z</time>
      </trkpt>
      <trkpt lat="49.38386" lon="1.15926">
        <ele>150</ele>
        <time>2017-04-11T14:23:29Z</time>
      </trkpt>
      <trkpt lat="49.38384" lon="1.15922">
        <ele>150</ele>
        <time>2017-04-11T14:23:29Z</time>
      </trkpt>
      <trkpt lat="49.38381" lon="1.15918">
        <ele>150</ele>
        <time>2017-04-11T14:23:29Z</time>
      </trkpt>
      <trkpt lat="49.38378" lon="1.15911">
        <ele>150</ele>
        <time>2017-04-11T14:23:43Z</time>
      </trkpt>
      <trkpt lat="49.38375" lon="1.15904">
        <ele>151</ele>
        <time>2017-04-11T14:23:44Z</time>
      </trkpt>
      <trkpt lat="49.38373" lon="1.15899">
        <ele>151</ele>
        <time>2017-04-11T14:23:44Z</time>
      </trkpt>
      <trkpt lat="49.3837" lon="1.15891">
        <ele>151</ele>
        <time>2017-04-11T14:23:44Z</time>
      </trkpt>
      <trkpt lat="49.38367" lon="1.15885">
        <ele>151</ele>
        <time>2017-04-11T14:24:00Z</time>
      </trkpt>
      <trkpt lat="49.38363" lon="1.15876">
        <ele>151</ele>
        <time>2017-04-11T14:24:00Z</time>
      </trkpt>
      <trkpt lat="49.38361" lon="1.1587">
        <ele>150</ele>
        <time>2017-04-11T14:24:00Z</time>
      </trkpt>
      <trkpt lat="49.38358" lon="1.15863">
        <ele>150</ele>
        <time>2017-04-11T14:24:00Z</time>
      </trkpt>
      <trkpt lat="49.38356" lon="1.15856">
        <ele>150</ele>
        <time>2017-04-11T14:24:15Z</time>
      </trkpt>
      <trkpt lat="49.38353" lon="1.15849">
        <ele>150</ele>
        <time>2017-04-11T14:24:16Z</time>
      </trkpt>
      <trkpt lat="49.38351" lon="1.15844">
        <ele>150</ele>
        <time>2017-04-11T14:24:17Z</time>
      </trkpt>
      <trkpt lat="49.38348" lon="1.15836">
        <ele>150</ele>
        <time>2017-04-11T14:24:17Z</time>
      </trkpt>
      <trkpt lat="49.38345" lon="1.15828">
        <ele>150</ele>
        <time>2017-04-11T14:24:31Z</time>
      </trkpt>
      <trkpt lat="49.38343" lon="1.15823">
        <ele>150</ele>
        <time>2017-04-11T14:24:31Z</time>
      </trkpt>
      <trkpt lat="49.38341" lon="1.15816">
        <ele>150</ele>
        <time>2017-04-11T14:24:31Z</time>
      </trkpt>
      <trkpt lat="49.38338" lon="1.15808">
        <ele>150</ele>
        <time>2017-04-11T14:24:31Z</time>
      </trkpt>
      <trkpt lat="49.38335" lon="1.15803">
        <ele>150</ele>
        <time>2017-04-11T14:24:47Z</time>
      </trkpt>
      <trkpt lat="49.38333" lon="1.15795">
        <ele>150</ele>
        <time>2017-04-11T14:24:47Z</time>
      </trkpt>
      <trkpt lat="49.38331" lon="1.15788">
        <ele>151</ele>
        <time>2017-04-11T14:24:47Z</time>
      </trkpt>
      <trkpt lat="49.38331" lon="1.15786">
        <ele>151</ele>
        <time>2017-04-11T14:24:47Z</time>
      </trkpt>
      <trkpt lat="49.3833" lon="1.15779">
        <ele>151</ele>
        <time>2017-04-11T14:25:03Z</time>
      </trkpt>
      <trkpt lat="49.38328" lon="1.15772">
        <ele>151</ele>
        <time>2017-04-11T14:25:03Z</time>
      </trkpt>
      <trkpt lat="49.38326" lon="1.15765">
        <ele>151</ele>
        <time>2017-04-11T14:25:03Z</time>
      </trkpt>
      <trkpt lat="49.38325" lon="1.1576">
        <ele>151</ele>
        <time>2017-04-11T14:25:03Z</time>
      </trkpt>
      <trkpt lat="49.38323" lon="1.15755">
        <ele>151</ele>
        <time>2017-04-11T14:25:27Z</time>
      </trkpt>
      <trkpt lat="49.38323" lon="1.15751">
        <ele>151</ele>
        <time>2017-04-11T14:25:27Z</time>
      </trkpt>
      <trkpt lat="49.38322" lon="1.15748">
        <ele>151</ele>
        <time>2017-04-11T14:25:27Z</time>
      </trkpt>
      <trkpt lat="49.38321" lon="1.15748">
        <ele>151</ele>
        <time>2017-04-11T14:25:27Z</time>
      </trkpt>
      <trkpt lat="49.38318" lon="1.15737">
        <ele>151</ele>
        <time>2017-04-11T14:25:27Z</time>
      </trkpt>
      <trkpt lat="49.38316" lon="1.15732">
        <ele>151</ele>
        <time>2017-04-11T14:25:44Z</time>
      </trkpt>
      <trkpt lat="49.38313" lon="1.15724">
        <ele>151</ele>
        <time>2017-04-11T14:25:44Z</time>
      </trkpt>
      <trkpt lat="49.38311" lon="1.15719">
        <ele>151</ele>
        <time>2017-04-11T14:25:44Z</time>
      </trkpt>
      <trkpt lat="49.38306" lon="1.15707">
        <ele>151</ele>
        <time>2017-04-11T14:25:44Z</time>
      </trkpt>
      <trkpt lat="49.38303" lon="1.15702">
        <ele>151</ele>
        <time>2017-04-11T14:25:59Z</time>
      </trkpt>
      <trkpt lat="49.383" lon="1.15694">
        <ele>151</ele>
        <time>2017-04-11T14:25:59Z</time>
      </trkpt>
      <trkpt lat="49.38299" lon="1.15688">
        <ele>151</ele>
        <time>2017-04-11T14:25:59Z</time>
      </trkpt>
      <trkpt lat="49.38294" lon="1.15681">
        <ele>151</ele>
        <time>2017-04-11T14:25:59Z</time>
      </trkpt>
      <trkpt lat="49.38289" lon="1.15674">
        <ele>149</ele>
        <time>2017-04-11T14:26:15Z</time>
      </trkpt>
      <trkpt lat="49.38286" lon="1.15671">
        <ele>149</ele>
        <time>2017-04-11T14:26:16Z</time>
      </trkpt>
      <trkpt lat="49.38282" lon="1.15667">
        <ele>149</ele>
        <time>2017-04-11T14:26:16Z</time>
      </trkpt>
      <trkpt lat="49.38279" lon="1.1566">
        <ele>149</ele>
        <time>2017-04-11T14:26:16Z</time>
      </trkpt>
      <trkpt lat="49.38275" lon="1.15655">
        <ele>149</ele>
        <time>2017-04-11T14:26:32Z</time>
      </trkpt>
      <trkpt lat="49.38272" lon="1.15648">
        <ele>149</ele>
        <time>2017-04-11T14:26:32Z</time>
      </trkpt>
      <trkpt lat="49.38269" lon="1.15642">
        <ele>149</ele>
        <time>2017-04-11T14:26:32Z</time>
      </trkpt>
      <trkpt lat="49.38266" lon="1.15635">
        <ele>149</ele>
        <time>2017-04-11T14:26:32Z</time>
      </trkpt>
      <trkpt lat="49.38263" lon="1.15633">
        <ele>149</ele>
        <time>2017-04-11T14:26:48Z</time>
      </trkpt>
      <trkpt lat="49.3826" lon="1.15627">
        <ele>149</ele>
        <time>2017-04-11T14:26:49Z</time>
      </trkpt>
      <trkpt lat="49.38256" lon="1.15621">
        <ele>147</ele>
        <time>2017-04-11T14:26:49Z</time>
      </trkpt>
      <trkpt lat="49.38255" lon="1.15614">
        <ele>147</ele>
        <time>2017-04-11T14:26:49Z</time>
      </trkpt>
      <trkpt lat="49.3825" lon="1.15607">
        <ele>147</ele>
        <time>2017-04-11T14:27:07Z</time>
      </trkpt>
      <trkpt lat="49.38248" lon="1.15602">
        <ele>147</ele>
        <time>2017-04-11T14:27:07Z</time>
      </trkpt>
      <trkpt lat="49.38244" lon="1.15598">
        <ele>147</ele>
        <time>2017-04-11T14:27:07Z</time>
      </trkpt>
      <trkpt lat="49.38242" lon="1.15593">
        <ele>147</ele>
        <time>2017-04-11T14:27:07Z</time>
      </trkpt>
      <trkpt lat="49.38239" lon="1.15588">
        <ele>147</ele>
        <time>2017-04-11T14:27:23Z</time>
      </trkpt>
      <trkpt lat="49.38236" lon="1.15584">
        <ele>147</ele>
        <time>2017-04-11T14:27:23Z</time>
      </trkpt>
      <trkpt lat="49.38233" lon="1.15578">
        <ele>147</ele>
        <time>2017-04-11T14:27:23Z</time>
      </trkpt>
      <trkpt lat="49.3823" lon="1.15573">
        <ele>147</ele>
        <time>2017-04-11T14:27:23Z</time>
      </trkpt>
      <trkpt lat="49.38228" lon="1.15566">
        <ele>147</ele>
        <time>2017-04-11T14:27:39Z</time>
      </trkpt>
      <trkpt lat="49.38226" lon="1.15559">
        <ele>147</ele>
        <time>2017-04-11T14:27:39Z</time>
      </trkpt>
      <trkpt lat="49.38223" lon="1.15553">
        <ele>147</ele>
        <time>2017-04-11T14:27:39Z</time>
      </trkpt>
      <trkpt lat="49.38221" lon="1.15548">
        <ele>147</ele>
        <time>2017-04-11T14:27:39Z</time>
      </trkpt>
      <trkpt lat="49.38221" lon="1.15546">
        <ele>147</ele>
        <time>2017-04-11T14:27:56Z</time>
      </trkpt>
      <trkpt lat="49.38219" lon="1.15546">
        <ele>147</ele>
        <time>2017-04-11T14:27:57Z</time>
      </trkpt>
      <trkpt lat="49.38218" lon="1.15545">
        <ele>147</ele>
        <time>2017-04-11T14:27:57Z</time>
      </trkpt>
      <trkpt lat="49.38214" lon="1.15534">
        <ele>146</ele>
        <time>2017-04-11T14:27:57Z</time>
      </trkpt>
      <trkpt lat="49.3821" lon="1.15529">
        <ele>146</ele>
        <time>2017-04-11T14:28:12Z</time>
      </trkpt>
      <trkpt lat="49.38207" lon="1.15524">
        <ele>145</ele>
        <time>2017-04-11T14:28:12Z</time>
      </trkpt>
      <trkpt lat="49.38202" lon="1.15522">
        <ele>145</ele>
        <time>2017-04-11T14:28:12Z</time>
      </trkpt>
      <trkpt lat="49.38195" lon="1.1552">
        <ele>145</ele>
        <time>2017-04-11T14:28:12Z</time>
      </trkpt>
      <trkpt lat="49.38192" lon="1.15518">
        <ele>145</ele>
        <time>2017-04-11T14:28:28Z</time>
      </trkpt>
      <trkpt lat="49.38188" lon="1.15517">
        <ele>145</ele>
        <time>2017-04-11T14:28:28Z</time>
      </trkpt>
      <trkpt lat="49.38183" lon="1.15515">
        <ele>145</ele>
        <time>2017-04-11T14:28:28Z</time>
      </trkpt>
      <trkpt lat="49.38179" lon="1.15512">
        <ele>145</ele>
        <time>2017-04-11T14:28:28Z</time>
      </trkpt>
      <trkpt lat="49.38173" lon="1.15511">
        <ele>145</ele>
        <time>2017-04-11T14:28:43Z</time>
      </trkpt>
      <trkpt lat="49.38167" lon="1.15509">
        <ele>145</ele>
        <time>2017-04-11T14:28:43Z</time>
      </trkpt>
      <trkpt lat="49.38163" lon="1.15509">
        <ele>145</ele>
        <time>2017-04-11T14:28:43Z</time>
      </trkpt>
      <trkpt lat="49.38158" lon="1.15508">
        <ele>145</ele>
        <time>2017-04-11T14:28:43Z</time>
      </trkpt>
      <trkpt lat="49.38148" lon="1.15507">
        <ele>145</ele>
        <time>2017-04-11T14:29:07Z</time>
      </trkpt>
      <trkpt lat="49.38148" lon="1.15507">
        <ele>145</ele>
        <time>2017-04-11T14:29:07Z</time>
      </trkpt>
      <trkpt lat="49.38147" lon="1.15508">
        <ele>145</ele>
        <time>2017-04-11T14:29:08Z</time>
      </trkpt>
      <trkpt lat="49.38146" lon="1.15508">
        <ele>145</ele>
        <time>2017-04-11T14:29:08Z</time>
      </trkpt>
      <trkpt lat="49.38141" lon="1.15507">
        <ele>145</ele>
        <time>2017-04-11T14:29:08Z</time>
      </trkpt>
      <trkpt lat="49.38141" lon="1.15506">
        <ele>145</ele>
        <time>2017-04-11T14:29:23Z</time>
      </trkpt>
      <trkpt lat="49.38138" lon="1.15509">
        <ele>145</ele>
        <time>2017-04-11T14:29:23Z</time>
      </trkpt>
      <trkpt lat="49.38133" lon="1.15511">
        <ele>145</ele>
        <time>2017-04-11T14:29:23Z</time>
      </trkpt>
      <trkpt lat="49.38131" lon="1.15511">
        <ele>145</ele>
        <time>2017-04-11T14:29:23Z</time>
      </trkpt>
      <trkpt lat="49.38126" lon="1.15515">
        <ele>145</ele>
        <time>2017-04-11T14:29:39Z</time>
      </trkpt>
      <trkpt lat="49.38121" lon="1.15513">
        <ele>144</ele>
        <time>2017-04-11T14:29:40Z</time>
      </trkpt>
      <trkpt lat="49.38117" lon="1.15516">
        <ele>144</ele>
        <time>2017-04-11T14:29:40Z</time>
      </trkpt>
      <trkpt lat="49.38111" lon="1.15517">
        <ele>144</ele>
        <time>2017-04-11T14:29:40Z</time>
      </trkpt>
      <trkpt lat="49.38107" lon="1.15524">
        <ele>144</ele>
        <time>2017-04-11T14:29:59Z</time>
      </trkpt>
      <trkpt lat="49.38108" lon="1.15523">
        <ele>144</ele>
        <time>2017-04-11T14:29:59Z</time>
      </trkpt>
      <trkpt lat="49.38103" lon="1.15521">
        <ele>144</ele>
        <time>2017-04-11T14:30:00Z</time>
      </trkpt>
      <trkpt lat="49.381" lon="1.15522">
        <ele>144</ele>
        <time>2017-04-11T14:30:00Z</time>
      </trkpt>
      <trkpt lat="49.38092" lon="1.15527">
        <ele>144</ele>
        <time>2017-04-11T14:30:00Z</time>
      </trkpt>
      <trkpt lat="49.38088" lon="1.1553">
        <ele>144</ele>
        <time>2017-04-11T14:30:19Z</time>
      </trkpt>
      <trkpt lat="49.38087" lon="1.15536">
        <ele>144</ele>
        <time>2017-04-11T14:30:19Z</time>
      </trkpt>
      <trkpt lat="49.38086" lon="1.15536">
        <ele>144</ele>
        <time>2017-04-11T14:30:19Z</time>
      </trkpt>
      <trkpt lat="49.38083" lon="1.15533">
        <ele>144</ele>
        <time>2017-04-11T14:30:19Z</time>
      </trkpt>
      <trkpt lat="49.38078" lon="1.15532">
        <ele>144</ele>
        <time>2017-04-11T14:30:19Z</time>
      </trkpt>
      <trkpt lat="49.38072" lon="1.15537">
        <ele>144</ele>
        <time>2017-04-11T14:30:35Z</time>
      </trkpt>
      <trkpt lat="49.38068" lon="1.15539">
        <ele>144</ele>
        <time>2017-04-11T14:30:35Z</time>
      </trkpt>
      <trkpt lat="49.38065" lon="1.15542">
        <ele>144</ele>
        <time>2017-04-11T14:30:35Z</time>
      </trkpt>
      <trkpt lat="49.38061" lon="1.15545">
        <ele>146</ele>
        <time>2017-04-11T14:30:35Z</time>
      </trkpt>
      <trkpt lat="49.38057" lon="1.15549">
        <ele>146</ele>
        <time>2017-04-11T14:30:51Z</time>
      </trkpt>
      <trkpt lat="49.38053" lon="1.15553">
        <ele>146</ele>
        <time>2017-04-11T14:30:51Z</time>
      </trkpt>
      <trkpt lat="49.38047" lon="1.15558">
        <ele>146</ele>
        <time>2017-04-11T14:30:51Z</time>
      </trkpt>
      <trkpt lat="49.38045" lon="1.15562">
        <ele>146</ele>
        <time>2017-04-11T14:30:51Z</time>
      </trkpt>
      <trkpt lat="49.38041" lon="1.15568">
        <ele>145</ele>
        <time>2017-04-11T14:31:07Z</time>
      </trkpt>
      <trkpt lat="49.38038" lon="1.15572">
        <ele>145</ele>
        <time>2017-04-11T14:31:08Z</time>
      </trkpt>
      <trkpt lat="49.38034" lon="1.15576">
        <ele>145</ele>
        <time>2017-04-11T14:31:08Z</time>
      </trkpt>
      <trkpt lat="49.38031" lon="1.1558">
        <ele>145</ele>
        <time>2017-04-11T14:31:08Z</time>
      </trkpt>
      <trkpt lat="49.38029" lon="1.15585">
        <ele>145</ele>
        <time>2017-04-11T14:31:23Z</time>
      </trkpt>
      <trkpt lat="49.38025" lon="1.1559">
        <ele>145</ele>
        <time>2017-04-11T14:31:23Z</time>
      </trkpt>
      <trkpt lat="49.38021" lon="1.15595">
        <ele>145</ele>
        <time>2017-04-11T14:31:23Z</time>
      </trkpt>
      <trkpt lat="49.38018" lon="1.15599">
        <ele>145</ele>
        <time>2017-04-11T14:31:23Z</time>
      </trkpt>
      <trkpt lat="49.38011" lon="1.15609">
        <ele>145</ele>
        <time>2017-04-11T14:31:44Z</time>
      </trkpt>
      <trkpt lat="49.38008" lon="1.15613">
        <ele>145</ele>
        <time>2017-04-11T14:31:44Z</time>
      </trkpt>
      <trkpt lat="49.38005" lon="1.15617">
        <ele>145</ele>
        <time>2017-04-11T14:31:44Z</time>
      </trkpt>
      <trkpt lat="49.38002" lon="1.15621">
        <ele>145</ele>
        <time>2017-04-11T14:31:44Z</time>
      </trkpt>
      <trkpt lat="49.37998" lon="1.15625">
        <ele>146</ele>
        <time>2017-04-11T14:31:59Z</time>
      </trkpt>
      <trkpt lat="49.37992" lon="1.15635">
        <ele>146</ele>
        <time>2017-04-11T14:31:59Z</time>
      </trkpt>
      <trkpt lat="49.37989" lon="1.15641">
        <ele>146</ele>
        <time>2017-04-11T14:31:59Z</time>
      </trkpt>
      <trkpt lat="49.37986" lon="1.15646">
        <ele>146</ele>
        <time>2017-04-11T14:32:00Z</time>
      </trkpt>
      <trkpt lat="49.37982" lon="1.15651">
        <ele>146</ele>
        <time>2017-04-11T14:32:15Z</time>
      </trkpt>
      <trkpt lat="49.37978" lon="1.15658">
        <ele>146</ele>
        <time>2017-04-11T14:32:15Z</time>
      </trkpt>
      <trkpt lat="49.37974" lon="1.15663">
        <ele>146</ele>
        <time>2017-04-11T14:32:15Z</time>
      </trkpt>
      <trkpt lat="49.3797" lon="1.15669">
        <ele>146</ele>
        <time>2017-04-11T14:32:15Z</time>
      </trkpt>
      <trkpt lat="49.37966" lon="1.15674">
        <ele>146</ele>
        <time>2017-04-11T14:32:31Z</time>
      </trkpt>
      <trkpt lat="49.37961" lon="1.15679">
        <ele>146</ele>
        <time>2017-04-11T14:32:31Z</time>
      </trkpt>
      <trkpt lat="49.37958" lon="1.15685">
        <ele>143</ele>
        <time>2017-04-11T14:32:31Z</time>
      </trkpt>
      <trkpt lat="49.37953" lon="1.1569">
        <ele>143</ele>
        <time>2017-04-11T14:32:31Z</time>
      </trkpt>
      <trkpt lat="49.3795" lon="1.15693">
        <ele>143</ele>
        <time>2017-04-11T14:32:47Z</time>
      </trkpt>
      <trkpt lat="49.37947" lon="1.15696">
        <ele>143</ele>
        <time>2017-04-11T14:32:47Z</time>
      </trkpt>
      <trkpt lat="49.37941" lon="1.15703">
        <ele>143</ele>
        <time>2017-04-11T14:32:47Z</time>
      </trkpt>
      <trkpt lat="49.37938" lon="1.15706">
        <ele>143</ele>
        <time>2017-04-11T14:32:48Z</time>
      </trkpt>
      <trkpt lat="49.37933" lon="1.15713">
        <ele>144</ele>
        <time>2017-04-11T14:33:03Z</time>
      </trkpt>
      <trkpt lat="49.37929" lon="1.15718">
        <ele>144</ele>
        <time>2017-04-11T14:33:03Z</time>
      </trkpt>
      <trkpt lat="49.37925" lon="1.15724">
        <ele>144</ele>
        <time>2017-04-11T14:33:03Z</time>
      </trkpt>
      <trkpt lat="49.37923" lon="1.15726">
        <ele>144</ele>
        <time>2017-04-11T14:33:03Z</time>
      </trkpt>
      <trkpt lat="49.37917" lon="1.15731">
        <ele>144</ele>
        <time>2017-04-11T14:33:20Z</time>
      </trkpt>
      <trkpt lat="49.37914" lon="1.15735">
        <ele>144</ele>
        <time>2017-04-11T14:33:20Z</time>
      </trkpt>
      <trkpt lat="49.3791" lon="1.1574">
        <ele>144</ele>
        <time>2017-04-11T14:33:20Z</time>
      </trkpt>
      <trkpt lat="49.37906" lon="1.15747">
        <ele>144</ele>
        <time>2017-04-11T14:33:20Z</time>
      </trkpt>
      <trkpt lat="49.37902" lon="1.15751">
        <ele>144</ele>
        <time>2017-04-11T14:33:35Z</time>
      </trkpt>
      <trkpt lat="49.37898" lon="1.15754">
        <ele>144</ele>
        <time>2017-04-11T14:33:35Z</time>
      </trkpt>
      <trkpt lat="49.37894" lon="1.15759">
        <ele>144</ele>
        <time>2017-04-11T14:33:35Z</time>
      </trkpt>
      <trkpt lat="49.3789" lon="1.15764">
        <ele>144</ele>
        <time>2017-04-11T14:33:35Z</time>
      </trkpt>
      <trkpt lat="49.37886" lon="1.1577">
        <ele>144</ele>
        <time>2017-04-11T14:33:52Z</time>
      </trkpt>
      <trkpt lat="49.3788" lon="1.15777">
        <ele>144</ele>
        <time>2017-04-11T14:33:52Z</time>
      </trkpt>
      <trkpt lat="49.37878" lon="1.15781">
        <ele>144</ele>
        <time>2017-04-11T14:33:52Z</time>
      </trkpt>
      <trkpt lat="49.37871" lon="1.15779">
        <ele>142</ele>
        <time>2017-04-11T14:33:52Z</time>
      </trkpt>
      <trkpt lat="49.37866" lon="1.15774">
        <ele>142</ele>
        <time>2017-04-11T14:34:08Z</time>
      </trkpt>
      <trkpt lat="49.37862" lon="1.1577">
        <ele>142</ele>
        <time>2017-04-11T14:34:08Z</time>
      </trkpt>
      <trkpt lat="49.37859" lon="1.15766">
        <ele>142</ele>
        <time>2017-04-11T14:34:08Z</time>
      </trkpt>
      <trkpt lat="49.37854" lon="1.15759">
        <ele>142</ele>
        <time>2017-04-11T14:34:08Z</time>
      </trkpt>
      <trkpt lat="49.37852" lon="1.15757">
        <ele>142</ele>
        <time>2017-04-11T14:34:23Z</time>
      </trkpt>
      <trkpt lat="49.37848" lon="1.15749">
        <ele>142</ele>
        <time>2017-04-11T14:34:23Z</time>
      </trkpt>
      <trkpt lat="49.37846" lon="1.15745">
        <ele>142</ele>
        <time>2017-04-11T14:34:23Z</time>
      </trkpt>
      <trkpt lat="49.37843" lon="1.15737">
        <ele>142</ele>
        <time>2017-04-11T14:34:23Z</time>
      </trkpt>
      <trkpt lat="49.37841" lon="1.15732">
        <ele>142</ele>
        <time>2017-04-11T14:34:39Z</time>
      </trkpt>
      <trkpt lat="49.37838" lon="1.15725">
        <ele>142</ele>
        <time>2017-04-11T14:34:38Z</time>
      </trkpt>
      <trkpt lat="49.37835" lon="1.15719">
        <ele>142</ele>
        <time>2017-04-11T14:34:38Z</time>
      </trkpt>
      <trkpt lat="49.3783" lon="1.15715">
        <ele>142</ele>
        <time>2017-04-11T14:34:38Z</time>
      </trkpt>
      <trkpt lat="49.37825" lon="1.15717">
        <ele>142</ele>
        <time>2017-04-11T14:34:55Z</time>
      </trkpt>
      <trkpt lat="49.3782" lon="1.15716">
        <ele>142</ele>
        <time>2017-04-11T14:34:55Z</time>
      </trkpt>
      <trkpt lat="49.37817" lon="1.15717">
        <ele>142</ele>
        <time>2017-04-11T14:34:55Z</time>
      </trkpt>
      <trkpt lat="49.37814" lon="1.15717">
        <ele>142</ele>
        <time>2017-04-11T14:34:55Z</time>
      </trkpt>
      <trkpt lat="49.37808" lon="1.15722">
        <ele>142</ele>
        <time>2017-04-11T14:35:12Z</time>
      </trkpt>
      <trkpt lat="49.37804" lon="1.15723">
        <ele>142</ele>
        <time>2017-04-11T14:35:12Z</time>
      </trkpt>
      <trkpt lat="49.378" lon="1.15726">
        <ele>142</ele>
        <time>2017-04-11T14:35:12Z</time>
      </trkpt>
      <trkpt lat="49.37798" lon="1.15725">
        <ele>142</ele>
        <time>2017-04-11T14:35:12Z</time>
      </trkpt>
      <trkpt lat="49.37791" lon="1.15725">
        <ele>143</ele>
        <time>2017-04-11T14:35:27Z</time>
      </trkpt>
      <trkpt lat="49.37788" lon="1.15725">
        <ele>143</ele>
        <time>2017-04-11T14:35:28Z</time>
      </trkpt>
      <trkpt lat="49.37782" lon="1.15726">
        <ele>143</ele>
        <time>2017-04-11T14:35:28Z</time>
      </trkpt>
      <trkpt lat="49.37779" lon="1.15725">
        <ele>143</ele>
        <time>2017-04-11T14:35:28Z</time>
      </trkpt>
      <trkpt lat="49.37773" lon="1.15726">
        <ele>143</ele>
        <time>2017-04-11T14:35:44Z</time>
      </trkpt>
      <trkpt lat="49.37769" lon="1.15727">
        <ele>143</ele>
        <time>2017-04-11T14:35:45Z</time>
      </trkpt>
      <trkpt lat="49.37764" lon="1.15727">
        <ele>143</ele>
        <time>2017-04-11T14:35:45Z</time>
      </trkpt>
      <trkpt lat="49.37759" lon="1.15725">
        <ele>143</ele>
        <time>2017-04-11T14:35:45Z</time>
      </trkpt>
      <trkpt lat="49.37746" lon="1.1572">
        <ele>143</ele>
        <time>2017-04-11T14:36:19Z</time>
      </trkpt>
      <trkpt lat="49.37745" lon="1.1572">
        <ele>143</ele>
        <time>2017-04-11T14:36:19Z</time>
      </trkpt>
      <trkpt lat="49.37745" lon="1.1572">
        <ele>143</ele>
        <time>2017-04-11T14:36:19Z</time>
      </trkpt>
      <trkpt lat="49.37743" lon="1.1572">
        <ele>143</ele>
        <time>2017-04-11T14:36:19Z</time>
      </trkpt>
      <trkpt lat="49.37739" lon="1.15719">
        <ele>143</ele>
        <time>2017-04-11T14:36:19Z</time>
      </trkpt>
      <trkpt lat="49.37732" lon="1.15719">
        <ele>143</ele>
        <time>2017-04-11T14:36:44Z</time>
      </trkpt>
      <trkpt lat="49.37731" lon="1.15718">
        <ele>143</ele>
        <time>2017-04-11T14:36:44Z</time>
      </trkpt>
      <trkpt lat="49.3773" lon="1.15718">
        <ele>143</ele>
        <time>2017-04-11T14:36:44Z</time>
      </trkpt>
      <trkpt lat="49.37729" lon="1.15717">
        <ele>143</ele>
        <time>2017-04-11T14:36:44Z</time>
      </trkpt>
      <trkpt lat="49.37724" lon="1.15715">
        <ele>143</ele>
        <time>2017-04-11T14:36:44Z</time>
      </trkpt>
      <trkpt lat="49.37719" lon="1.15713">
        <ele>143</ele>
        <time>2017-04-11T14:37:00Z</time>
      </trkpt>
      <trkpt lat="49.37714" lon="1.15708">
        <ele>141</ele>
        <time>2017-04-11T14:37:00Z</time>
      </trkpt>
      <trkpt lat="49.37709" lon="1.15706">
        <ele>141</ele>
        <time>2017-04-11T14:37:00Z</time>
      </trkpt>
      <trkpt lat="49.37704" lon="1.15703">
        <ele>145</ele>
        <time>2017-04-11T14:37:00Z</time>
      </trkpt>
      <trkpt lat="49.37699" lon="1.15701">
        <ele>145</ele>
        <time>2017-04-11T14:37:16Z</time>
      </trkpt>
      <trkpt lat="49.37695" lon="1.157">
        <ele>145</ele>
        <time>2017-04-11T14:37:17Z</time>
      </trkpt>
      <trkpt lat="49.37691" lon="1.15698">
        <ele>145</ele>
        <time>2017-04-11T14:37:17Z</time>
      </trkpt>
      <trkpt lat="49.37686" lon="1.15696">
        <ele>145</ele>
        <time>2017-04-11T14:37:17Z</time>
      </trkpt>
      <trkpt lat="49.3768" lon="1.15695">
        <ele>145</ele>
        <time>2017-04-11T14:37:32Z</time>
      </trkpt>
      <trkpt lat="49.37674" lon="1.15692">
        <ele>145</ele>
        <time>2017-04-11T14:37:32Z</time>
      </trkpt>
      <trkpt lat="49.37671" lon="1.15689">
        <ele>145</ele>
        <time>2017-04-11T14:37:32Z</time>
      </trkpt>
      <trkpt lat="49.37667" lon="1.15689">
        <ele>145</ele>
        <time>2017-04-11T14:37:32Z</time>
      </trkpt>
      <trkpt lat="49.37663" lon="1.15688">
        <ele>145</ele>
        <time>2017-04-11T14:37:48Z</time>
      </trkpt>
      <trkpt lat="49.37658" lon="1.15687">
        <ele>145</ele>
        <time>2017-04-11T14:37:48Z</time>
      </trkpt>
      <trkpt lat="49.37652" lon="1.15685">
        <ele>145</ele>
        <time>2017-04-11T14:37:48Z</time>
      </trkpt>
      <trkpt lat="49.37648" lon="1.15683">
        <ele>145</ele>
        <time>2017-04-11T14:37:48Z</time>
      </trkpt>
      <trkpt lat="49.37644" lon="1.1568">
        <ele>145</ele>
        <time>2017-04-11T14:38:03Z</time>
      </trkpt>
      <trkpt lat="49.37639" lon="1.15679">
        <ele>145</ele>
        <time>2017-04-11T14:38:03Z</time>
      </trkpt>
      <trkpt lat="49.37635" lon="1.15678">
        <ele>145</ele>
        <time>2017-04-11T14:38:03Z</time>
      </trkpt>
      <trkpt lat="49.3763" lon="1.15675">
        <ele>145</ele>
        <time>2017-04-11T14:38:03Z</time>
      </trkpt>
      <trkpt lat="49.37625" lon="1.15672">
        <ele>148</ele>
        <time>2017-04-11T14:38:19Z</time>
      </trkpt>
      <trkpt lat="49.37619" lon="1.15671">
        <ele>148</ele>
        <time>2017-04-11T14:38:19Z</time>
      </trkpt>
      <trkpt lat="49.37614" lon="1.1567">
        <ele>148</ele>
        <time>2017-04-11T14:38:19Z</time>
      </trkpt>
      <trkpt lat="49.37609" lon="1.15669">
        <ele>148</ele>
        <time>2017-04-11T14:38:19Z</time>
      </trkpt>
      <trkpt lat="49.37605" lon="1.15667">
        <ele>148</ele>
        <time>2017-04-11T14:38:35Z</time>
      </trkpt>
      <trkpt lat="49.376" lon="1.15665">
        <ele>148</ele>
        <time>2017-04-11T14:38:35Z</time>
      </trkpt>
      <trkpt lat="49.37595" lon="1.15664">
        <ele>148</ele>
        <time>2017-04-11T14:38:35Z</time>
      </trkpt>
      <trkpt lat="49.3759" lon="1.15662">
        <ele>148</ele>
        <time>2017-04-11T14:38:35Z</time>
      </trkpt>
      <trkpt lat="49.37585" lon="1.15662">
        <ele>148</ele>
        <time>2017-04-11T14:38:51Z</time>
      </trkpt>
      <trkpt lat="49.37579" lon="1.15659">
        <ele>148</ele>
        <time>2017-04-11T14:38:51Z</time>
      </trkpt>
      <trkpt lat="49.37575" lon="1.15657">
        <ele>148</ele>
        <time>2017-04-11T14:38:51Z</time>
      </trkpt>
      <trkpt lat="49.37571" lon="1.15657">
        <ele>148</ele>
        <time>2017-04-11T14:38:52Z</time>
      </trkpt>
      <trkpt lat="49.37565" lon="1.15656">
        <ele>148</ele>
        <time>2017-04-11T14:39:07Z</time>
      </trkpt>
      <trkpt lat="49.3756" lon="1.15652">
        <ele>148</ele>
        <time>2017-04-11T14:39:07Z</time>
      </trkpt>
      <trkpt lat="49.37556" lon="1.15651">
        <ele>148</ele>
        <time>2017-04-11T14:39:07Z</time>
      </trkpt>
      <trkpt lat="49.37553" lon="1.1565">
        <ele>148</ele>
        <time>2017-04-11T14:39:07Z</time>
      </trkpt>
      <trkpt lat="49.37548" lon="1.15649">
        <ele>148</ele>
        <time>2017-04-11T14:39:23Z</time>
      </trkpt>
      <trkpt lat="49.37546" lon="1.15647">
        <ele>148</ele>
        <time>2017-04-11T14:39:23Z</time>
      </trkpt>
      <trkpt lat="49.37542" lon="1.15646">
        <ele>149</ele>
        <time>2017-04-11T14:39:23Z</time>
      </trkpt>
      <trkpt lat="49.37537" lon="1.15644">
        <ele>149</ele>
        <time>2017-04-11T14:39:23Z</time>
      </trkpt>
      <trkpt lat="49.37532" lon="1.15642">
        <ele>149</ele>
        <time>2017-04-11T14:39:39Z</time>
      </trkpt>
      <trkpt lat="49.37528" lon="1.15642">
        <ele>149</ele>
        <time>2017-04-11T14:39:39Z</time>
      </trkpt>
      <trkpt lat="49.37524" lon="1.15641">
        <ele>149</ele>
        <time>2017-04-11T14:39:39Z</time>
      </trkpt>
      <trkpt lat="49.37519" lon="1.15639">
        <ele>149</ele>
        <time>2017-04-11T14:39:39Z</time>
      </trkpt>
      <trkpt lat="49.37514" lon="1.15638">
        <ele>149</ele>
        <time>2017-04-11T14:39:56Z</time>
      </trkpt>
      <trkpt lat="49.3751" lon="1.15638">
        <ele>149</ele>
        <time>2017-04-11T14:39:56Z</time>
      </trkpt>
      <trkpt lat="49.37506" lon="1.15638">
        <ele>149</ele>
        <time>2017-04-11T14:39:56Z</time>
      </trkpt>
      <trkpt lat="49.37501" lon="1.15638">
        <ele>149</ele>
        <time>2017-04-11T14:39:56Z</time>
      </trkpt>
      <trkpt lat="49.37496" lon="1.15639">
        <ele>149</ele>
        <time>2017-04-11T14:40:11Z</time>
      </trkpt>
      <trkpt lat="49.37493" lon="1.15639">
        <ele>149</ele>
        <time>2017-04-11T14:40:11Z</time>
      </trkpt>
      <trkpt lat="49.37489" lon="1.15641">
        <ele>149</ele>
        <time>2017-04-11T14:40:11Z</time>
      </trkpt>
      <trkpt lat="49.37483" lon="1.15643">
        <ele>149</ele>
        <time>2017-04-11T14:40:11Z</time>
      </trkpt>
      <trkpt lat="49.37478" lon="1.15646">
        <ele>149</ele>
        <time>2017-04-11T14:40:27Z</time>
      </trkpt>
      <trkpt lat="49.37475" lon="1.15646">
        <ele>149</ele>
        <time>2017-04-11T14:40:27Z</time>
      </trkpt>
      <trkpt lat="49.3747" lon="1.15644">
        <ele>149</ele>
        <time>2017-04-11T14:40:27Z</time>
      </trkpt>
      <trkpt lat="49.37469" lon="1.15644">
        <ele>149</ele>
        <time>2017-04-11T14:40:27Z</time>
      </trkpt>
      <trkpt lat="49.37459" lon="1.15648">
        <ele>149</ele>
        <time>2017-04-11T14:40:43Z</time>
      </trkpt>
      <trkpt lat="49.37456" lon="1.15649">
        <ele>149</ele>
        <time>2017-04-11T14:40:43Z</time>
      </trkpt>
      <trkpt lat="49.37453" lon="1.15651">
        <ele>149</ele>
        <time>2017-04-11T14:40:43Z</time>
      </trkpt>
      <trkpt lat="49.37448" lon="1.15655">
        <ele>149</ele>
        <time>2017-04-11T14:40:43Z</time>
      </trkpt>
      <trkpt lat="49.37444" lon="1.15659">
        <ele>149</ele>
        <time>2017-04-11T14:40:59Z</time>
      </trkpt>
      <trkpt lat="49.3744" lon="1.15661">
        <ele>149</ele>
        <time>2017-04-11T14:40:59Z</time>
      </trkpt>
      <trkpt lat="49.37434" lon="1.15664">
        <ele>149</ele>
        <time>2017-04-11T14:40:59Z</time>
      </trkpt>
      <trkpt lat="49.37429" lon="1.15666">
        <ele>149</ele>
        <time>2017-04-11T14:40:59Z</time>
      </trkpt>
      <trkpt lat="49.37425" lon="1.15671">
        <ele>149</ele>
        <time>2017-04-11T14:41:15Z</time>
      </trkpt>
      <trkpt lat="49.37421" lon="1.15675">
        <ele>149</ele>
        <time>2017-04-11T14:41:15Z</time>
      </trkpt>
      <trkpt lat="49.37418" lon="1.15676">
        <ele>149</ele>
        <time>2017-04-11T14:41:15Z</time>
      </trkpt>
      <trkpt lat="49.37412" lon="1.15682">
        <ele>149</ele>
        <time>2017-04-11T14:41:15Z</time>
      </trkpt>
      <trkpt lat="49.37406" lon="1.15684">
        <ele>149</ele>
        <time>2017-04-11T14:41:33Z</time>
      </trkpt>
      <trkpt lat="49.37401" lon="1.15689">
        <ele>149</ele>
        <time>2017-04-11T14:41:33Z</time>
      </trkpt>
      <trkpt lat="49.37397" lon="1.15688">
        <ele>149</ele>
        <time>2017-04-11T14:41:33Z</time>
      </trkpt>
      <trkpt lat="49.37392" lon="1.15697">
        <ele>149</ele>
        <time>2017-04-11T14:41:33Z</time>
      </trkpt>
      <trkpt lat="49.37383" lon="1.15703">
        <ele>149</ele>
        <time>2017-04-11T14:41:51Z</time>
      </trkpt>
      <trkpt lat="49.3738" lon="1.15706">
        <ele>149</ele>
        <time>2017-04-11T14:41:52Z</time>
      </trkpt>
      <trkpt lat="49.37376" lon="1.15707">
        <ele>149</ele>
        <time>2017-04-11T14:41:52Z</time>
      </trkpt>
      <trkpt lat="49.37372" lon="1.15708">
        <ele>150</ele>
        <time>2017-04-11T14:41:52Z</time>
      </trkpt>
      <trkpt lat="49.37357" lon="1.15718">
        <ele>152</ele>
        <time>2017-04-11T14:42:16Z</time>
      </trkpt>
      <trkpt lat="49.37354" lon="1.15719">
        <ele>152</ele>
        <time>2017-04-11T14:42:16Z</time>
      </trkpt>
      <trkpt lat="49.37348" lon="1.15723">
        <ele>152</ele>
        <time>2017-04-11T14:42:16Z</time>
      </trkpt>
      <trkpt lat="49.37343" lon="1.15724">
        <ele>152</ele>
        <time>2017-04-11T14:42:16Z</time>
      </trkpt>
      <trkpt lat="49.3734" lon="1.15726">
        <ele>152</ele>
        <time>2017-04-11T14:42:31Z</time>
      </trkpt>
      <trkpt lat="49.37335" lon="1.15731">
        <ele>152</ele>
        <time>2017-04-11T14:42:31Z</time>
      </trkpt>
      <trkpt lat="49.3733" lon="1.15734">
        <ele>152</ele>
        <time>2017-04-11T14:42:31Z</time>
      </trkpt>
      <trkpt lat="49.37325" lon="1.15734">
        <ele>152</ele>
        <time>2017-04-11T14:42:31Z</time>
      </trkpt>
      <trkpt lat="49.37322" lon="1.15732">
        <ele>152</ele>
        <time>2017-04-11T14:42:48Z</time>
      </trkpt>
      <trkpt lat="49.37318" lon="1.15726">
        <ele>152</ele>
        <time>2017-04-11T14:42:48Z</time>
      </trkpt>
      <trkpt lat="49.37319" lon="1.15723">
        <ele>152</ele>
        <time>2017-04-11T14:42:48Z</time>
      </trkpt>
      <trkpt lat="49.37315" lon="1.15713">
        <ele>152</ele>
        <time>2017-04-11T14:42:48Z</time>
      </trkpt>
      <trkpt lat="49.37311" lon="1.15706">
        <ele>150</ele>
        <time>2017-04-11T14:43:03Z</time>
      </trkpt>
      <trkpt lat="49.37309" lon="1.15702">
        <ele>150</ele>
        <time>2017-04-11T14:43:03Z</time>
      </trkpt>
      <trkpt lat="49.37306" lon="1.15696">
        <ele>150</ele>
        <time>2017-04-11T14:43:03Z</time>
      </trkpt>
      <trkpt lat="49.37304" lon="1.15693">
        <ele>150</ele>
        <time>2017-04-11T14:43:03Z</time>
      </trkpt>
      <trkpt lat="49.373" lon="1.15686">
        <ele>150</ele>
        <time>2017-04-11T14:43:19Z</time>
      </trkpt>
      <trkpt lat="49.37296" lon="1.1568">
        <ele>150</ele>
        <time>2017-04-11T14:43:19Z</time>
      </trkpt>
      <trkpt lat="49.37292" lon="1.15675">
        <ele>150</ele>
        <time>2017-04-11T14:43:19Z</time>
      </trkpt>
      <trkpt lat="49.37289" lon="1.15669">
        <ele>148</ele>
        <time>2017-04-11T14:43:19Z</time>
      </trkpt>
      <trkpt lat="49.37287" lon="1.15665">
        <ele>148</ele>
        <time>2017-04-11T14:43:36Z</time>
      </trkpt>
      <trkpt lat="49.37283" lon="1.15659">
        <ele>148</ele>
        <time>2017-04-11T14:43:36Z</time>
      </trkpt>
      <trkpt lat="49.3728" lon="1.15655">
        <ele>148</ele>
        <time>2017-04-11T14:43:36Z</time>
      </trkpt>
      <trkpt lat="49.37277" lon="1.15651">
        <ele>148</ele>
        <time>2017-04-11T14:43:36Z</time>
      </trkpt>
      <trkpt lat="49.37274" lon="1.15648">
        <ele>148</ele>
        <time>2017-04-11T14:43:51Z</time>
      </trkpt>
      <trkpt lat="49.3727" lon="1.15643">
        <ele>148</ele>
        <time>2017-04-11T14:43:51Z</time>
      </trkpt>
      <trkpt lat="49.37267" lon="1.15639">
        <ele>148</ele>
        <time>2017-04-11T14:43:51Z</time>
      </trkpt>
      <trkpt lat="49.37262" lon="1.15635">
        <ele>148</ele>
        <time>2017-04-11T14:43:51Z</time>
      </trkpt>
      <trkpt lat="49.37259" lon="1.15631">
        <ele>148</ele>
        <time>2017-04-11T14:44:07Z</time>
      </trkpt>
      <trkpt lat="49.37254" lon="1.15625">
        <ele>148</ele>
        <time>2017-04-11T14:44:07Z</time>
      </trkpt>
      <trkpt lat="49.3725" lon="1.15623">
        <ele>148</ele>
        <time>2017-04-11T14:44:07Z</time>
      </trkpt>
      <trkpt lat="49.37247" lon="1.15619">
        <ele>148</ele>
        <time>2017-04-11T14:44:07Z</time>
      </trkpt>
      <trkpt lat="49.37242" lon="1.15616">
        <ele>148</ele>
        <time>2017-04-11T14:44:24Z</time>
      </trkpt>
      <trkpt lat="49.37238" lon="1.15613">
        <ele>148</ele>
        <time>2017-04-11T14:44:25Z</time>
      </trkpt>
      <trkpt lat="49.37233" lon="1.15609">
        <ele>148</ele>
        <time>2017-04-11T14:44:25Z</time>
      </trkpt>
      <trkpt lat="49.37229" lon="1.15606">
        <ele>148</ele>
        <time>2017-04-11T14:44:25Z</time>
      </trkpt>
      <trkpt lat="49.37218" lon="1.15602">
        <ele>148</ele>
        <time>2017-04-11T14:44:43Z</time>
      </trkpt>
      <trkpt lat="49.37213" lon="1.15601">
        <ele>148</ele>
        <time>2017-04-11T14:44:43Z</time>
      </trkpt>
      <trkpt lat="49.37208" lon="1.15598">
        <ele>144</ele>
        <time>2017-04-11T14:44:44Z</time>
      </trkpt>
      <trkpt lat="49.37204" lon="1.15597">
        <ele>144</ele>
        <time>2017-04-11T14:44:44Z</time>
      </trkpt>
      <trkpt lat="49.37201" lon="1.15594">
        <ele>144</ele>
        <time>2017-04-11T14:44:59Z</time>
      </trkpt>
      <trkpt lat="49.37197" lon="1.15592">
        <ele>144</ele>
        <time>2017-04-11T14:44:59Z</time>
      </trkpt>
      <trkpt lat="49.37191" lon="1.15589">
        <ele>144</ele>
        <time>2017-04-11T14:45:00Z</time>
      </trkpt>
      <trkpt lat="49.37186" lon="1.15587">
        <ele>144</ele>
        <time>2017-04-11T14:45:00Z</time>
      </trkpt>
      <trkpt lat="49.37182" lon="1.15585">
        <ele>144</ele>
        <time>2017-04-11T14:45:15Z</time>
      </trkpt>
      <trkpt lat="49.37178" lon="1.15585">
        <ele>144</ele>
        <time>2017-04-11T14:45:15Z</time>
      </trkpt>
      <trkpt lat="49.37173" lon="1.15583">
        <ele>144</ele>
        <time>2017-04-11T14:45:15Z</time>
      </trkpt>
      <trkpt lat="49.37167" lon="1.15581">
        <ele>144</ele>
        <time>2017-04-11T14:45:15Z</time>
      </trkpt>
      <trkpt lat="49.37163" lon="1.1558">
        <ele>144</ele>
        <time>2017-04-11T14:45:31Z</time>
      </trkpt>
      <trkpt lat="49.37158" lon="1.15578">
        <ele>144</ele>
        <time>2017-04-11T14:45:31Z</time>
      </trkpt>
      <trkpt lat="49.37153" lon="1.15576">
        <ele>144</ele>
        <time>2017-04-11T14:45:31Z</time>
      </trkpt>
      <trkpt lat="49.37148" lon="1.15575">
        <ele>144</ele>
        <time>2017-04-11T14:45:31Z</time>
      </trkpt>
      <trkpt lat="49.37142" lon="1.15574">
        <ele>144</ele>
        <time>2017-04-11T14:45:48Z</time>
      </trkpt>
      <trkpt lat="49.37136" lon="1.15574">
        <ele>144</ele>
        <time>2017-04-11T14:45:48Z</time>
      </trkpt>
      <trkpt lat="49.37134" lon="1.15573">
        <ele>144</ele>
        <time>2017-04-11T14:45:48Z</time>
      </trkpt>
      <trkpt lat="49.37128" lon="1.15571">
        <ele>144</ele>
        <time>2017-04-11T14:45:48Z</time>
      </trkpt>
      <trkpt lat="49.37122" lon="1.1557">
        <ele>143</ele>
        <time>2017-04-11T14:46:03Z</time>
      </trkpt>
      <trkpt lat="49.37119" lon="1.15571">
        <ele>143</ele>
        <time>2017-04-11T14:46:03Z</time>
      </trkpt>
      <trkpt lat="49.37111" lon="1.15568">
        <ele>143</ele>
        <time>2017-04-11T14:46:03Z</time>
      </trkpt>
      <trkpt lat="49.37108" lon="1.15567">
        <ele>143</ele>
        <time>2017-04-11T14:46:03Z</time>
      </trkpt>
      <trkpt lat="49.37103" lon="1.15567">
        <ele>143</ele>
        <time>2017-04-11T14:46:19Z</time>
      </trkpt>
      <trkpt lat="49.37099" lon="1.15567">
        <ele>143</ele>
        <time>2017-04-11T14:46:19Z</time>
      </trkpt>
      <trkpt lat="49.37095" lon="1.15568">
        <ele>143</ele>
        <time>2017-04-11T14:46:19Z</time>
      </trkpt>
      <trkpt lat="49.37089" lon="1.15568">
        <ele>143</ele>
        <time>2017-04-11T14:46:20Z</time>
      </trkpt>
      <trkpt lat="49.37084" lon="1.15568">
        <ele>143</ele>
        <time>2017-04-11T14:46:35Z</time>
      </trkpt>
      <trkpt lat="49.37078" lon="1.15568">
        <ele>143</ele>
        <time>2017-04-11T14:46:35Z</time>
      </trkpt>
      <trkpt lat="49.37074" lon="1.15567">
        <ele>143</ele>
        <time>2017-04-11T14:46:35Z</time>
      </trkpt>
      <trkpt lat="49.37069" lon="1.15567">
        <ele>143</ele>
        <time>2017-04-11T14:46:35Z</time>
      </trkpt>
      <trkpt lat="49.37066" lon="1.15566">
        <ele>143</ele>
        <time>2017-04-11T14:46:52Z</time>
      </trkpt>
      <trkpt lat="49.37061" lon="1.15565">
        <ele>143</ele>
        <time>2017-04-11T14:46:52Z</time>
      </trkpt>
      <trkpt lat="49.37055" lon="1.15567">
        <ele>143</ele>
        <time>2017-04-11T14:46:52Z</time>
      </trkpt>
      <trkpt lat="49.37052" lon="1.15563">
        <ele>143</ele>
        <time>2017-04-11T14:46:52Z</time>
      </trkpt>
      <trkpt lat="49.37052" lon="1.15555">
        <ele>143</ele>
        <time>2017-04-11T14:48:16Z</time>
      </trkpt>
      <trkpt lat="49.37053" lon="1.15554">
        <ele>143</ele>
        <time>2017-04-11T14:48:16Z</time>
      </trkpt>
      <trkpt lat="49.37055" lon="1.15551">
        <ele>143</ele>
        <time>2017-04-11T14:48:16Z</time>
      </trkpt>
      <trkpt lat="49.37058" lon="1.15549">
        <ele>143</ele>
        <time>2017-04-11T14:48:16Z</time>
      </trkpt>
      <trkpt lat="49.3706" lon="1.15546">
        <ele>143</ele>
        <time>2017-04-11T14:48:16Z</time>
      </trkpt>
      <trkpt lat="49.37062" lon="1.15542">
        <ele>143</ele>
        <time>2017-04-11T14:48:31Z</time>
      </trkpt>
      <trkpt lat="49.37066" lon="1.15538">
        <ele>142</ele>
        <time>2017-04-11T14:48:31Z</time>
      </trkpt>
      <trkpt lat="49.37067" lon="1.15534">
        <ele>142</ele>
        <time>2017-04-11T14:48:31Z</time>
      </trkpt>
      <trkpt lat="49.37071" lon="1.15531">
        <ele>142</ele>
        <time>2017-04-11T14:48:31Z</time>
      </trkpt>
      <trkpt lat="49.37073" lon="1.15526">
        <ele>142</ele>
        <time>2017-04-11T14:48:47Z</time>
      </trkpt>
      <trkpt lat="49.37075" lon="1.15524">
        <ele>142</ele>
        <time>2017-04-11T14:48:48Z</time>
      </trkpt>
      <trkpt lat="49.37079" lon="1.1552">
        <ele>142</ele>
        <time>2017-04-11T14:48:48Z</time>
      </trkpt>
      <trkpt lat="49.37082" lon="1.15517">
        <ele>142</ele>
        <time>2017-04-11T14:48:48Z</time>
      </trkpt>
      <trkpt lat="49.37085" lon="1.15512">
        <ele>142</ele>
        <time>2017-04-11T14:49:03Z</time>
      </trkpt>
      <trkpt lat="49.3709" lon="1.15509">
        <ele>142</ele>
        <time>2017-04-11T14:49:03Z</time>
      </trkpt>
      <trkpt lat="49.37093" lon="1.15508">
        <ele>142</ele>
        <time>2017-04-11T14:49:03Z</time>
      </trkpt>
      <trkpt lat="49.37097" lon="1.15502">
        <ele>142</ele>
        <time>2017-04-11T14:49:03Z</time>
      </trkpt>
      <trkpt lat="49.37101" lon="1.15497">
        <ele>142</ele>
        <time>2017-04-11T14:49:19Z</time>
      </trkpt>
      <trkpt lat="49.37102" lon="1.15493">
        <ele>142</ele>
        <time>2017-04-11T14:49:20Z</time>
      </trkpt>
      <trkpt lat="49.37105" lon="1.15489">
        <ele>142</ele>
        <time>2017-04-11T14:49:20Z</time>
      </trkpt>
      <trkpt lat="49.3711" lon="1.15484">
        <ele>142</ele>
        <time>2017-04-11T14:49:20Z</time>
      </trkpt>
      <trkpt lat="49.37113" lon="1.15479">
        <ele>142</ele>
        <time>2017-04-11T14:49:35Z</time>
      </trkpt>
      <trkpt lat="49.37117" lon="1.15473">
        <ele>142</ele>
        <time>2017-04-11T14:49:35Z</time>
      </trkpt>
      <trkpt lat="49.37121" lon="1.15469">
        <ele>142</ele>
        <time>2017-04-11T14:49:35Z</time>
      </trkpt>
      <trkpt lat="49.37126" lon="1.15463">
        <ele>144</ele>
        <time>2017-04-11T14:49:36Z</time>
      </trkpt>
      <trkpt lat="49.37129" lon="1.1546">
        <ele>144</ele>
        <time>2017-04-11T14:49:51Z</time>
      </trkpt>
      <trkpt lat="49.37133" lon="1.15455">
        <ele>145</ele>
        <time>2017-04-11T14:49:51Z</time>
      </trkpt>
      <trkpt lat="49.37136" lon="1.15451">
        <ele>145</ele>
        <time>2017-04-11T14:49:51Z</time>
      </trkpt>
      <trkpt lat="49.3714" lon="1.15446">
        <ele>145</ele>
        <time>2017-04-11T14:49:51Z</time>
      </trkpt>
      <trkpt lat="49.37143" lon="1.15442">
        <ele>145</ele>
        <time>2017-04-11T14:50:07Z</time>
      </trkpt>
      <trkpt lat="49.37148" lon="1.15436">
        <ele>145</ele>
        <time>2017-04-11T14:50:07Z</time>
      </trkpt>
      <trkpt lat="49.37152" lon="1.15431">
        <ele>145</ele>
        <time>2017-04-11T14:50:07Z</time>
      </trkpt>
      <trkpt lat="49.37155" lon="1.15428">
        <ele>145</ele>
        <time>2017-04-11T14:50:07Z</time>
      </trkpt>
      <trkpt lat="49.37159" lon="1.15422">
        <ele>145</ele>
        <time>2017-04-11T14:50:24Z</time>
      </trkpt>
      <trkpt lat="49.37163" lon="1.15418">
        <ele>145</ele>
        <time>2017-04-11T14:50:24Z</time>
      </trkpt>
      <trkpt lat="49.37165" lon="1.15412">
        <ele>145</ele>
        <time>2017-04-11T14:50:24Z</time>
      </trkpt>
      <trkpt lat="49.37168" lon="1.15408">
        <ele>145</ele>
        <time>2017-04-11T14:50:24Z</time>
      </trkpt>
      <trkpt lat="49.37178" lon="1.15399">
        <ele>145</ele>
        <time>2017-04-11T14:50:45Z</time>
      </trkpt>
      <trkpt lat="49.37181" lon="1.15394">
        <ele>145</ele>
        <time>2017-04-11T14:50:45Z</time>
      </trkpt>
      <trkpt lat="49.37185" lon="1.15391">
        <ele>145</ele>
        <time>2017-04-11T14:50:45Z</time>
      </trkpt>
      <trkpt lat="49.37189" lon="1.15387">
        <ele>145</ele>
        <time>2017-04-11T14:50:45Z</time>
      </trkpt>
      <trkpt lat="49.37193" lon="1.15381">
        <ele>145</ele>
        <time>2017-04-11T14:50:59Z</time>
      </trkpt>
      <trkpt lat="49.37196" lon="1.15378">
        <ele>145</ele>
        <time>2017-04-11T14:50:59Z</time>
      </trkpt>
      <trkpt lat="49.372" lon="1.15374">
        <ele>145</ele>
        <time>2017-04-11T14:50:59Z</time>
      </trkpt>
      <trkpt lat="49.37205" lon="1.15368">
        <ele>145</ele>
        <time>2017-04-11T14:50:59Z</time>
      </trkpt>
      <trkpt lat="49.37207" lon="1.15364">
        <ele>145</ele>
        <time>2017-04-11T14:51:17Z</time>
      </trkpt>
      <trkpt lat="49.3721" lon="1.15359">
        <ele>145</ele>
        <time>2017-04-11T14:51:17Z</time>
      </trkpt>
      <trkpt lat="49.37214" lon="1.15354">
        <ele>145</ele>
        <time>2017-04-11T14:51:17Z</time>
      </trkpt>
      <trkpt lat="49.37217" lon="1.15346">
        <ele>145</ele>
        <time>2017-04-11T14:51:17Z</time>
      </trkpt>
      <trkpt lat="49.37219" lon="1.15345">
        <ele>145</ele>
        <time>2017-04-11T14:51:31Z</time>
      </trkpt>
      <trkpt lat="49.37223" lon="1.15341">
        <ele>145</ele>
        <time>2017-04-11T14:51:33Z</time>
      </trkpt>
      <trkpt lat="49.37228" lon="1.15336">
        <ele>145</ele>
        <time>2017-04-11T14:51:33Z</time>
      </trkpt>
      <trkpt lat="49.37231" lon="1.15335">
        <ele>145</ele>
        <time>2017-04-11T14:51:33Z</time>
      </trkpt>
      <trkpt lat="49.37237" lon="1.15327">
        <ele>145</ele>
        <time>2017-04-11T14:51:47Z</time>
      </trkpt>
      <trkpt lat="49.3724" lon="1.15323">
        <ele>145</ele>
        <time>2017-04-11T14:51:47Z</time>
      </trkpt>
      <trkpt lat="49.37243" lon="1.15318">
        <ele>145</ele>
        <time>2017-04-11T14:51:47Z</time>
      </trkpt>
      <trkpt lat="49.37246" lon="1.15316">
        <ele>145</ele>
        <time>2017-04-11T14:51:47Z</time>
      </trkpt>
      <trkpt lat="49.37249" lon="1.1531">
        <ele>145</ele>
        <time>2017-04-11T14:52:03Z</time>
      </trkpt>
      <trkpt lat="49.37249" lon="1.15305">
        <ele>145</ele>
        <time>2017-04-11T14:52:03Z</time>
      </trkpt>
      <trkpt lat="49.3725" lon="1.15296">
        <ele>145</ele>
        <time>2017-04-11T14:52:03Z</time>
      </trkpt>
      <trkpt lat="49.37249" lon="1.15291">
        <ele>143</ele>
        <time>2017-04-11T14:52:03Z</time>
      </trkpt>
      <trkpt lat="49.37248" lon="1.15284">
        <ele>143</ele>
        <time>2017-04-11T14:52:20Z</time>
      </trkpt>
      <trkpt lat="49.37245" lon="1.15277">
        <ele>143</ele>
        <time>2017-04-11T14:52:20Z</time>
      </trkpt>
      <trkpt lat="49.37242" lon="1.15271">
        <ele>143</ele>
        <time>2017-04-11T14:52:20Z</time>
      </trkpt>
      <trkpt lat="49.37239" lon="1.15266">
        <ele>143</ele>
        <time>2017-04-11T14:52:20Z</time>
      </trkpt>
      <trkpt lat="49.3723" lon="1.15252">
        <ele>143</ele>
        <time>2017-04-11T14:52:39Z</time>
      </trkpt>
      <trkpt lat="49.37228" lon="1.1525">
        <ele>143</ele>
        <time>2017-04-11T14:52:39Z</time>
      </trkpt>
      <trkpt lat="49.37223" lon="1.15244">
        <ele>143</ele>
        <time>2017-04-11T14:52:39Z</time>
      </trkpt>
      <trkpt lat="49.37219" lon="1.15238">
        <ele>143</ele>
        <time>2017-04-11T14:52:39Z</time>
      </trkpt>
      <trkpt lat="49.37215" lon="1.15233">
        <ele>143</ele>
        <time>2017-04-11T14:52:55Z</time>
      </trkpt>
      <trkpt lat="49.37212" lon="1.15228">
        <ele>143</ele>
        <time>2017-04-11T14:52:56Z</time>
      </trkpt>
      <trkpt lat="49.37208" lon="1.15223">
        <ele>143</ele>
        <time>2017-04-11T14:52:56Z</time>
      </trkpt>
      <trkpt lat="49.37206" lon="1.15219">
        <ele>144</ele>
        <time>2017-04-11T14:52:56Z</time>
      </trkpt>
      <trkpt lat="49.37202" lon="1.15214">
        <ele>144</ele>
        <time>2017-04-11T14:53:11Z</time>
      </trkpt>
      <trkpt lat="49.37198" lon="1.15208">
        <ele>143</ele>
        <time>2017-04-11T14:53:12Z</time>
      </trkpt>
      <trkpt lat="49.37195" lon="1.15204">
        <ele>143</ele>
        <time>2017-04-11T14:53:12Z</time>
      </trkpt>
      <trkpt lat="49.37191" lon="1.15201">
        <ele>143</ele>
        <time>2017-04-11T14:53:12Z</time>
      </trkpt>
      <trkpt lat="49.37187" lon="1.15195">
        <ele>143</ele>
        <time>2017-04-11T14:53:28Z</time>
      </trkpt>
      <trkpt lat="49.37183" lon="1.15189">
        <ele>143</ele>
        <time>2017-04-11T14:53:28Z</time>
      </trkpt>
      <trkpt lat="49.37178" lon="1.15184">
        <ele>143</ele>
        <time>2017-04-11T14:53:28Z</time>
      </trkpt>
      <trkpt lat="49.37173" lon="1.15179">
        <ele>143</ele>
        <time>2017-04-11T14:53:28Z</time>
      </trkpt>
      <trkpt lat="49.3717" lon="1.15175">
        <ele>143</ele>
        <time>2017-04-11T14:53:43Z</time>
      </trkpt>
      <trkpt lat="49.37166" lon="1.15169">
        <ele>143</ele>
        <time>2017-04-11T14:53:44Z</time>
      </trkpt>
      <trkpt lat="49.37162" lon="1.15163">
        <ele>143</ele>
        <time>2017-04-11T14:53:44Z</time>
      </trkpt>
      <trkpt lat="49.37158" lon="1.15159">
        <ele>143</ele>
        <time>2017-04-11T14:53:44Z</time>
      </trkpt>
      <trkpt lat="49.37149" lon="1.1515">
        <ele>143</ele>
        <time>2017-04-11T14:54:03Z</time>
      </trkpt>
      <trkpt lat="49.37146" lon="1.15148">
        <ele>143</ele>
        <time>2017-04-11T14:54:03Z</time>
      </trkpt>
      <trkpt lat="49.37141" lon="1.15141">
        <ele>143</ele>
        <time>2017-04-11T14:54:03Z</time>
      </trkpt>
      <trkpt lat="49.37137" lon="1.15138">
        <ele>143</ele>
        <time>2017-04-11T14:54:03Z</time>
      </trkpt>
      <trkpt lat="49.37134" lon="1.15135">
        <ele>143</ele>
        <time>2017-04-11T14:54:20Z</time>
      </trkpt>
      <trkpt lat="49.37131" lon="1.15129">
        <ele>143</ele>
        <time>2017-04-11T14:54:20Z</time>
      </trkpt>
      <trkpt lat="49.37127" lon="1.15123">
        <ele>142</ele>
        <time>2017-04-11T14:54:20Z</time>
      </trkpt>
      <trkpt lat="49.37125" lon="1.1512">
        <ele>141</ele>
        <time>2017-04-11T14:54:20Z</time>
      </trkpt>
      <trkpt lat="49.37121" lon="1.15116">
        <ele>141</ele>
        <time>2017-04-11T14:54:35Z</time>
      </trkpt>
      <trkpt lat="49.37117" lon="1.15107">
        <ele>141</ele>
        <time>2017-04-11T14:54:35Z</time>
      </trkpt>
      <trkpt lat="49.37111" lon="1.15103">
        <ele>141</ele>
        <time>2017-04-11T14:54:35Z</time>
      </trkpt>
      <trkpt lat="49.37108" lon="1.15097">
        <ele>141</ele>
        <time>2017-04-11T14:54:35Z</time>
      </trkpt>
      <trkpt lat="49.37105" lon="1.15091">
        <ele>141</ele>
        <time>2017-04-11T14:54:51Z</time>
      </trkpt>
      <trkpt lat="49.37101" lon="1.15086">
        <ele>141</ele>
        <time>2017-04-11T14:54:53Z</time>
      </trkpt>
      <trkpt lat="49.37096" lon="1.15083">
        <ele>141</ele>
        <time>2017-04-11T14:54:53Z</time>
      </trkpt>
      <trkpt lat="49.3709" lon="1.15076">
        <ele>141</ele>
        <time>2017-04-11T14:54:53Z</time>
      </trkpt>
      <trkpt lat="49.37087" lon="1.15072">
        <ele>141</ele>
        <time>2017-04-11T14:55:07Z</time>
      </trkpt>
      <trkpt lat="49.37083" lon="1.15067">
        <ele>141</ele>
        <time>2017-04-11T14:55:07Z</time>
      </trkpt>
      <trkpt lat="49.3708" lon="1.15065">
        <ele>141</ele>
        <time>2017-04-11T14:55:07Z</time>
      </trkpt>
      <trkpt lat="49.37075" lon="1.15058">
        <ele>141</ele>
        <time>2017-04-11T14:55:07Z</time>
      </trkpt>
      <trkpt lat="49.37073" lon="1.15054">
        <ele>141</ele>
        <time>2017-04-11T14:55:23Z</time>
      </trkpt>
      <trkpt lat="49.37068" lon="1.15047">
        <ele>141</ele>
        <time>2017-04-11T14:55:23Z</time>
      </trkpt>
      <trkpt lat="49.37066" lon="1.15044">
        <ele>141</ele>
        <time>2017-04-11T14:55:23Z</time>
      </trkpt>
      <trkpt lat="49.37062" lon="1.15039">
        <ele>140</ele>
        <time>2017-04-11T14:55:23Z</time>
      </trkpt>
      <trkpt lat="49.37059" lon="1.15032">
        <ele>140</ele>
        <time>2017-04-11T14:55:39Z</time>
      </trkpt>
      <trkpt lat="49.37057" lon="1.15026">
        <ele>140</ele>
        <time>2017-04-11T14:55:39Z</time>
      </trkpt>
      <trkpt lat="49.37055" lon="1.15021">
        <ele>140</ele>
        <time>2017-04-11T14:55:39Z</time>
      </trkpt>
      <trkpt lat="49.37052" lon="1.15015">
        <ele>140</ele>
        <time>2017-04-11T14:55:39Z</time>
      </trkpt>
      <trkpt lat="49.37051" lon="1.1501">
        <ele>140</ele>
        <time>2017-04-11T14:55:57Z</time>
      </trkpt>
      <trkpt lat="49.37045" lon="1.14998">
        <ele>140</ele>
        <time>2017-04-11T14:55:57Z</time>
      </trkpt>
      <trkpt lat="49.37043" lon="1.14991">
        <ele>140</ele>
        <time>2017-04-11T14:55:57Z</time>
      </trkpt>
      <trkpt lat="49.37039" lon="1.14984">
        <ele>139</ele>
        <time>2017-04-11T14:55:57Z</time>
      </trkpt>
      <trkpt lat="49.37036" lon="1.14976">
        <ele>139</ele>
        <time>2017-04-11T14:56:11Z</time>
      </trkpt>
      <trkpt lat="49.37035" lon="1.14972">
        <ele>139</ele>
        <time>2017-04-11T14:56:11Z</time>
      </trkpt>
      <trkpt lat="49.37032" lon="1.14961">
        <ele>139</ele>
        <time>2017-04-11T14:56:11Z</time>
      </trkpt>
      <trkpt lat="49.3703" lon="1.14953">
        <ele>137</ele>
        <time>2017-04-11T14:56:11Z</time>
      </trkpt>
      <trkpt lat="49.3703" lon="1.14947">
        <ele>137</ele>
        <time>2017-04-11T14:56:27Z</time>
      </trkpt>
      <trkpt lat="49.37029" lon="1.14941">
        <ele>137</ele>
        <time>2017-04-11T14:56:27Z</time>
      </trkpt>
      <trkpt lat="49.3703" lon="1.14934">
        <ele>137</ele>
        <time>2017-04-11T14:56:27Z</time>
      </trkpt>
      <trkpt lat="49.3703" lon="1.14926">
        <ele>137</ele>
        <time>2017-04-11T14:56:27Z</time>
      </trkpt>
      <trkpt lat="49.37032" lon="1.14917">
        <ele>137</ele>
        <time>2017-04-11T14:56:43Z</time>
      </trkpt>
      <trkpt lat="49.37034" lon="1.14912">
        <ele>137</ele>
        <time>2017-04-11T14:56:43Z</time>
      </trkpt>
      <trkpt lat="49.37035" lon="1.14907">
        <ele>137</ele>
        <time>2017-04-11T14:56:43Z</time>
      </trkpt>
      <trkpt lat="49.37037" lon="1.14898">
        <ele>137</ele>
        <time>2017-04-11T14:56:43Z</time>
      </trkpt>
      <trkpt lat="49.37038" lon="1.14891">
        <ele>137</ele>
        <time>2017-04-11T14:56:59Z</time>
      </trkpt>
      <trkpt lat="49.37039" lon="1.14883">
        <ele>137</ele>
        <time>2017-04-11T14:56:59Z</time>
      </trkpt>
      <trkpt lat="49.37039" lon="1.14873">
        <ele>135</ele>
        <time>2017-04-11T14:56:59Z</time>
      </trkpt>
      <trkpt lat="49.3704" lon="1.14866">
        <ele>135</ele>
        <time>2017-04-11T14:56:59Z</time>
      </trkpt>
      <trkpt lat="49.37041" lon="1.14862">
        <ele>135</ele>
        <time>2017-04-11T14:57:15Z</time>
      </trkpt>
      <trkpt lat="49.37042" lon="1.14854">
        <ele>135</ele>
        <time>2017-04-11T14:57:15Z</time>
      </trkpt>
      <trkpt lat="49.37041" lon="1.14844">
        <ele>135</ele>
        <time>2017-04-11T14:57:15Z</time>
      </trkpt>
      <trkpt lat="49.37041" lon="1.14837">
        <ele>135</ele>
        <time>2017-04-11T14:57:15Z</time>
      </trkpt>
      <trkpt lat="49.37042" lon="1.14831">
        <ele>140</ele>
        <time>2017-04-11T14:57:33Z</time>
      </trkpt>
      <trkpt lat="49.37043" lon="1.14823">
        <ele>140</ele>
        <time>2017-04-11T14:57:33Z</time>
      </trkpt>
      <trkpt lat="49.37044" lon="1.14814">
        <ele>140</ele>
        <time>2017-04-11T14:57:33Z</time>
      </trkpt>
      <trkpt lat="49.37043" lon="1.14804">
        <ele>140</ele>
        <time>2017-04-11T14:57:33Z</time>
      </trkpt>
      <trkpt lat="49.37041" lon="1.14782">
        <ele>132</ele>
        <time>2017-04-11T14:57:55Z</time>
      </trkpt>
      <trkpt lat="49.3704" lon="1.14773">
        <ele>132</ele>
        <time>2017-04-11T14:57:55Z</time>
      </trkpt>
      <trkpt lat="49.3704" lon="1.14769">
        <ele>132</ele>
        <time>2017-04-11T14:57:55Z</time>
      </trkpt>
      <trkpt lat="49.37038" lon="1.14762">
        <ele>132</ele>
        <time>2017-04-11T14:57:55Z</time>
      </trkpt>
      <trkpt lat="49.37037" lon="1.14754">
        <ele>132</ele>
        <time>2017-04-11T14:58:11Z</time>
      </trkpt>
      <trkpt lat="49.37036" lon="1.14747">
        <ele>132</ele>
        <time>2017-04-11T14:58:11Z</time>
      </trkpt>
      <trkpt lat="49.37036" lon="1.14741">
        <ele>132</ele>
        <time>2017-04-11T14:58:11Z</time>
      </trkpt>
      <trkpt lat="49.37036" lon="1.14736">
        <ele>132</ele>
        <time>2017-04-11T14:58:11Z</time>
      </trkpt>
      <trkpt lat="49.37038" lon="1.1473">
        <ele>132</ele>
        <time>2017-04-11T14:58:32Z</time>
      </trkpt>
      <trkpt lat="49.3704" lon="1.14724">
        <ele>132</ele>
        <time>2017-04-11T14:58:32Z</time>
      </trkpt>
      <trkpt lat="49.37039" lon="1.1472">
        <ele>132</ele>
        <time>2017-04-11T14:58:33Z</time>
      </trkpt>
      <trkpt lat="49.37041" lon="1.1472">
        <ele>132</ele>
        <time>2017-04-11T14:58:33Z</time>
      </trkpt>
      <trkpt lat="49.37045" lon="1.14714">
        <ele>137</ele>
        <time>2017-04-11T14:58:33Z</time>
      </trkpt>
      <trkpt lat="49.3705" lon="1.1471">
        <ele>137</ele>
        <time>2017-04-11T14:58:47Z</time>
      </trkpt>
      <trkpt lat="49.37053" lon="1.14706">
        <ele>134</ele>
        <time>2017-04-11T14:58:47Z</time>
      </trkpt>
      <trkpt lat="49.37056" lon="1.14703">
        <ele>134</ele>
        <time>2017-04-11T14:58:47Z</time>
      </trkpt>
      <trkpt lat="49.37059" lon="1.14698">
        <ele>134</ele>
        <time>2017-04-11T14:58:47Z</time>
      </trkpt>
      <trkpt lat="49.37061" lon="1.14691">
        <ele>134</ele>
        <time>2017-04-11T14:59:03Z</time>
      </trkpt>
      <trkpt lat="49.37061" lon="1.14686">
        <ele>134</ele>
        <time>2017-04-11T14:59:03Z</time>
      </trkpt>
      <trkpt lat="49.37062" lon="1.14681">
        <ele>134</ele>
        <time>2017-04-11T14:59:03Z</time>
      </trkpt>
      <trkpt lat="49.37061" lon="1.14673">
        <ele>134</ele>
        <time>2017-04-11T14:59:03Z</time>
      </trkpt>
      <trkpt lat="49.37059" lon="1.1467">
        <ele>134</ele>
        <time>2017-04-11T14:59:19Z</time>
      </trkpt>
      <trkpt lat="49.37055" lon="1.14664">
        <ele>134</ele>
        <time>2017-04-11T14:59:19Z</time>
      </trkpt>
      <trkpt lat="49.37054" lon="1.14657">
        <ele>134</ele>
        <time>2017-04-11T14:59:19Z</time>
      </trkpt>
      <trkpt lat="49.37057" lon="1.1465">
        <ele>134</ele>
        <time>2017-04-11T14:59:19Z</time>
      </trkpt>
      <trkpt lat="49.3706" lon="1.14644">
        <ele>134</ele>
        <time>2017-04-11T14:59:36Z</time>
      </trkpt>
      <trkpt lat="49.37062" lon="1.14637">
        <ele>134</ele>
        <time>2017-04-11T14:59:36Z</time>
      </trkpt>
      <trkpt lat="49.37065" lon="1.1463">
        <ele>134</ele>
        <time>2017-04-11T14:59:37Z</time>
      </trkpt>
      <trkpt lat="49.37067" lon="1.14623">
        <ele>131</ele>
        <time>2017-04-11T14:59:37Z</time>
      </trkpt>
      <trkpt lat="49.37068" lon="1.14617">
        <ele>131</ele>
        <time>2017-04-11T14:59:51Z</time>
      </trkpt>
      <trkpt lat="49.3707" lon="1.14614">
        <ele>131</ele>
        <time>2017-04-11T14:59:51Z</time>
      </trkpt>
      <trkpt lat="49.37072" lon="1.146">
        <ele>131</ele>
        <time>2017-04-11T14:59:51Z</time>
      </trkpt>
      <trkpt lat="49.37074" lon="1.14597">
        <ele>131</ele>
        <time>2017-04-11T14:59:51Z</time>
      </trkpt>
      <trkpt lat="49.37076" lon="1.14588">
        <ele>131</ele>
        <time>2017-04-11T15:00:08Z</time>
      </trkpt>
      <trkpt lat="49.37078" lon="1.14579">
        <ele>131</ele>
        <time>2017-04-11T15:00:08Z</time>
      </trkpt>
      <trkpt lat="49.37079" lon="1.14575">
        <ele>131</ele>
        <time>2017-04-11T15:00:08Z</time>
      </trkpt>
      <trkpt lat="49.37078" lon="1.14565">
        <ele>131</ele>
        <time>2017-04-11T15:00:08Z</time>
      </trkpt>
      <trkpt lat="49.37077" lon="1.14561">
        <ele>131</ele>
        <time>2017-04-11T15:00:23Z</time>
      </trkpt>
      <trkpt lat="49.37076" lon="1.14553">
        <ele>131</ele>
        <time>2017-04-11T15:00:23Z</time>
      </trkpt>
      <trkpt lat="49.37076" lon="1.14545">
        <ele>131</ele>
        <time>2017-04-11T15:00:23Z</time>
      </trkpt>
      <trkpt lat="49.37075" lon="1.14541">
        <ele>128</ele>
        <time>2017-04-11T15:00:23Z</time>
      </trkpt>
      <trkpt lat="49.37071" lon="1.14533">
        <ele>128</ele>
        <time>2017-04-11T15:00:39Z</time>
      </trkpt>
      <trkpt lat="49.37069" lon="1.14527">
        <ele>128</ele>
        <time>2017-04-11T15:00:39Z</time>
      </trkpt>
      <trkpt lat="49.37066" lon="1.14518">
        <ele>128</ele>
        <time>2017-04-11T15:00:39Z</time>
      </trkpt>
      <trkpt lat="49.37064" lon="1.14513">
        <ele>128</ele>
        <time>2017-04-11T15:00:39Z</time>
      </trkpt>
      <trkpt lat="49.37061" lon="1.14509">
        <ele>128</ele>
        <time>2017-04-11T15:00:55Z</time>
      </trkpt>
      <trkpt lat="49.37059" lon="1.14502">
        <ele>128</ele>
        <time>2017-04-11T15:00:55Z</time>
      </trkpt>
      <trkpt lat="49.37056" lon="1.14496">
        <ele>128</ele>
        <time>2017-04-11T15:00:55Z</time>
      </trkpt>
      <trkpt lat="49.37052" lon="1.14488">
        <ele>128</ele>
        <time>2017-04-11T15:00:55Z</time>
      </trkpt>
      <trkpt lat="49.3705" lon="1.14484">
        <ele>128</ele>
        <time>2017-04-11T15:01:11Z</time>
      </trkpt>
      <trkpt lat="49.37048" lon="1.14477">
        <ele>128</ele>
        <time>2017-04-11T15:01:11Z</time>
      </trkpt>
      <trkpt lat="49.37044" lon="1.1447">
        <ele>128</ele>
        <time>2017-04-11T15:01:11Z</time>
      </trkpt>
      <trkpt lat="49.37042" lon="1.14464">
        <ele>127</ele>
        <time>2017-04-11T15:01:11Z</time>
      </trkpt>
      <trkpt lat="49.37039" lon="1.14459">
        <ele>127</ele>
        <time>2017-04-11T15:01:28Z</time>
      </trkpt>
      <trkpt lat="49.37037" lon="1.14451">
        <ele>127</ele>
        <time>2017-04-11T15:01:28Z</time>
      </trkpt>
      <trkpt lat="49.37033" lon="1.14447">
        <ele>127</ele>
        <time>2017-04-11T15:01:28Z</time>
      </trkpt>
      <trkpt lat="49.3703" lon="1.14441">
        <ele>127</ele>
        <time>2017-04-11T15:01:28Z</time>
      </trkpt>
      <trkpt lat="49.37026" lon="1.14434">
        <ele>127</ele>
        <time>2017-04-11T15:01:43Z</time>
      </trkpt>
      <trkpt lat="49.37022" lon="1.14427">
        <ele>127</ele>
        <time>2017-04-11T15:01:44Z</time>
      </trkpt>
      <trkpt lat="49.37019" lon="1.14421">
        <ele>127</ele>
        <time>2017-04-11T15:01:44Z</time>
      </trkpt>
      <trkpt lat="49.37018" lon="1.14418">
        <ele>127</ele>
        <time>2017-04-11T15:01:44Z</time>
      </trkpt>
      <trkpt lat="49.37014" lon="1.14411">
        <ele>127</ele>
        <time>2017-04-11T15:01:59Z</time>
      </trkpt>
      <trkpt lat="49.37011" lon="1.14406">
        <ele>127</ele>
        <time>2017-04-11T15:01:59Z</time>
      </trkpt>
      <trkpt lat="49.37008" lon="1.144">
        <ele>127</ele>
        <time>2017-04-11T15:01:59Z</time>
      </trkpt>
      <trkpt lat="49.37005" lon="1.14394">
        <ele>127</ele>
        <time>2017-04-11T15:01:59Z</time>
      </trkpt>
      <trkpt lat="49.37003" lon="1.14387">
        <ele>127</ele>
        <time>2017-04-11T15:02:15Z</time>
      </trkpt>
      <trkpt lat="49.37002" lon="1.14382">
        <ele>127</ele>
        <time>2017-04-11T15:02:15Z</time>
      </trkpt>
      <trkpt lat="49.36999" lon="1.14375">
        <ele>127</ele>
        <time>2017-04-11T15:02:15Z</time>
      </trkpt>
      <trkpt lat="49.36995" lon="1.14366">
        <ele>128</ele>
        <time>2017-04-11T15:02:15Z</time>
      </trkpt>
      <trkpt lat="49.36992" lon="1.1436">
        <ele>128</ele>
        <time>2017-04-11T15:02:31Z</time>
      </trkpt>
      <trkpt lat="49.36989" lon="1.14355">
        <ele>128</ele>
        <time>2017-04-11T15:02:31Z</time>
      </trkpt>
      <trkpt lat="49.36985" lon="1.1435">
        <ele>128</ele>
        <time>2017-04-11T15:02:31Z</time>
      </trkpt>
      <trkpt lat="49.36981" lon="1.14346">
        <ele>128</ele>
        <time>2017-04-11T15:02:31Z</time>
      </trkpt>
      <trkpt lat="49.3698" lon="1.14342">
        <ele>128</ele>
        <time>2017-04-11T15:02:47Z</time>
      </trkpt>
      <trkpt lat="49.3698" lon="1.14334">
        <ele>128</ele>
        <time>2017-04-11T15:02:48Z</time>
      </trkpt>
      <trkpt lat="49.36978" lon="1.14328">
        <ele>128</ele>
        <time>2017-04-11T15:02:48Z</time>
      </trkpt>
      <trkpt lat="49.36974" lon="1.14321">
        <ele>128</ele>
        <time>2017-04-11T15:02:48Z</time>
      </trkpt>
      <trkpt lat="49.36969" lon="1.14316">
        <ele>128</ele>
        <time>2017-04-11T15:03:12Z</time>
      </trkpt>
      <trkpt lat="49.36967" lon="1.14309">
        <ele>128</ele>
        <time>2017-04-11T15:03:12Z</time>
      </trkpt>
      <trkpt lat="49.36965" lon="1.14299">
        <ele>128</ele>
        <time>2017-04-11T15:03:12Z</time>
      </trkpt>
      <trkpt lat="49.36954" lon="1.14283">
        <ele>132</ele>
        <time>2017-04-11T15:03:12Z</time>
      </trkpt>
      <trkpt lat="49.36951" lon="1.14278">
        <ele>132</ele>
        <time>2017-04-11T15:03:27Z</time>
      </trkpt>
      <trkpt lat="49.3695" lon="1.14273">
        <ele>132</ele>
        <time>2017-04-11T15:03:27Z</time>
      </trkpt>
      <trkpt lat="49.36948" lon="1.14267">
        <ele>132</ele>
        <time>2017-04-11T15:03:27Z</time>
      </trkpt>
      <trkpt lat="49.36946" lon="1.14263">
        <ele>132</ele>
        <time>2017-04-11T15:03:27Z</time>
      </trkpt>
      <trkpt lat="49.36945" lon="1.1426">
        <ele>132</ele>
        <time>2017-04-11T15:03:44Z</time>
      </trkpt>
      <trkpt lat="49.36943" lon="1.1425">
        <ele>132</ele>
        <time>2017-04-11T15:03:44Z</time>
      </trkpt>
      <trkpt lat="49.36942" lon="1.1424">
        <ele>132</ele>
        <time>2017-04-11T15:03:44Z</time>
      </trkpt>
      <trkpt lat="49.36942" lon="1.14234">
        <ele>132</ele>
        <time>2017-04-11T15:03:44Z</time>
      </trkpt>
      <trkpt lat="49.36939" lon="1.14225">
        <ele>132</ele>
        <time>2017-04-11T15:03:59Z</time>
      </trkpt>
      <trkpt lat="49.36938" lon="1.1422">
        <ele>132</ele>
        <time>2017-04-11T15:03:59Z</time>
      </trkpt>
      <trkpt lat="49.36936" lon="1.14214">
        <ele>132</ele>
        <time>2017-04-11T15:03:59Z</time>
      </trkpt>
      <trkpt lat="49.36935" lon="1.14209">
        <ele>132</ele>
        <time>2017-04-11T15:03:59Z</time>
      </trkpt>
      <trkpt lat="49.36932" lon="1.14204">
        <ele>127</ele>
        <time>2017-04-11T15:04:15Z</time>
      </trkpt>
      <trkpt lat="49.36931" lon="1.14199">
        <ele>127</ele>
        <time>2017-04-11T15:04:15Z</time>
      </trkpt>
      <trkpt lat="49.36929" lon="1.14191">
        <ele>127</ele>
        <time>2017-04-11T15:04:15Z</time>
      </trkpt>
      <trkpt lat="49.36927" lon="1.14181">
        <ele>127</ele>
        <time>2017-04-11T15:04:15Z</time>
      </trkpt>
      <trkpt lat="49.36927" lon="1.1417">
        <ele>127</ele>
        <time>2017-04-11T15:05:19Z</time>
      </trkpt>
      <trkpt lat="49.36927" lon="1.1417">
        <ele>127</ele>
        <time>2017-04-11T15:05:19Z</time>
      </trkpt>
      <trkpt lat="49.36927" lon="1.1417">
        <ele>127</ele>
        <time>2017-04-11T15:05:20Z</time>
      </trkpt>
      <trkpt lat="49.36924" lon="1.14163">
        <ele>127</ele>
        <time>2017-04-11T15:05:20Z</time>
      </trkpt>
      <trkpt lat="49.36922" lon="1.14158">
        <ele>127</ele>
        <time>2017-04-11T15:05:20Z</time>
      </trkpt>
      <trkpt lat="49.36915" lon="1.14139">
        <ele>127</ele>
        <time>2017-04-11T15:05:43Z</time>
      </trkpt>
      <trkpt lat="49.36913" lon="1.14133">
        <ele>127</ele>
        <time>2017-04-11T15:05:43Z</time>
      </trkpt>
      <trkpt lat="49.36912" lon="1.14128">
        <ele>127</ele>
        <time>2017-04-11T15:05:44Z</time>
      </trkpt>
      <trkpt lat="49.3691" lon="1.14121">
        <ele>126</ele>
        <time>2017-04-11T15:05:45Z</time>
      </trkpt>
      <trkpt lat="49.36907" lon="1.14115">
        <ele>126</ele>
        <time>2017-04-11T15:05:59Z</time>
      </trkpt>
      <trkpt lat="49.36904" lon="1.14108">
        <ele>126</ele>
        <time>2017-04-11T15:05:59Z</time>
      </trkpt>
      <trkpt lat="49.36904" lon="1.141">
        <ele>126</ele>
        <time>2017-04-11T15:05:59Z</time>
      </trkpt>
      <trkpt lat="49.36903" lon="1.14094">
        <ele>126</ele>
        <time>2017-04-11T15:05:59Z</time>
      </trkpt>
      <trkpt lat="49.369" lon="1.14086">
        <ele>126</ele>
        <time>2017-04-11T15:06:15Z</time>
      </trkpt>
      <trkpt lat="49.36898" lon="1.14082">
        <ele>126</ele>
        <time>2017-04-11T15:06:15Z</time>
      </trkpt>
      <trkpt lat="49.36896" lon="1.14073">
        <ele>126</ele>
        <time>2017-04-11T15:06:15Z</time>
      </trkpt>
      <trkpt lat="49.36894" lon="1.14068">
        <ele>126</ele>
        <time>2017-04-11T15:06:15Z</time>
      </trkpt>
      <trkpt lat="49.36893" lon="1.14062">
        <ele>126</ele>
        <time>2017-04-11T15:06:31Z</time>
      </trkpt>
      <trkpt lat="49.3689" lon="1.14055">
        <ele>126</ele>
        <time>2017-04-11T15:06:32Z</time>
      </trkpt>
      <trkpt lat="49.36889" lon="1.14047">
        <ele>126</ele>
        <time>2017-04-11T15:06:33Z</time>
      </trkpt>
      <trkpt lat="49.36887" lon="1.14043">
        <ele>126</ele>
        <time>2017-04-11T15:06:33Z</time>
      </trkpt>
      <trkpt lat="49.36886" lon="1.14036">
        <ele>127</ele>
        <time>2017-04-11T15:06:47Z</time>
      </trkpt>
      <trkpt lat="49.36881" lon="1.14027">
        <ele>127</ele>
        <time>2017-04-11T15:06:47Z</time>
      </trkpt>
      <trkpt lat="49.3688" lon="1.14026">
        <ele>127</ele>
        <time>2017-04-11T15:06:47Z</time>
      </trkpt>
      <trkpt lat="49.36876" lon="1.14014">
        <ele>127</ele>
        <time>2017-04-11T15:06:47Z</time>
      </trkpt>
      <trkpt lat="49.36875" lon="1.14007">
        <ele>129</ele>
        <time>2017-04-11T15:07:03Z</time>
      </trkpt>
      <trkpt lat="49.36871" lon="1.13999">
        <ele>129</ele>
        <time>2017-04-11T15:07:03Z</time>
      </trkpt>
      <trkpt lat="49.36872" lon="1.13993">
        <ele>129</ele>
        <time>2017-04-11T15:07:03Z</time>
      </trkpt>
      <trkpt lat="49.36871" lon="1.13987">
        <ele>129</ele>
        <time>2017-04-11T15:07:03Z</time>
      </trkpt>
      <trkpt lat="49.36869" lon="1.13979">
        <ele>129</ele>
        <time>2017-04-11T15:07:20Z</time>
      </trkpt>
      <trkpt lat="49.36868" lon="1.13973">
        <ele>129</ele>
        <time>2017-04-11T15:07:20Z</time>
      </trkpt>
      <trkpt lat="49.36868" lon="1.13966">
        <ele>129</ele>
        <time>2017-04-11T15:07:20Z</time>
      </trkpt>
      <trkpt lat="49.36866" lon="1.13955">
        <ele>127</ele>
        <time>2017-04-11T15:07:20Z</time>
      </trkpt>
      <trkpt lat="49.36861" lon="1.13952">
        <ele>127</ele>
        <time>2017-04-11T15:07:35Z</time>
      </trkpt>
      <trkpt lat="49.36862" lon="1.13944">
        <ele>127</ele>
        <time>2017-04-11T15:07:35Z</time>
      </trkpt>
      <trkpt lat="49.36861" lon="1.1394">
        <ele>127</ele>
        <time>2017-04-11T15:07:35Z</time>
      </trkpt>
      <trkpt lat="49.36859" lon="1.13932">
        <ele>127</ele>
        <time>2017-04-11T15:07:35Z</time>
      </trkpt>
      <trkpt lat="49.36855" lon="1.13923">
        <ele>127</ele>
        <time>2017-04-11T15:07:51Z</time>
      </trkpt>
      <trkpt lat="49.36854" lon="1.13911">
        <ele>127</ele>
        <time>2017-04-11T15:07:51Z</time>
      </trkpt>
      <trkpt lat="49.36852" lon="1.1391">
        <ele>127</ele>
        <time>2017-04-11T15:07:51Z</time>
      </trkpt>
      <trkpt lat="49.36852" lon="1.13903">
        <ele>127</ele>
        <time>2017-04-11T15:07:51Z</time>
      </trkpt>
      <trkpt lat="49.36851" lon="1.13894">
        <ele>127</ele>
        <time>2017-04-11T15:08:07Z</time>
      </trkpt>
      <trkpt lat="49.36847" lon="1.13887">
        <ele>127</ele>
        <time>2017-04-11T15:08:07Z</time>
      </trkpt>
      <trkpt lat="49.36845" lon="1.13878">
        <ele>127</ele>
        <time>2017-04-11T15:08:07Z</time>
      </trkpt>
      <trkpt lat="49.36842" lon="1.13874">
        <ele>124</ele>
        <time>2017-04-11T15:08:07Z</time>
      </trkpt>
      <trkpt lat="49.36838" lon="1.13871">
        <ele>124</ele>
        <time>2017-04-11T15:08:24Z</time>
      </trkpt>
      <trkpt lat="49.36835" lon="1.13867">
        <ele>124</ele>
        <time>2017-04-11T15:08:24Z</time>
      </trkpt>
      <trkpt lat="49.36835" lon="1.13863">
        <ele>124</ele>
        <time>2017-04-11T15:08:24Z</time>
      </trkpt>
      <trkpt lat="49.36831" lon="1.1386">
        <ele>124</ele>
        <time>2017-04-11T15:08:24Z</time>
      </trkpt>
      <trkpt lat="49.36834" lon="1.13855">
        <ele>124</ele>
        <time>2017-04-11T15:09:56Z</time>
      </trkpt>
      <trkpt lat="49.36834" lon="1.13855">
        <ele>124</ele>
        <time>2017-04-11T15:09:56Z</time>
      </trkpt>
      <trkpt lat="49.36834" lon="1.13855">
        <ele>124</ele>
        <time>2017-04-11T15:09:56Z</time>
      </trkpt>
      <trkpt lat="49.36834" lon="1.13855">
        <ele>124</ele>
        <time>2017-04-11T15:09:56Z</time>
      </trkpt>
      <trkpt lat="49.36838" lon="1.13845">
        <ele>124</ele>
        <time>2017-04-11T15:09:56Z</time>
      </trkpt>
      <trkpt lat="49.36838" lon="1.13839">
        <ele>124</ele>
        <time>2017-04-11T15:10:11Z</time>
      </trkpt>
      <trkpt lat="49.36837" lon="1.13836">
        <ele>124</ele>
        <time>2017-04-11T15:10:12Z</time>
      </trkpt>
      <trkpt lat="49.36841" lon="1.13824">
        <ele>124</ele>
        <time>2017-04-11T15:10:12Z</time>
      </trkpt>
      <trkpt lat="49.36843" lon="1.1382">
        <ele>124</ele>
        <time>2017-04-11T15:10:12Z</time>
      </trkpt>
      <trkpt lat="49.36844" lon="1.1381">
        <ele>124</ele>
        <time>2017-04-11T15:10:28Z</time>
      </trkpt>
      <trkpt lat="49.36844" lon="1.13811">
        <ele>124</ele>
        <time>2017-04-11T15:10:28Z</time>
      </trkpt>
      <trkpt lat="49.36848" lon="1.13803">
        <ele>124</ele>
        <time>2017-04-11T15:10:28Z</time>
      </trkpt>
      <trkpt lat="49.3685" lon="1.13795">
        <ele>124</ele>
        <time>2017-04-11T15:10:28Z</time>
      </trkpt>
      <trkpt lat="49.36849" lon="1.13785">
        <ele>119</ele>
        <time>2017-04-11T15:10:43Z</time>
      </trkpt>
      <trkpt lat="49.36848" lon="1.13779">
        <ele>119</ele>
        <time>2017-04-11T15:10:43Z</time>
      </trkpt>
      <trkpt lat="49.36848" lon="1.13772">
        <ele>119</ele>
        <time>2017-04-11T15:10:43Z</time>
      </trkpt>
      <trkpt lat="49.36852" lon="1.13761">
        <ele>119</ele>
        <time>2017-04-11T15:10:43Z</time>
      </trkpt>
      <trkpt lat="49.36851" lon="1.13755">
        <ele>119</ele>
        <time>2017-04-11T15:11:03Z</time>
      </trkpt>
      <trkpt lat="49.36851" lon="1.1375">
        <ele>119</ele>
        <time>2017-04-11T15:11:03Z</time>
      </trkpt>
      <trkpt lat="49.36847" lon="1.13746">
        <ele>119</ele>
        <time>2017-04-11T15:11:03Z</time>
      </trkpt>
      <trkpt lat="49.36848" lon="1.13743">
        <ele>119</ele>
        <time>2017-04-11T15:11:03Z</time>
      </trkpt>
      <trkpt lat="49.36856" lon="1.13733">
        <ele>119</ele>
        <time>2017-04-11T15:11:03Z</time>
      </trkpt>
      <trkpt lat="49.36847" lon="1.13731">
        <ele>119</ele>
        <time>2017-04-11T15:11:19Z</time>
      </trkpt>
      <trkpt lat="49.3684" lon="1.13729">
        <ele>119</ele>
        <time>2017-04-11T15:11:19Z</time>
      </trkpt>
      <trkpt lat="49.36837" lon="1.13722">
        <ele>119</ele>
        <time>2017-04-11T15:11:19Z</time>
      </trkpt>
      <trkpt lat="49.36825" lon="1.13721">
        <ele>119</ele>
        <time>2017-04-11T15:11:19Z</time>
      </trkpt>
      <trkpt lat="49.3683" lon="1.13714">
        <ele>119</ele>
        <time>2017-04-11T15:11:36Z</time>
      </trkpt>
      <trkpt lat="49.36826" lon="1.13711">
        <ele>119</ele>
        <time>2017-04-11T15:11:37Z</time>
      </trkpt>
      <trkpt lat="49.36826" lon="1.13702">
        <ele>114</ele>
        <time>2017-04-11T15:11:37Z</time>
      </trkpt>
      <trkpt lat="49.36823" lon="1.13694">
        <ele>114</ele>
        <time>2017-04-11T15:11:37Z</time>
      </trkpt>
      <trkpt lat="49.36821" lon="1.13686">
        <ele>114</ele>
        <time>2017-04-11T15:11:55Z</time>
      </trkpt>
      <trkpt lat="49.36819" lon="1.13684">
        <ele>114</ele>
        <time>2017-04-11T15:11:56Z</time>
      </trkpt>
      <trkpt lat="49.3682" lon="1.13675">
        <ele>114</ele>
        <time>2017-04-11T15:11:56Z</time>
      </trkpt>
      <trkpt lat="49.36819" lon="1.1367">
        <ele>114</ele>
        <time>2017-04-11T15:11:56Z</time>
      </trkpt>
      <trkpt lat="49.36815" lon="1.13663">
        <ele>114</ele>
        <time>2017-04-11T15:12:11Z</time>
      </trkpt>
      <trkpt lat="49.3681" lon="1.13662">
        <ele>114</ele>
        <time>2017-04-11T15:12:11Z</time>
      </trkpt>
      <trkpt lat="49.36806" lon="1.13655">
        <ele>114</ele>
        <time>2017-04-11T15:12:11Z</time>
      </trkpt>
      <trkpt lat="49.36808" lon="1.13644">
        <ele>114</ele>
        <time>2017-04-11T15:12:11Z</time>
      </trkpt>
      <trkpt lat="49.36808" lon="1.1364">
        <ele>114</ele>
        <time>2017-04-11T15:12:27Z</time>
      </trkpt>
      <trkpt lat="49.36805" lon="1.13633">
        <ele>114</ele>
        <time>2017-04-11T15:12:27Z</time>
      </trkpt>
      <trkpt lat="49.36805" lon="1.13626">
        <ele>114</ele>
        <time>2017-04-11T15:12:27Z</time>
      </trkpt>
      <trkpt lat="49.36804" lon="1.13619">
        <ele>108</ele>
        <time>2017-04-11T15:12:27Z</time>
      </trkpt>
      <trkpt lat="49.36802" lon="1.13608">
        <ele>108</ele>
        <time>2017-04-11T15:12:47Z</time>
      </trkpt>
      <trkpt lat="49.36798" lon="1.13603">
        <ele>108</ele>
        <time>2017-04-11T15:12:47Z</time>
      </trkpt>
      <trkpt lat="49.36797" lon="1.13598">
        <ele>108</ele>
        <time>2017-04-11T15:12:47Z</time>
      </trkpt>
      <trkpt lat="49.36794" lon="1.13595">
        <ele>108</ele>
        <time>2017-04-11T15:12:47Z</time>
      </trkpt>
      <trkpt lat="49.36795" lon="1.13588">
        <ele>108</ele>
        <time>2017-04-11T15:13:03Z</time>
      </trkpt>
      <trkpt lat="49.36797" lon="1.13582">
        <ele>108</ele>
        <time>2017-04-11T15:13:03Z</time>
      </trkpt>
      <trkpt lat="49.36796" lon="1.13573">
        <ele>108</ele>
        <time>2017-04-11T15:13:03Z</time>
      </trkpt>
      <trkpt lat="49.36789" lon="1.13572">
        <ele>100</ele>
        <time>2017-04-11T15:13:03Z</time>
      </trkpt>
      <trkpt lat="49.36787" lon="1.13562">
        <ele>100</ele>
        <time>2017-04-11T15:13:20Z</time>
      </trkpt>
      <trkpt lat="49.36784" lon="1.13554">
        <ele>100</ele>
        <time>2017-04-11T15:13:21Z</time>
      </trkpt>
      <trkpt lat="49.36781" lon="1.13551">
        <ele>100</ele>
        <time>2017-04-11T15:13:21Z</time>
      </trkpt>
      <trkpt lat="49.36782" lon="1.13544">
        <ele>100</ele>
        <time>2017-04-11T15:13:21Z</time>
      </trkpt>
      <trkpt lat="49.36779" lon="1.13539">
        <ele>88</ele>
        <time>2017-04-11T15:13:35Z</time>
      </trkpt>
      <trkpt lat="49.36776" lon="1.13537">
        <ele>88</ele>
        <time>2017-04-11T15:13:36Z</time>
      </trkpt>
      <trkpt lat="49.36776" lon="1.1353">
        <ele>88</ele>
        <time>2017-04-11T15:13:36Z</time>
      </trkpt>
      <trkpt lat="49.36773" lon="1.13524">
        <ele>88</ele>
        <time>2017-04-11T15:13:36Z</time>
      </trkpt>
      <trkpt lat="49.36772" lon="1.13522">
        <ele>88</ele>
        <time>2017-04-11T15:13:52Z</time>
      </trkpt>
      <trkpt lat="49.36769" lon="1.13519">
        <ele>88</ele>
        <time>2017-04-11T15:13:52Z</time>
      </trkpt>
      <trkpt lat="49.36767" lon="1.13512">
        <ele>88</ele>
        <time>2017-04-11T15:13:52Z</time>
      </trkpt>
      <trkpt lat="49.36764" lon="1.13499">
        <ele>88</ele>
        <time>2017-04-11T15:13:52Z</time>
      </trkpt>
      <trkpt lat="49.36764" lon="1.13493">
        <ele>88</ele>
        <time>2017-04-11T15:14:07Z</time>
      </trkpt>
      <trkpt lat="49.36763" lon="1.13487">
        <ele>88</ele>
        <time>2017-04-11T15:14:07Z</time>
      </trkpt>
      <trkpt lat="49.36759" lon="1.13481">
        <ele>88</ele>
        <time>2017-04-11T15:14:07Z</time>
      </trkpt>
      <trkpt lat="49.36755" lon="1.13476">
        <ele>88</ele>
        <time>2017-04-11T15:14:07Z</time>
      </trkpt>
      <trkpt lat="49.36756" lon="1.1347">
        <ele>88</ele>
        <time>2017-04-11T15:14:23Z</time>
      </trkpt>
      <trkpt lat="49.36757" lon="1.13466">
        <ele>88</ele>
        <time>2017-04-11T15:14:23Z</time>
      </trkpt>
      <trkpt lat="49.36756" lon="1.13456">
        <ele>83</ele>
        <time>2017-04-11T15:14:23Z</time>
      </trkpt>
      <trkpt lat="49.36756" lon="1.13451">
        <ele>83</ele>
        <time>2017-04-11T15:14:23Z</time>
      </trkpt>
      <trkpt lat="49.36754" lon="1.13448">
        <ele>83</ele>
        <time>2017-04-11T15:14:39Z</time>
      </trkpt>
      <trkpt lat="49.36752" lon="1.13441">
        <ele>83</ele>
        <time>2017-04-11T15:14:40Z</time>
      </trkpt>
      <trkpt lat="49.36748" lon="1.1343">
        <ele>83</ele>
        <time>2017-04-11T15:14:41Z</time>
      </trkpt>
      <trkpt lat="49.36745" lon="1.13425">
        <ele>83</ele>
        <time>2017-04-11T15:14:41Z</time>
      </trkpt>
      <trkpt lat="49.36746" lon="1.13423">
        <ele>83</ele>
        <time>2017-04-11T15:14:56Z</time>
      </trkpt>
      <trkpt lat="49.36743" lon="1.13418">
        <ele>83</ele>
        <time>2017-04-11T15:14:57Z</time>
      </trkpt>
      <trkpt lat="49.36739" lon="1.13412">
        <ele>83</ele>
        <time>2017-04-11T15:14:57Z</time>
      </trkpt>
      <trkpt lat="49.36736" lon="1.13406">
        <ele>83</ele>
        <time>2017-04-11T15:14:57Z</time>
      </trkpt>
      <trkpt lat="49.36729" lon="1.13408">
        <ele>83</ele>
        <time>2017-04-11T15:15:11Z</time>
      </trkpt>
      <trkpt lat="49.3673" lon="1.13401">
        <ele>83</ele>
        <time>2017-04-11T15:15:11Z</time>
      </trkpt>
      <trkpt lat="49.36731" lon="1.13393">
        <ele>83</ele>
        <time>2017-04-11T15:15:11Z</time>
      </trkpt>
      <trkpt lat="49.36725" lon="1.13391">
        <ele>83</ele>
        <time>2017-04-11T15:15:11Z</time>
      </trkpt>
      <trkpt lat="49.36724" lon="1.13386">
        <ele>83</ele>
        <time>2017-04-11T15:15:28Z</time>
      </trkpt>
      <trkpt lat="49.36723" lon="1.13378">
        <ele>83</ele>
        <time>2017-04-11T15:15:28Z</time>
      </trkpt>
      <trkpt lat="49.36718" lon="1.13374">
        <ele>77</ele>
        <time>2017-04-11T15:15:28Z</time>
      </trkpt>
      <trkpt lat="49.36713" lon="1.1337">
        <ele>77</ele>
        <time>2017-04-11T15:15:28Z</time>
      </trkpt>
      <trkpt lat="49.36715" lon="1.1337">
        <ele>77</ele>
        <time>2017-04-11T15:15:44Z</time>
      </trkpt>
      <trkpt lat="49.36717" lon="1.13366">
        <ele>77</ele>
        <time>2017-04-11T15:15:44Z</time>
      </trkpt>
      <trkpt lat="49.36715" lon="1.13358">
        <ele>77</ele>
        <time>2017-04-11T15:15:44Z</time>
      </trkpt>
      <trkpt lat="49.36714" lon="1.13356">
        <ele>77</ele>
        <time>2017-04-11T15:15:44Z</time>
      </trkpt>
      <trkpt lat="49.36712" lon="1.13345">
        <ele>77</ele>
        <time>2017-04-11T15:15:59Z</time>
      </trkpt>
      <trkpt lat="49.36708" lon="1.13342">
        <ele>77</ele>
        <time>2017-04-11T15:15:59Z</time>
      </trkpt>
      <trkpt lat="49.36708" lon="1.13332">
        <ele>77</ele>
        <time>2017-04-11T15:15:59Z</time>
      </trkpt>
      <trkpt lat="49.36705" lon="1.13332">
        <ele>77</ele>
        <time>2017-04-11T15:15:59Z</time>
      </trkpt>
      <trkpt lat="49.36707" lon="1.13325">
        <ele>77</ele>
        <time>2017-04-11T15:16:16Z</time>
      </trkpt>
      <trkpt lat="49.36705" lon="1.13316">
        <ele>77</ele>
        <time>2017-04-11T15:16:17Z</time>
      </trkpt>
      <trkpt lat="49.36702" lon="1.13313">
        <ele>77</ele>
        <time>2017-04-11T15:16:17Z</time>
      </trkpt>
      <trkpt lat="49.36702" lon="1.13309">
        <ele>77</ele>
        <time>2017-04-11T15:16:17Z</time>
      </trkpt>
      <trkpt lat="49.36703" lon="1.13306">
        <ele>77</ele>
        <time>2017-04-11T15:16:36Z</time>
      </trkpt>
      <trkpt lat="49.36702" lon="1.13303">
        <ele>77</ele>
        <time>2017-04-11T15:16:36Z</time>
      </trkpt>
      <trkpt lat="49.367" lon="1.13302">
        <ele>77</ele>
        <time>2017-04-11T15:16:36Z</time>
      </trkpt>
      <trkpt lat="49.36697" lon="1.13302">
        <ele>77</ele>
        <time>2017-04-11T15:16:36Z</time>
      </trkpt>
      <trkpt lat="49.36695" lon="1.13299">
        <ele>77</ele>
        <time>2017-04-11T15:16:36Z</time>
      </trkpt>
      <trkpt lat="49.36693" lon="1.13291">
        <ele>71</ele>
        <time>2017-04-11T15:16:52Z</time>
      </trkpt>
      <trkpt lat="49.36692" lon="1.13287">
        <ele>71</ele>
        <time>2017-04-11T15:16:52Z</time>
      </trkpt>
      <trkpt lat="49.3669" lon="1.13277">
        <ele>71</ele>
        <time>2017-04-11T15:16:52Z</time>
      </trkpt>
      <trkpt lat="49.36692" lon="1.13272">
        <ele>71</ele>
        <time>2017-04-11T15:16:52Z</time>
      </trkpt>
      <trkpt lat="49.36691" lon="1.13268">
        <ele>71</ele>
        <time>2017-04-11T15:17:07Z</time>
      </trkpt>
      <trkpt lat="49.36693" lon="1.13261">
        <ele>71</ele>
        <time>2017-04-11T15:17:07Z</time>
      </trkpt>
      <trkpt lat="49.36691" lon="1.13256">
        <ele>71</ele>
        <time>2017-04-11T15:17:07Z</time>
      </trkpt>
      <trkpt lat="49.36689" lon="1.13251">
        <ele>71</ele>
        <time>2017-04-11T15:17:07Z</time>
      </trkpt>
      <trkpt lat="49.36687" lon="1.13244">
        <ele>71</ele>
        <time>2017-04-11T15:17:23Z</time>
      </trkpt>
      <trkpt lat="49.36687" lon="1.1324">
        <ele>71</ele>
        <time>2017-04-11T15:17:23Z</time>
      </trkpt>
      <trkpt lat="49.36687" lon="1.13233">
        <ele>71</ele>
        <time>2017-04-11T15:17:23Z</time>
      </trkpt>
      <trkpt lat="49.36687" lon="1.13227">
        <ele>71</ele>
        <time>2017-04-11T15:17:23Z</time>
      </trkpt>
      <trkpt lat="49.36683" lon="1.13226">
        <ele>71</ele>
        <time>2017-04-11T15:17:39Z</time>
      </trkpt>
      <trkpt lat="49.36683" lon="1.13213">
        <ele>71</ele>
        <time>2017-04-11T15:17:40Z</time>
      </trkpt>
      <trkpt lat="49.36682" lon="1.13207">
        <ele>63</ele>
        <time>2017-04-11T15:17:40Z</time>
      </trkpt>
      <trkpt lat="49.36681" lon="1.13199">
        <ele>63</ele>
        <time>2017-04-11T15:17:40Z</time>
      </trkpt>
      <trkpt lat="49.36678" lon="1.1319">
        <ele>63</ele>
        <time>2017-04-11T15:17:59Z</time>
      </trkpt>
      <trkpt lat="49.36679" lon="1.13187">
        <ele>63</ele>
        <time>2017-04-11T15:18:00Z</time>
      </trkpt>
      <trkpt lat="49.36681" lon="1.13183">
        <ele>63</ele>
        <time>2017-04-11T15:18:00Z</time>
      </trkpt>
      <trkpt lat="49.3668" lon="1.13178">
        <ele>63</ele>
        <time>2017-04-11T15:18:00Z</time>
      </trkpt>
      <trkpt lat="49.36679" lon="1.13173">
        <ele>63</ele>
        <time>2017-04-11T15:18:00Z</time>
      </trkpt>
      <trkpt lat="49.36681" lon="1.13171">
        <ele>63</ele>
        <time>2017-04-11T15:18:15Z</time>
      </trkpt>
      <trkpt lat="49.36687" lon="1.13164">
        <ele>63</ele>
        <time>2017-04-11T15:18:15Z</time>
      </trkpt>
      <trkpt lat="49.36691" lon="1.13156">
        <ele>63</ele>
        <time>2017-04-11T15:18:15Z</time>
      </trkpt>
      <trkpt lat="49.3669" lon="1.13152">
        <ele>63</ele>
        <time>2017-04-11T15:18:15Z</time>
      </trkpt>
      <trkpt lat="49.36691" lon="1.13146">
        <ele>63</ele>
        <time>2017-04-11T15:18:31Z</time>
      </trkpt>
      <trkpt lat="49.36693" lon="1.13139">
        <ele>63</ele>
        <time>2017-04-11T15:18:31Z</time>
      </trkpt>
      <trkpt lat="49.36694" lon="1.13127">
        <ele>63</ele>
        <time>2017-04-11T15:18:31Z</time>
      </trkpt>
      <trkpt lat="49.36696" lon="1.13121">
        <ele>51</ele>
        <time>2017-04-11T15:18:31Z</time>
      </trkpt>
      <trkpt lat="49.36699" lon="1.13116">
        <ele>51</ele>
        <time>2017-04-11T15:18:47Z</time>
      </trkpt>
      <trkpt lat="49.36703" lon="1.13115">
        <ele>51</ele>
        <time>2017-04-11T15:18:47Z</time>
      </trkpt>
      <trkpt lat="49.36706" lon="1.13108">
        <ele>51</ele>
        <time>2017-04-11T15:18:47Z</time>
      </trkpt>
      <trkpt lat="49.36711" lon="1.131">
        <ele>49</ele>
        <time>2017-04-11T15:18:48Z</time>
      </trkpt>
      <trkpt lat="49.36722" lon="1.1307">
        <ele>49</ele>
        <time>2017-04-11T15:19:24Z</time>
      </trkpt>
      <trkpt lat="49.36726" lon="1.13061">
        <ele>49</ele>
        <time>2017-04-11T15:19:24Z</time>
      </trkpt>
      <trkpt lat="49.36726" lon="1.13058">
        <ele>49</ele>
        <time>2017-04-11T15:19:25Z</time>
      </trkpt>
      <trkpt lat="49.36729" lon="1.13047">
        <ele>49</ele>
        <time>2017-04-11T15:19:25Z</time>
      </trkpt>
      <trkpt lat="49.36732" lon="1.13046">
        <ele>49</ele>
        <time>2017-04-11T15:19:25Z</time>
      </trkpt>
      <trkpt lat="49.36734" lon="1.13045">
        <ele>49</ele>
        <time>2017-04-11T15:19:44Z</time>
      </trkpt>
      <trkpt lat="49.36733" lon="1.1304">
        <ele>33</ele>
        <time>2017-04-11T15:19:44Z</time>
      </trkpt>
      <trkpt lat="49.36736" lon="1.13037">
        <ele>33</ele>
        <time>2017-04-11T15:19:44Z</time>
      </trkpt>
      <trkpt lat="49.36737" lon="1.13033">
        <ele>33</ele>
        <time>2017-04-11T15:19:44Z</time>
      </trkpt>
      <trkpt lat="49.36739" lon="1.13033">
        <ele>33</ele>
        <time>2017-04-11T15:19:44Z</time>
      </trkpt>
      <trkpt lat="49.36744" lon="1.13023">
        <ele>33</ele>
        <time>2017-04-11T15:20:32Z</time>
      </trkpt>
      <trkpt lat="49.36744" lon="1.13023">
        <ele>33</ele>
        <time>2017-04-11T15:20:32Z</time>
      </trkpt>
      <trkpt lat="49.36744" lon="1.13018">
        <ele>33</ele>
        <time>2017-04-11T15:20:32Z</time>
      </trkpt>
      <trkpt lat="49.36752" lon="1.13013">
        <ele>33</ele>
        <time>2017-04-11T15:20:32Z</time>
      </trkpt>
      <trkpt lat="49.36756" lon="1.13008">
        <ele>33</ele>
        <time>2017-04-11T15:20:32Z</time>
      </trkpt>
      <trkpt lat="49.36756" lon="1.12999">
        <ele>33</ele>
        <time>2017-04-11T15:20:47Z</time>
      </trkpt>
      <trkpt lat="49.36756" lon="1.12996">
        <ele>33</ele>
        <time>2017-04-11T15:20:48Z</time>
      </trkpt>
      <trkpt lat="49.36757" lon="1.12987">
        <ele>33</ele>
        <time>2017-04-11T15:20:48Z</time>
      </trkpt>
      <trkpt lat="49.36762" lon="1.12981">
        <ele>33</ele>
        <time>2017-04-11T15:20:48Z</time>
      </trkpt>
      <trkpt lat="49.36768" lon="1.12978">
        <ele>33</ele>
        <time>2017-04-11T15:21:03Z</time>
      </trkpt>
      <trkpt lat="49.36773" lon="1.12973">
        <ele>33</ele>
        <time>2017-04-11T15:21:04Z</time>
      </trkpt>
      <trkpt lat="49.36776" lon="1.12967">
        <ele>33</ele>
        <time>2017-04-11T15:21:04Z</time>
      </trkpt>
      <trkpt lat="49.36778" lon="1.12965">
        <ele>33</ele>
        <time>2017-04-11T15:21:04Z</time>
      </trkpt>
      <trkpt lat="49.36784" lon="1.12957">
        <ele>14</ele>
        <time>2017-04-11T15:21:39Z</time>
      </trkpt>
      <trkpt lat="49.36785" lon="1.12956">
        <ele>14</ele>
        <time>2017-04-11T15:21:40Z</time>
      </trkpt>
      <trkpt lat="49.36786" lon="1.12955">
        <ele>14</ele>
        <time>2017-04-11T15:21:40Z</time>
      </trkpt>
      <trkpt lat="49.36787" lon="1.12955">
        <ele>14</ele>
        <time>2017-04-11T15:21:40Z</time>
      </trkpt>
      <trkpt lat="49.36794" lon="1.12953">
        <ele>15</ele>
        <time>2017-04-11T15:21:40Z</time>
      </trkpt>
      <trkpt lat="49.36799" lon="1.12951">
        <ele>15</ele>
        <time>2017-04-11T15:21:55Z</time>
      </trkpt>
      <trkpt lat="49.36806" lon="1.1295">
        <ele>15</ele>
        <time>2017-04-11T15:21:55Z</time>
      </trkpt>
      <trkpt lat="49.3681" lon="1.12951">
        <ele>15</ele>
        <time>2017-04-11T15:21:55Z</time>
      </trkpt>
      <trkpt lat="49.36814" lon="1.12952">
        <ele>15</ele>
        <time>2017-04-11T15:21:55Z</time>
      </trkpt>
      <trkpt lat="49.36819" lon="1.12953">
        <ele>15</ele>
        <time>2017-04-11T15:22:12Z</time>
      </trkpt>
      <trkpt lat="49.36823" lon="1.12952">
        <ele>15</ele>
        <time>2017-04-11T15:22:13Z</time>
      </trkpt>
      <trkpt lat="49.36829" lon="1.12955">
        <ele>15</ele>
        <time>2017-04-11T15:22:13Z</time>
      </trkpt>
      <trkpt lat="49.36834" lon="1.12957">
        <ele>15</ele>
        <time>2017-04-11T15:22:13Z</time>
      </trkpt>
      <trkpt lat="49.36837" lon="1.12959">
        <ele>30</ele>
        <time>2017-04-11T15:22:28Z</time>
      </trkpt>
      <trkpt lat="49.36842" lon="1.1296">
        <ele>30</ele>
        <time>2017-04-11T15:22:28Z</time>
      </trkpt>
      <trkpt lat="49.36845" lon="1.12963">
        <ele>30</ele>
        <time>2017-04-11T15:22:28Z</time>
      </trkpt>
      <trkpt lat="49.36852" lon="1.12966">
        <ele>30</ele>
        <time>2017-04-11T15:22:28Z</time>
      </trkpt>
      <trkpt lat="49.36857" lon="1.12968">
        <ele>30</ele>
        <time>2017-04-11T15:22:44Z</time>
      </trkpt>
      <trkpt lat="49.36862" lon="1.12969">
        <ele>30</ele>
        <time>2017-04-11T15:22:44Z</time>
      </trkpt>
      <trkpt lat="49.36862" lon="1.12971">
        <ele>30</ele>
        <time>2017-04-11T15:22:44Z</time>
      </trkpt>
      <trkpt lat="49.36868" lon="1.12973">
        <ele>30</ele>
        <time>2017-04-11T15:22:44Z</time>
      </trkpt>
      <trkpt lat="49.36872" lon="1.12967">
        <ele>30</ele>
        <time>2017-04-11T15:23:00Z</time>
      </trkpt>
      <trkpt lat="49.36876" lon="1.12963">
        <ele>12</ele>
        <time>2017-04-11T15:23:00Z</time>
      </trkpt>
      <trkpt lat="49.36876" lon="1.12957">
        <ele>9</ele>
        <time>2017-04-11T15:23:00Z</time>
      </trkpt>
      <trkpt lat="49.36876" lon="1.1295">
        <ele>9</ele>
        <time>2017-04-11T15:23:00Z</time>
      </trkpt>
      <trkpt lat="49.36876" lon="1.12939">
        <ele>9</ele>
        <time>2017-04-11T15:23:15Z</time>
      </trkpt>
      <trkpt lat="49.36874" lon="1.12934">
        <ele>15</ele>
        <time>2017-04-11T15:23:15Z</time>
      </trkpt>
      <trkpt lat="49.36873" lon="1.12923">
        <ele>15</ele>
        <time>2017-04-11T15:23:15Z</time>
      </trkpt>
      <trkpt lat="49.36872" lon="1.12915">
        <ele>15</ele>
        <time>2017-04-11T15:23:15Z</time>
      </trkpt>
      <trkpt lat="49.36874" lon="1.12902">
        <ele>15</ele>
        <time>2017-04-11T15:23:47Z</time>
      </trkpt>
      <trkpt lat="49.36876" lon="1.12899">
        <ele>9</ele>
        <time>2017-04-11T15:23:47Z</time>
      </trkpt>
      <trkpt lat="49.36879" lon="1.12895">
        <ele>9</ele>
        <time>2017-04-11T15:23:47Z</time>
      </trkpt>
      <trkpt lat="49.36881" lon="1.12895">
        <ele>9</ele>
        <time>2017-04-11T15:23:48Z</time>
      </trkpt>
      <trkpt lat="49.36885" lon="1.12898">
        <ele>9</ele>
        <time>2017-04-11T15:23:48Z</time>
      </trkpt>
      <trkpt lat="49.36887" lon="1.12899">
        <ele>9</ele>
        <time>2017-04-11T15:24:03Z</time>
      </trkpt>
      <trkpt lat="49.3689" lon="1.12902">
        <ele>9</ele>
        <time>2017-04-11T15:24:03Z</time>
      </trkpt>
      <trkpt lat="49.36894" lon="1.12908">
        <ele>9</ele>
        <time>2017-04-11T15:24:03Z</time>
      </trkpt>
      <trkpt lat="49.36895" lon="1.12912">
        <ele>9</ele>
        <time>2017-04-11T15:24:03Z</time>
      </trkpt>
      <trkpt lat="49.36897" lon="1.12918">
        <ele>9</ele>
        <time>2017-04-11T15:24:19Z</time>
      </trkpt>
      <trkpt lat="49.36899" lon="1.12919">
        <ele>9</ele>
        <time>2017-04-11T15:24:19Z</time>
      </trkpt>
      <trkpt lat="49.36901" lon="1.12924">
        <ele>9</ele>
        <time>2017-04-11T15:24:19Z</time>
      </trkpt>
      <trkpt lat="49.36905" lon="1.1293">
        <ele>9</ele>
        <time>2017-04-11T15:24:19Z</time>
      </trkpt>
      <trkpt lat="49.36908" lon="1.12936">
        <ele>9</ele>
        <time>2017-04-11T15:24:35Z</time>
      </trkpt>
      <trkpt lat="49.3691" lon="1.12941">
        <ele>9</ele>
        <time>2017-04-11T15:24:36Z</time>
      </trkpt>
      <trkpt lat="49.36913" lon="1.12944">
        <ele>9</ele>
        <time>2017-04-11T15:24:36Z</time>
      </trkpt>
      <trkpt lat="49.36915" lon="1.12952">
        <ele>9</ele>
        <time>2017-04-11T15:24:36Z</time>
      </trkpt>
      <trkpt lat="49.36917" lon="1.12958">
        <ele>9</ele>
        <time>2017-04-11T15:24:51Z</time>
      </trkpt>
      <trkpt lat="49.36919" lon="1.12963">
        <ele>12</ele>
        <time>2017-04-11T15:24:51Z</time>
      </trkpt>
      <trkpt lat="49.3692" lon="1.12964">
        <ele>12</ele>
        <time>2017-04-11T15:24:51Z</time>
      </trkpt>
      <trkpt lat="49.36922" lon="1.1297">
        <ele>12</ele>
        <time>2017-04-11T15:24:51Z</time>
      </trkpt>
      <trkpt lat="49.36926" lon="1.12975">
        <ele>12</ele>
        <time>2017-04-11T15:25:07Z</time>
      </trkpt>
      <trkpt lat="49.3693" lon="1.12978">
        <ele>12</ele>
        <time>2017-04-11T15:25:07Z</time>
      </trkpt>
      <trkpt lat="49.36934" lon="1.12983">
        <ele>12</ele>
        <time>2017-04-11T15:25:07Z</time>
      </trkpt>
      <trkpt lat="49.36935" lon="1.12989">
        <ele>12</ele>
        <time>2017-04-11T15:25:07Z</time>
      </trkpt>
      <trkpt lat="49.36937" lon="1.12993">
        <ele>12</ele>
        <time>2017-04-11T15:25:24Z</time>
      </trkpt>
      <trkpt lat="49.36941" lon="1.12996">
        <ele>12</ele>
        <time>2017-04-11T15:25:24Z</time>
      </trkpt>
      <trkpt lat="49.36945" lon="1.13">
        <ele>12</ele>
        <time>2017-04-11T15:25:24Z</time>
      </trkpt>
      <trkpt lat="49.36948" lon="1.13004">
        <ele>12</ele>
        <time>2017-04-11T15:25:24Z</time>
      </trkpt>
      <trkpt lat="49.36951" lon="1.13006">
        <ele>12</ele>
        <time>2017-04-11T15:25:40Z</time>
      </trkpt>
      <trkpt lat="49.36956" lon="1.1301">
        <ele>12</ele>
        <time>2017-04-11T15:25:40Z</time>
      </trkpt>
      <trkpt lat="49.36959" lon="1.13013">
        <ele>18</ele>
        <time>2017-04-11T15:25:40Z</time>
      </trkpt>
      <trkpt lat="49.36965" lon="1.13018">
        <ele>18</ele>
        <time>2017-04-11T15:25:40Z</time>
      </trkpt>
      <trkpt lat="49.36969" lon="1.1302">
        <ele>18</ele>
        <time>2017-04-11T15:25:56Z</time>
      </trkpt>
      <trkpt lat="49.36971" lon="1.13021">
        <ele>18</ele>
        <time>2017-04-11T15:25:56Z</time>
      </trkpt>
      <trkpt lat="49.36975" lon="1.13024">
        <ele>18</ele>
        <time>2017-04-11T15:25:56Z</time>
      </trkpt>
      <trkpt lat="49.36979" lon="1.13028">
        <ele>18</ele>
        <time>2017-04-11T15:25:56Z</time>
      </trkpt>
      <trkpt lat="49.36982" lon="1.13032">
        <ele>18</ele>
        <time>2017-04-11T15:26:15Z</time>
      </trkpt>
      <trkpt lat="49.36984" lon="1.13035">
        <ele>18</ele>
        <time>2017-04-11T15:26:15Z</time>
      </trkpt>
      <trkpt lat="49.36987" lon="1.13038">
        <ele>18</ele>
        <time>2017-04-11T15:26:15Z</time>
      </trkpt>
      <trkpt lat="49.36987" lon="1.13042">
        <ele>14</ele>
        <time>2017-04-11T15:26:15Z</time>
      </trkpt>
      <trkpt lat="49.36991" lon="1.13045">
        <ele>14</ele>
        <time>2017-04-11T15:26:15Z</time>
      </trkpt>
      <trkpt lat="49.36994" lon="1.13049">
        <ele>14</ele>
        <time>2017-04-11T15:26:31Z</time>
      </trkpt>
      <trkpt lat="49.36999" lon="1.13052">
        <ele>14</ele>
        <time>2017-04-11T15:26:32Z</time>
      </trkpt>
      <trkpt lat="49.37004" lon="1.13055">
        <ele>14</ele>
        <time>2017-04-11T15:26:32Z</time>
      </trkpt>
      <trkpt lat="49.37007" lon="1.13057">
        <ele>14</ele>
        <time>2017-04-11T15:26:32Z</time>
      </trkpt>
      <trkpt lat="49.3702" lon="1.13064">
        <ele>14</ele>
        <time>2017-04-11T15:26:55Z</time>
      </trkpt>
      <trkpt lat="49.37026" lon="1.13066">
        <ele>14</ele>
        <time>2017-04-11T15:26:56Z</time>
      </trkpt>
      <trkpt lat="49.37029" lon="1.13069">
        <ele>14</ele>
        <time>2017-04-11T15:26:56Z</time>
      </trkpt>
      <trkpt lat="49.37032" lon="1.13071">
        <ele>14</ele>
        <time>2017-04-11T15:26:56Z</time>
      </trkpt>
      <trkpt lat="49.37037" lon="1.13074">
        <ele>14</ele>
        <time>2017-04-11T15:27:11Z</time>
      </trkpt>
      <trkpt lat="49.3704" lon="1.13076">
        <ele>14</ele>
        <time>2017-04-11T15:27:11Z</time>
      </trkpt>
      <trkpt lat="49.37046" lon="1.13081">
        <ele>17</ele>
        <time>2017-04-11T15:27:11Z</time>
      </trkpt>
      <trkpt lat="49.3705" lon="1.13082">
        <ele>17</ele>
        <time>2017-04-11T15:27:11Z</time>
      </trkpt>
      <trkpt lat="49.37053" lon="1.13083">
        <ele>17</ele>
        <time>2017-04-11T15:27:28Z</time>
      </trkpt>
      <trkpt lat="49.37059" lon="1.13086">
        <ele>17</ele>
        <time>2017-04-11T15:27:29Z</time>
      </trkpt>
      <trkpt lat="49.37062" lon="1.13089">
        <ele>17</ele>
        <time>2017-04-11T15:27:29Z</time>
      </trkpt>
      <trkpt lat="49.37065" lon="1.13093">
        <ele>17</ele>
        <time>2017-04-11T15:27:29Z</time>
      </trkpt>
      <trkpt lat="49.37076" lon="1.13092">
        <ele>17</ele>
        <time>2017-04-11T15:27:51Z</time>
      </trkpt>
      <trkpt lat="49.37082" lon="1.13094">
        <ele>17</ele>
        <time>2017-04-11T15:27:52Z</time>
      </trkpt>
      <trkpt lat="49.37086" lon="1.13094">
        <ele>17</ele>
        <time>2017-04-11T15:27:52Z</time>
      </trkpt>
      <trkpt lat="49.37088" lon="1.13095">
        <ele>17</ele>
        <time>2017-04-11T15:27:52Z</time>
      </trkpt>
      <trkpt lat="49.37093" lon="1.13096">
        <ele>17</ele>
        <time>2017-04-11T15:28:07Z</time>
      </trkpt>
      <trkpt lat="49.37098" lon="1.13098">
        <ele>17</ele>
        <time>2017-04-11T15:28:07Z</time>
      </trkpt>
      <trkpt lat="49.37101" lon="1.13098">
        <ele>17</ele>
        <time>2017-04-11T15:28:08Z</time>
      </trkpt>
      <trkpt lat="49.37104" lon="1.13099">
        <ele>17</ele>
        <time>2017-04-11T15:28:08Z</time>
      </trkpt>
      <trkpt lat="49.37109" lon="1.13103">
        <ele>17</ele>
        <time>2017-04-11T15:28:23Z</time>
      </trkpt>
      <trkpt lat="49.37112" lon="1.13106">
        <ele>17</ele>
        <time>2017-04-11T15:28:23Z</time>
      </trkpt>
      <trkpt lat="49.37117" lon="1.13109">
        <ele>17</ele>
        <time>2017-04-11T15:28:23Z</time>
      </trkpt>
      <trkpt lat="49.37119" lon="1.13115">
        <ele>17</ele>
        <time>2017-04-11T15:28:23Z</time>
      </trkpt>
      <trkpt lat="49.37124" lon="1.1312">
        <ele>17</ele>
        <time>2017-04-11T15:28:40Z</time>
      </trkpt>
      <trkpt lat="49.37127" lon="1.13123">
        <ele>35</ele>
        <time>2017-04-11T15:28:40Z</time>
      </trkpt>
      <trkpt lat="49.37129" lon="1.13126">
        <ele>24</ele>
        <time>2017-04-11T15:28:40Z</time>
      </trkpt>
      <trkpt lat="49.37135" lon="1.13132">
        <ele>24</ele>
        <time>2017-04-11T15:28:40Z</time>
      </trkpt>
      <trkpt lat="49.37138" lon="1.13135">
        <ele>24</ele>
        <time>2017-04-11T15:28:55Z</time>
      </trkpt>
      <trkpt lat="49.37142" lon="1.13139">
        <ele>24</ele>
        <time>2017-04-11T15:28:55Z</time>
      </trkpt>
      <trkpt lat="49.37147" lon="1.13143">
        <ele>24</ele>
        <time>2017-04-11T15:28:55Z</time>
      </trkpt>
      <trkpt lat="49.37149" lon="1.13145">
        <ele>24</ele>
        <time>2017-04-11T15:28:55Z</time>
      </trkpt>
      <trkpt lat="49.37153" lon="1.13152">
        <ele>24</ele>
        <time>2017-04-11T15:29:11Z</time>
      </trkpt>
      <trkpt lat="49.37155" lon="1.13156">
        <ele>24</ele>
        <time>2017-04-11T15:29:11Z</time>
      </trkpt>
      <trkpt lat="49.37159" lon="1.13162">
        <ele>24</ele>
        <time>2017-04-11T15:29:11Z</time>
      </trkpt>
      <trkpt lat="49.37161" lon="1.13166">
        <ele>24</ele>
        <time>2017-04-11T15:29:11Z</time>
      </trkpt>
      <trkpt lat="49.37165" lon="1.13171">
        <ele>24</ele>
        <time>2017-04-11T15:29:31Z</time>
      </trkpt>
      <trkpt lat="49.37168" lon="1.13176">
        <ele>24</ele>
        <time>2017-04-11T15:29:32Z</time>
      </trkpt>
      <trkpt lat="49.3717" lon="1.13178">
        <ele>24</ele>
        <time>2017-04-11T15:29:32Z</time>
      </trkpt>
      <trkpt lat="49.37172" lon="1.1318">
        <ele>24</ele>
        <time>2017-04-11T15:29:32Z</time>
      </trkpt>
      <trkpt lat="49.3717" lon="1.13185">
        <ele>24</ele>
        <time>2017-04-11T15:29:32Z</time>
      </trkpt>
      <trkpt lat="49.37172" lon="1.13184">
        <ele>24</ele>
        <time>2017-04-11T15:29:52Z</time>
      </trkpt>
      <trkpt lat="49.37173" lon="1.13184">
        <ele>24</ele>
        <time>2017-04-11T15:29:52Z</time>
      </trkpt>
      <trkpt lat="49.37172" lon="1.13185">
        <ele>24</ele>
        <time>2017-04-11T15:29:52Z</time>
      </trkpt>
      <trkpt lat="49.37175" lon="1.13189">
        <ele>24</ele>
        <time>2017-04-11T15:29:52Z</time>
      </trkpt>
      <trkpt lat="49.3718" lon="1.13194">
        <ele>24</ele>
        <time>2017-04-11T15:29:52Z</time>
      </trkpt>
      <trkpt lat="49.37182" lon="1.13201">
        <ele>24</ele>
        <time>2017-04-11T15:30:08Z</time>
      </trkpt>
      <trkpt lat="49.37184" lon="1.13207">
        <ele>24</ele>
        <time>2017-04-11T15:30:09Z</time>
      </trkpt>
      <trkpt lat="49.37186" lon="1.13212">
        <ele>24</ele>
        <time>2017-04-11T15:30:09Z</time>
      </trkpt>
      <trkpt lat="49.37188" lon="1.1322">
        <ele>24</ele>
        <time>2017-04-11T15:30:09Z</time>
      </trkpt>
      <trkpt lat="49.37191" lon="1.13228">
        <ele>24</ele>
        <time>2017-04-11T15:30:23Z</time>
      </trkpt>
      <trkpt lat="49.37193" lon="1.13234">
        <ele>24</ele>
        <time>2017-04-11T15:30:24Z</time>
      </trkpt>
      <trkpt lat="49.37194" lon="1.1324">
        <ele>24</ele>
        <time>2017-04-11T15:30:25Z</time>
      </trkpt>
      <trkpt lat="49.37197" lon="1.13243">
        <ele>24</ele>
        <time>2017-04-11T15:30:25Z</time>
      </trkpt>
      <trkpt lat="49.37199" lon="1.1325">
        <ele>24</ele>
        <time>2017-04-11T15:30:40Z</time>
      </trkpt>
      <trkpt lat="49.37201" lon="1.13257">
        <ele>24</ele>
        <time>2017-04-11T15:30:40Z</time>
      </trkpt>
      <trkpt lat="49.37203" lon="1.13265">
        <ele>24</ele>
        <time>2017-04-11T15:30:40Z</time>
      </trkpt>
      <trkpt lat="49.37204" lon="1.1327">
        <ele>24</ele>
        <time>2017-04-11T15:30:40Z</time>
      </trkpt>
      <trkpt lat="49.37206" lon="1.13277">
        <ele>24</ele>
        <time>2017-04-11T15:30:55Z</time>
      </trkpt>
      <trkpt lat="49.37209" lon="1.13282">
        <ele>45</ele>
        <time>2017-04-11T15:30:55Z</time>
      </trkpt>
      <trkpt lat="49.37211" lon="1.1329">
        <ele>45</ele>
        <time>2017-04-11T15:30:55Z</time>
      </trkpt>
      <trkpt lat="49.37213" lon="1.13296">
        <ele>35</ele>
        <time>2017-04-11T15:30:55Z</time>
      </trkpt>
      <trkpt lat="49.37216" lon="1.13304">
        <ele>35</ele>
        <time>2017-04-11T15:31:11Z</time>
      </trkpt>
      <trkpt lat="49.37217" lon="1.1331">
        <ele>35</ele>
        <time>2017-04-11T15:31:11Z</time>
      </trkpt>
      <trkpt lat="49.37219" lon="1.13317">
        <ele>35</ele>
        <time>2017-04-11T15:31:11Z</time>
      </trkpt>
      <trkpt lat="49.3722" lon="1.13322">
        <ele>35</ele>
        <time>2017-04-11T15:31:11Z</time>
      </trkpt>
      <trkpt lat="49.37222" lon="1.13328">
        <ele>35</ele>
        <time>2017-04-11T15:31:27Z</time>
      </trkpt>
      <trkpt lat="49.37224" lon="1.13337">
        <ele>35</ele>
        <time>2017-04-11T15:31:28Z</time>
      </trkpt>
      <trkpt lat="49.37226" lon="1.13342">
        <ele>35</ele>
        <time>2017-04-11T15:31:28Z</time>
      </trkpt>
      <trkpt lat="49.37227" lon="1.13345">
        <ele>35</ele>
        <time>2017-04-11T15:31:28Z</time>
      </trkpt>
      <trkpt lat="49.37227" lon="1.13345">
        <ele>35</ele>
        <time>2017-04-11T15:32:03Z</time>
      </trkpt>
      <trkpt lat="49.37227" lon="1.13345">
        <ele>35</ele>
        <time>2017-04-11T15:32:03Z</time>
      </trkpt>
      <trkpt lat="49.37228" lon="1.13347">
        <ele>35</ele>
        <time>2017-04-11T15:32:03Z</time>
      </trkpt>
      <trkpt lat="49.3723" lon="1.13354">
        <ele>35</ele>
        <time>2017-04-11T15:32:03Z</time>
      </trkpt>
      <trkpt lat="49.37233" lon="1.13361">
        <ele>35</ele>
        <time>2017-04-11T15:32:03Z</time>
      </trkpt>
      <trkpt lat="49.37235" lon="1.13369">
        <ele>35</ele>
        <time>2017-04-11T15:32:19Z</time>
      </trkpt>
      <trkpt lat="49.37237" lon="1.13375">
        <ele>25</ele>
        <time>2017-04-11T15:32:19Z</time>
      </trkpt>
      <trkpt lat="49.3724" lon="1.1338">
        <ele>25</ele>
        <time>2017-04-11T15:32:19Z</time>
      </trkpt>
      <trkpt lat="49.37243" lon="1.13387">
        <ele>25</ele>
        <time>2017-04-11T15:32:19Z</time>
      </trkpt>
      <trkpt lat="49.37247" lon="1.13393">
        <ele>25</ele>
        <time>2017-04-11T15:32:35Z</time>
      </trkpt>
      <trkpt lat="49.37249" lon="1.13402">
        <ele>25</ele>
        <time>2017-04-11T15:32:36Z</time>
      </trkpt>
      <trkpt lat="49.37251" lon="1.13407">
        <ele>25</ele>
        <time>2017-04-11T15:32:36Z</time>
      </trkpt>
      <trkpt lat="49.37254" lon="1.13413">
        <ele>25</ele>
        <time>2017-04-11T15:32:36Z</time>
      </trkpt>
      <trkpt lat="49.37262" lon="1.13431">
        <ele>25</ele>
        <time>2017-04-11T15:32:59Z</time>
      </trkpt>
      <trkpt lat="49.37266" lon="1.1344">
        <ele>25</ele>
        <time>2017-04-11T15:32:59Z</time>
      </trkpt>
      <trkpt lat="49.37267" lon="1.13445">
        <ele>25</ele>
        <time>2017-04-11T15:32:59Z</time>
      </trkpt>
      <trkpt lat="49.37269" lon="1.13451">
        <ele>25</ele>
        <time>2017-04-11T15:33:00Z</time>
      </trkpt>
      <trkpt lat="49.37272" lon="1.13457">
        <ele>25</ele>
        <time>2017-04-11T15:33:15Z</time>
      </trkpt>
      <trkpt lat="49.37275" lon="1.13464">
        <ele>25</ele>
        <time>2017-04-11T15:33:15Z</time>
      </trkpt>
      <trkpt lat="49.37278" lon="1.1347">
        <ele>25</ele>
        <time>2017-04-11T15:33:15Z</time>
      </trkpt>
      <trkpt lat="49.37281" lon="1.13476">
        <ele>25</ele>
        <time>2017-04-11T15:33:15Z</time>
      </trkpt>
      <trkpt lat="49.37284" lon="1.13484">
        <ele>25</ele>
        <time>2017-04-11T15:33:31Z</time>
      </trkpt>
      <trkpt lat="49.37287" lon="1.1349">
        <ele>25</ele>
        <time>2017-04-11T15:33:32Z</time>
      </trkpt>
      <trkpt lat="49.37289" lon="1.13495">
        <ele>25</ele>
        <time>2017-04-11T15:33:32Z</time>
      </trkpt>
      <trkpt lat="49.37293" lon="1.13499">
        <ele>42</ele>
        <time>2017-04-11T15:33:32Z</time>
      </trkpt>
      <trkpt lat="49.37295" lon="1.13504">
        <ele>42</ele>
        <time>2017-04-11T15:33:47Z</time>
      </trkpt>
      <trkpt lat="49.37298" lon="1.13511">
        <ele>42</ele>
        <time>2017-04-11T15:33:47Z</time>
      </trkpt>
      <trkpt lat="49.37302" lon="1.13517">
        <ele>42</ele>
        <time>2017-04-11T15:33:47Z</time>
      </trkpt>
      <trkpt lat="49.37307" lon="1.13523">
        <ele>42</ele>
        <time>2017-04-11T15:33:47Z</time>
      </trkpt>
      <trkpt lat="49.37308" lon="1.13527">
        <ele>42</ele>
        <time>2017-04-11T15:34:03Z</time>
      </trkpt>
      <trkpt lat="49.37312" lon="1.13533">
        <ele>42</ele>
        <time>2017-04-11T15:34:03Z</time>
      </trkpt>
      <trkpt lat="49.37314" lon="1.13537">
        <ele>42</ele>
        <time>2017-04-11T15:34:03Z</time>
      </trkpt>
      <trkpt lat="49.37316" lon="1.1354">
        <ele>42</ele>
        <time>2017-04-11T15:34:03Z</time>
      </trkpt>
      <trkpt lat="49.3732" lon="1.13546">
        <ele>31</ele>
        <time>2017-04-11T15:34:19Z</time>
      </trkpt>
      <trkpt lat="49.37323" lon="1.13552">
        <ele>31</ele>
        <time>2017-04-11T15:34:19Z</time>
      </trkpt>
      <trkpt lat="49.37326" lon="1.13557">
        <ele>31</ele>
        <time>2017-04-11T15:34:19Z</time>
      </trkpt>
      <trkpt lat="49.37329" lon="1.13562">
        <ele>31</ele>
        <time>2017-04-11T15:34:19Z</time>
      </trkpt>
      <trkpt lat="49.37332" lon="1.13567">
        <ele>31</ele>
        <time>2017-04-11T15:34:35Z</time>
      </trkpt>
      <trkpt lat="49.37337" lon="1.13573">
        <ele>31</ele>
        <time>2017-04-11T15:34:35Z</time>
      </trkpt>
      <trkpt lat="49.37341" lon="1.13578">
        <ele>31</ele>
        <time>2017-04-11T15:34:35Z</time>
      </trkpt>
      <trkpt lat="49.37342" lon="1.1358">
        <ele>31</ele>
        <time>2017-04-11T15:34:35Z</time>
      </trkpt>
      <trkpt lat="49.3736" lon="1.13611">
        <ele>31</ele>
        <time>2017-04-11T15:35:07Z</time>
      </trkpt>
      <trkpt lat="49.37364" lon="1.13617">
        <ele>31</ele>
        <time>2017-04-11T15:35:07Z</time>
      </trkpt>
      <trkpt lat="49.37368" lon="1.13622">
        <ele>31</ele>
        <time>2017-04-11T15:35:07Z</time>
      </trkpt>
      <trkpt lat="49.37372" lon="1.1363">
        <ele>27</ele>
        <time>2017-04-11T15:35:07Z</time>
      </trkpt>
      <trkpt lat="49.37378" lon="1.13636">
        <ele>37</ele>
        <time>2017-04-11T15:35:24Z</time>
      </trkpt>
      <trkpt lat="49.37379" lon="1.13641">
        <ele>37</ele>
        <time>2017-04-11T15:35:24Z</time>
      </trkpt>
      <trkpt lat="49.37381" lon="1.13646">
        <ele>37</ele>
        <time>2017-04-11T15:35:24Z</time>
      </trkpt>
      <trkpt lat="49.37386" lon="1.1365">
        <ele>37</ele>
        <time>2017-04-11T15:35:24Z</time>
      </trkpt>
      <trkpt lat="49.37388" lon="1.13654">
        <ele>37</ele>
        <time>2017-04-11T15:35:39Z</time>
      </trkpt>
      <trkpt lat="49.37392" lon="1.13661">
        <ele>37</ele>
        <time>2017-04-11T15:35:39Z</time>
      </trkpt>
      <trkpt lat="49.37396" lon="1.13667">
        <ele>37</ele>
        <time>2017-04-11T15:35:39Z</time>
      </trkpt>
      <trkpt lat="49.374" lon="1.13673">
        <ele>37</ele>
        <time>2017-04-11T15:35:39Z</time>
      </trkpt>
      <trkpt lat="49.37403" lon="1.13681">
        <ele>37</ele>
        <time>2017-04-11T15:35:56Z</time>
      </trkpt>
      <trkpt lat="49.37405" lon="1.13684">
        <ele>37</ele>
        <time>2017-04-11T15:35:56Z</time>
      </trkpt>
      <trkpt lat="49.37409" lon="1.13689">
        <ele>37</ele>
        <time>2017-04-11T15:35:56Z</time>
      </trkpt>
      <trkpt lat="49.37411" lon="1.13696">
        <ele>37</ele>
        <time>2017-04-11T15:35:56Z</time>
      </trkpt>
      <trkpt lat="49.37418" lon="1.13708">
        <ele>37</ele>
        <time>2017-04-11T15:36:39Z</time>
      </trkpt>
      <trkpt lat="49.37417" lon="1.13712">
        <ele>31</ele>
        <time>2017-04-11T15:36:39Z</time>
      </trkpt>
      <trkpt lat="49.37417" lon="1.13713">
        <ele>31</ele>
        <time>2017-04-11T15:36:39Z</time>
      </trkpt>
      <trkpt lat="49.37417" lon="1.13714">
        <ele>31</ele>
        <time>2017-04-11T15:36:39Z</time>
      </trkpt>
      <trkpt lat="49.37418" lon="1.1372">
        <ele>31</ele>
        <time>2017-04-11T15:36:39Z</time>
      </trkpt>
      <trkpt lat="49.37423" lon="1.13727">
        <ele>31</ele>
        <time>2017-04-11T15:37:27Z</time>
      </trkpt>
      <trkpt lat="49.37423" lon="1.13727">
        <ele>31</ele>
        <time>2017-04-11T15:37:27Z</time>
      </trkpt>
      <trkpt lat="49.37424" lon="1.13729">
        <ele>31</ele>
        <time>2017-04-11T15:37:27Z</time>
      </trkpt>
      <trkpt lat="49.37424" lon="1.13731">
        <ele>31</ele>
        <time>2017-04-11T15:37:27Z</time>
      </trkpt>
      <trkpt lat="49.37425" lon="1.13734">
        <ele>31</ele>
        <time>2017-04-11T15:37:27Z</time>
      </trkpt>
      <trkpt lat="49.37425" lon="1.13734">
        <ele>31</ele>
        <time>2017-04-11T15:37:47Z</time>
      </trkpt>
      <trkpt lat="49.37427" lon="1.13732">
        <ele>31</ele>
        <time>2017-04-11T15:37:47Z</time>
      </trkpt>
      <trkpt lat="49.3743" lon="1.13735">
        <ele>31</ele>
        <time>2017-04-11T15:37:47Z</time>
      </trkpt>
      <trkpt lat="49.37432" lon="1.13741">
        <ele>31</ele>
        <time>2017-04-11T15:37:47Z</time>
      </trkpt>
      <trkpt lat="49.37435" lon="1.13743">
        <ele>31</ele>
        <time>2017-04-11T15:37:47Z</time>
      </trkpt>
      <trkpt lat="49.37437" lon="1.13747">
        <ele>31</ele>
        <time>2017-04-11T15:38:03Z</time>
      </trkpt>
      <trkpt lat="49.3744" lon="1.13751">
        <ele>31</ele>
        <time>2017-04-11T15:38:03Z</time>
      </trkpt>
      <trkpt lat="49.37443" lon="1.13755">
        <ele>31</ele>
        <time>2017-04-11T15:38:05Z</time>
      </trkpt>
      <trkpt lat="49.37446" lon="1.13758">
        <ele>31</ele>
        <time>2017-04-11T15:38:05Z</time>
      </trkpt>
      <trkpt lat="49.37451" lon="1.13767">
        <ele>31</ele>
        <time>2017-04-11T15:38:55Z</time>
      </trkpt>
      <trkpt lat="49.37451" lon="1.13766">
        <ele>31</ele>
        <time>2017-04-11T15:38:55Z</time>
      </trkpt>
      <trkpt lat="49.37451" lon="1.13766">
        <ele>31</ele>
        <time>2017-04-11T15:38:55Z</time>
      </trkpt>
      <trkpt lat="49.37452" lon="1.13769">
        <ele>31</ele>
        <time>2017-04-11T15:38:55Z</time>
      </trkpt>
      <trkpt lat="49.37454" lon="1.13769">
        <ele>31</ele>
        <time>2017-04-11T15:38:55Z</time>
      </trkpt>
      <trkpt lat="49.37453" lon="1.13767">
        <ele>31</ele>
        <time>2017-04-11T15:39:35Z</time>
      </trkpt>
      <trkpt lat="49.37455" lon="1.13773">
        <ele>31</ele>
        <time>2017-04-11T15:39:35Z</time>
      </trkpt>
      <trkpt lat="49.37457" lon="1.13779">
        <ele>31</ele>
        <time>2017-04-11T15:39:35Z</time>
      </trkpt>
      <trkpt lat="49.37461" lon="1.13783">
        <ele>54</ele>
        <time>2017-04-11T15:39:36Z</time>
      </trkpt>
      <trkpt lat="49.37463" lon="1.13787">
        <ele>54</ele>
        <time>2017-04-11T15:39:36Z</time>
      </trkpt>
      <trkpt lat="49.37471" lon="1.13791">
        <ele>54</ele>
        <time>2017-04-11T15:39:52Z</time>
      </trkpt>
      <trkpt lat="49.37476" lon="1.13796">
        <ele>37</ele>
        <time>2017-04-11T15:39:53Z</time>
      </trkpt>
      <trkpt lat="49.37478" lon="1.13798">
        <ele>37</ele>
        <time>2017-04-11T15:39:53Z</time>
      </trkpt>
      <trkpt lat="49.37482" lon="1.138">
        <ele>37</ele>
        <time>2017-04-11T15:39:53Z</time>
      </trkpt>
      <trkpt lat="49.37486" lon="1.13805">
        <ele>37</ele>
        <time>2017-04-11T15:41:51Z</time>
      </trkpt>
      <trkpt lat="49.37486" lon="1.13805">
        <ele>37</ele>
        <time>2017-04-11T15:41:51Z</time>
      </trkpt>
      <trkpt lat="49.37486" lon="1.13805">
        <ele>37</ele>
        <time>2017-04-11T15:41:51Z</time>
      </trkpt>
      <trkpt lat="49.3749" lon="1.13806">
        <ele>37</ele>
        <time>2017-04-11T15:41:51Z</time>
      </trkpt>
      <trkpt lat="49.37495" lon="1.13808">
        <ele>37</ele>
        <time>2017-04-11T15:41:51Z</time>
      </trkpt>
      <trkpt lat="49.37499" lon="1.13812">
        <ele>37</ele>
        <time>2017-04-11T15:42:07Z</time>
      </trkpt>
      <trkpt lat="49.37503" lon="1.13812">
        <ele>37</ele>
        <time>2017-04-11T15:42:08Z</time>
      </trkpt>
      <trkpt lat="49.37508" lon="1.13815">
        <ele>37</ele>
        <time>2017-04-11T15:42:08Z</time>
      </trkpt>
      <trkpt lat="49.37509" lon="1.13818">
        <ele>37</ele>
        <time>2017-04-11T15:42:08Z</time>
      </trkpt>
      <trkpt lat="49.37514" lon="1.13819">
        <ele>37</ele>
        <time>2017-04-11T15:42:23Z</time>
      </trkpt>
      <trkpt lat="49.3752" lon="1.13821">
        <ele>37</ele>
        <time>2017-04-11T15:42:24Z</time>
      </trkpt>
      <trkpt lat="49.37525" lon="1.13823">
        <ele>37</ele>
        <time>2017-04-11T15:42:24Z</time>
      </trkpt>
      <trkpt lat="49.37529" lon="1.13826">
        <ele>37</ele>
        <time>2017-04-11T15:42:24Z</time>
      </trkpt>
      <trkpt lat="49.37533" lon="1.13828">
        <ele>37</ele>
        <time>2017-04-11T15:42:39Z</time>
      </trkpt>
      <trkpt lat="49.37537" lon="1.1383">
        <ele>37</ele>
        <time>2017-04-11T15:42:39Z</time>
      </trkpt>
      <trkpt lat="49.3754" lon="1.13834">
        <ele>37</ele>
        <time>2017-04-11T15:42:39Z</time>
      </trkpt>
      <trkpt lat="49.37545" lon="1.13833">
        <ele>54</ele>
        <time>2017-04-11T15:42:39Z</time>
      </trkpt>
      <trkpt lat="49.37543" lon="1.13833">
        <ele>54</ele>
        <time>2017-04-11T15:43:11Z</time>
      </trkpt>
      <trkpt lat="49.37543" lon="1.13834">
        <ele>54</ele>
        <time>2017-04-11T15:43:11Z</time>
      </trkpt>
      <trkpt lat="49.37544" lon="1.13835">
        <ele>54</ele>
        <time>2017-04-11T15:43:11Z</time>
      </trkpt>
      <trkpt lat="49.37548" lon="1.13836">
        <ele>54</ele>
        <time>2017-04-11T15:43:11Z</time>
      </trkpt>
      <trkpt lat="49.37553" lon="1.13838">
        <ele>54</ele>
        <time>2017-04-11T15:43:11Z</time>
      </trkpt>
      <trkpt lat="49.37557" lon="1.13839">
        <ele>54</ele>
        <time>2017-04-11T15:43:27Z</time>
      </trkpt>
      <trkpt lat="49.37564" lon="1.13843">
        <ele>54</ele>
        <time>2017-04-11T15:43:27Z</time>
      </trkpt>
      <trkpt lat="49.37567" lon="1.13845">
        <ele>54</ele>
        <time>2017-04-11T15:43:27Z</time>
      </trkpt>
      <trkpt lat="49.37572" lon="1.13845">
        <ele>54</ele>
        <time>2017-04-11T15:43:27Z</time>
      </trkpt>
      <trkpt lat="49.37577" lon="1.13845">
        <ele>54</ele>
        <time>2017-04-11T15:43:43Z</time>
      </trkpt>
      <trkpt lat="49.37578" lon="1.13848">
        <ele>54</ele>
        <time>2017-04-11T15:43:43Z</time>
      </trkpt>
      <trkpt lat="49.37581" lon="1.13851">
        <ele>54</ele>
        <time>2017-04-11T15:43:43Z</time>
      </trkpt>
      <trkpt lat="49.37586" lon="1.13852">
        <ele>54</ele>
        <time>2017-04-11T15:43:43Z</time>
      </trkpt>
      <trkpt lat="49.37587" lon="1.13856">
        <ele>54</ele>
        <time>2017-04-11T15:44:00Z</time>
      </trkpt>
      <trkpt lat="49.3759" lon="1.13858">
        <ele>54</ele>
        <time>2017-04-11T15:44:00Z</time>
      </trkpt>
      <trkpt lat="49.37595" lon="1.1386">
        <ele>54</ele>
        <time>2017-04-11T15:44:00Z</time>
      </trkpt>
      <trkpt lat="49.376" lon="1.13861">
        <ele>54</ele>
        <time>2017-04-11T15:44:00Z</time>
      </trkpt>
      <trkpt lat="49.37604" lon="1.13864">
        <ele>54</ele>
        <time>2017-04-11T15:44:16Z</time>
      </trkpt>
      <trkpt lat="49.37608" lon="1.13865">
        <ele>54</ele>
        <time>2017-04-11T15:44:16Z</time>
      </trkpt>
      <trkpt lat="49.3761" lon="1.13868">
        <ele>54</ele>
        <time>2017-04-11T15:44:16Z</time>
      </trkpt>
      <trkpt lat="49.37615" lon="1.13869">
        <ele>54</ele>
        <time>2017-04-11T15:44:16Z</time>
      </trkpt>
      <trkpt lat="49.37619" lon="1.1387">
        <ele>54</ele>
        <time>2017-04-11T15:44:32Z</time>
      </trkpt>
      <trkpt lat="49.37621" lon="1.1387">
        <ele>54</ele>
        <time>2017-04-11T15:44:32Z</time>
      </trkpt>
      <trkpt lat="49.37627" lon="1.13873">
        <ele>68</ele>
        <time>2017-04-11T15:44:32Z</time>
      </trkpt>
      <trkpt lat="49.37633" lon="1.13875">
        <ele>68</ele>
        <time>2017-04-11T15:44:32Z</time>
      </trkpt>
      <trkpt lat="49.37636" lon="1.13875">
        <ele>45</ele>
        <time>2017-04-11T15:44:47Z</time>
      </trkpt>
      <trkpt lat="49.3764" lon="1.13878">
        <ele>45</ele>
        <time>2017-04-11T15:44:47Z</time>
      </trkpt>
      <trkpt lat="49.37645" lon="1.13878">
        <ele>45</ele>
        <time>2017-04-11T15:44:47Z</time>
      </trkpt>
      <trkpt lat="49.3765" lon="1.13879">
        <ele>45</ele>
        <time>2017-04-11T15:44:47Z</time>
      </trkpt>
      <trkpt lat="49.37653" lon="1.1388">
        <ele>45</ele>
        <time>2017-04-11T15:45:03Z</time>
      </trkpt>
      <trkpt lat="49.37658" lon="1.13882">
        <ele>45</ele>
        <time>2017-04-11T15:45:03Z</time>
      </trkpt>
      <trkpt lat="49.37663" lon="1.13884">
        <ele>45</ele>
        <time>2017-04-11T15:45:03Z</time>
      </trkpt>
      <trkpt lat="49.37666" lon="1.13884">
        <ele>45</ele>
        <time>2017-04-11T15:45:03Z</time>
      </trkpt>
      <trkpt lat="49.3767" lon="1.13886">
        <ele>45</ele>
        <time>2017-04-11T15:45:20Z</time>
      </trkpt>
      <trkpt lat="49.37674" lon="1.13888">
        <ele>45</ele>
        <time>2017-04-11T15:45:20Z</time>
      </trkpt>
      <trkpt lat="49.37677" lon="1.13887">
        <ele>45</ele>
        <time>2017-04-11T15:45:20Z</time>
      </trkpt>
      <trkpt lat="49.37685" lon="1.13887">
        <ele>45</ele>
        <time>2017-04-11T15:45:20Z</time>
      </trkpt>
      <trkpt lat="49.37687" lon="1.13887">
        <ele>45</ele>
        <time>2017-04-11T15:45:35Z</time>
      </trkpt>
      <trkpt lat="49.37693" lon="1.13887">
        <ele>45</ele>
        <time>2017-04-11T15:45:35Z</time>
      </trkpt>
      <trkpt lat="49.37698" lon="1.13886">
        <ele>45</ele>
        <time>2017-04-11T15:45:35Z</time>
      </trkpt>
      <trkpt lat="49.377" lon="1.13886">
        <ele>45</ele>
        <time>2017-04-11T15:45:35Z</time>
      </trkpt>
      <trkpt lat="49.37707" lon="1.13884">
        <ele>45</ele>
        <time>2017-04-11T15:45:52Z</time>
      </trkpt>
      <trkpt lat="49.37711" lon="1.13883">
        <ele>53</ele>
        <time>2017-04-11T15:45:52Z</time>
      </trkpt>
      <trkpt lat="49.37716" lon="1.13881">
        <ele>53</ele>
        <time>2017-04-11T15:45:52Z</time>
      </trkpt>
      <trkpt lat="49.3772" lon="1.13881">
        <ele>53</ele>
        <time>2017-04-11T15:45:52Z</time>
      </trkpt>
      <trkpt lat="49.37725" lon="1.13863">
        <ele>76</ele>
        <time>2017-04-11T15:46:16Z</time>
      </trkpt>
      <trkpt lat="49.37727" lon="1.13856">
        <ele>76</ele>
        <time>2017-04-11T15:46:16Z</time>
      </trkpt>
      <trkpt lat="49.37727" lon="1.13854">
        <ele>76</ele>
        <time>2017-04-11T15:46:16Z</time>
      </trkpt>
      <trkpt lat="49.37731" lon="1.13851">
        <ele>76</ele>
        <time>2017-04-11T15:46:16Z</time>
      </trkpt>
      <trkpt lat="49.37743" lon="1.13846">
        <ele>76</ele>
        <time>2017-04-11T15:46:47Z</time>
      </trkpt>
      <trkpt lat="49.37744" lon="1.13845">
        <ele>76</ele>
        <time>2017-04-11T15:46:47Z</time>
      </trkpt>
      <trkpt lat="49.37748" lon="1.13846">
        <ele>76</ele>
        <time>2017-04-11T15:46:47Z</time>
      </trkpt>
      <trkpt lat="49.37752" lon="1.1385">
        <ele>76</ele>
        <time>2017-04-11T15:46:47Z</time>
      </trkpt>
      <trkpt lat="49.37756" lon="1.13853">
        <ele>76</ele>
        <time>2017-04-11T15:46:47Z</time>
      </trkpt>
      <trkpt lat="49.37761" lon="1.13858">
        <ele>76</ele>
        <time>2017-04-11T15:47:03Z</time>
      </trkpt>
      <trkpt lat="49.37764" lon="1.13864">
        <ele>76</ele>
        <time>2017-04-11T15:47:03Z</time>
      </trkpt>
      <trkpt lat="49.37767" lon="1.13871">
        <ele>76</ele>
        <time>2017-04-11T15:47:03Z</time>
      </trkpt>
      <trkpt lat="49.37769" lon="1.13876">
        <ele>53</ele>
        <time>2017-04-11T15:47:03Z</time>
      </trkpt>
      <trkpt lat="49.37777" lon="1.13882">
        <ele>53</ele>
        <time>2017-04-11T15:47:23Z</time>
      </trkpt>
      <trkpt lat="49.37779" lon="1.13885">
        <ele>53</ele>
        <time>2017-04-11T15:47:23Z</time>
      </trkpt>
      <trkpt lat="49.37784" lon="1.13887">
        <ele>53</ele>
        <time>2017-04-11T15:47:23Z</time>
      </trkpt>
      <trkpt lat="49.37789" lon="1.13885">
        <ele>53</ele>
        <time>2017-04-11T15:47:23Z</time>
      </trkpt>
      <trkpt lat="49.37795" lon="1.13879">
        <ele>61</ele>
        <time>2017-04-11T15:47:40Z</time>
      </trkpt>
      <trkpt lat="49.37802" lon="1.13875">
        <ele>61</ele>
        <time>2017-04-11T15:47:40Z</time>
      </trkpt>
      <trkpt lat="49.37806" lon="1.13871">
        <ele>85</ele>
        <time>2017-04-11T15:47:40Z</time>
      </trkpt>
      <trkpt lat="49.37808" lon="1.13867">
        <ele>85</ele>
        <time>2017-04-11T15:47:40Z</time>
      </trkpt>
      <trkpt lat="49.3781" lon="1.13865">
        <ele>85</ele>
        <time>2017-04-11T15:47:55Z</time>
      </trkpt>
      <trkpt lat="49.37811" lon="1.13865">
        <ele>85</ele>
        <time>2017-04-11T15:47:55Z</time>
      </trkpt>
      <trkpt lat="49.37816" lon="1.13861">
        <ele>85</ele>
        <time>2017-04-11T15:47:55Z</time>
      </trkpt>
      <trkpt lat="49.37822" lon="1.13856">
        <ele>85</ele>
        <time>2017-04-11T15:47:55Z</time>
      </trkpt>
      <trkpt lat="49.37827" lon="1.13852">
        <ele>85</ele>
        <time>2017-04-11T15:48:12Z</time>
      </trkpt>
      <trkpt lat="49.37831" lon="1.1385">
        <ele>85</ele>
        <time>2017-04-11T15:48:12Z</time>
      </trkpt>
      <trkpt lat="49.37839" lon="1.13851">
        <ele>85</ele>
        <time>2017-04-11T15:48:12Z</time>
      </trkpt>
      <trkpt lat="49.37847" lon="1.13845">
        <ele>85</ele>
        <time>2017-04-11T15:48:12Z</time>
      </trkpt>
      <trkpt lat="49.3785" lon="1.13842">
        <ele>85</ele>
        <time>2017-04-11T15:48:27Z</time>
      </trkpt>
      <trkpt lat="49.37857" lon="1.13841">
        <ele>85</ele>
        <time>2017-04-11T15:48:27Z</time>
      </trkpt>
      <trkpt lat="49.37861" lon="1.13837">
        <ele>85</ele>
        <time>2017-04-11T15:48:27Z</time>
      </trkpt>
      <trkpt lat="49.37863" lon="1.13838">
        <ele>85</ele>
        <time>2017-04-11T15:48:27Z</time>
      </trkpt>
      <trkpt lat="49.37868" lon="1.13834">
        <ele>85</ele>
        <time>2017-04-11T15:48:52Z</time>
      </trkpt>
      <trkpt lat="49.37869" lon="1.13833">
        <ele>85</ele>
        <time>2017-04-11T15:48:52Z</time>
      </trkpt>
      <trkpt lat="49.37869" lon="1.13833">
        <ele>85</ele>
        <time>2017-04-11T15:48:52Z</time>
      </trkpt>
      <trkpt lat="49.37874" lon="1.13836">
        <ele>85</ele>
        <time>2017-04-11T15:48:52Z</time>
      </trkpt>
      <trkpt lat="49.37879" lon="1.13834">
        <ele>95</ele>
        <time>2017-04-11T15:48:52Z</time>
      </trkpt>
      <trkpt lat="49.37881" lon="1.13836">
        <ele>95</ele>
        <time>2017-04-11T15:50:16Z</time>
      </trkpt>
      <trkpt lat="49.37881" lon="1.13836">
        <ele>95</ele>
        <time>2017-04-11T15:50:16Z</time>
      </trkpt>
      <trkpt lat="49.37877" lon="1.13846">
        <ele>95</ele>
        <time>2017-04-11T15:50:16Z</time>
      </trkpt>
      <trkpt lat="49.37874" lon="1.13848">
        <ele>85</ele>
        <time>2017-04-11T15:50:16Z</time>
      </trkpt>
      <trkpt lat="49.37873" lon="1.13855">
        <ele>85</ele>
        <time>2017-04-11T15:50:16Z</time>
      </trkpt>
      <trkpt lat="49.37873" lon="1.13859">
        <ele>85</ele>
        <time>2017-04-11T15:50:31Z</time>
      </trkpt>
      <trkpt lat="49.37876" lon="1.13869">
        <ele>95</ele>
        <time>2017-04-11T15:50:31Z</time>
      </trkpt>
      <trkpt lat="49.37874" lon="1.13874">
        <ele>85</ele>
        <time>2017-04-11T15:50:31Z</time>
      </trkpt>
      <trkpt lat="49.3787" lon="1.1388">
        <ele>61</ele>
        <time>2017-04-11T15:50:31Z</time>
      </trkpt>
      <trkpt lat="49.37868" lon="1.13885">
        <ele>61</ele>
        <time>2017-04-11T15:50:52Z</time>
      </trkpt>
      <trkpt lat="49.37866" lon="1.13889">
        <ele>61</ele>
        <time>2017-04-11T15:50:52Z</time>
      </trkpt>
      <trkpt lat="49.37864" lon="1.13893">
        <ele>61</ele>
        <time>2017-04-11T15:50:52Z</time>
      </trkpt>
      <trkpt lat="49.37863" lon="1.13896">
        <ele>61</ele>
        <time>2017-04-11T15:50:52Z</time>
      </trkpt>
      <trkpt lat="49.3786" lon="1.13899">
        <ele>61</ele>
        <time>2017-04-11T15:50:52Z</time>
      </trkpt>
      <trkpt lat="49.37858" lon="1.13901">
        <ele>61</ele>
        <time>2017-04-11T15:51:12Z</time>
      </trkpt>
      <trkpt lat="49.37856" lon="1.13903">
        <ele>61</ele>
        <time>2017-04-11T15:51:12Z</time>
      </trkpt>
      <trkpt lat="49.37853" lon="1.13908">
        <ele>61</ele>
        <time>2017-04-11T15:51:12Z</time>
      </trkpt>
      <trkpt lat="49.37853" lon="1.13913">
        <ele>61</ele>
        <time>2017-04-11T15:51:12Z</time>
      </trkpt>
      <trkpt lat="49.37852" lon="1.13919">
        <ele>61</ele>
        <time>2017-04-11T15:51:27Z</time>
      </trkpt>
      <trkpt lat="49.37849" lon="1.13924">
        <ele>61</ele>
        <time>2017-04-11T15:51:27Z</time>
      </trkpt>
      <trkpt lat="49.37847" lon="1.13933">
        <ele>61</ele>
        <time>2017-04-11T15:51:27Z</time>
      </trkpt>
      <trkpt lat="49.37847" lon="1.13936">
        <ele>61</ele>
        <time>2017-04-11T15:51:27Z</time>
      </trkpt>
      <trkpt lat="49.37844" lon="1.13942">
        <ele>61</ele>
        <time>2017-04-11T15:51:44Z</time>
      </trkpt>
      <trkpt lat="49.37844" lon="1.13944">
        <ele>61</ele>
        <time>2017-04-11T15:51:44Z</time>
      </trkpt>
      <trkpt lat="49.37841" lon="1.13949">
        <ele>61</ele>
        <time>2017-04-11T15:51:44Z</time>
      </trkpt>
      <trkpt lat="49.37841" lon="1.13956">
        <ele>61</ele>
        <time>2017-04-11T15:51:44Z</time>
      </trkpt>
      <trkpt lat="49.3784" lon="1.1396">
        <ele>45</ele>
        <time>2017-04-11T15:51:59Z</time>
      </trkpt>
      <trkpt lat="49.37838" lon="1.13964">
        <ele>45</ele>
        <time>2017-04-11T15:51:59Z</time>
      </trkpt>
      <trkpt lat="49.37837" lon="1.13968">
        <ele>45</ele>
        <time>2017-04-11T15:51:59Z</time>
      </trkpt>
      <trkpt lat="49.37834" lon="1.13971">
        <ele>45</ele>
        <time>2017-04-11T15:51:59Z</time>
      </trkpt>
      <trkpt lat="49.37831" lon="1.13978">
        <ele>45</ele>
        <time>2017-04-11T15:52:23Z</time>
      </trkpt>
      <trkpt lat="49.37831" lon="1.13979">
        <ele>45</ele>
        <time>2017-04-11T15:52:23Z</time>
      </trkpt>
      <trkpt lat="49.3783" lon="1.1398">
        <ele>45</ele>
        <time>2017-04-11T15:52:23Z</time>
      </trkpt>
      <trkpt lat="49.37827" lon="1.13985">
        <ele>45</ele>
        <time>2017-04-11T15:52:23Z</time>
      </trkpt>
      <trkpt lat="49.37826" lon="1.13992">
        <ele>45</ele>
        <time>2017-04-11T15:52:23Z</time>
      </trkpt>
      <trkpt lat="49.37825" lon="1.13998">
        <ele>45</ele>
        <time>2017-04-11T15:52:39Z</time>
      </trkpt>
      <trkpt lat="49.37824" lon="1.14003">
        <ele>45</ele>
        <time>2017-04-11T15:52:39Z</time>
      </trkpt>
      <trkpt lat="49.37823" lon="1.1401">
        <ele>45</ele>
        <time>2017-04-11T15:52:39Z</time>
      </trkpt>
      <trkpt lat="49.37822" lon="1.14017">
        <ele>45</ele>
        <time>2017-04-11T15:52:39Z</time>
      </trkpt>
      <trkpt lat="49.37816" lon="1.14037">
        <ele>45</ele>
        <time>2017-04-11T15:53:15Z</time>
      </trkpt>
      <trkpt lat="49.37819" lon="1.14039">
        <ele>45</ele>
        <time>2017-04-11T15:53:15Z</time>
      </trkpt>
      <trkpt lat="49.37819" lon="1.1404">
        <ele>45</ele>
        <time>2017-04-11T15:53:15Z</time>
      </trkpt>
      <trkpt lat="49.37823" lon="1.1404">
        <ele>45</ele>
        <time>2017-04-11T15:53:15Z</time>
      </trkpt>
      <trkpt lat="49.37827" lon="1.14042">
        <ele>40</ele>
        <time>2017-04-11T15:53:15Z</time>
      </trkpt>
      <trkpt lat="49.3783" lon="1.14044">
        <ele>40</ele>
        <time>2017-04-11T15:53:33Z</time>
      </trkpt>
      <trkpt lat="49.37834" lon="1.14046">
        <ele>40</ele>
        <time>2017-04-11T15:53:33Z</time>
      </trkpt>
      <trkpt lat="49.37837" lon="1.14049">
        <ele>40</ele>
        <time>2017-04-11T15:53:33Z</time>
      </trkpt>
      <trkpt lat="49.37841" lon="1.14051">
        <ele>40</ele>
        <time>2017-04-11T15:53:33Z</time>
      </trkpt>
      <trkpt lat="49.37848" lon="1.14058">
        <ele>40</ele>
        <time>2017-04-11T15:53:55Z</time>
      </trkpt>
      <trkpt lat="49.37849" lon="1.1406">
        <ele>40</ele>
        <time>2017-04-11T15:53:55Z</time>
      </trkpt>
      <trkpt lat="49.37852" lon="1.14063">
        <ele>40</ele>
        <time>2017-04-11T15:53:56Z</time>
      </trkpt>
      <trkpt lat="49.37854" lon="1.14067">
        <ele>40</ele>
        <time>2017-04-11T15:53:56Z</time>
      </trkpt>
      <trkpt lat="49.3786" lon="1.14074">
        <ele>40</ele>
        <time>2017-04-11T15:53:56Z</time>
      </trkpt>
      <trkpt lat="49.37868" lon="1.14081">
        <ele>40</ele>
        <time>2017-04-11T15:54:17Z</time>
      </trkpt>
      <trkpt lat="49.37871" lon="1.14085">
        <ele>40</ele>
        <time>2017-04-11T15:54:17Z</time>
      </trkpt>
      <trkpt lat="49.37873" lon="1.1409">
        <ele>40</ele>
        <time>2017-04-11T15:54:17Z</time>
      </trkpt>
      <trkpt lat="49.3788" lon="1.14099">
        <ele>49</ele>
        <time>2017-04-11T15:54:17Z</time>
      </trkpt>
      <trkpt lat="49.37884" lon="1.141">
        <ele>49</ele>
        <time>2017-04-11T15:54:32Z</time>
      </trkpt>
      <trkpt lat="49.37891" lon="1.14107">
        <ele>49</ele>
        <time>2017-04-11T15:54:32Z</time>
      </trkpt>
      <trkpt lat="49.37893" lon="1.14109">
        <ele>49</ele>
        <time>2017-04-11T15:54:32Z</time>
      </trkpt>
      <trkpt lat="49.37896" lon="1.14114">
        <ele>49</ele>
        <time>2017-04-11T15:54:32Z</time>
      </trkpt>
      <trkpt lat="49.37904" lon="1.14125">
        <ele>49</ele>
        <time>2017-04-11T15:54:51Z</time>
      </trkpt>
      <trkpt lat="49.37905" lon="1.14129">
        <ele>46</ele>
        <time>2017-04-11T15:54:51Z</time>
      </trkpt>
      <trkpt lat="49.37908" lon="1.14133">
        <ele>46</ele>
        <time>2017-04-11T15:54:51Z</time>
      </trkpt>
      <trkpt lat="49.37909" lon="1.14138">
        <ele>46</ele>
        <time>2017-04-11T15:54:51Z</time>
      </trkpt>
      <trkpt lat="49.37912" lon="1.14141">
        <ele>46</ele>
        <time>2017-04-11T15:55:08Z</time>
      </trkpt>
      <trkpt lat="49.37918" lon="1.14144">
        <ele>46</ele>
        <time>2017-04-11T15:55:08Z</time>
      </trkpt>
      <trkpt lat="49.37924" lon="1.14147">
        <ele>46</ele>
        <time>2017-04-11T15:55:08Z</time>
      </trkpt>
      <trkpt lat="49.37929" lon="1.14151">
        <ele>46</ele>
        <time>2017-04-11T15:55:08Z</time>
      </trkpt>
      <trkpt lat="49.3794" lon="1.14161">
        <ele>46</ele>
        <time>2017-04-11T15:55:27Z</time>
      </trkpt>
      <trkpt lat="49.37941" lon="1.1417">
        <ele>46</ele>
        <time>2017-04-11T15:55:28Z</time>
      </trkpt>
      <trkpt lat="49.37945" lon="1.14176">
        <ele>46</ele>
        <time>2017-04-11T15:55:28Z</time>
      </trkpt>
      <trkpt lat="49.37948" lon="1.14181">
        <ele>46</ele>
        <time>2017-04-11T15:55:28Z</time>
      </trkpt>
      <trkpt lat="49.3795" lon="1.14186">
        <ele>46</ele>
        <time>2017-04-11T15:55:43Z</time>
      </trkpt>
      <trkpt lat="49.37954" lon="1.14188">
        <ele>46</ele>
        <time>2017-04-11T15:55:43Z</time>
      </trkpt>
      <trkpt lat="49.37958" lon="1.1419">
        <ele>59</ele>
        <time>2017-04-11T15:55:43Z</time>
      </trkpt>
      <trkpt lat="49.37964" lon="1.14195">
        <ele>59</ele>
        <time>2017-04-11T15:55:43Z</time>
      </trkpt>
      <trkpt lat="49.37966" lon="1.14199">
        <ele>59</ele>
        <time>2017-04-11T15:55:59Z</time>
      </trkpt>
      <trkpt lat="49.3797" lon="1.14205">
        <ele>59</ele>
        <time>2017-04-11T15:55:59Z</time>
      </trkpt>
      <trkpt lat="49.3797" lon="1.1421">
        <ele>49</ele>
        <time>2017-04-11T15:55:59Z</time>
      </trkpt>
      <trkpt lat="49.37974" lon="1.14213">
        <ele>49</ele>
        <time>2017-04-11T15:55:59Z</time>
      </trkpt>
      <trkpt lat="49.37979" lon="1.1422">
        <ele>49</ele>
        <time>2017-04-11T15:56:15Z</time>
      </trkpt>
      <trkpt lat="49.37982" lon="1.14227">
        <ele>49</ele>
        <time>2017-04-11T15:56:15Z</time>
      </trkpt>
      <trkpt lat="49.37987" lon="1.14232">
        <ele>49</ele>
        <time>2017-04-11T15:56:15Z</time>
      </trkpt>
      <trkpt lat="49.37992" lon="1.14235">
        <ele>49</ele>
        <time>2017-04-11T15:56:15Z</time>
      </trkpt>
      <trkpt lat="49.37993" lon="1.14238">
        <ele>49</ele>
        <time>2017-04-11T15:56:35Z</time>
      </trkpt>
      <trkpt lat="49.37997" lon="1.14241">
        <ele>49</ele>
        <time>2017-04-11T15:56:35Z</time>
      </trkpt>
      <trkpt lat="49.37999" lon="1.14243">
        <ele>49</ele>
        <time>2017-04-11T15:56:35Z</time>
      </trkpt>
      <trkpt lat="49.38" lon="1.14243">
        <ele>49</ele>
        <time>2017-04-11T15:56:35Z</time>
      </trkpt>
      <trkpt lat="49.38003" lon="1.1425">
        <ele>49</ele>
        <time>2017-04-11T15:56:35Z</time>
      </trkpt>
      <trkpt lat="49.38007" lon="1.14252">
        <ele>49</ele>
        <time>2017-04-11T15:56:51Z</time>
      </trkpt>
      <trkpt lat="49.38011" lon="1.1426">
        <ele>49</ele>
        <time>2017-04-11T15:56:51Z</time>
      </trkpt>
      <trkpt lat="49.38015" lon="1.14261">
        <ele>49</ele>
        <time>2017-04-11T15:56:51Z</time>
      </trkpt>
      <trkpt lat="49.38018" lon="1.14265">
        <ele>49</ele>
        <time>2017-04-11T15:56:51Z</time>
      </trkpt>
      <trkpt lat="49.38021" lon="1.14268">
        <ele>49</ele>
        <time>2017-04-11T15:57:07Z</time>
      </trkpt>
      <trkpt lat="49.38028" lon="1.14275">
        <ele>49</ele>
        <time>2017-04-11T15:57:07Z</time>
      </trkpt>
      <trkpt lat="49.38034" lon="1.1428">
        <ele>49</ele>
        <time>2017-04-11T15:57:07Z</time>
      </trkpt>
      <trkpt lat="49.38035" lon="1.14285">
        <ele>49</ele>
        <time>2017-04-11T15:57:07Z</time>
      </trkpt>
      <trkpt lat="49.3804" lon="1.14288">
        <ele>49</ele>
        <time>2017-04-11T15:57:25Z</time>
      </trkpt>
      <trkpt lat="49.38042" lon="1.14292">
        <ele>56</ele>
        <time>2017-04-11T15:57:25Z</time>
      </trkpt>
      <trkpt lat="49.38044" lon="1.14301">
        <ele>53</ele>
        <time>2017-04-11T15:57:25Z</time>
      </trkpt>
      <trkpt lat="49.38048" lon="1.14306">
        <ele>53</ele>
        <time>2017-04-11T15:57:25Z</time>
      </trkpt>
      <trkpt lat="49.3805" lon="1.14308">
        <ele>53</ele>
        <time>2017-04-11T15:57:40Z</time>
      </trkpt>
      <trkpt lat="49.38053" lon="1.14312">
        <ele>53</ele>
        <time>2017-04-11T15:57:40Z</time>
      </trkpt>
      <trkpt lat="49.38056" lon="1.14319">
        <ele>53</ele>
        <time>2017-04-11T15:57:40Z</time>
      </trkpt>
      <trkpt lat="49.3806" lon="1.14322">
        <ele>53</ele>
        <time>2017-04-11T15:57:40Z</time>
      </trkpt>
      <trkpt lat="49.38062" lon="1.14323">
        <ele>53</ele>
        <time>2017-04-11T15:57:56Z</time>
      </trkpt>
      <trkpt lat="49.38068" lon="1.14326">
        <ele>53</ele>
        <time>2017-04-11T15:57:56Z</time>
      </trkpt>
      <trkpt lat="49.3807" lon="1.14328">
        <ele>53</ele>
        <time>2017-04-11T15:57:56Z</time>
      </trkpt>
      <trkpt lat="49.38075" lon="1.14334">
        <ele>53</ele>
        <time>2017-04-11T15:57:56Z</time>
      </trkpt>
      <trkpt lat="49.38078" lon="1.14337">
        <ele>53</ele>
        <time>2017-04-11T15:58:12Z</time>
      </trkpt>
      <trkpt lat="49.38082" lon="1.14341">
        <ele>53</ele>
        <time>2017-04-11T15:58:12Z</time>
      </trkpt>
      <trkpt lat="49.38084" lon="1.1435">
        <ele>53</ele>
        <time>2017-04-11T15:58:12Z</time>
      </trkpt>
      <trkpt lat="49.3809" lon="1.1435">
        <ele>53</ele>
        <time>2017-04-11T15:58:12Z</time>
      </trkpt>
      <trkpt lat="49.38098" lon="1.14356">
        <ele>53</ele>
        <time>2017-04-11T15:58:27Z</time>
      </trkpt>
      <trkpt lat="49.38101" lon="1.14359">
        <ele>53</ele>
        <time>2017-04-11T15:58:28Z</time>
      </trkpt>
      <trkpt lat="49.38105" lon="1.14363">
        <ele>53</ele>
        <time>2017-04-11T15:58:28Z</time>
      </trkpt>
      <trkpt lat="49.38105" lon="1.14368">
        <ele>53</ele>
        <time>2017-04-11T15:58:28Z</time>
      </trkpt>
      <trkpt lat="49.38109" lon="1.14367">
        <ele>53</ele>
        <time>2017-04-11T15:58:43Z</time>
      </trkpt>
      <trkpt lat="49.38113" lon="1.14374">
        <ele>53</ele>
        <time>2017-04-11T15:58:43Z</time>
      </trkpt>
      <trkpt lat="49.38113" lon="1.14377">
        <ele>61</ele>
        <time>2017-04-11T15:58:43Z</time>
      </trkpt>
      <trkpt lat="49.38119" lon="1.14383">
        <ele>61</ele>
        <time>2017-04-11T15:58:43Z</time>
      </trkpt>
      <trkpt lat="49.38121" lon="1.14388">
        <ele>61</ele>
        <time>2017-04-11T15:59:00Z</time>
      </trkpt>
      <trkpt lat="49.38121" lon="1.14391">
        <ele>61</ele>
        <time>2017-04-11T15:59:00Z</time>
      </trkpt>
      <trkpt lat="49.38126" lon="1.14397">
        <ele>56</ele>
        <time>2017-04-11T15:59:00Z</time>
      </trkpt>
      <trkpt lat="49.38133" lon="1.14405">
        <ele>56</ele>
        <time>2017-04-11T15:59:00Z</time>
      </trkpt>
      <trkpt lat="49.38134" lon="1.1441">
        <ele>56</ele>
        <time>2017-04-11T15:59:16Z</time>
      </trkpt>
      <trkpt lat="49.38138" lon="1.14412">
        <ele>56</ele>
        <time>2017-04-11T15:59:17Z</time>
      </trkpt>
      <trkpt lat="49.3814" lon="1.14417">
        <ele>56</ele>
        <time>2017-04-11T15:59:17Z</time>
      </trkpt>
      <trkpt lat="49.38141" lon="1.1442">
        <ele>56</ele>
        <time>2017-04-11T15:59:17Z</time>
      </trkpt>
      <trkpt lat="49.38146" lon="1.14426">
        <ele>56</ele>
        <time>2017-04-11T15:59:32Z</time>
      </trkpt>
      <trkpt lat="49.3815" lon="1.14434">
        <ele>56</ele>
        <time>2017-04-11T15:59:32Z</time>
      </trkpt>
      <trkpt lat="49.38151" lon="1.14438">
        <ele>56</ele>
        <time>2017-04-11T15:59:32Z</time>
      </trkpt>
      <trkpt lat="49.38155" lon="1.14444">
        <ele>56</ele>
        <time>2017-04-11T15:59:32Z</time>
      </trkpt>
      <trkpt lat="49.38158" lon="1.1445">
        <ele>56</ele>
        <time>2017-04-11T15:59:48Z</time>
      </trkpt>
      <trkpt lat="49.38161" lon="1.14458">
        <ele>59</ele>
        <time>2017-04-11T15:59:48Z</time>
      </trkpt>
      <trkpt lat="49.38163" lon="1.14465">
        <ele>59</ele>
        <time>2017-04-11T15:59:48Z</time>
      </trkpt>
      <trkpt lat="49.38166" lon="1.14468">
        <ele>59</ele>
        <time>2017-04-11T15:59:48Z</time>
      </trkpt>
      <trkpt lat="49.3817" lon="1.14478">
        <ele>59</ele>
        <time>2017-04-11T16:00:07Z</time>
      </trkpt>
      <trkpt lat="49.38172" lon="1.1448">
        <ele>59</ele>
        <time>2017-04-11T16:00:07Z</time>
      </trkpt>
      <trkpt lat="49.38172" lon="1.14484">
        <ele>59</ele>
        <time>2017-04-11T16:00:07Z</time>
      </trkpt>
      <trkpt lat="49.38173" lon="1.14486">
        <ele>59</ele>
        <time>2017-04-11T16:00:07Z</time>
      </trkpt>
      <trkpt lat="49.38181" lon="1.14496">
        <ele>59</ele>
        <time>2017-04-11T16:00:07Z</time>
      </trkpt>
      <trkpt lat="49.38183" lon="1.14501">
        <ele>59</ele>
        <time>2017-04-11T16:00:23Z</time>
      </trkpt>
      <trkpt lat="49.38184" lon="1.14505">
        <ele>59</ele>
        <time>2017-04-11T16:00:24Z</time>
      </trkpt>
      <trkpt lat="49.38187" lon="1.1451">
        <ele>59</ele>
        <time>2017-04-11T16:00:25Z</time>
      </trkpt>
      <trkpt lat="49.38193" lon="1.14514">
        <ele>59</ele>
        <time>2017-04-11T16:00:25Z</time>
      </trkpt>
      <trkpt lat="49.38198" lon="1.14518">
        <ele>59</ele>
        <time>2017-04-11T16:00:51Z</time>
      </trkpt>
      <trkpt lat="49.38202" lon="1.14528">
        <ele>59</ele>
        <time>2017-04-11T16:00:51Z</time>
      </trkpt>
      <trkpt lat="49.38211" lon="1.14554">
        <ele>61</ele>
        <time>2017-04-11T16:00:51Z</time>
      </trkpt>
      <trkpt lat="49.38211" lon="1.1456">
        <ele>61</ele>
        <time>2017-04-11T16:00:51Z</time>
      </trkpt>
      <trkpt lat="49.38212" lon="1.14562">
        <ele>61</ele>
        <time>2017-04-11T16:01:07Z</time>
      </trkpt>
      <trkpt lat="49.38214" lon="1.14561">
        <ele>61</ele>
        <time>2017-04-11T16:01:07Z</time>
      </trkpt>
      <trkpt lat="49.3822" lon="1.14568">
        <ele>61</ele>
        <time>2017-04-11T16:01:07Z</time>
      </trkpt>
      <trkpt lat="49.38222" lon="1.14575">
        <ele>61</ele>
        <time>2017-04-11T16:01:07Z</time>
      </trkpt>
      <trkpt lat="49.38223" lon="1.14581">
        <ele>61</ele>
        <time>2017-04-11T16:01:23Z</time>
      </trkpt>
      <trkpt lat="49.38228" lon="1.14594">
        <ele>61</ele>
        <time>2017-04-11T16:01:23Z</time>
      </trkpt>
      <trkpt lat="49.38234" lon="1.14601">
        <ele>61</ele>
        <time>2017-04-11T16:01:23Z</time>
      </trkpt>
      <trkpt lat="49.38236" lon="1.14611">
        <ele>61</ele>
        <time>2017-04-11T16:01:23Z</time>
      </trkpt>
      <trkpt lat="49.38235" lon="1.14621">
        <ele>61</ele>
        <time>2017-04-11T16:02:00Z</time>
      </trkpt>
      <trkpt lat="49.38235" lon="1.14621">
        <ele>61</ele>
        <time>2017-04-11T16:02:00Z</time>
      </trkpt>
      <trkpt lat="49.38239" lon="1.14634">
        <ele>61</ele>
        <time>2017-04-11T16:02:00Z</time>
      </trkpt>
      <trkpt lat="49.38244" lon="1.14644">
        <ele>61</ele>
        <time>2017-04-11T16:02:00Z</time>
      </trkpt>
      <trkpt lat="49.38246" lon="1.14646">
        <ele>61</ele>
        <time>2017-04-11T16:02:00Z</time>
      </trkpt>
      <trkpt lat="49.38249" lon="1.14653">
        <ele>61</ele>
        <time>2017-04-11T16:02:16Z</time>
      </trkpt>
      <trkpt lat="49.38251" lon="1.14658">
        <ele>61</ele>
        <time>2017-04-11T16:02:16Z</time>
      </trkpt>
      <trkpt lat="49.38259" lon="1.1467">
        <ele>61</ele>
        <time>2017-04-11T16:02:16Z</time>
      </trkpt>
      <trkpt lat="49.38256" lon="1.14679">
        <ele>61</ele>
        <time>2017-04-11T16:02:16Z</time>
      </trkpt>
      <trkpt lat="49.38264" lon="1.14689">
        <ele>61</ele>
        <time>2017-04-11T16:02:36Z</time>
      </trkpt>
      <trkpt lat="49.38264" lon="1.14692">
        <ele>61</ele>
        <time>2017-04-11T16:02:36Z</time>
      </trkpt>
      <trkpt lat="49.38274" lon="1.14695">
        <ele>61</ele>
        <time>2017-04-11T16:02:36Z</time>
      </trkpt>
      <trkpt lat="49.38275" lon="1.14703">
        <ele>61</ele>
        <time>2017-04-11T16:02:36Z</time>
      </trkpt>
      <trkpt lat="49.38277" lon="1.14711">
        <ele>70</ele>
        <time>2017-04-11T16:02:52Z</time>
      </trkpt>
      <trkpt lat="49.38281" lon="1.14715">
        <ele>70</ele>
        <time>2017-04-11T16:02:52Z</time>
      </trkpt>
      <trkpt lat="49.38285" lon="1.14723">
        <ele>70</ele>
        <time>2017-04-11T16:02:52Z</time>
      </trkpt>
      <trkpt lat="49.38289" lon="1.14729">
        <ele>70</ele>
        <time>2017-04-11T16:02:52Z</time>
      </trkpt>
      <trkpt lat="49.38291" lon="1.14738">
        <ele>70</ele>
        <time>2017-04-11T16:03:16Z</time>
      </trkpt>
      <trkpt lat="49.38292" lon="1.14743">
        <ele>69</ele>
        <time>2017-04-11T16:03:16Z</time>
      </trkpt>
      <trkpt lat="49.38294" lon="1.14746">
        <ele>69</ele>
        <time>2017-04-11T16:03:16Z</time>
      </trkpt>
      <trkpt lat="49.38294" lon="1.14747">
        <ele>69</ele>
        <time>2017-04-11T16:03:16Z</time>
      </trkpt>
      <trkpt lat="49.38299" lon="1.14756">
        <ele>69</ele>
        <time>2017-04-11T16:03:16Z</time>
      </trkpt>
      <trkpt lat="49.38302" lon="1.14756">
        <ele>69</ele>
        <time>2017-04-11T16:03:31Z</time>
      </trkpt>
      <trkpt lat="49.38307" lon="1.14767">
        <ele>69</ele>
        <time>2017-04-11T16:03:31Z</time>
      </trkpt>
      <trkpt lat="49.3831" lon="1.14771">
        <ele>69</ele>
        <time>2017-04-11T16:03:31Z</time>
      </trkpt>
      <trkpt lat="49.38313" lon="1.14775">
        <ele>69</ele>
        <time>2017-04-11T16:03:31Z</time>
      </trkpt>
      <trkpt lat="49.38312" lon="1.14782">
        <ele>69</ele>
        <time>2017-04-11T16:03:47Z</time>
      </trkpt>
      <trkpt lat="49.38317" lon="1.14792">
        <ele>66</ele>
        <time>2017-04-11T16:03:47Z</time>
      </trkpt>
      <trkpt lat="49.38317" lon="1.14799">
        <ele>66</ele>
        <time>2017-04-11T16:03:47Z</time>
      </trkpt>
      <trkpt lat="49.38322" lon="1.14801">
        <ele>66</ele>
        <time>2017-04-11T16:03:47Z</time>
      </trkpt>
      <trkpt lat="49.38326" lon="1.14805">
        <ele>66</ele>
        <time>2017-04-11T16:04:03Z</time>
      </trkpt>
      <trkpt lat="49.38326" lon="1.14806">
        <ele>66</ele>
        <time>2017-04-11T16:04:03Z</time>
      </trkpt>
      <trkpt lat="49.3833" lon="1.14814">
        <ele>66</ele>
        <time>2017-04-11T16:04:03Z</time>
      </trkpt>
      <trkpt lat="49.38333" lon="1.14817">
        <ele>66</ele>
        <time>2017-04-11T16:04:03Z</time>
      </trkpt>
      <trkpt lat="49.38336" lon="1.14822">
        <ele>66</ele>
        <time>2017-04-11T16:14:47Z</time>
      </trkpt>
      <trkpt lat="49.38336" lon="1.14822">
        <ele>66</ele>
        <time>2017-04-11T16:14:47Z</time>
      </trkpt>
      <trkpt lat="49.38337" lon="1.14826">
        <ele>66</ele>
        <time>2017-04-11T16:14:47Z</time>
      </trkpt>
      <trkpt lat="49.38338" lon="1.14832">
        <ele>66</ele>
        <time>2017-04-11T16:14:47Z</time>
      </trkpt>
      <trkpt lat="49.38341" lon="1.14836">
        <ele>66</ele>
        <time>2017-04-11T16:14:47Z</time>
      </trkpt>
      <trkpt lat="49.38345" lon="1.14834">
        <ele>66</ele>
        <time>2017-04-11T16:16:59Z</time>
      </trkpt>
      <trkpt lat="49.3835" lon="1.1484">
        <ele>66</ele>
        <time>2017-04-11T16:16:59Z</time>
      </trkpt>
      <trkpt lat="49.38357" lon="1.1485">
        <ele>66</ele>
        <time>2017-04-11T16:16:59Z</time>
      </trkpt>
      <trkpt lat="49.3836" lon="1.14853">
        <ele>66</ele>
        <time>2017-04-11T16:16:59Z</time>
      </trkpt>
      <trkpt lat="49.38367" lon="1.14857">
        <ele>66</ele>
        <time>2017-04-11T16:16:59Z</time>
      </trkpt>
      <trkpt lat="49.38373" lon="1.14863">
        <ele>66</ele>
        <time>2017-04-11T16:17:15Z</time>
      </trkpt>
      <trkpt lat="49.3837" lon="1.14869">
        <ele>66</ele>
        <time>2017-04-11T16:17:15Z</time>
      </trkpt>
      <trkpt lat="49.38378" lon="1.14875">
        <ele>74</ele>
        <time>2017-04-11T16:17:15Z</time>
      </trkpt>
      <trkpt lat="49.38381" lon="1.14878">
        <ele>69</ele>
        <time>2017-04-11T16:17:15Z</time>
      </trkpt>
      <trkpt lat="49.38387" lon="1.14881">
        <ele>69</ele>
        <time>2017-04-11T16:17:31Z</time>
      </trkpt>
      <trkpt lat="49.38388" lon="1.14883">
        <ele>69</ele>
        <time>2017-04-11T16:17:31Z</time>
      </trkpt>
      <trkpt lat="49.38395" lon="1.14882">
        <ele>69</ele>
        <time>2017-04-11T16:17:31Z</time>
      </trkpt>
      <trkpt lat="49.38399" lon="1.14885">
        <ele>69</ele>
        <time>2017-04-11T16:17:31Z</time>
      </trkpt>
      <trkpt lat="49.38402" lon="1.14883">
        <ele>69</ele>
        <time>2017-04-11T16:17:48Z</time>
      </trkpt>
      <trkpt lat="49.38403" lon="1.14883">
        <ele>69</ele>
        <time>2017-04-11T16:17:48Z</time>
      </trkpt>
      <trkpt lat="49.38412" lon="1.14878">
        <ele>69</ele>
        <time>2017-04-11T16:17:48Z</time>
      </trkpt>
      <trkpt lat="49.38413" lon="1.14882">
        <ele>69</ele>
        <time>2017-04-11T16:17:48Z</time>
      </trkpt>
      <trkpt lat="49.38425" lon="1.14882">
        <ele>69</ele>
        <time>2017-04-11T16:18:15Z</time>
      </trkpt>
      <trkpt lat="49.38432" lon="1.14886">
        <ele>69</ele>
        <time>2017-04-11T16:18:15Z</time>
      </trkpt>
      <trkpt lat="49.38441" lon="1.14887">
        <ele>69</ele>
        <time>2017-04-11T16:18:15Z</time>
      </trkpt>
      <trkpt lat="49.38448" lon="1.14889">
        <ele>69</ele>
        <time>2017-04-11T16:18:15Z</time>
      </trkpt>
      <trkpt lat="49.38456" lon="1.1489">
        <ele>69</ele>
        <time>2017-04-11T16:18:15Z</time>
      </trkpt>
      <trkpt lat="49.38456" lon="1.14892">
        <ele>69</ele>
        <time>2017-04-11T16:18:31Z</time>
      </trkpt>
      <trkpt lat="49.38461" lon="1.14889">
        <ele>72</ele>
        <time>2017-04-11T16:18:32Z</time>
      </trkpt>
      <trkpt lat="49.38465" lon="1.1489">
        <ele>72</ele>
        <time>2017-04-11T16:18:33Z</time>
      </trkpt>
      <trkpt lat="49.38469" lon="1.14893">
        <ele>72</ele>
        <time>2017-04-11T16:18:33Z</time>
      </trkpt>
      <trkpt lat="49.38481" lon="1.14895">
        <ele>72</ele>
        <time>2017-04-11T16:18:55Z</time>
      </trkpt>
      <trkpt lat="49.38484" lon="1.14892">
        <ele>72</ele>
        <time>2017-04-11T16:18:55Z</time>
      </trkpt>
      <trkpt lat="49.38484" lon="1.14891">
        <ele>72</ele>
        <time>2017-04-11T16:18:55Z</time>
      </trkpt>
      <trkpt lat="49.38486" lon="1.14891">
        <ele>72</ele>
        <time>2017-04-11T16:18:55Z</time>
      </trkpt>
      <trkpt lat="49.38489" lon="1.14892">
        <ele>72</ele>
        <time>2017-04-11T16:18:55Z</time>
      </trkpt>
      <trkpt lat="49.38492" lon="1.14893">
        <ele>72</ele>
        <time>2017-04-11T16:19:11Z</time>
      </trkpt>
      <trkpt lat="49.38497" lon="1.14894">
        <ele>72</ele>
        <time>2017-04-11T16:19:11Z</time>
      </trkpt>
      <trkpt lat="49.38502" lon="1.14893">
        <ele>72</ele>
        <time>2017-04-11T16:19:11Z</time>
      </trkpt>
      <trkpt lat="49.38505" lon="1.14891">
        <ele>72</ele>
        <time>2017-04-11T16:19:11Z</time>
      </trkpt>
      <trkpt lat="49.38509" lon="1.14891">
        <ele>72</ele>
        <time>2017-04-11T16:19:28Z</time>
      </trkpt>
      <trkpt lat="49.38514" lon="1.14894">
        <ele>72</ele>
        <time>2017-04-11T16:19:28Z</time>
      </trkpt>
      <trkpt lat="49.38524" lon="1.14886">
        <ele>72</ele>
        <time>2017-04-11T16:19:28Z</time>
      </trkpt>
      <trkpt lat="49.38527" lon="1.14884">
        <ele>72</ele>
        <time>2017-04-11T16:19:28Z</time>
      </trkpt>
      <trkpt lat="49.3853" lon="1.14883">
        <ele>72</ele>
        <time>2017-04-11T16:19:47Z</time>
      </trkpt>
      <trkpt lat="49.3853" lon="1.14882">
        <ele>72</ele>
        <time>2017-04-11T16:19:47Z</time>
      </trkpt>
      <trkpt lat="49.38531" lon="1.14882">
        <ele>72</ele>
        <time>2017-04-11T16:19:47Z</time>
      </trkpt>
      <trkpt lat="49.38531" lon="1.14882">
        <ele>72</ele>
        <time>2017-04-11T16:19:47Z</time>
      </trkpt>
      <trkpt lat="49.38546" lon="1.14877">
        <ele>78</ele>
        <time>2017-04-11T16:19:48Z</time>
      </trkpt>
      <trkpt lat="49.38551" lon="1.14875">
        <ele>78</ele>
        <time>2017-04-11T16:20:03Z</time>
      </trkpt>
      <trkpt lat="49.38561" lon="1.14873">
        <ele>89</ele>
        <time>2017-04-11T16:20:03Z</time>
      </trkpt>
      <trkpt lat="49.38569" lon="1.14874">
        <ele>89</ele>
        <time>2017-04-11T16:20:03Z</time>
      </trkpt>
      <trkpt lat="49.38579" lon="1.14875">
        <ele>78</ele>
        <time>2017-04-11T16:20:03Z</time>
      </trkpt>
      <trkpt lat="49.38583" lon="1.14886">
        <ele>78</ele>
        <time>2017-04-11T16:20:40Z</time>
      </trkpt>
      <trkpt lat="49.38595" lon="1.14884">
        <ele>78</ele>
        <time>2017-04-11T16:20:40Z</time>
      </trkpt>
      <trkpt lat="49.38602" lon="1.14886">
        <ele>78</ele>
        <time>2017-04-11T16:20:40Z</time>
      </trkpt>
      <trkpt lat="49.38607" lon="1.14886">
        <ele>78</ele>
        <time>2017-04-11T16:20:40Z</time>
      </trkpt>
      <trkpt lat="49.38609" lon="1.14887">
        <ele>78</ele>
        <time>2017-04-11T16:20:40Z</time>
      </trkpt>
      <trkpt lat="49.38615" lon="1.14887">
        <ele>78</ele>
        <time>2017-04-11T16:20:59Z</time>
      </trkpt>
      <trkpt lat="49.38611" lon="1.14895">
        <ele>78</ele>
        <time>2017-04-11T16:20:59Z</time>
      </trkpt>
      <trkpt lat="49.38617" lon="1.14897">
        <ele>78</ele>
        <time>2017-04-11T16:20:59Z</time>
      </trkpt>
      <trkpt lat="49.38619" lon="1.14896">
        <ele>78</ele>
        <time>2017-04-11T16:20:59Z</time>
      </trkpt>
      <trkpt lat="49.38623" lon="1.14897">
        <ele>78</ele>
        <time>2017-04-11T16:20:59Z</time>
      </trkpt>
      <trkpt lat="49.38628" lon="1.14896">
        <ele>82</ele>
        <time>2017-04-11T16:21:15Z</time>
      </trkpt>
      <trkpt lat="49.38631" lon="1.14895">
        <ele>82</ele>
        <time>2017-04-11T16:21:15Z</time>
      </trkpt>
      <trkpt lat="49.38631" lon="1.14899">
        <ele>82</ele>
        <time>2017-04-11T16:21:15Z</time>
      </trkpt>
      <trkpt lat="49.38637" lon="1.14898">
        <ele>82</ele>
        <time>2017-04-11T16:21:15Z</time>
      </trkpt>
      <trkpt lat="49.3864" lon="1.149">
        <ele>82</ele>
        <time>2017-04-11T16:21:31Z</time>
      </trkpt>
      <trkpt lat="49.3865" lon="1.14901">
        <ele>82</ele>
        <time>2017-04-11T16:21:31Z</time>
      </trkpt>
      <trkpt lat="49.38652" lon="1.14905">
        <ele>82</ele>
        <time>2017-04-11T16:21:31Z</time>
      </trkpt>
      <trkpt lat="49.38657" lon="1.14907">
        <ele>82</ele>
        <time>2017-04-11T16:21:31Z</time>
      </trkpt>
      <trkpt lat="49.38664" lon="1.1491">
        <ele>82</ele>
        <time>2017-04-11T16:21:47Z</time>
      </trkpt>
      <trkpt lat="49.38669" lon="1.14911">
        <ele>82</ele>
        <time>2017-04-11T16:21:47Z</time>
      </trkpt>
      <trkpt lat="49.38672" lon="1.14916">
        <ele>82</ele>
        <time>2017-04-11T16:21:47Z</time>
      </trkpt>
      <trkpt lat="49.38674" lon="1.14921">
        <ele>82</ele>
        <time>2017-04-11T16:21:47Z</time>
      </trkpt>
      <trkpt lat="49.38675" lon="1.14923">
        <ele>82</ele>
        <time>2017-04-11T16:22:03Z</time>
      </trkpt>
      <trkpt lat="49.3868" lon="1.14932">
        <ele>82</ele>
        <time>2017-04-11T16:22:03Z</time>
      </trkpt>
      <trkpt lat="49.38686" lon="1.14935">
        <ele>82</ele>
        <time>2017-04-11T16:22:03Z</time>
      </trkpt>
      <trkpt lat="49.3869" lon="1.14938">
        <ele>82</ele>
        <time>2017-04-11T16:22:03Z</time>
      </trkpt>
      <trkpt lat="49.38695" lon="1.14943">
        <ele>82</ele>
        <time>2017-04-11T16:22:19Z</time>
      </trkpt>
      <trkpt lat="49.38697" lon="1.14944">
        <ele>82</ele>
        <time>2017-04-11T16:22:19Z</time>
      </trkpt>
      <trkpt lat="49.38701" lon="1.1495">
        <ele>82</ele>
        <time>2017-04-11T16:22:19Z</time>
      </trkpt>
      <trkpt lat="49.38704" lon="1.14954">
        <ele>82</ele>
        <time>2017-04-11T16:22:19Z</time>
      </trkpt>
      <trkpt lat="49.38708" lon="1.14963">
        <ele>90</ele>
        <time>2017-04-11T16:22:43Z</time>
      </trkpt>
      <trkpt lat="49.38709" lon="1.14966">
        <ele>86</ele>
        <time>2017-04-11T16:22:43Z</time>
      </trkpt>
      <trkpt lat="49.38709" lon="1.14968">
        <ele>86</ele>
        <time>2017-04-11T16:22:43Z</time>
      </trkpt>
      <trkpt lat="49.38709" lon="1.14969">
        <ele>86</ele>
        <time>2017-04-11T16:22:43Z</time>
      </trkpt>
      <trkpt lat="49.38712" lon="1.14972">
        <ele>86</ele>
        <time>2017-04-11T16:22:43Z</time>
      </trkpt>
      <trkpt lat="49.38712" lon="1.14973">
        <ele>86</ele>
        <time>2017-04-11T16:23:07Z</time>
      </trkpt>
      <trkpt lat="49.38712" lon="1.14974">
        <ele>86</ele>
        <time>2017-04-11T16:23:07Z</time>
      </trkpt>
      <trkpt lat="49.38714" lon="1.14978">
        <ele>86</ele>
        <time>2017-04-11T16:23:07Z</time>
      </trkpt>
      <trkpt lat="49.38717" lon="1.14984">
        <ele>86</ele>
        <time>2017-04-11T16:23:07Z</time>
      </trkpt>
      <trkpt lat="49.38721" lon="1.14986">
        <ele>86</ele>
        <time>2017-04-11T16:23:07Z</time>
      </trkpt>
      <trkpt lat="49.38727" lon="1.14992">
        <ele>86</ele>
        <time>2017-04-11T16:23:24Z</time>
      </trkpt>
      <trkpt lat="49.3873" lon="1.14997">
        <ele>86</ele>
        <time>2017-04-11T16:23:24Z</time>
      </trkpt>
      <trkpt lat="49.38734" lon="1.15004">
        <ele>86</ele>
        <time>2017-04-11T16:23:24Z</time>
      </trkpt>
      <trkpt lat="49.38733" lon="1.15006">
        <ele>86</ele>
        <time>2017-04-11T16:23:25Z</time>
      </trkpt>
      <trkpt lat="49.38734" lon="1.15013">
        <ele>86</ele>
        <time>2017-04-11T16:23:40Z</time>
      </trkpt>
      <trkpt lat="49.38734" lon="1.15019">
        <ele>86</ele>
        <time>2017-04-11T16:23:40Z</time>
      </trkpt>
      <trkpt lat="49.38742" lon="1.15024">
        <ele>86</ele>
        <time>2017-04-11T16:23:40Z</time>
      </trkpt>
      <trkpt lat="49.38747" lon="1.15028">
        <ele>86</ele>
        <time>2017-04-11T16:23:40Z</time>
      </trkpt>
      <trkpt lat="49.3875" lon="1.15031">
        <ele>86</ele>
        <time>2017-04-11T16:23:55Z</time>
      </trkpt>
      <trkpt lat="49.38748" lon="1.15042">
        <ele>83</ele>
        <time>2017-04-11T16:23:55Z</time>
      </trkpt>
      <trkpt lat="49.38751" lon="1.15049">
        <ele>83</ele>
        <time>2017-04-11T16:23:55Z</time>
      </trkpt>
      <trkpt lat="49.38756" lon="1.15053">
        <ele>83</ele>
        <time>2017-04-11T16:23:56Z</time>
      </trkpt>
      <trkpt lat="49.38758" lon="1.15067">
        <ele>83</ele>
        <time>2017-04-11T16:24:15Z</time>
      </trkpt>
      <trkpt lat="49.38764" lon="1.15072">
        <ele>83</ele>
        <time>2017-04-11T16:24:15Z</time>
      </trkpt>
      <trkpt lat="49.38766" lon="1.15081">
        <ele>83</ele>
        <time>2017-04-11T16:24:15Z</time>
      </trkpt>
      <trkpt lat="49.38765" lon="1.15085">
        <ele>83</ele>
        <time>2017-04-11T16:24:15Z</time>
      </trkpt>
      <trkpt lat="49.38767" lon="1.15093">
        <ele>83</ele>
        <time>2017-04-11T16:24:31Z</time>
      </trkpt>
      <trkpt lat="49.38769" lon="1.151">
        <ele>83</ele>
        <time>2017-04-11T16:24:31Z</time>
      </trkpt>
      <trkpt lat="49.38773" lon="1.15104">
        <ele>83</ele>
        <time>2017-04-11T16:24:31Z</time>
      </trkpt>
      <trkpt lat="49.3878" lon="1.15107">
        <ele>83</ele>
        <time>2017-04-11T16:24:31Z</time>
      </trkpt>
      <trkpt lat="49.38784" lon="1.1511">
        <ele>83</ele>
        <time>2017-04-11T16:24:48Z</time>
      </trkpt>
      <trkpt lat="49.38786" lon="1.15113">
        <ele>83</ele>
        <time>2017-04-11T16:24:48Z</time>
      </trkpt>
      <trkpt lat="49.38789" lon="1.15115">
        <ele>83</ele>
        <time>2017-04-11T16:24:48Z</time>
      </trkpt>
      <trkpt lat="49.38793" lon="1.1512">
        <ele>97</ele>
        <time>2017-04-11T16:24:48Z</time>
      </trkpt>
      <trkpt lat="49.38796" lon="1.15125">
        <ele>92</ele>
        <time>2017-04-11T16:25:03Z</time>
      </trkpt>
      <trkpt lat="49.38798" lon="1.15131">
        <ele>92</ele>
        <time>2017-04-11T16:25:03Z</time>
      </trkpt>
      <trkpt lat="49.38797" lon="1.15142">
        <ele>92</ele>
        <time>2017-04-11T16:25:03Z</time>
      </trkpt>
      <trkpt lat="49.38798" lon="1.15152">
        <ele>92</ele>
        <time>2017-04-11T16:25:03Z</time>
      </trkpt>
      <trkpt lat="49.38798" lon="1.1516">
        <ele>92</ele>
        <time>2017-04-11T16:25:19Z</time>
      </trkpt>
      <trkpt lat="49.38801" lon="1.15168">
        <ele>92</ele>
        <time>2017-04-11T16:25:19Z</time>
      </trkpt>
      <trkpt lat="49.38802" lon="1.15174">
        <ele>92</ele>
        <time>2017-04-11T16:25:19Z</time>
      </trkpt>
      <trkpt lat="49.38803" lon="1.15182">
        <ele>92</ele>
        <time>2017-04-11T16:25:19Z</time>
      </trkpt>
      <trkpt lat="49.38808" lon="1.15187">
        <ele>92</ele>
        <time>2017-04-11T16:25:35Z</time>
      </trkpt>
      <trkpt lat="49.38811" lon="1.15192">
        <ele>92</ele>
        <time>2017-04-11T16:25:35Z</time>
      </trkpt>
      <trkpt lat="49.38815" lon="1.15198">
        <ele>92</ele>
        <time>2017-04-11T16:25:35Z</time>
      </trkpt>
      <trkpt lat="49.38819" lon="1.15203">
        <ele>92</ele>
        <time>2017-04-11T16:25:35Z</time>
      </trkpt>
      <trkpt lat="49.38827" lon="1.15227">
        <ele>92</ele>
        <time>2017-04-11T16:26:00Z</time>
      </trkpt>
      <trkpt lat="49.38828" lon="1.15238">
        <ele>92</ele>
        <time>2017-04-11T16:26:00Z</time>
      </trkpt>
      <trkpt lat="49.38831" lon="1.15244">
        <ele>92</ele>
        <time>2017-04-11T16:26:00Z</time>
      </trkpt>
      <trkpt lat="49.3883" lon="1.15251">
        <ele>92</ele>
        <time>2017-04-11T16:26:00Z</time>
      </trkpt>
      <trkpt lat="49.38829" lon="1.15257">
        <ele>92</ele>
        <time>2017-04-11T16:26:15Z</time>
      </trkpt>
      <trkpt lat="49.38829" lon="1.15261">
        <ele>92</ele>
        <time>2017-04-11T16:26:15Z</time>
      </trkpt>
      <trkpt lat="49.38828" lon="1.1527">
        <ele>92</ele>
        <time>2017-04-11T16:26:15Z</time>
      </trkpt>
      <trkpt lat="49.38828" lon="1.15274">
        <ele>92</ele>
        <time>2017-04-11T16:26:15Z</time>
      </trkpt>
      <trkpt lat="49.38826" lon="1.15283">
        <ele>92</ele>
        <time>2017-04-11T16:26:32Z</time>
      </trkpt>
      <trkpt lat="49.38825" lon="1.15291">
        <ele>92</ele>
        <time>2017-04-11T16:26:32Z</time>
      </trkpt>
      <trkpt lat="49.38821" lon="1.15292">
        <ele>96</ele>
        <time>2017-04-11T16:26:32Z</time>
      </trkpt>
      <trkpt lat="49.38818" lon="1.15298">
        <ele>96</ele>
        <time>2017-04-11T16:26:32Z</time>
      </trkpt>
      <trkpt lat="49.38818" lon="1.15299">
        <ele>96</ele>
        <time>2017-04-11T16:26:47Z</time>
      </trkpt>
      <trkpt lat="49.38815" lon="1.15308">
        <ele>96</ele>
        <time>2017-04-11T16:26:47Z</time>
      </trkpt>
      <trkpt lat="49.38808" lon="1.15324">
        <ele>96</ele>
        <time>2017-04-11T16:26:48Z</time>
      </trkpt>
      <trkpt lat="49.38807" lon="1.15333">
        <ele>96</ele>
        <time>2017-04-11T16:26:48Z</time>
      </trkpt>
      <trkpt lat="49.38809" lon="1.15351">
        <ele>96</ele>
        <time>2017-04-11T16:27:07Z</time>
      </trkpt>
      <trkpt lat="49.38808" lon="1.15357">
        <ele>96</ele>
        <time>2017-04-11T16:27:07Z</time>
      </trkpt>
      <trkpt lat="49.38805" lon="1.15361">
        <ele>96</ele>
        <time>2017-04-11T16:27:07Z</time>
      </trkpt>
      <trkpt lat="49.38804" lon="1.15369">
        <ele>96</ele>
        <time>2017-04-11T16:27:07Z</time>
      </trkpt>
      <trkpt lat="49.38799" lon="1.15371">
        <ele>96</ele>
        <time>2017-04-11T16:27:23Z</time>
      </trkpt>
      <trkpt lat="49.38797" lon="1.15377">
        <ele>98</ele>
        <time>2017-04-11T16:27:24Z</time>
      </trkpt>
      <trkpt lat="49.388" lon="1.15386">
        <ele>98</ele>
        <time>2017-04-11T16:27:24Z</time>
      </trkpt>
      <trkpt lat="49.388" lon="1.1539">
        <ele>98</ele>
        <time>2017-04-11T16:27:24Z</time>
      </trkpt>
      <trkpt lat="49.38799" lon="1.15394">
        <ele>98</ele>
        <time>2017-04-11T16:27:43Z</time>
      </trkpt>
      <trkpt lat="49.38797" lon="1.154">
        <ele>98</ele>
        <time>2017-04-11T16:27:43Z</time>
      </trkpt>
      <trkpt lat="49.38798" lon="1.15402">
        <ele>98</ele>
        <time>2017-04-11T16:27:43Z</time>
      </trkpt>
      <trkpt lat="49.38801" lon="1.15405">
        <ele>98</ele>
        <time>2017-04-11T16:27:43Z</time>
      </trkpt>
      <trkpt lat="49.388" lon="1.15412">
        <ele>98</ele>
        <time>2017-04-11T16:27:43Z</time>
      </trkpt>
      <trkpt lat="49.388" lon="1.15438">
        <ele>98</ele>
        <time>2017-04-11T16:28:08Z</time>
      </trkpt>
      <trkpt lat="49.388" lon="1.15442">
        <ele>98</ele>
        <time>2017-04-11T16:28:08Z</time>
      </trkpt>
      <trkpt lat="49.38801" lon="1.15452">
        <ele>98</ele>
        <time>2017-04-11T16:28:08Z</time>
      </trkpt>
      <trkpt lat="49.38803" lon="1.15456">
        <ele>98</ele>
        <time>2017-04-11T16:28:08Z</time>
      </trkpt>
      <trkpt lat="49.38803" lon="1.1546">
        <ele>99</ele>
        <time>2017-04-11T16:28:23Z</time>
      </trkpt>
      <trkpt lat="49.38803" lon="1.15463">
        <ele>99</ele>
        <time>2017-04-11T16:28:23Z</time>
      </trkpt>
      <trkpt lat="49.38805" lon="1.15473">
        <ele>99</ele>
        <time>2017-04-11T16:28:23Z</time>
      </trkpt>
      <trkpt lat="49.38806" lon="1.15484">
        <ele>99</ele>
        <time>2017-04-11T16:28:23Z</time>
      </trkpt>
      <trkpt lat="49.38805" lon="1.15491">
        <ele>99</ele>
        <time>2017-04-11T16:28:40Z</time>
      </trkpt>
      <trkpt lat="49.38808" lon="1.155">
        <ele>99</ele>
        <time>2017-04-11T16:28:40Z</time>
      </trkpt>
      <trkpt lat="49.38807" lon="1.15508">
        <ele>99</ele>
        <time>2017-04-11T16:28:40Z</time>
      </trkpt>
      <trkpt lat="49.38807" lon="1.1551">
        <ele>99</ele>
        <time>2017-04-11T16:28:40Z</time>
      </trkpt>
      <trkpt lat="49.38807" lon="1.15511">
        <ele>99</ele>
        <time>2017-04-11T16:29:00Z</time>
      </trkpt>
      <trkpt lat="49.38808" lon="1.15513">
        <ele>99</ele>
        <time>2017-04-11T16:29:00Z</time>
      </trkpt>
      <trkpt lat="49.38808" lon="1.15514">
        <ele>99</ele>
        <time>2017-04-11T16:29:00Z</time>
      </trkpt>
      <trkpt lat="49.3881" lon="1.15522">
        <ele>99</ele>
        <time>2017-04-11T16:29:00Z</time>
      </trkpt>
      <trkpt lat="49.38809" lon="1.15533">
        <ele>99</ele>
        <time>2017-04-11T16:29:01Z</time>
      </trkpt>
      <trkpt lat="49.38808" lon="1.15541">
        <ele>99</ele>
        <time>2017-04-11T16:29:27Z</time>
      </trkpt>
      <trkpt lat="49.38809" lon="1.15544">
        <ele>98</ele>
        <time>2017-04-11T16:29:27Z</time>
      </trkpt>
      <trkpt lat="49.3881" lon="1.15546">
        <ele>98</ele>
        <time>2017-04-11T16:29:27Z</time>
      </trkpt>
      <trkpt lat="49.3881" lon="1.15546">
        <ele>98</ele>
        <time>2017-04-11T16:29:27Z</time>
      </trkpt>
      <trkpt lat="49.38811" lon="1.15554">
        <ele>98</ele>
        <time>2017-04-11T16:29:27Z</time>
      </trkpt>
      <trkpt lat="49.3881" lon="1.1557">
        <ele>98</ele>
        <time>2017-04-11T16:29:44Z</time>
      </trkpt>
      <trkpt lat="49.38811" lon="1.15579">
        <ele>98</ele>
        <time>2017-04-11T16:29:44Z</time>
      </trkpt>
      <trkpt lat="49.38812" lon="1.15587">
        <ele>98</ele>
        <time>2017-04-11T16:29:44Z</time>
      </trkpt>
      <trkpt lat="49.38811" lon="1.15592">
        <ele>98</ele>
        <time>2017-04-11T16:29:44Z</time>
      </trkpt>
      <trkpt lat="49.38812" lon="1.15593">
        <ele>98</ele>
        <time>2017-04-11T16:30:03Z</time>
      </trkpt>
      <trkpt lat="49.38812" lon="1.15594">
        <ele>98</ele>
        <time>2017-04-11T16:30:03Z</time>
      </trkpt>
      <trkpt lat="49.38812" lon="1.15594">
        <ele>98</ele>
        <time>2017-04-11T16:30:03Z</time>
      </trkpt>
      <trkpt lat="49.38811" lon="1.15603">
        <ele>98</ele>
        <time>2017-04-11T16:30:03Z</time>
      </trkpt>
      <trkpt lat="49.38819" lon="1.15615">
        <ele>98</ele>
        <time>2017-04-11T16:30:03Z</time>
      </trkpt>
      <trkpt lat="49.38823" lon="1.1562">
        <ele>98</ele>
        <time>2017-04-11T16:30:20Z</time>
      </trkpt>
      <trkpt lat="49.38822" lon="1.15627">
        <ele>98</ele>
        <time>2017-04-11T16:30:20Z</time>
      </trkpt>
      <trkpt lat="49.38822" lon="1.15634">
        <ele>98</ele>
        <time>2017-04-11T16:30:20Z</time>
      </trkpt>
      <trkpt lat="49.38821" lon="1.1564">
        <ele>98</ele>
        <time>2017-04-11T16:30:20Z</time>
      </trkpt>
      <trkpt lat="49.38829" lon="1.15655">
        <ele>98</ele>
        <time>2017-04-11T16:30:40Z</time>
      </trkpt>
      <trkpt lat="49.38826" lon="1.15665">
        <ele>98</ele>
        <time>2017-04-11T16:30:40Z</time>
      </trkpt>
      <trkpt lat="49.38828" lon="1.15669">
        <ele>98</ele>
        <time>2017-04-11T16:30:40Z</time>
      </trkpt>
      <trkpt lat="49.38833" lon="1.15675">
        <ele>98</ele>
        <time>2017-04-11T16:30:40Z</time>
      </trkpt>
      <trkpt lat="49.38836" lon="1.15681">
        <ele>98</ele>
        <time>2017-04-11T16:30:55Z</time>
      </trkpt>
      <trkpt lat="49.38836" lon="1.15688">
        <ele>98</ele>
        <time>2017-04-11T16:30:55Z</time>
      </trkpt>
      <trkpt lat="49.38838" lon="1.15692">
        <ele>98</ele>
        <time>2017-04-11T16:30:55Z</time>
      </trkpt>
      <trkpt lat="49.38838" lon="1.15702">
        <ele>98</ele>
        <time>2017-04-11T16:30:55Z</time>
      </trkpt>
      <trkpt lat="49.3884" lon="1.15722">
        <ele>97</ele>
        <time>2017-04-11T16:31:16Z</time>
      </trkpt>
      <trkpt lat="49.38841" lon="1.15729">
        <ele>97</ele>
        <time>2017-04-11T16:31:16Z</time>
      </trkpt>
      <trkpt lat="49.38842" lon="1.15737">
        <ele>97</ele>
        <time>2017-04-11T16:31:16Z</time>
      </trkpt>
      <trkpt lat="49.38847" lon="1.15743">
        <ele>97</ele>
        <time>2017-04-11T16:31:16Z</time>
      </trkpt>
      <trkpt lat="49.38845" lon="1.15745">
        <ele>97</ele>
        <time>2017-04-11T16:31:32Z</time>
      </trkpt>
      <trkpt lat="49.38845" lon="1.15756">
        <ele>97</ele>
        <time>2017-04-11T16:31:32Z</time>
      </trkpt>
      <trkpt lat="49.38847" lon="1.15763">
        <ele>97</ele>
        <time>2017-04-11T16:31:32Z</time>
      </trkpt>
      <trkpt lat="49.38856" lon="1.15773">
        <ele>97</ele>
        <time>2017-04-11T16:31:33Z</time>
      </trkpt>
      <trkpt lat="49.38856" lon="1.1578">
        <ele>97</ele>
        <time>2017-04-11T16:31:47Z</time>
      </trkpt>
      <trkpt lat="49.38862" lon="1.15785">
        <ele>97</ele>
        <time>2017-04-11T16:31:47Z</time>
      </trkpt>
      <trkpt lat="49.38865" lon="1.15794">
        <ele>95</ele>
        <time>2017-04-11T16:31:47Z</time>
      </trkpt>
      <trkpt lat="49.38864" lon="1.158">
        <ele>95</ele>
        <time>2017-04-11T16:31:47Z</time>
      </trkpt>
      <trkpt lat="49.38864" lon="1.15802">
        <ele>95</ele>
        <time>2017-04-11T16:32:16Z</time>
      </trkpt>
      <trkpt lat="49.38864" lon="1.15802">
        <ele>95</ele>
        <time>2017-04-11T16:32:16Z</time>
      </trkpt>
      <trkpt lat="49.38864" lon="1.15802">
        <ele>95</ele>
        <time>2017-04-11T16:32:16Z</time>
      </trkpt>
      <trkpt lat="49.38864" lon="1.15807">
        <ele>95</ele>
        <time>2017-04-11T16:32:16Z</time>
      </trkpt>
      <trkpt lat="49.38862" lon="1.15816">
        <ele>95</ele>
        <time>2017-04-11T16:32:16Z</time>
      </trkpt>
      <trkpt lat="49.38862" lon="1.15821">
        <ele>95</ele>
        <time>2017-04-11T16:32:31Z</time>
      </trkpt>
      <trkpt lat="49.38864" lon="1.15828">
        <ele>95</ele>
        <time>2017-04-11T16:32:31Z</time>
      </trkpt>
      <trkpt lat="49.38862" lon="1.15835">
        <ele>95</ele>
        <time>2017-04-11T16:32:32Z</time>
      </trkpt>
      <trkpt lat="49.38863" lon="1.15842">
        <ele>95</ele>
        <time>2017-04-11T16:32:32Z</time>
      </trkpt>
      <trkpt lat="49.38862" lon="1.15855">
        <ele>95</ele>
        <time>2017-04-11T16:32:47Z</time>
      </trkpt>
      <trkpt lat="49.38863" lon="1.15863">
        <ele>95</ele>
        <time>2017-04-11T16:32:47Z</time>
      </trkpt>
      <trkpt lat="49.38862" lon="1.15872">
        <ele>95</ele>
        <time>2017-04-11T16:32:50Z</time>
      </trkpt>
      <trkpt lat="49.38862" lon="1.15874">
        <ele>95</ele>
        <time>2017-04-11T16:32:50Z</time>
      </trkpt>
      <trkpt lat="49.38844" lon="1.15902">
        <ele>97</ele>
        <time>2017-04-11T16:33:23Z</time>
      </trkpt>
      <trkpt lat="49.38843" lon="1.15904">
        <ele>97</ele>
        <time>2017-04-11T16:33:23Z</time>
      </trkpt>
      <trkpt lat="49.38842" lon="1.15906">
        <ele>97</ele>
        <time>2017-04-11T16:33:23Z</time>
      </trkpt>
      <trkpt lat="49.38842" lon="1.15908">
        <ele>97</ele>
        <time>2017-04-11T16:33:23Z</time>
      </trkpt>
      <trkpt lat="49.38841" lon="1.15916">
        <ele>97</ele>
        <time>2017-04-11T16:33:23Z</time>
      </trkpt>
      <trkpt lat="49.38841" lon="1.15922">
        <ele>97</ele>
        <time>2017-04-11T16:33:40Z</time>
      </trkpt>
      <trkpt lat="49.38842" lon="1.15932">
        <ele>97</ele>
        <time>2017-04-11T16:33:40Z</time>
      </trkpt>
      <trkpt lat="49.38841" lon="1.15938">
        <ele>97</ele>
        <time>2017-04-11T16:33:40Z</time>
      </trkpt>
      <trkpt lat="49.38842" lon="1.15946">
        <ele>97</ele>
        <time>2017-04-11T16:33:40Z</time>
      </trkpt>
      <trkpt lat="49.38842" lon="1.15969">
        <ele>101</ele>
        <time>2017-04-11T16:34:12Z</time>
      </trkpt>
      <trkpt lat="49.38843" lon="1.1597">
        <ele>101</ele>
        <time>2017-04-11T16:34:12Z</time>
      </trkpt>
      <trkpt lat="49.38842" lon="1.15973">
        <ele>101</ele>
        <time>2017-04-11T16:34:12Z</time>
      </trkpt>
      <trkpt lat="49.38842" lon="1.15976">
        <ele>101</ele>
        <time>2017-04-11T16:34:12Z</time>
      </trkpt>
      <trkpt lat="49.38842" lon="1.1598">
        <ele>101</ele>
        <time>2017-04-11T16:34:12Z</time>
      </trkpt>
      <trkpt lat="49.38844" lon="1.15992">
        <ele>101</ele>
        <time>2017-04-11T16:34:27Z</time>
      </trkpt>
      <trkpt lat="49.38845" lon="1.16002">
        <ele>101</ele>
        <time>2017-04-11T16:34:27Z</time>
      </trkpt>
      <trkpt lat="49.38844" lon="1.16007">
        <ele>101</ele>
        <time>2017-04-11T16:34:27Z</time>
      </trkpt>
      <trkpt lat="49.38846" lon="1.16011">
        <ele>101</ele>
        <time>2017-04-11T16:34:27Z</time>
      </trkpt>
      <trkpt lat="49.38846" lon="1.16036">
        <ele>101</ele>
        <time>2017-04-11T16:34:51Z</time>
      </trkpt>
      <trkpt lat="49.38847" lon="1.16043">
        <ele>109</ele>
        <time>2017-04-11T16:34:51Z</time>
      </trkpt>
      <trkpt lat="49.38851" lon="1.16048">
        <ele>109</ele>
        <time>2017-04-11T16:34:52Z</time>
      </trkpt>
      <trkpt lat="49.38852" lon="1.16053">
        <ele>109</ele>
        <time>2017-04-11T16:34:52Z</time>
      </trkpt>
      <trkpt lat="49.38856" lon="1.16058">
        <ele>109</ele>
        <time>2017-04-11T16:35:07Z</time>
      </trkpt>
      <trkpt lat="49.38853" lon="1.16069">
        <ele>109</ele>
        <time>2017-04-11T16:35:07Z</time>
      </trkpt>
      <trkpt lat="49.38859" lon="1.16079">
        <ele>109</ele>
        <time>2017-04-11T16:35:07Z</time>
      </trkpt>
      <trkpt lat="49.3886" lon="1.16084">
        <ele>109</ele>
        <time>2017-04-11T16:35:07Z</time>
      </trkpt>
      <trkpt lat="49.38864" lon="1.16093">
        <ele>109</ele>
        <time>2017-04-11T16:35:23Z</time>
      </trkpt>
      <trkpt lat="49.38865" lon="1.161">
        <ele>109</ele>
        <time>2017-04-11T16:35:23Z</time>
      </trkpt>
      <trkpt lat="49.38871" lon="1.16104">
        <ele>109</ele>
        <time>2017-04-11T16:35:23Z</time>
      </trkpt>
      <trkpt lat="49.38867" lon="1.16111">
        <ele>109</ele>
        <time>2017-04-11T16:35:23Z</time>
      </trkpt>
      <trkpt lat="49.38872" lon="1.16118">
        <ele>109</ele>
        <time>2017-04-11T16:35:47Z</time>
      </trkpt>
      <trkpt lat="49.38872" lon="1.16121">
        <ele>109</ele>
        <time>2017-04-11T16:35:47Z</time>
      </trkpt>
      <trkpt lat="49.38869" lon="1.16125">
        <ele>116</ele>
        <time>2017-04-11T16:35:48Z</time>
      </trkpt>
      <trkpt lat="49.38873" lon="1.16126">
        <ele>116</ele>
        <time>2017-04-11T16:35:48Z</time>
      </trkpt>
      <trkpt lat="49.38878" lon="1.16127">
        <ele>107</ele>
        <time>2017-04-11T16:35:48Z</time>
      </trkpt>
      <trkpt lat="49.3888" lon="1.16131">
        <ele>107</ele>
        <time>2017-04-11T16:36:03Z</time>
      </trkpt>
      <trkpt lat="49.38881" lon="1.16134">
        <ele>107</ele>
        <time>2017-04-11T16:36:03Z</time>
      </trkpt>
      <trkpt lat="49.38887" lon="1.16136">
        <ele>107</ele>
        <time>2017-04-11T16:36:03Z</time>
      </trkpt>
      <trkpt lat="49.38892" lon="1.16141">
        <ele>107</ele>
        <time>2017-04-11T16:36:03Z</time>
      </trkpt>
      <trkpt lat="49.38893" lon="1.16149">
        <ele>107</ele>
        <time>2017-04-11T16:36:19Z</time>
      </trkpt>
      <trkpt lat="49.38897" lon="1.16155">
        <ele>107</ele>
        <time>2017-04-11T16:36:19Z</time>
      </trkpt>
      <trkpt lat="49.38904" lon="1.16157">
        <ele>107</ele>
        <time>2017-04-11T16:36:19Z</time>
      </trkpt>
      <trkpt lat="49.38909" lon="1.16157">
        <ele>107</ele>
        <time>2017-04-11T16:36:19Z</time>
      </trkpt>
      <trkpt lat="49.38915" lon="1.16166">
        <ele>107</ele>
        <time>2017-04-11T16:36:40Z</time>
      </trkpt>
      <trkpt lat="49.38917" lon="1.16173">
        <ele>107</ele>
        <time>2017-04-11T16:36:40Z</time>
      </trkpt>
      <trkpt lat="49.3892" lon="1.16179">
        <ele>107</ele>
        <time>2017-04-11T16:36:40Z</time>
      </trkpt>
      <trkpt lat="49.38925" lon="1.16184">
        <ele>107</ele>
        <time>2017-04-11T16:36:40Z</time>
      </trkpt>
      <trkpt lat="49.38929" lon="1.16187">
        <ele>107</ele>
        <time>2017-04-11T16:36:55Z</time>
      </trkpt>
      <trkpt lat="49.38931" lon="1.16188">
        <ele>107</ele>
        <time>2017-04-11T16:36:55Z</time>
      </trkpt>
      <trkpt lat="49.3894" lon="1.16196">
        <ele>107</ele>
        <time>2017-04-11T16:36:55Z</time>
      </trkpt>
      <trkpt lat="49.38946" lon="1.16199">
        <ele>107</ele>
        <time>2017-04-11T16:36:55Z</time>
      </trkpt>
      <trkpt lat="49.38948" lon="1.16203">
        <ele>107</ele>
        <time>2017-04-11T16:37:12Z</time>
      </trkpt>
      <trkpt lat="49.38948" lon="1.16215">
        <ele>112</ele>
        <time>2017-04-11T16:37:12Z</time>
      </trkpt>
      <trkpt lat="49.38949" lon="1.16222">
        <ele>112</ele>
        <time>2017-04-11T16:37:12Z</time>
      </trkpt>
      <trkpt lat="49.38953" lon="1.16233">
        <ele>112</ele>
        <time>2017-04-11T16:37:12Z</time>
      </trkpt>
      <trkpt lat="49.38956" lon="1.16237">
        <ele>112</ele>
        <time>2017-04-11T16:37:28Z</time>
      </trkpt>
      <trkpt lat="49.38961" lon="1.1624">
        <ele>116</ele>
        <time>2017-04-11T16:37:28Z</time>
      </trkpt>
      <trkpt lat="49.38965" lon="1.16242">
        <ele>116</ele>
        <time>2017-04-11T16:37:28Z</time>
      </trkpt>
      <trkpt lat="49.38965" lon="1.16247">
        <ele>116</ele>
        <time>2017-04-11T16:37:28Z</time>
      </trkpt>
      <trkpt lat="49.38969" lon="1.16253">
        <ele>116</ele>
        <time>2017-04-11T16:37:44Z</time>
      </trkpt>
      <trkpt lat="49.38973" lon="1.16259">
        <ele>116</ele>
        <time>2017-04-11T16:37:44Z</time>
      </trkpt>
      <trkpt lat="49.38977" lon="1.16262">
        <ele>116</ele>
        <time>2017-04-11T16:37:44Z</time>
      </trkpt>
      <trkpt lat="49.38981" lon="1.16266">
        <ele>116</ele>
        <time>2017-04-11T16:37:44Z</time>
      </trkpt>
      <trkpt lat="49.38985" lon="1.16269">
        <ele>116</ele>
        <time>2017-04-11T16:37:59Z</time>
      </trkpt>
      <trkpt lat="49.3899" lon="1.16273">
        <ele>116</ele>
        <time>2017-04-11T16:37:59Z</time>
      </trkpt>
      <trkpt lat="49.38994" lon="1.16276">
        <ele>116</ele>
        <time>2017-04-11T16:37:59Z</time>
      </trkpt>
      <trkpt lat="49.38997" lon="1.1628">
        <ele>116</ele>
        <time>2017-04-11T16:37:59Z</time>
      </trkpt>
      <trkpt lat="49.38999" lon="1.16287">
        <ele>116</ele>
        <time>2017-04-11T16:38:16Z</time>
      </trkpt>
      <trkpt lat="49.39002" lon="1.16292">
        <ele>115</ele>
        <time>2017-04-11T16:38:16Z</time>
      </trkpt>
      <trkpt lat="49.39004" lon="1.16298">
        <ele>115</ele>
        <time>2017-04-11T16:38:16Z</time>
      </trkpt>
      <trkpt lat="49.39008" lon="1.16304">
        <ele>115</ele>
        <time>2017-04-11T16:38:16Z</time>
      </trkpt>
      <trkpt lat="49.39009" lon="1.16306">
        <ele>115</ele>
        <time>2017-04-11T16:38:32Z</time>
      </trkpt>
      <trkpt lat="49.3901" lon="1.16313">
        <ele>115</ele>
        <time>2017-04-11T16:38:32Z</time>
      </trkpt>
      <trkpt lat="49.39014" lon="1.16317">
        <ele>115</ele>
        <time>2017-04-11T16:38:32Z</time>
      </trkpt>
      <trkpt lat="49.39019" lon="1.1632">
        <ele>115</ele>
        <time>2017-04-11T16:38:32Z</time>
      </trkpt>
      <trkpt lat="49.39022" lon="1.1632">
        <ele>115</ele>
        <time>2017-04-11T16:40:47Z</time>
      </trkpt>
      <trkpt lat="49.3902" lon="1.16315">
        <ele>115</ele>
        <time>2017-04-11T16:40:47Z</time>
      </trkpt>
      <trkpt lat="49.39018" lon="1.16313">
        <ele>115</ele>
        <time>2017-04-11T16:40:47Z</time>
      </trkpt>
      <trkpt lat="49.39017" lon="1.16305">
        <ele>115</ele>
        <time>2017-04-11T16:40:48Z</time>
      </trkpt>
      <trkpt lat="49.39015" lon="1.16301">
        <ele>115</ele>
        <time>2017-04-11T16:40:48Z</time>
      </trkpt>
      <trkpt lat="49.39012" lon="1.16295">
        <ele>115</ele>
        <time>2017-04-11T16:41:03Z</time>
      </trkpt>
      <trkpt lat="49.39008" lon="1.16288">
        <ele>116</ele>
        <time>2017-04-11T16:41:03Z</time>
      </trkpt>
      <trkpt lat="49.39007" lon="1.16286">
        <ele>116</ele>
        <time>2017-04-11T16:41:03Z</time>
      </trkpt>
      <trkpt lat="49.39004" lon="1.1628">
        <ele>116</ele>
        <time>2017-04-11T16:41:03Z</time>
      </trkpt>
      <trkpt lat="49.39003" lon="1.16275">
        <ele>116</ele>
        <time>2017-04-11T16:41:19Z</time>
      </trkpt>
      <trkpt lat="49.39" lon="1.16269">
        <ele>116</ele>
        <time>2017-04-11T16:41:19Z</time>
      </trkpt>
      <trkpt lat="49.39001" lon="1.16264">
        <ele>116</ele>
        <time>2017-04-11T16:41:19Z</time>
      </trkpt>
      <trkpt lat="49.38999" lon="1.1626">
        <ele>116</ele>
        <time>2017-04-11T16:41:19Z</time>
      </trkpt>
      <trkpt lat="49.38992" lon="1.16243">
        <ele>116</ele>
        <time>2017-04-11T16:41:39Z</time>
      </trkpt>
      <trkpt lat="49.38988" lon="1.16235">
        <ele>116</ele>
        <time>2017-04-11T16:41:39Z</time>
      </trkpt>
      <trkpt lat="49.38987" lon="1.16228">
        <ele>116</ele>
        <time>2017-04-11T16:41:39Z</time>
      </trkpt>
      <trkpt lat="49.38983" lon="1.16217">
        <ele>116</ele>
        <time>2017-04-11T16:41:39Z</time>
      </trkpt>
      <trkpt lat="49.38981" lon="1.16214">
        <ele>116</ele>
        <time>2017-04-11T16:41:56Z</time>
      </trkpt>
      <trkpt lat="49.38979" lon="1.16212">
        <ele>116</ele>
        <time>2017-04-11T16:41:56Z</time>
      </trkpt>
      <trkpt lat="49.38976" lon="1.16199">
        <ele>125</ele>
        <time>2017-04-11T16:41:56Z</time>
      </trkpt>
      <trkpt lat="49.38975" lon="1.16195">
        <ele>125</ele>
        <time>2017-04-11T16:41:56Z</time>
      </trkpt>
      <trkpt lat="49.38973" lon="1.16192">
        <ele>125</ele>
        <time>2017-04-11T16:42:13Z</time>
      </trkpt>
      <trkpt lat="49.38972" lon="1.16183">
        <ele>125</ele>
        <time>2017-04-11T16:42:13Z</time>
      </trkpt>
      <trkpt lat="49.3897" lon="1.16179">
        <ele>125</ele>
        <time>2017-04-11T16:42:13Z</time>
      </trkpt>
      <trkpt lat="49.38968" lon="1.16173">
        <ele>125</ele>
        <time>2017-04-11T16:42:13Z</time>
      </trkpt>
      <trkpt lat="49.38964" lon="1.16159">
        <ele>125</ele>
        <time>2017-04-11T16:42:31Z</time>
      </trkpt>
      <trkpt lat="49.38961" lon="1.16153">
        <ele>125</ele>
        <time>2017-04-11T16:42:31Z</time>
      </trkpt>
      <trkpt lat="49.38959" lon="1.16148">
        <ele>125</ele>
        <time>2017-04-11T16:42:31Z</time>
      </trkpt>
      <trkpt lat="49.38957" lon="1.16144">
        <ele>107</ele>
        <time>2017-04-11T16:42:31Z</time>
      </trkpt>
      <trkpt lat="49.38953" lon="1.16133">
        <ele>107</ele>
        <time>2017-04-11T16:42:52Z</time>
      </trkpt>
      <trkpt lat="49.3895" lon="1.16127">
        <ele>107</ele>
        <time>2017-04-11T16:42:52Z</time>
      </trkpt>
      <trkpt lat="49.38947" lon="1.16118">
        <ele>117</ele>
        <time>2017-04-11T16:42:52Z</time>
      </trkpt>
      <trkpt lat="49.38945" lon="1.16112">
        <ele>117</ele>
        <time>2017-04-11T16:42:52Z</time>
      </trkpt>
      <trkpt lat="49.38939" lon="1.16105">
        <ele>117</ele>
        <time>2017-04-11T16:43:11Z</time>
      </trkpt>
      <trkpt lat="49.38937" lon="1.16103">
        <ele>117</ele>
        <time>2017-04-11T16:43:11Z</time>
      </trkpt>
      <trkpt lat="49.38933" lon="1.16095">
        <ele>117</ele>
        <time>2017-04-11T16:43:11Z</time>
      </trkpt>
      <trkpt lat="49.3893" lon="1.16091">
        <ele>117</ele>
        <time>2017-04-11T16:43:11Z</time>
      </trkpt>
      <trkpt lat="49.3893" lon="1.16087">
        <ele>117</ele>
        <time>2017-04-11T16:43:27Z</time>
      </trkpt>
      <trkpt lat="49.38927" lon="1.16082">
        <ele>117</ele>
        <time>2017-04-11T16:43:27Z</time>
      </trkpt>
      <trkpt lat="49.38923" lon="1.1608">
        <ele>117</ele>
        <time>2017-04-11T16:43:27Z</time>
      </trkpt>
      <trkpt lat="49.38918" lon="1.16075">
        <ele>117</ele>
        <time>2017-04-11T16:43:27Z</time>
      </trkpt>
      <trkpt lat="49.38914" lon="1.16054">
        <ele>117</ele>
        <time>2017-04-11T16:44:00Z</time>
      </trkpt>
      <trkpt lat="49.38913" lon="1.16051">
        <ele>117</ele>
        <time>2017-04-11T16:44:00Z</time>
      </trkpt>
      <trkpt lat="49.38913" lon="1.16048">
        <ele>117</ele>
        <time>2017-04-11T16:44:00Z</time>
      </trkpt>
      <trkpt lat="49.38913" lon="1.16044">
        <ele>117</ele>
        <time>2017-04-11T16:44:00Z</time>
      </trkpt>
      <trkpt lat="49.3891" lon="1.16026">
        <ele>125</ele>
        <time>2017-04-11T16:44:00Z</time>
      </trkpt>
      <trkpt lat="49.38905" lon="1.16007">
        <ele>125</ele>
        <time>2017-04-11T16:44:19Z</time>
      </trkpt>
      <trkpt lat="49.38906" lon="1.15999">
        <ele>125</ele>
        <time>2017-04-11T16:44:19Z</time>
      </trkpt>
      <trkpt lat="49.38905" lon="1.15994">
        <ele>125</ele>
        <time>2017-04-11T16:44:19Z</time>
      </trkpt>
      <trkpt lat="49.38908" lon="1.15982">
        <ele>125</ele>
        <time>2017-04-11T16:44:19Z</time>
      </trkpt>
      <trkpt lat="49.3891" lon="1.15954">
        <ele>123</ele>
        <time>2017-04-11T16:44:48Z</time>
      </trkpt>
      <trkpt lat="49.38911" lon="1.15954">
        <ele>123</ele>
        <time>2017-04-11T16:44:48Z</time>
      </trkpt>
      <trkpt lat="49.38912" lon="1.15949">
        <ele>123</ele>
        <time>2017-04-11T16:44:48Z</time>
      </trkpt>
      <trkpt lat="49.38915" lon="1.15947">
        <ele>123</ele>
        <time>2017-04-11T16:44:48Z</time>
      </trkpt>
      <trkpt lat="49.38917" lon="1.1594">
        <ele>123</ele>
        <time>2017-04-11T16:44:48Z</time>
      </trkpt>
      <trkpt lat="49.38927" lon="1.15926">
        <ele>123</ele>
        <time>2017-04-11T16:45:15Z</time>
      </trkpt>
      <trkpt lat="49.38933" lon="1.15926">
        <ele>123</ele>
        <time>2017-04-11T16:45:15Z</time>
      </trkpt>
      <trkpt lat="49.38937" lon="1.15916">
        <ele>123</ele>
        <time>2017-04-11T16:45:15Z</time>
      </trkpt>
      <trkpt lat="49.38939" lon="1.15911">
        <ele>123</ele>
        <time>2017-04-11T16:45:15Z</time>
      </trkpt>
      <trkpt lat="49.38945" lon="1.15896">
        <ele>123</ele>
        <time>2017-04-11T16:45:48Z</time>
      </trkpt>
      <trkpt lat="49.38946" lon="1.15895">
        <ele>123</ele>
        <time>2017-04-11T16:45:48Z</time>
      </trkpt>
      <trkpt lat="49.38949" lon="1.15895">
        <ele>123</ele>
        <time>2017-04-11T16:45:48Z</time>
      </trkpt>
      <trkpt lat="49.38951" lon="1.15894">
        <ele>123</ele>
        <time>2017-04-11T16:45:48Z</time>
      </trkpt>
      <trkpt lat="49.38955" lon="1.15887">
        <ele>123</ele>
        <time>2017-04-11T16:45:48Z</time>
      </trkpt>
      <trkpt lat="49.38957" lon="1.15879">
        <ele>123</ele>
        <time>2017-04-11T16:46:16Z</time>
      </trkpt>
      <trkpt lat="49.38959" lon="1.15877">
        <ele>141</ele>
        <time>2017-04-11T16:46:16Z</time>
      </trkpt>
      <trkpt lat="49.3896" lon="1.15878">
        <ele>141</ele>
        <time>2017-04-11T16:46:16Z</time>
      </trkpt>
      <trkpt lat="49.38961" lon="1.15879">
        <ele>141</ele>
        <time>2017-04-11T16:46:16Z</time>
      </trkpt>
      <trkpt lat="49.38965" lon="1.15882">
        <ele>141</ele>
        <time>2017-04-11T16:46:16Z</time>
      </trkpt>
      <trkpt lat="49.38966" lon="1.15885">
        <ele>141</ele>
        <time>2017-04-11T16:46:32Z</time>
      </trkpt>
      <trkpt lat="49.38968" lon="1.15886">
        <ele>141</ele>
        <time>2017-04-11T16:46:32Z</time>
      </trkpt>
      <trkpt lat="49.38974" lon="1.15885">
        <ele>141</ele>
        <time>2017-04-11T16:46:32Z</time>
      </trkpt>
      <trkpt lat="49.38976" lon="1.15888">
        <ele>141</ele>
        <time>2017-04-11T16:46:32Z</time>
      </trkpt>
      <trkpt lat="49.38986" lon="1.15886">
        <ele>141</ele>
        <time>2017-04-11T16:46:51Z</time>
      </trkpt>
      <trkpt lat="49.3899" lon="1.15885">
        <ele>141</ele>
        <time>2017-04-11T16:46:51Z</time>
      </trkpt>
      <trkpt lat="49.38994" lon="1.15881">
        <ele>141</ele>
        <time>2017-04-11T16:46:51Z</time>
      </trkpt>
      <trkpt lat="49.38995" lon="1.15881">
        <ele>141</ele>
        <time>2017-04-11T16:46:51Z</time>
      </trkpt>
      <trkpt lat="49.38997" lon="1.15882">
        <ele>141</ele>
        <time>2017-04-11T16:50:15Z</time>
      </trkpt>
      <trkpt lat="49.38997" lon="1.15882">
        <ele>141</ele>
        <time>2017-04-11T16:50:15Z</time>
      </trkpt>
      <trkpt lat="49.39003" lon="1.15878">
        <ele>141</ele>
        <time>2017-04-11T16:50:15Z</time>
      </trkpt>
      <trkpt lat="49.39008" lon="1.15875">
        <ele>140</ele>
        <time>2017-04-11T16:50:15Z</time>
      </trkpt>
      <trkpt lat="49.39012" lon="1.15871">
        <ele>140</ele>
        <time>2017-04-11T16:50:15Z</time>
      </trkpt>
      <trkpt lat="49.39017" lon="1.15869">
        <ele>140</ele>
        <time>2017-04-11T16:50:31Z</time>
      </trkpt>
      <trkpt lat="49.39021" lon="1.15865">
        <ele>140</ele>
        <time>2017-04-11T16:50:31Z</time>
      </trkpt>
      <trkpt lat="49.39026" lon="1.15861">
        <ele>140</ele>
        <time>2017-04-11T16:50:31Z</time>
      </trkpt>
      <trkpt lat="49.3903" lon="1.15858">
        <ele>140</ele>
        <time>2017-04-11T16:50:31Z</time>
      </trkpt>
      <trkpt lat="49.39034" lon="1.15854">
        <ele>140</ele>
        <time>2017-04-11T16:50:47Z</time>
      </trkpt>
      <trkpt lat="49.39037" lon="1.15851">
        <ele>140</ele>
        <time>2017-04-11T16:50:48Z</time>
      </trkpt>
      <trkpt lat="49.39042" lon="1.15845">
        <ele>140</ele>
        <time>2017-04-11T16:50:48Z</time>
      </trkpt>
      <trkpt lat="49.39043" lon="1.15845">
        <ele>143</ele>
        <time>2017-04-11T16:50:48Z</time>
      </trkpt>
      <trkpt lat="49.39045" lon="1.15842">
        <ele>143</ele>
        <time>2017-04-11T16:51:03Z</time>
      </trkpt>
      <trkpt lat="49.39049" lon="1.15839">
        <ele>143</ele>
        <time>2017-04-11T16:51:03Z</time>
      </trkpt>
      <trkpt lat="49.39053" lon="1.15835">
        <ele>143</ele>
        <time>2017-04-11T16:51:03Z</time>
      </trkpt>
      <trkpt lat="49.39057" lon="1.15833">
        <ele>143</ele>
        <time>2017-04-11T16:51:03Z</time>
      </trkpt>
      <trkpt lat="49.39058" lon="1.15832">
        <ele>143</ele>
        <time>2017-04-11T16:51:19Z</time>
      </trkpt>
      <trkpt lat="49.39064" lon="1.15828">
        <ele>143</ele>
        <time>2017-04-11T16:51:19Z</time>
      </trkpt>
      <trkpt lat="49.39068" lon="1.15824">
        <ele>143</ele>
        <time>2017-04-11T16:51:19Z</time>
      </trkpt>
      <trkpt lat="49.39072" lon="1.15821">
        <ele>143</ele>
        <time>2017-04-11T16:51:19Z</time>
      </trkpt>
      <trkpt lat="49.39075" lon="1.15817">
        <ele>143</ele>
        <time>2017-04-11T16:51:35Z</time>
      </trkpt>
      <trkpt lat="49.3908" lon="1.15815">
        <ele>143</ele>
        <time>2017-04-11T16:51:35Z</time>
      </trkpt>
      <trkpt lat="49.39084" lon="1.15813">
        <ele>143</ele>
        <time>2017-04-11T16:51:35Z</time>
      </trkpt>
      <trkpt lat="49.39088" lon="1.1581">
        <ele>143</ele>
        <time>2017-04-11T16:51:35Z</time>
      </trkpt>
      <trkpt lat="49.39092" lon="1.15807">
        <ele>143</ele>
        <time>2017-04-11T16:51:51Z</time>
      </trkpt>
      <trkpt lat="49.39096" lon="1.15803">
        <ele>143</ele>
        <time>2017-04-11T16:51:51Z</time>
      </trkpt>
      <trkpt lat="49.39101" lon="1.15798">
        <ele>143</ele>
        <time>2017-04-11T16:51:51Z</time>
      </trkpt>
      <trkpt lat="49.39105" lon="1.15795">
        <ele>143</ele>
        <time>2017-04-11T16:51:51Z</time>
      </trkpt>
      <trkpt lat="49.39109" lon="1.15792">
        <ele>143</ele>
        <time>2017-04-11T16:52:07Z</time>
      </trkpt>
      <trkpt lat="49.39114" lon="1.15789">
        <ele>145</ele>
        <time>2017-04-11T16:52:07Z</time>
      </trkpt>
      <trkpt lat="49.39118" lon="1.15785">
        <ele>145</ele>
        <time>2017-04-11T16:52:07Z</time>
      </trkpt>
      <trkpt lat="49.39122" lon="1.1578">
        <ele>145</ele>
        <time>2017-04-11T16:52:07Z</time>
      </trkpt>
      <trkpt lat="49.39127" lon="1.15778">
        <ele>147</ele>
        <time>2017-04-11T16:52:23Z</time>
      </trkpt>
      <trkpt lat="49.39131" lon="1.15774">
        <ele>147</ele>
        <time>2017-04-11T16:52:23Z</time>
      </trkpt>
      <trkpt lat="49.39135" lon="1.1577">
        <ele>147</ele>
        <time>2017-04-11T16:52:23Z</time>
      </trkpt>
      <trkpt lat="49.39139" lon="1.15768">
        <ele>147</ele>
        <time>2017-04-11T16:52:23Z</time>
      </trkpt>
      <trkpt lat="49.39143" lon="1.15765">
        <ele>147</ele>
        <time>2017-04-11T16:52:39Z</time>
      </trkpt>
      <trkpt lat="49.39146" lon="1.15763">
        <ele>147</ele>
        <time>2017-04-11T16:52:40Z</time>
      </trkpt>
      <trkpt lat="49.39149" lon="1.1576">
        <ele>147</ele>
        <time>2017-04-11T16:52:40Z</time>
      </trkpt>
      <trkpt lat="49.39151" lon="1.15758">
        <ele>147</ele>
        <time>2017-04-11T16:52:40Z</time>
      </trkpt>
      <trkpt lat="49.39154" lon="1.15757">
        <ele>147</ele>
        <time>2017-04-11T16:52:55Z</time>
      </trkpt>
      <trkpt lat="49.3916" lon="1.15752">
        <ele>147</ele>
        <time>2017-04-11T16:52:55Z</time>
      </trkpt>
      <trkpt lat="49.39163" lon="1.15751">
        <ele>147</ele>
        <time>2017-04-11T16:52:55Z</time>
      </trkpt>
      <trkpt lat="49.39168" lon="1.15747">
        <ele>147</ele>
        <time>2017-04-11T16:52:55Z</time>
      </trkpt>
      <trkpt lat="49.39172" lon="1.15743">
        <ele>147</ele>
        <time>2017-04-11T16:53:12Z</time>
      </trkpt>
      <trkpt lat="49.39176" lon="1.15739">
        <ele>147</ele>
        <time>2017-04-11T16:53:12Z</time>
      </trkpt>
      <trkpt lat="49.3918" lon="1.15735">
        <ele>147</ele>
        <time>2017-04-11T16:53:12Z</time>
      </trkpt>
      <trkpt lat="49.39184" lon="1.15731">
        <ele>147</ele>
        <time>2017-04-11T16:53:12Z</time>
      </trkpt>
      <trkpt lat="49.39193" lon="1.15723">
        <ele>147</ele>
        <time>2017-04-11T16:53:31Z</time>
      </trkpt>
      <trkpt lat="49.39196" lon="1.1572">
        <ele>147</ele>
        <time>2017-04-11T16:53:31Z</time>
      </trkpt>
      <trkpt lat="49.39199" lon="1.15717">
        <ele>147</ele>
        <time>2017-04-11T16:53:31Z</time>
      </trkpt>
      <trkpt lat="49.39204" lon="1.15712">
        <ele>147</ele>
        <time>2017-04-11T16:53:31Z</time>
      </trkpt>
      <trkpt lat="49.39209" lon="1.1571">
        <ele>149</ele>
        <time>2017-04-11T16:53:47Z</time>
      </trkpt>
      <trkpt lat="49.39213" lon="1.15709">
        <ele>149</ele>
        <time>2017-04-11T16:53:47Z</time>
      </trkpt>
      <trkpt lat="49.39219" lon="1.15705">
        <ele>150</ele>
        <time>2017-04-11T16:53:47Z</time>
      </trkpt>
      <trkpt lat="49.39222" lon="1.15701">
        <ele>150</ele>
        <time>2017-04-11T16:53:47Z</time>
      </trkpt>
      <trkpt lat="49.39226" lon="1.15698">
        <ele>150</ele>
        <time>2017-04-11T16:54:04Z</time>
      </trkpt>
      <trkpt lat="49.39229" lon="1.15695">
        <ele>150</ele>
        <time>2017-04-11T16:54:04Z</time>
      </trkpt>
      <trkpt lat="49.39234" lon="1.15689">
        <ele>150</ele>
        <time>2017-04-11T16:54:04Z</time>
      </trkpt>
      <trkpt lat="49.39235" lon="1.15687">
        <ele>150</ele>
        <time>2017-04-11T16:54:04Z</time>
      </trkpt>
      <trkpt lat="49.39239" lon="1.15682">
        <ele>150</ele>
        <time>2017-04-11T16:54:19Z</time>
      </trkpt>
      <trkpt lat="49.39244" lon="1.15676">
        <ele>150</ele>
        <time>2017-04-11T16:54:19Z</time>
      </trkpt>
      <trkpt lat="49.39249" lon="1.1567">
        <ele>150</ele>
        <time>2017-04-11T16:54:19Z</time>
      </trkpt>
      <trkpt lat="49.39251" lon="1.15666">
        <ele>150</ele>
        <time>2017-04-11T16:54:19Z</time>
      </trkpt>
      <trkpt lat="49.39255" lon="1.15661">
        <ele>150</ele>
        <time>2017-04-11T16:54:36Z</time>
      </trkpt>
      <trkpt lat="49.39258" lon="1.15658">
        <ele>150</ele>
        <time>2017-04-11T16:54:36Z</time>
      </trkpt>
      <trkpt lat="49.39261" lon="1.15656">
        <ele>150</ele>
        <time>2017-04-11T16:54:36Z</time>
      </trkpt>
      <trkpt lat="49.39264" lon="1.1565">
        <ele>150</ele>
        <time>2017-04-11T16:54:36Z</time>
      </trkpt>
      <trkpt lat="49.39268" lon="1.15645">
        <ele>150</ele>
        <time>2017-04-11T16:54:52Z</time>
      </trkpt>
      <trkpt lat="49.39271" lon="1.15639">
        <ele>150</ele>
        <time>2017-04-11T16:54:52Z</time>
      </trkpt>
      <trkpt lat="49.39274" lon="1.15634">
        <ele>150</ele>
        <time>2017-04-11T16:54:52Z</time>
      </trkpt>
      <trkpt lat="49.39279" lon="1.1563">
        <ele>150</ele>
        <time>2017-04-11T16:54:52Z</time>
      </trkpt>
      <trkpt lat="49.39281" lon="1.15625">
        <ele>150</ele>
        <time>2017-04-11T16:55:07Z</time>
      </trkpt>
      <trkpt lat="49.39285" lon="1.15618">
        <ele>151</ele>
        <time>2017-04-11T16:55:07Z</time>
      </trkpt>
      <trkpt lat="49.39287" lon="1.15615">
        <ele>151</ele>
        <time>2017-04-11T16:55:07Z</time>
      </trkpt>
      <trkpt lat="49.39292" lon="1.15611">
        <ele>154</ele>
        <time>2017-04-11T16:55:07Z</time>
      </trkpt>
      <trkpt lat="49.39296" lon="1.15604">
        <ele>154</ele>
        <time>2017-04-11T16:55:23Z</time>
      </trkpt>
      <trkpt lat="49.393" lon="1.15599">
        <ele>154</ele>
        <time>2017-04-11T16:55:23Z</time>
      </trkpt>
      <trkpt lat="49.39303" lon="1.15596">
        <ele>154</ele>
        <time>2017-04-11T16:55:23Z</time>
      </trkpt>
      <trkpt lat="49.39303" lon="1.15594">
        <ele>154</ele>
        <time>2017-04-11T16:55:23Z</time>
      </trkpt>
      <trkpt lat="49.39305" lon="1.15591">
        <ele>154</ele>
        <time>2017-04-11T16:55:39Z</time>
      </trkpt>
      <trkpt lat="49.39309" lon="1.15588">
        <ele>154</ele>
        <time>2017-04-11T16:55:39Z</time>
      </trkpt>
      <trkpt lat="49.3931" lon="1.15586">
        <ele>154</ele>
        <time>2017-04-11T16:55:39Z</time>
      </trkpt>
      <trkpt lat="49.39316" lon="1.1558">
        <ele>154</ele>
        <time>2017-04-11T16:55:39Z</time>
      </trkpt>
      <trkpt lat="49.39319" lon="1.15578">
        <ele>154</ele>
        <time>2017-04-11T16:55:55Z</time>
      </trkpt>
      <trkpt lat="49.39322" lon="1.15576">
        <ele>154</ele>
        <time>2017-04-11T16:55:55Z</time>
      </trkpt>
      <trkpt lat="49.39326" lon="1.15573">
        <ele>154</ele>
        <time>2017-04-11T16:55:55Z</time>
      </trkpt>
      <trkpt lat="49.3933" lon="1.15568">
        <ele>154</ele>
        <time>2017-04-11T16:55:55Z</time>
      </trkpt>
      <trkpt lat="49.39333" lon="1.15562">
        <ele>154</ele>
        <time>2017-04-11T16:56:11Z</time>
      </trkpt>
      <trkpt lat="49.39339" lon="1.15557">
        <ele>154</ele>
        <time>2017-04-11T16:56:11Z</time>
      </trkpt>
      <trkpt lat="49.39343" lon="1.15553">
        <ele>154</ele>
        <time>2017-04-11T16:56:11Z</time>
      </trkpt>
      <trkpt lat="49.39347" lon="1.15549">
        <ele>154</ele>
        <time>2017-04-11T16:56:11Z</time>
      </trkpt>
      <trkpt lat="49.3935" lon="1.15546">
        <ele>154</ele>
        <time>2017-04-11T16:56:27Z</time>
      </trkpt>
      <trkpt lat="49.39354" lon="1.15541">
        <ele>154</ele>
        <time>2017-04-11T16:56:27Z</time>
      </trkpt>
      <trkpt lat="49.39358" lon="1.15538">
        <ele>154</ele>
        <time>2017-04-11T16:56:27Z</time>
      </trkpt>
      <trkpt lat="49.39362" lon="1.15535">
        <ele>154</ele>
        <time>2017-04-11T16:56:27Z</time>
      </trkpt>
      <trkpt lat="49.39365" lon="1.1553">
        <ele>154</ele>
        <time>2017-04-11T16:56:43Z</time>
      </trkpt>
      <trkpt lat="49.3937" lon="1.15527">
        <ele>154</ele>
        <time>2017-04-11T16:56:43Z</time>
      </trkpt>
      <trkpt lat="49.39373" lon="1.15524">
        <ele>154</ele>
        <time>2017-04-11T16:56:44Z</time>
      </trkpt>
      <trkpt lat="49.39377" lon="1.1552">
        <ele>155</ele>
        <time>2017-04-11T16:56:44Z</time>
      </trkpt>
      <trkpt lat="49.39381" lon="1.15516">
        <ele>155</ele>
        <time>2017-04-11T16:56:59Z</time>
      </trkpt>
      <trkpt lat="49.39384" lon="1.15513">
        <ele>155</ele>
        <time>2017-04-11T16:56:59Z</time>
      </trkpt>
      <trkpt lat="49.39387" lon="1.15508">
        <ele>155</ele>
        <time>2017-04-11T16:56:59Z</time>
      </trkpt>
      <trkpt lat="49.39391" lon="1.15504">
        <ele>155</ele>
        <time>2017-04-11T16:56:59Z</time>
      </trkpt>
      <trkpt lat="49.39394" lon="1.15499">
        <ele>155</ele>
        <time>2017-04-11T16:57:15Z</time>
      </trkpt>
      <trkpt lat="49.39397" lon="1.15494">
        <ele>155</ele>
        <time>2017-04-11T16:57:15Z</time>
      </trkpt>
      <trkpt lat="49.39401" lon="1.15491">
        <ele>155</ele>
        <time>2017-04-11T16:57:15Z</time>
      </trkpt>
      <trkpt lat="49.39404" lon="1.15485">
        <ele>155</ele>
        <time>2017-04-11T16:57:15Z</time>
      </trkpt>
      <trkpt lat="49.3941" lon="1.15483">
        <ele>155</ele>
        <time>2017-04-11T16:57:31Z</time>
      </trkpt>
      <trkpt lat="49.39416" lon="1.15478">
        <ele>155</ele>
        <time>2017-04-11T16:57:31Z</time>
      </trkpt>
      <trkpt lat="49.3942" lon="1.15472">
        <ele>155</ele>
        <time>2017-04-11T16:57:31Z</time>
      </trkpt>
      <trkpt lat="49.39423" lon="1.15469">
        <ele>155</ele>
        <time>2017-04-11T16:57:31Z</time>
      </trkpt>
      <trkpt lat="49.39426" lon="1.15466">
        <ele>155</ele>
        <time>2017-04-11T16:57:47Z</time>
      </trkpt>
      <trkpt lat="49.39431" lon="1.15462">
        <ele>155</ele>
        <time>2017-04-11T16:57:47Z</time>
      </trkpt>
      <trkpt lat="49.39435" lon="1.15459">
        <ele>155</ele>
        <time>2017-04-11T16:57:47Z</time>
      </trkpt>
      <trkpt lat="49.39439" lon="1.15455">
        <ele>155</ele>
        <time>2017-04-11T16:57:47Z</time>
      </trkpt>
      <trkpt lat="49.39443" lon="1.15453">
        <ele>155</ele>
        <time>2017-04-11T16:58:03Z</time>
      </trkpt>
      <trkpt lat="49.39446" lon="1.15456">
        <ele>155</ele>
        <time>2017-04-11T16:58:03Z</time>
      </trkpt>
      <trkpt lat="49.39449" lon="1.15465">
        <ele>155</ele>
        <time>2017-04-11T16:58:03Z</time>
      </trkpt>
      <trkpt lat="49.39451" lon="1.15472">
        <ele>155</ele>
        <time>2017-04-11T16:58:03Z</time>
      </trkpt>
      <trkpt lat="49.39452" lon="1.1548">
        <ele>155</ele>
        <time>2017-04-11T16:58:19Z</time>
      </trkpt>
      <trkpt lat="49.39454" lon="1.15487">
        <ele>155</ele>
        <time>2017-04-11T16:58:19Z</time>
      </trkpt>
      <trkpt lat="49.39456" lon="1.15494">
        <ele>155</ele>
        <time>2017-04-11T16:58:19Z</time>
      </trkpt>
      <trkpt lat="49.39457" lon="1.15501">
        <ele>155</ele>
        <time>2017-04-11T16:58:19Z</time>
      </trkpt>
      <trkpt lat="49.39458" lon="1.15508">
        <ele>155</ele>
        <time>2017-04-11T16:58:35Z</time>
      </trkpt>
      <trkpt lat="49.3946" lon="1.15515">
        <ele>156</ele>
        <time>2017-04-11T16:58:35Z</time>
      </trkpt>
      <trkpt lat="49.39462" lon="1.15523">
        <ele>156</ele>
        <time>2017-04-11T16:58:35Z</time>
      </trkpt>
      <trkpt lat="49.39463" lon="1.15528">
        <ele>156</ele>
        <time>2017-04-11T16:58:35Z</time>
      </trkpt>
      <trkpt lat="49.39465" lon="1.15535">
        <ele>156</ele>
        <time>2017-04-11T16:58:52Z</time>
      </trkpt>
      <trkpt lat="49.39465" lon="1.15541">
        <ele>156</ele>
        <time>2017-04-11T16:58:52Z</time>
      </trkpt>
      <trkpt lat="49.39465" lon="1.15552">
        <ele>156</ele>
        <time>2017-04-11T16:58:52Z</time>
      </trkpt>
      <trkpt lat="49.39466" lon="1.1556">
        <ele>156</ele>
        <time>2017-04-11T16:58:52Z</time>
      </trkpt>
      <trkpt lat="49.39468" lon="1.15565">
        <ele>156</ele>
        <time>2017-04-11T16:59:07Z</time>
      </trkpt>
      <trkpt lat="49.3947" lon="1.15574">
        <ele>156</ele>
        <time>2017-04-11T16:59:07Z</time>
      </trkpt>
      <trkpt lat="49.39472" lon="1.15578">
        <ele>156</ele>
        <time>2017-04-11T16:59:07Z</time>
      </trkpt>
      <trkpt lat="49.39474" lon="1.15587">
        <ele>156</ele>
        <time>2017-04-11T16:59:07Z</time>
      </trkpt>
      <trkpt lat="49.39475" lon="1.15594">
        <ele>156</ele>
        <time>2017-04-11T16:59:23Z</time>
      </trkpt>
      <trkpt lat="49.39476" lon="1.15601">
        <ele>156</ele>
        <time>2017-04-11T16:59:23Z</time>
      </trkpt>
      <trkpt lat="49.39477" lon="1.15607">
        <ele>156</ele>
        <time>2017-04-11T16:59:23Z</time>
      </trkpt>
      <trkpt lat="49.39478" lon="1.15616">
        <ele>156</ele>
        <time>2017-04-11T16:59:23Z</time>
      </trkpt>
      <trkpt lat="49.3948" lon="1.15622">
        <ele>156</ele>
        <time>2017-04-11T16:59:39Z</time>
      </trkpt>
      <trkpt lat="49.39482" lon="1.1563">
        <ele>155</ele>
        <time>2017-04-11T16:59:39Z</time>
      </trkpt>
      <trkpt lat="49.39483" lon="1.15638">
        <ele>155</ele>
        <time>2017-04-11T16:59:39Z</time>
      </trkpt>
      <trkpt lat="49.39484" lon="1.15646">
        <ele>155</ele>
        <time>2017-04-11T16:59:39Z</time>
      </trkpt>
      <trkpt lat="49.39485" lon="1.15654">
        <ele>155</ele>
        <time>2017-04-11T16:59:55Z</time>
      </trkpt>
      <trkpt lat="49.39487" lon="1.15661">
        <ele>155</ele>
        <time>2017-04-11T16:59:55Z</time>
      </trkpt>
      <trkpt lat="49.39488" lon="1.15669">
        <ele>155</ele>
        <time>2017-04-11T16:59:55Z</time>
      </trkpt>
      <trkpt lat="49.39489" lon="1.15676">
        <ele>155</ele>
        <time>2017-04-11T16:59:55Z</time>
      </trkpt>
      <trkpt lat="49.39489" lon="1.15683">
        <ele>155</ele>
        <time>2017-04-11T17:00:11Z</time>
      </trkpt>
      <trkpt lat="49.3949" lon="1.15692">
        <ele>155</ele>
        <time>2017-04-11T17:00:12Z</time>
      </trkpt>
      <trkpt lat="49.39492" lon="1.157">
        <ele>155</ele>
        <time>2017-04-11T17:00:12Z</time>
      </trkpt>
      <trkpt lat="49.39494" lon="1.1571">
        <ele>155</ele>
        <time>2017-04-11T17:00:12Z</time>
      </trkpt>
      <trkpt lat="49.39494" lon="1.15717">
        <ele>155</ele>
        <time>2017-04-11T17:00:27Z</time>
      </trkpt>
      <trkpt lat="49.39495" lon="1.15724">
        <ele>155</ele>
        <time>2017-04-11T17:00:27Z</time>
      </trkpt>
      <trkpt lat="49.39496" lon="1.15732">
        <ele>155</ele>
        <time>2017-04-11T17:00:27Z</time>
      </trkpt>
      <trkpt lat="49.39498" lon="1.1574">
        <ele>155</ele>
        <time>2017-04-11T17:00:27Z</time>
      </trkpt>
      <trkpt lat="49.39498" lon="1.15747">
        <ele>155</ele>
        <time>2017-04-11T17:00:43Z</time>
      </trkpt>
      <trkpt lat="49.39499" lon="1.15755">
        <ele>155</ele>
        <time>2017-04-11T17:00:44Z</time>
      </trkpt>
      <trkpt lat="49.395" lon="1.15765">
        <ele>155</ele>
        <time>2017-04-11T17:00:44Z</time>
      </trkpt>
      <trkpt lat="49.395" lon="1.15771">
        <ele>155</ele>
        <time>2017-04-11T17:00:44Z</time>
      </trkpt>
      <trkpt lat="49.395" lon="1.15781">
        <ele>155</ele>
        <time>2017-04-11T17:00:59Z</time>
      </trkpt>
      <trkpt lat="49.39501" lon="1.15787">
        <ele>155</ele>
        <time>2017-04-11T17:00:59Z</time>
      </trkpt>
      <trkpt lat="49.39502" lon="1.15791">
        <ele>155</ele>
        <time>2017-04-11T17:00:59Z</time>
      </trkpt>
      <trkpt lat="49.39503" lon="1.15799">
        <ele>155</ele>
        <time>2017-04-11T17:00:59Z</time>
      </trkpt>
      <trkpt lat="49.39504" lon="1.15807">
        <ele>155</ele>
        <time>2017-04-11T17:01:15Z</time>
      </trkpt>
      <trkpt lat="49.39507" lon="1.15815">
        <ele>155</ele>
        <time>2017-04-11T17:01:15Z</time>
      </trkpt>
      <trkpt lat="49.39508" lon="1.15823">
        <ele>155</ele>
        <time>2017-04-11T17:01:15Z</time>
      </trkpt>
      <trkpt lat="49.3951" lon="1.15831">
        <ele>155</ele>
        <time>2017-04-11T17:01:15Z</time>
      </trkpt>
      <trkpt lat="49.3951" lon="1.15838">
        <ele>155</ele>
        <time>2017-04-11T17:01:31Z</time>
      </trkpt>
      <trkpt lat="49.39511" lon="1.15847">
        <ele>155</ele>
        <time>2017-04-11T17:01:31Z</time>
      </trkpt>
      <trkpt lat="49.39512" lon="1.15854">
        <ele>155</ele>
        <time>2017-04-11T17:01:31Z</time>
      </trkpt>
      <trkpt lat="49.39515" lon="1.15862">
        <ele>155</ele>
        <time>2017-04-11T17:01:31Z</time>
      </trkpt>
      <trkpt lat="49.39517" lon="1.15867">
        <ele>155</ele>
        <time>2017-04-11T17:01:47Z</time>
      </trkpt>
      <trkpt lat="49.3952" lon="1.1588">
        <ele>155</ele>
        <time>2017-04-11T17:01:47Z</time>
      </trkpt>
      <trkpt lat="49.39522" lon="1.15886">
        <ele>155</ele>
        <time>2017-04-11T17:01:47Z</time>
      </trkpt>
      <trkpt lat="49.39524" lon="1.15892">
        <ele>155</ele>
        <time>2017-04-11T17:01:47Z</time>
      </trkpt>
      <trkpt lat="49.39524" lon="1.159">
        <ele>155</ele>
        <time>2017-04-11T17:02:03Z</time>
      </trkpt>
      <trkpt lat="49.39526" lon="1.15906">
        <ele>155</ele>
        <time>2017-04-11T17:02:03Z</time>
      </trkpt>
      <trkpt lat="49.39529" lon="1.15914">
        <ele>155</ele>
        <time>2017-04-11T17:02:03Z</time>
      </trkpt>
      <trkpt lat="49.39531" lon="1.15921">
        <ele>155</ele>
        <time>2017-04-11T17:02:03Z</time>
      </trkpt>
      <trkpt lat="49.39533" lon="1.15926">
        <ele>155</ele>
        <time>2017-04-11T17:02:19Z</time>
      </trkpt>
      <trkpt lat="49.39536" lon="1.15934">
        <ele>155</ele>
        <time>2017-04-11T17:02:19Z</time>
      </trkpt>
      <trkpt lat="49.39537" lon="1.15939">
        <ele>155</ele>
        <time>2017-04-11T17:02:19Z</time>
      </trkpt>
      <trkpt lat="49.3954" lon="1.15944">
        <ele>155</ele>
        <time>2017-04-11T17:02:19Z</time>
      </trkpt>
      <trkpt lat="49.39544" lon="1.15952">
        <ele>157</ele>
        <time>2017-04-11T17:02:36Z</time>
      </trkpt>
      <trkpt lat="49.39547" lon="1.1596">
        <ele>156</ele>
        <time>2017-04-11T17:02:36Z</time>
      </trkpt>
      <trkpt lat="49.3955" lon="1.15968">
        <ele>156</ele>
        <time>2017-04-11T17:02:36Z</time>
      </trkpt>
      <trkpt lat="49.39553" lon="1.15976">
        <ele>156</ele>
        <time>2017-04-11T17:02:36Z</time>
      </trkpt>
      <trkpt lat="49.39554" lon="1.15981">
        <ele>156</ele>
        <time>2017-04-11T17:02:51Z</time>
      </trkpt>
      <trkpt lat="49.39558" lon="1.15989">
        <ele>156</ele>
        <time>2017-04-11T17:02:51Z</time>
      </trkpt>
      <trkpt lat="49.39562" lon="1.15994">
        <ele>156</ele>
        <time>2017-04-11T17:02:51Z</time>
      </trkpt>
      <trkpt lat="49.39564" lon="1.16002">
        <ele>156</ele>
        <time>2017-04-11T17:02:51Z</time>
      </trkpt>
      <trkpt lat="49.39566" lon="1.16008">
        <ele>156</ele>
        <time>2017-04-11T17:03:08Z</time>
      </trkpt>
      <trkpt lat="49.3957" lon="1.16015">
        <ele>156</ele>
        <time>2017-04-11T17:03:08Z</time>
      </trkpt>
      <trkpt lat="49.39572" lon="1.16021">
        <ele>156</ele>
        <time>2017-04-11T17:03:08Z</time>
      </trkpt>
      <trkpt lat="49.39574" lon="1.16027">
        <ele>156</ele>
        <time>2017-04-11T17:03:08Z</time>
      </trkpt>
      <trkpt lat="49.39577" lon="1.16035">
        <ele>156</ele>
        <time>2017-04-11T17:03:25Z</time>
      </trkpt>
      <trkpt lat="49.39579" lon="1.16043">
        <ele>156</ele>
        <time>2017-04-11T17:03:25Z</time>
      </trkpt>
      <trkpt lat="49.39582" lon="1.16049">
        <ele>156</ele>
        <time>2017-04-11T17:03:25Z</time>
      </trkpt>
      <trkpt lat="49.39585" lon="1.16057">
        <ele>156</ele>
        <time>2017-04-11T17:03:25Z</time>
      </trkpt>
      <trkpt lat="49.39587" lon="1.16062">
        <ele>156</ele>
        <time>2017-04-11T17:03:39Z</time>
      </trkpt>
      <trkpt lat="49.3959" lon="1.16064">
        <ele>156</ele>
        <time>2017-04-11T17:03:40Z</time>
      </trkpt>
      <trkpt lat="49.39595" lon="1.16063">
        <ele>156</ele>
        <time>2017-04-11T17:03:41Z</time>
      </trkpt>
      <trkpt lat="49.39598" lon="1.16067">
        <ele>156</ele>
        <time>2017-04-11T17:03:41Z</time>
      </trkpt>
      <trkpt lat="49.396" lon="1.16072">
        <ele>156</ele>
        <time>2017-04-11T17:03:55Z</time>
      </trkpt>
      <trkpt lat="49.39603" lon="1.16079">
        <ele>156</ele>
        <time>2017-04-11T17:03:55Z</time>
      </trkpt>
      <trkpt lat="49.39603" lon="1.16089">
        <ele>156</ele>
        <time>2017-04-11T17:03:55Z</time>
      </trkpt>
      <trkpt lat="49.39604" lon="1.16095">
        <ele>156</ele>
        <time>2017-04-11T17:03:55Z</time>
      </trkpt>
      <trkpt lat="49.39605" lon="1.16102">
        <ele>156</ele>
        <time>2017-04-11T17:04:11Z</time>
      </trkpt>
      <trkpt lat="49.39606" lon="1.16111">
        <ele>156</ele>
        <time>2017-04-11T17:04:13Z</time>
      </trkpt>
      <trkpt lat="49.39607" lon="1.16119">
        <ele>156</ele>
        <time>2017-04-11T17:04:13Z</time>
      </trkpt>
      <trkpt lat="49.3961" lon="1.16126">
        <ele>155</ele>
        <time>2017-04-11T17:04:13Z</time>
      </trkpt>
      <trkpt lat="49.39613" lon="1.16138">
        <ele>155</ele>
        <time>2017-04-11T17:04:31Z</time>
      </trkpt>
      <trkpt lat="49.39615" lon="1.16144">
        <ele>155</ele>
        <time>2017-04-11T17:04:31Z</time>
      </trkpt>
      <trkpt lat="49.39618" lon="1.16151">
        <ele>155</ele>
        <time>2017-04-11T17:04:31Z</time>
      </trkpt>
      <trkpt lat="49.3962" lon="1.16157">
        <ele>155</ele>
        <time>2017-04-11T17:04:31Z</time>
      </trkpt>
      <trkpt lat="49.39621" lon="1.16165">
        <ele>155</ele>
        <time>2017-04-11T17:04:47Z</time>
      </trkpt>
      <trkpt lat="49.39624" lon="1.16171">
        <ele>155</ele>
        <time>2017-04-11T17:04:48Z</time>
      </trkpt>
      <trkpt lat="49.39627" lon="1.16175">
        <ele>156</ele>
        <time>2017-04-11T17:04:48Z</time>
      </trkpt>
      <trkpt lat="49.39632" lon="1.16183">
        <ele>156</ele>
        <time>2017-04-11T17:04:48Z</time>
      </trkpt>
      <trkpt lat="49.39635" lon="1.16189">
        <ele>156</ele>
        <time>2017-04-11T17:05:03Z</time>
      </trkpt>
      <trkpt lat="49.39637" lon="1.16194">
        <ele>156</ele>
        <time>2017-04-11T17:05:03Z</time>
      </trkpt>
      <trkpt lat="49.39642" lon="1.16199">
        <ele>156</ele>
        <time>2017-04-11T17:05:03Z</time>
      </trkpt>
      <trkpt lat="49.39646" lon="1.16201">
        <ele>156</ele>
        <time>2017-04-11T17:05:03Z</time>
      </trkpt>
      <trkpt lat="49.39653" lon="1.16203">
        <ele>156</ele>
        <time>2017-04-11T17:05:19Z</time>
      </trkpt>
      <trkpt lat="49.39657" lon="1.16207">
        <ele>156</ele>
        <time>2017-04-11T17:05:19Z</time>
      </trkpt>
      <trkpt lat="49.3966" lon="1.16212">
        <ele>156</ele>
        <time>2017-04-11T17:05:19Z</time>
      </trkpt>
      <trkpt lat="49.39664" lon="1.16218">
        <ele>156</ele>
        <time>2017-04-11T17:05:19Z</time>
      </trkpt>
      <trkpt lat="49.39664" lon="1.16224">
        <ele>156</ele>
        <time>2017-04-11T17:05:35Z</time>
      </trkpt>
      <trkpt lat="49.3966" lon="1.16229">
        <ele>156</ele>
        <time>2017-04-11T17:05:35Z</time>
      </trkpt>
      <trkpt lat="49.39658" lon="1.16236">
        <ele>156</ele>
        <time>2017-04-11T17:05:35Z</time>
      </trkpt>
      <trkpt lat="49.39659" lon="1.16241">
        <ele>156</ele>
        <time>2017-04-11T17:05:35Z</time>
      </trkpt>
      <trkpt lat="49.3966" lon="1.16247">
        <ele>156</ele>
        <time>2017-04-11T17:05:51Z</time>
      </trkpt>
      <trkpt lat="49.39662" lon="1.16254">
        <ele>156</ele>
        <time>2017-04-11T17:05:51Z</time>
      </trkpt>
      <trkpt lat="49.39666" lon="1.1626">
        <ele>156</ele>
        <time>2017-04-11T17:05:51Z</time>
      </trkpt>
      <trkpt lat="49.39667" lon="1.16263">
        <ele>156</ele>
        <time>2017-04-11T17:05:51Z</time>
      </trkpt>
      <trkpt lat="49.39671" lon="1.16272">
        <ele>156</ele>
        <time>2017-04-11T17:06:07Z</time>
      </trkpt>
      <trkpt lat="49.39675" lon="1.1628">
        <ele>156</ele>
        <time>2017-04-11T17:06:07Z</time>
      </trkpt>
      <trkpt lat="49.39677" lon="1.16284">
        <ele>156</ele>
        <time>2017-04-11T17:06:07Z</time>
      </trkpt>
      <trkpt lat="49.39679" lon="1.16292">
        <ele>154</ele>
        <time>2017-04-11T17:06:07Z</time>
      </trkpt>
      <trkpt lat="49.39681" lon="1.16296">
        <ele>154</ele>
        <time>2017-04-11T17:06:24Z</time>
      </trkpt>
      <trkpt lat="49.39684" lon="1.16301">
        <ele>154</ele>
        <time>2017-04-11T17:06:24Z</time>
      </trkpt>
      <trkpt lat="49.39688" lon="1.16308">
        <ele>154</ele>
        <time>2017-04-11T17:06:24Z</time>
      </trkpt>
      <trkpt lat="49.39691" lon="1.16314">
        <ele>154</ele>
        <time>2017-04-11T17:06:24Z</time>
      </trkpt>
      <trkpt lat="49.39694" lon="1.16321">
        <ele>154</ele>
        <time>2017-04-11T17:06:39Z</time>
      </trkpt>
      <trkpt lat="49.39697" lon="1.16326">
        <ele>154</ele>
        <time>2017-04-11T17:06:39Z</time>
      </trkpt>
      <trkpt lat="49.39702" lon="1.16333">
        <ele>154</ele>
        <time>2017-04-11T17:06:39Z</time>
      </trkpt>
      <trkpt lat="49.39706" lon="1.1634">
        <ele>154</ele>
        <time>2017-04-11T17:06:39Z</time>
      </trkpt>
      <trkpt lat="49.39709" lon="1.16346">
        <ele>152</ele>
        <time>2017-04-11T17:06:56Z</time>
      </trkpt>
      <trkpt lat="49.39712" lon="1.16351">
        <ele>152</ele>
        <time>2017-04-11T17:06:56Z</time>
      </trkpt>
      <trkpt lat="49.39714" lon="1.16356">
        <ele>152</ele>
        <time>2017-04-11T17:06:56Z</time>
      </trkpt>
      <trkpt lat="49.39718" lon="1.16363">
        <ele>152</ele>
        <time>2017-04-11T17:06:56Z</time>
      </trkpt>
      <trkpt lat="49.39719" lon="1.16367">
        <ele>152</ele>
        <time>2017-04-11T17:07:11Z</time>
      </trkpt>
      <trkpt lat="49.39722" lon="1.16372">
        <ele>152</ele>
        <time>2017-04-11T17:07:11Z</time>
      </trkpt>
      <trkpt lat="49.39726" lon="1.16381">
        <ele>151</ele>
        <time>2017-04-11T17:07:11Z</time>
      </trkpt>
      <trkpt lat="49.39728" lon="1.16387">
        <ele>151</ele>
        <time>2017-04-11T17:07:11Z</time>
      </trkpt>
      <trkpt lat="49.39738" lon="1.16407">
        <ele>151</ele>
        <time>2017-04-11T17:07:37Z</time>
      </trkpt>
      <trkpt lat="49.3974" lon="1.16413">
        <ele>151</ele>
        <time>2017-04-11T17:07:37Z</time>
      </trkpt>
      <trkpt lat="49.39742" lon="1.16418">
        <ele>151</ele>
        <time>2017-04-11T17:07:37Z</time>
      </trkpt>
      <trkpt lat="49.39746" lon="1.16423">
        <ele>151</ele>
        <time>2017-04-11T17:07:37Z</time>
      </trkpt>
      <trkpt lat="49.39749" lon="1.16429">
        <ele>151</ele>
        <time>2017-04-11T17:07:53Z</time>
      </trkpt>
      <trkpt lat="49.39752" lon="1.16436">
        <ele>151</ele>
        <time>2017-04-11T17:07:53Z</time>
      </trkpt>
      <trkpt lat="49.39754" lon="1.16441">
        <ele>151</ele>
        <time>2017-04-11T17:07:53Z</time>
      </trkpt>
      <trkpt lat="49.39756" lon="1.1645">
        <ele>151</ele>
        <time>2017-04-11T17:07:53Z</time>
      </trkpt>
      <trkpt lat="49.39758" lon="1.16454">
        <ele>151</ele>
        <time>2017-04-11T17:08:07Z</time>
      </trkpt>
      <trkpt lat="49.3976" lon="1.16462">
        <ele>149</ele>
        <time>2017-04-11T17:08:07Z</time>
      </trkpt>
      <trkpt lat="49.39763" lon="1.16468">
        <ele>149</ele>
        <time>2017-04-11T17:08:07Z</time>
      </trkpt>
      <trkpt lat="49.39766" lon="1.16478">
        <ele>149</ele>
        <time>2017-04-11T17:08:07Z</time>
      </trkpt>
      <trkpt lat="49.39768" lon="1.16483">
        <ele>149</ele>
        <time>2017-04-11T17:08:24Z</time>
      </trkpt>
      <trkpt lat="49.39769" lon="1.16491">
        <ele>149</ele>
        <time>2017-04-11T17:08:24Z</time>
      </trkpt>
      <trkpt lat="49.39771" lon="1.16497">
        <ele>149</ele>
        <time>2017-04-11T17:08:24Z</time>
      </trkpt>
      <trkpt lat="49.39772" lon="1.16504">
        <ele>149</ele>
        <time>2017-04-11T17:08:24Z</time>
      </trkpt>
      <trkpt lat="49.39774" lon="1.16511">
        <ele>149</ele>
        <time>2017-04-11T17:08:40Z</time>
      </trkpt>
      <trkpt lat="49.39776" lon="1.16519">
        <ele>149</ele>
        <time>2017-04-11T17:08:40Z</time>
      </trkpt>
      <trkpt lat="49.39777" lon="1.16526">
        <ele>149</ele>
        <time>2017-04-11T17:08:40Z</time>
      </trkpt>
      <trkpt lat="49.39779" lon="1.16532">
        <ele>149</ele>
        <time>2017-04-11T17:08:40Z</time>
      </trkpt>
      <trkpt lat="49.3978" lon="1.16535">
        <ele>149</ele>
        <time>2017-04-11T17:08:56Z</time>
      </trkpt>
      <trkpt lat="49.39783" lon="1.16544">
        <ele>149</ele>
        <time>2017-04-11T17:08:56Z</time>
      </trkpt>
      <trkpt lat="49.39784" lon="1.16552">
        <ele>149</ele>
        <time>2017-04-11T17:08:56Z</time>
      </trkpt>
      <trkpt lat="49.39786" lon="1.16561">
        <ele>149</ele>
        <time>2017-04-11T17:08:56Z</time>
      </trkpt>
      <trkpt lat="49.39787" lon="1.16567">
        <ele>149</ele>
        <time>2017-04-11T17:09:13Z</time>
      </trkpt>
      <trkpt lat="49.39787" lon="1.16577">
        <ele>149</ele>
        <time>2017-04-11T17:09:13Z</time>
      </trkpt>
      <trkpt lat="49.39789" lon="1.16584">
        <ele>149</ele>
        <time>2017-04-11T17:09:13Z</time>
      </trkpt>
      <trkpt lat="49.39791" lon="1.16595">
        <ele>149</ele>
        <time>2017-04-11T17:09:13Z</time>
      </trkpt>
      <trkpt lat="49.3979" lon="1.16599">
        <ele>149</ele>
        <time>2017-04-11T17:09:28Z</time>
      </trkpt>
      <trkpt lat="49.39793" lon="1.16608">
        <ele>147</ele>
        <time>2017-04-11T17:09:28Z</time>
      </trkpt>
      <trkpt lat="49.39796" lon="1.16616">
        <ele>147</ele>
        <time>2017-04-11T17:09:29Z</time>
      </trkpt>
      <trkpt lat="49.39797" lon="1.16625">
        <ele>147</ele>
        <time>2017-04-11T17:09:29Z</time>
      </trkpt>
      <trkpt lat="49.39798" lon="1.16639">
        <ele>147</ele>
        <time>2017-04-11T17:09:47Z</time>
      </trkpt>
      <trkpt lat="49.39798" lon="1.16644">
        <ele>147</ele>
        <time>2017-04-11T17:09:47Z</time>
      </trkpt>
      <trkpt lat="49.39798" lon="1.16656">
        <ele>147</ele>
        <time>2017-04-11T17:09:47Z</time>
      </trkpt>
      <trkpt lat="49.39799" lon="1.16664">
        <ele>147</ele>
        <time>2017-04-11T17:09:47Z</time>
      </trkpt>
      <trkpt lat="49.398" lon="1.1667">
        <ele>147</ele>
        <time>2017-04-11T17:10:03Z</time>
      </trkpt>
      <trkpt lat="49.39798" lon="1.16679">
        <ele>147</ele>
        <time>2017-04-11T17:10:03Z</time>
      </trkpt>
      <trkpt lat="49.39799" lon="1.16685">
        <ele>147</ele>
        <time>2017-04-11T17:10:04Z</time>
      </trkpt>
      <trkpt lat="49.398" lon="1.16692">
        <ele>147</ele>
        <time>2017-04-11T17:10:04Z</time>
      </trkpt>
      <trkpt lat="49.39801" lon="1.1671">
        <ele>145</ele>
        <time>2017-04-11T17:10:23Z</time>
      </trkpt>
      <trkpt lat="49.39803" lon="1.16716">
        <ele>145</ele>
        <time>2017-04-11T17:10:23Z</time>
      </trkpt>
      <trkpt lat="49.39807" lon="1.1672">
        <ele>145</ele>
        <time>2017-04-11T17:10:23Z</time>
      </trkpt>
      <trkpt lat="49.39809" lon="1.16725">
        <ele>145</ele>
        <time>2017-04-11T17:10:23Z</time>
      </trkpt>
      <trkpt lat="49.39812" lon="1.16732">
        <ele>145</ele>
        <time>2017-04-11T17:10:39Z</time>
      </trkpt>
      <trkpt lat="49.39813" lon="1.16738">
        <ele>145</ele>
        <time>2017-04-11T17:10:39Z</time>
      </trkpt>
      <trkpt lat="49.39813" lon="1.16744">
        <ele>145</ele>
        <time>2017-04-11T17:10:39Z</time>
      </trkpt>
      <trkpt lat="49.39811" lon="1.16751">
        <ele>145</ele>
        <time>2017-04-11T17:10:39Z</time>
      </trkpt>
      <trkpt lat="49.39808" lon="1.1676">
        <ele>145</ele>
        <time>2017-04-11T17:10:55Z</time>
      </trkpt>
      <trkpt lat="49.39806" lon="1.16766">
        <ele>145</ele>
        <time>2017-04-11T17:10:55Z</time>
      </trkpt>
      <trkpt lat="49.39805" lon="1.16772">
        <ele>145</ele>
        <time>2017-04-11T17:10:55Z</time>
      </trkpt>
      <trkpt lat="49.39805" lon="1.16781">
        <ele>145</ele>
        <time>2017-04-11T17:10:55Z</time>
      </trkpt>
      <trkpt lat="49.39806" lon="1.16785">
        <ele>145</ele>
        <time>2017-04-11T17:11:11Z</time>
      </trkpt>
      <trkpt lat="49.39806" lon="1.16793">
        <ele>144</ele>
        <time>2017-04-11T17:11:11Z</time>
      </trkpt>
      <trkpt lat="49.39807" lon="1.16803">
        <ele>144</ele>
        <time>2017-04-11T17:11:11Z</time>
      </trkpt>
      <trkpt lat="49.39807" lon="1.16809">
        <ele>144</ele>
        <time>2017-04-11T17:11:11Z</time>
      </trkpt>
      <trkpt lat="49.39807" lon="1.16817">
        <ele>144</ele>
        <time>2017-04-11T17:11:27Z</time>
      </trkpt>
      <trkpt lat="49.39808" lon="1.16824">
        <ele>144</ele>
        <time>2017-04-11T17:11:27Z</time>
      </trkpt>
      <trkpt lat="49.39807" lon="1.16831">
        <ele>144</ele>
        <time>2017-04-11T17:11:27Z</time>
      </trkpt>
      <trkpt lat="49.39806" lon="1.16837">
        <ele>144</ele>
        <time>2017-04-11T17:11:27Z</time>
      </trkpt>
      <trkpt lat="49.39806" lon="1.16852">
        <ele>144</ele>
        <time>2017-04-11T17:11:43Z</time>
      </trkpt>
      <trkpt lat="49.39807" lon="1.16856">
        <ele>144</ele>
        <time>2017-04-11T17:11:43Z</time>
      </trkpt>
      <trkpt lat="49.39807" lon="1.16863">
        <ele>144</ele>
        <time>2017-04-11T17:11:43Z</time>
      </trkpt>
      <trkpt lat="49.39807" lon="1.16872">
        <ele>144</ele>
        <time>2017-04-11T17:11:43Z</time>
      </trkpt>
      <trkpt lat="49.39806" lon="1.16882">
        <ele>144</ele>
        <time>2017-04-11T17:11:59Z</time>
      </trkpt>
      <trkpt lat="49.39807" lon="1.16887">
        <ele>144</ele>
        <time>2017-04-11T17:11:59Z</time>
      </trkpt>
      <trkpt lat="49.39808" lon="1.16898">
        <ele>144</ele>
        <time>2017-04-11T17:11:59Z</time>
      </trkpt>
      <trkpt lat="49.39811" lon="1.169">
        <ele>144</ele>
        <time>2017-04-11T17:11:59Z</time>
      </trkpt>
      <trkpt lat="49.39815" lon="1.16903">
        <ele>144</ele>
        <time>2017-04-11T17:12:16Z</time>
      </trkpt>
      <trkpt lat="49.39821" lon="1.16904">
        <ele>144</ele>
        <time>2017-04-11T17:12:16Z</time>
      </trkpt>
      <trkpt lat="49.39823" lon="1.16907">
        <ele>144</ele>
        <time>2017-04-11T17:12:16Z</time>
      </trkpt>
      <trkpt lat="49.39828" lon="1.16911">
        <ele>144</ele>
        <time>2017-04-11T17:12:16Z</time>
      </trkpt>
      <trkpt lat="49.3983" lon="1.16915">
        <ele>144</ele>
        <time>2017-04-11T17:12:31Z</time>
      </trkpt>
      <trkpt lat="49.39832" lon="1.16924">
        <ele>144</ele>
        <time>2017-04-11T17:12:31Z</time>
      </trkpt>
      <trkpt lat="49.39834" lon="1.1693">
        <ele>144</ele>
        <time>2017-04-11T17:12:32Z</time>
      </trkpt>
      <trkpt lat="49.39837" lon="1.16938">
        <ele>144</ele>
        <time>2017-04-11T17:12:33Z</time>
      </trkpt>
      <trkpt lat="49.39844" lon="1.16947">
        <ele>144</ele>
        <time>2017-04-11T17:12:47Z</time>
      </trkpt>
      <trkpt lat="49.39846" lon="1.16953">
        <ele>144</ele>
        <time>2017-04-11T17:12:47Z</time>
      </trkpt>
      <trkpt lat="49.39848" lon="1.16959">
        <ele>144</ele>
        <time>2017-04-11T17:12:47Z</time>
      </trkpt>
      <trkpt lat="49.39848" lon="1.16968">
        <ele>144</ele>
        <time>2017-04-11T17:12:47Z</time>
      </trkpt>
      <trkpt lat="49.39848" lon="1.16973">
        <ele>144</ele>
        <time>2017-04-11T17:13:03Z</time>
      </trkpt>
      <trkpt lat="49.39848" lon="1.16981">
        <ele>144</ele>
        <time>2017-04-11T17:13:03Z</time>
      </trkpt>
      <trkpt lat="49.39848" lon="1.16989">
        <ele>144</ele>
        <time>2017-04-11T17:13:03Z</time>
      </trkpt>
      <trkpt lat="49.39852" lon="1.16995">
        <ele>144</ele>
        <time>2017-04-11T17:13:03Z</time>
      </trkpt>
      <trkpt lat="49.39855" lon="1.17001">
        <ele>144</ele>
        <time>2017-04-11T17:13:19Z</time>
      </trkpt>
      <trkpt lat="49.39859" lon="1.17009">
        <ele>144</ele>
        <time>2017-04-11T17:13:19Z</time>
      </trkpt>
      <trkpt lat="49.39862" lon="1.17016">
        <ele>144</ele>
        <time>2017-04-11T17:13:19Z</time>
      </trkpt>
      <trkpt lat="49.39863" lon="1.17016">
        <ele>144</ele>
        <time>2017-04-11T17:13:19Z</time>
      </trkpt>
      <trkpt lat="49.39863" lon="1.17017">
        <ele>144</ele>
        <time>2017-04-11T17:13:35Z</time>
      </trkpt>
      <trkpt lat="49.39866" lon="1.17024">
        <ele>144</ele>
        <time>2017-04-11T17:13:35Z</time>
      </trkpt>
      <trkpt lat="49.39869" lon="1.17033">
        <ele>144</ele>
        <time>2017-04-11T17:13:35Z</time>
      </trkpt>
      <trkpt lat="49.39873" lon="1.1704">
        <ele>144</ele>
        <time>2017-04-11T17:13:35Z</time>
      </trkpt>
      <trkpt lat="49.39875" lon="1.17047">
        <ele>147</ele>
        <time>2017-04-11T17:13:51Z</time>
      </trkpt>
      <trkpt lat="49.39878" lon="1.17054">
        <ele>147</ele>
        <time>2017-04-11T17:13:51Z</time>
      </trkpt>
      <trkpt lat="49.39881" lon="1.17061">
        <ele>147</ele>
        <time>2017-04-11T17:13:51Z</time>
      </trkpt>
      <trkpt lat="49.39884" lon="1.17068">
        <ele>147</ele>
        <time>2017-04-11T17:13:51Z</time>
      </trkpt>
      <trkpt lat="49.39884" lon="1.17074">
        <ele>147</ele>
        <time>2017-04-11T17:14:11Z</time>
      </trkpt>
      <trkpt lat="49.39887" lon="1.17077">
        <ele>147</ele>
        <time>2017-04-11T17:14:11Z</time>
      </trkpt>
      <trkpt lat="49.39888" lon="1.17081">
        <ele>147</ele>
        <time>2017-04-11T17:14:11Z</time>
      </trkpt>
      <trkpt lat="49.39888" lon="1.17085">
        <ele>147</ele>
        <time>2017-04-11T17:14:11Z</time>
      </trkpt>
      <trkpt lat="49.39891" lon="1.17096">
        <ele>147</ele>
        <time>2017-04-11T17:14:11Z</time>
      </trkpt>
      <trkpt lat="49.39893" lon="1.17103">
        <ele>147</ele>
        <time>2017-04-11T17:14:27Z</time>
      </trkpt>
      <trkpt lat="49.39896" lon="1.1711">
        <ele>147</ele>
        <time>2017-04-11T17:14:27Z</time>
      </trkpt>
      <trkpt lat="49.39898" lon="1.17117">
        <ele>147</ele>
        <time>2017-04-11T17:14:27Z</time>
      </trkpt>
      <trkpt lat="49.39901" lon="1.17127">
        <ele>146</ele>
        <time>2017-04-11T17:14:27Z</time>
      </trkpt>
      <trkpt lat="49.39904" lon="1.17138">
        <ele>146</ele>
        <time>2017-04-11T17:15:03Z</time>
      </trkpt>
      <trkpt lat="49.39905" lon="1.1714">
        <ele>146</ele>
        <time>2017-04-11T17:15:03Z</time>
      </trkpt>
      <trkpt lat="49.39905" lon="1.1714">
        <ele>146</ele>
        <time>2017-04-11T17:15:03Z</time>
      </trkpt>
      <trkpt lat="49.39907" lon="1.17144">
        <ele>146</ele>
        <time>2017-04-11T17:15:03Z</time>
      </trkpt>
      <trkpt lat="49.39911" lon="1.1715">
        <ele>146</ele>
        <time>2017-04-11T17:15:03Z</time>
      </trkpt>
      <trkpt lat="49.39915" lon="1.17154">
        <ele>146</ele>
        <time>2017-04-11T17:15:19Z</time>
      </trkpt>
      <trkpt lat="49.39922" lon="1.17154">
        <ele>146</ele>
        <time>2017-04-11T17:15:19Z</time>
      </trkpt>
      <trkpt lat="49.39927" lon="1.17153">
        <ele>146</ele>
        <time>2017-04-11T17:15:19Z</time>
      </trkpt>
      <trkpt lat="49.39931" lon="1.17153">
        <ele>146</ele>
        <time>2017-04-11T17:15:19Z</time>
      </trkpt>
      <trkpt lat="49.39936" lon="1.17151">
        <ele>146</ele>
        <time>2017-04-11T17:15:35Z</time>
      </trkpt>
      <trkpt lat="49.3994" lon="1.17151">
        <ele>146</ele>
        <time>2017-04-11T17:15:35Z</time>
      </trkpt>
      <trkpt lat="49.39945" lon="1.1715">
        <ele>146</ele>
        <time>2017-04-11T17:15:35Z</time>
      </trkpt>
      <trkpt lat="49.39951" lon="1.1715">
        <ele>146</ele>
        <time>2017-04-11T17:15:35Z</time>
      </trkpt>
      <trkpt lat="49.39958" lon="1.17149">
        <ele>146</ele>
        <time>2017-04-11T17:15:53Z</time>
      </trkpt>
      <trkpt lat="49.39962" lon="1.1715">
        <ele>146</ele>
        <time>2017-04-11T17:15:53Z</time>
      </trkpt>
      <trkpt lat="49.39965" lon="1.1715">
        <ele>146</ele>
        <time>2017-04-11T17:15:53Z</time>
      </trkpt>
      <trkpt lat="49.39972" lon="1.17152">
        <ele>146</ele>
        <time>2017-04-11T17:15:53Z</time>
      </trkpt>
      <trkpt lat="49.39973" lon="1.17155">
        <ele>146</ele>
        <time>2017-04-11T17:16:09Z</time>
      </trkpt>
      <trkpt lat="49.39971" lon="1.17161">
        <ele>146</ele>
        <time>2017-04-11T17:16:09Z</time>
      </trkpt>
      <trkpt lat="49.39974" lon="1.17164">
        <ele>146</ele>
        <time>2017-04-11T17:16:09Z</time>
      </trkpt>
      <trkpt lat="49.39981" lon="1.17162">
        <ele>146</ele>
        <time>2017-04-11T17:16:09Z</time>
      </trkpt>
      <trkpt lat="49.39994" lon="1.1714">
        <ele>146</ele>
        <time>2017-04-11T17:16:40Z</time>
      </trkpt>
      <trkpt lat="49.39996" lon="1.17138">
        <ele>146</ele>
        <time>2017-04-11T17:16:40Z</time>
      </trkpt>
      <trkpt lat="49.4" lon="1.17133">
        <ele>146</ele>
        <time>2017-04-11T17:16:40Z</time>
      </trkpt>
      <trkpt lat="49.40003" lon="1.1713">
        <ele>146</ele>
        <time>2017-04-11T17:16:40Z</time>
      </trkpt>
      <trkpt lat="49.40008" lon="1.17124">
        <ele>145</ele>
        <time>2017-04-11T17:16:55Z</time>
      </trkpt>
      <trkpt lat="49.40011" lon="1.17124">
        <ele>145</ele>
        <time>2017-04-11T17:16:55Z</time>
      </trkpt>
      <trkpt lat="49.40016" lon="1.17123">
        <ele>145</ele>
        <time>2017-04-11T17:16:55Z</time>
      </trkpt>
      <trkpt lat="49.4002" lon="1.17121">
        <ele>145</ele>
        <time>2017-04-11T17:16:56Z</time>
      </trkpt>
      <trkpt lat="49.40026" lon="1.17117">
        <ele>145</ele>
        <time>2017-04-11T17:17:11Z</time>
      </trkpt>
      <trkpt lat="49.4003" lon="1.17114">
        <ele>145</ele>
        <time>2017-04-11T17:17:11Z</time>
      </trkpt>
      <trkpt lat="49.40034" lon="1.17111">
        <ele>145</ele>
        <time>2017-04-11T17:17:11Z</time>
      </trkpt>
      <trkpt lat="49.40039" lon="1.17102">
        <ele>145</ele>
        <time>2017-04-11T17:17:11Z</time>
      </trkpt>
      <trkpt lat="49.40041" lon="1.17098">
        <ele>145</ele>
        <time>2017-04-11T17:17:28Z</time>
      </trkpt>
      <trkpt lat="49.40042" lon="1.17096">
        <ele>146</ele>
        <time>2017-04-11T17:17:28Z</time>
      </trkpt>
      <trkpt lat="49.40045" lon="1.17093">
        <ele>146</ele>
        <time>2017-04-11T17:17:28Z</time>
      </trkpt>
      <trkpt lat="49.40049" lon="1.17089">
        <ele>146</ele>
        <time>2017-04-11T17:17:28Z</time>
      </trkpt>
      <trkpt lat="49.4005" lon="1.1709">
        <ele>146</ele>
        <time>2017-04-11T17:17:44Z</time>
      </trkpt>
      <trkpt lat="49.40055" lon="1.17088">
        <ele>146</ele>
        <time>2017-04-11T17:17:44Z</time>
      </trkpt>
      <trkpt lat="49.40063" lon="1.17083">
        <ele>146</ele>
        <time>2017-04-11T17:17:44Z</time>
      </trkpt>
      <trkpt lat="49.40066" lon="1.17079">
        <ele>146</ele>
        <time>2017-04-11T17:17:44Z</time>
      </trkpt>
      <trkpt lat="49.4007" lon="1.17075">
        <ele>146</ele>
        <time>2017-04-11T17:18:00Z</time>
      </trkpt>
      <trkpt lat="49.40074" lon="1.17071">
        <ele>146</ele>
        <time>2017-04-11T17:18:00Z</time>
      </trkpt>
      <trkpt lat="49.40079" lon="1.17067">
        <ele>146</ele>
        <time>2017-04-11T17:18:00Z</time>
      </trkpt>
      <trkpt lat="49.40084" lon="1.17064">
        <ele>146</ele>
        <time>2017-04-11T17:18:00Z</time>
      </trkpt>
      <trkpt lat="49.40092" lon="1.17064">
        <ele>146</ele>
        <time>2017-04-11T17:18:27Z</time>
      </trkpt>
      <trkpt lat="49.40094" lon="1.17066">
        <ele>146</ele>
        <time>2017-04-11T17:18:27Z</time>
      </trkpt>
      <trkpt lat="49.40099" lon="1.1707">
        <ele>146</ele>
        <time>2017-04-11T17:18:27Z</time>
      </trkpt>
      <trkpt lat="49.40102" lon="1.17072">
        <ele>146</ele>
        <time>2017-04-11T17:18:27Z</time>
      </trkpt>
      <trkpt lat="49.40107" lon="1.17078">
        <ele>146</ele>
        <time>2017-04-11T17:18:27Z</time>
      </trkpt>
      <trkpt lat="49.40111" lon="1.17081">
        <ele>146</ele>
        <time>2017-04-11T17:18:44Z</time>
      </trkpt>
      <trkpt lat="49.40116" lon="1.17086">
        <ele>146</ele>
        <time>2017-04-11T17:18:44Z</time>
      </trkpt>
      <trkpt lat="49.4012" lon="1.17089">
        <ele>146</ele>
        <time>2017-04-11T17:18:44Z</time>
      </trkpt>
      <trkpt lat="49.40125" lon="1.1709">
        <ele>146</ele>
        <time>2017-04-11T17:18:44Z</time>
      </trkpt>
      <trkpt lat="49.40126" lon="1.17091">
        <ele>147</ele>
        <time>2017-04-11T17:18:59Z</time>
      </trkpt>
      <trkpt lat="49.4013" lon="1.17098">
        <ele>147</ele>
        <time>2017-04-11T17:18:59Z</time>
      </trkpt>
      <trkpt lat="49.40134" lon="1.17102">
        <ele>147</ele>
        <time>2017-04-11T17:18:59Z</time>
      </trkpt>
      <trkpt lat="49.4014" lon="1.17111">
        <ele>147</ele>
        <time>2017-04-11T17:18:59Z</time>
      </trkpt>
      <trkpt lat="49.40145" lon="1.17112">
        <ele>147</ele>
        <time>2017-04-11T17:19:15Z</time>
      </trkpt>
      <trkpt lat="49.40147" lon="1.17116">
        <ele>147</ele>
        <time>2017-04-11T17:19:15Z</time>
      </trkpt>
      <trkpt lat="49.40151" lon="1.17119">
        <ele>147</ele>
        <time>2017-04-11T17:19:15Z</time>
      </trkpt>
      <trkpt lat="49.40156" lon="1.17121">
        <ele>147</ele>
        <time>2017-04-11T17:19:15Z</time>
      </trkpt>
      <trkpt lat="49.40159" lon="1.17124">
        <ele>147</ele>
        <time>2017-04-11T17:19:32Z</time>
      </trkpt>
      <trkpt lat="49.40164" lon="1.17127">
        <ele>147</ele>
        <time>2017-04-11T17:19:32Z</time>
      </trkpt>
      <trkpt lat="49.40168" lon="1.1713">
        <ele>147</ele>
        <time>2017-04-11T17:19:32Z</time>
      </trkpt>
      <trkpt lat="49.40173" lon="1.17132">
        <ele>147</ele>
        <time>2017-04-11T17:19:32Z</time>
      </trkpt>
      <trkpt lat="49.40178" lon="1.17135">
        <ele>147</ele>
        <time>2017-04-11T17:19:47Z</time>
      </trkpt>
      <trkpt lat="49.40183" lon="1.17139">
        <ele>147</ele>
        <time>2017-04-11T17:19:47Z</time>
      </trkpt>
      <trkpt lat="49.40188" lon="1.17142">
        <ele>147</ele>
        <time>2017-04-11T17:19:47Z</time>
      </trkpt>
      <trkpt lat="49.40191" lon="1.17144">
        <ele>147</ele>
        <time>2017-04-11T17:19:47Z</time>
      </trkpt>
      <trkpt lat="49.40192" lon="1.17148">
        <ele>147</ele>
        <time>2017-04-11T17:20:03Z</time>
      </trkpt>
      <trkpt lat="49.40199" lon="1.1715">
        <ele>147</ele>
        <time>2017-04-11T17:20:03Z</time>
      </trkpt>
      <trkpt lat="49.40204" lon="1.17152">
        <ele>147</ele>
        <time>2017-04-11T17:20:03Z</time>
      </trkpt>
      <trkpt lat="49.40208" lon="1.17154">
        <ele>147</ele>
        <time>2017-04-11T17:20:03Z</time>
      </trkpt>
      <trkpt lat="49.40213" lon="1.17156">
        <ele>150</ele>
        <time>2017-04-11T17:20:20Z</time>
      </trkpt>
      <trkpt lat="49.4022" lon="1.17158">
        <ele>150</ele>
        <time>2017-04-11T17:20:20Z</time>
      </trkpt>
      <trkpt lat="49.40224" lon="1.17161">
        <ele>150</ele>
        <time>2017-04-11T17:20:20Z</time>
      </trkpt>
      <trkpt lat="49.40228" lon="1.17165">
        <ele>150</ele>
        <time>2017-04-11T17:20:20Z</time>
      </trkpt>
      <trkpt lat="49.40232" lon="1.17168">
        <ele>150</ele>
        <time>2017-04-11T17:20:35Z</time>
      </trkpt>
      <trkpt lat="49.40237" lon="1.1717">
        <ele>150</ele>
        <time>2017-04-11T17:20:35Z</time>
      </trkpt>
      <trkpt lat="49.40241" lon="1.17172">
        <ele>150</ele>
        <time>2017-04-11T17:20:35Z</time>
      </trkpt>
      <trkpt lat="49.40245" lon="1.17174">
        <ele>150</ele>
        <time>2017-04-11T17:20:35Z</time>
      </trkpt>
      <trkpt lat="49.40251" lon="1.17178">
        <ele>150</ele>
        <time>2017-04-11T17:20:52Z</time>
      </trkpt>
      <trkpt lat="49.40253" lon="1.17182">
        <ele>150</ele>
        <time>2017-04-11T17:20:52Z</time>
      </trkpt>
      <trkpt lat="49.40257" lon="1.17184">
        <ele>150</ele>
        <time>2017-04-11T17:20:52Z</time>
      </trkpt>
      <trkpt lat="49.40267" lon="1.17185">
        <ele>150</ele>
        <time>2017-04-11T17:20:52Z</time>
      </trkpt>
      <trkpt lat="49.40269" lon="1.17188">
        <ele>150</ele>
        <time>2017-04-11T17:21:08Z</time>
      </trkpt>
      <trkpt lat="49.40273" lon="1.17191">
        <ele>150</ele>
        <time>2017-04-11T17:21:08Z</time>
      </trkpt>
      <trkpt lat="49.40278" lon="1.17194">
        <ele>150</ele>
        <time>2017-04-11T17:21:08Z</time>
      </trkpt>
      <trkpt lat="49.40282" lon="1.17197">
        <ele>150</ele>
        <time>2017-04-11T17:21:08Z</time>
      </trkpt>
      <trkpt lat="49.40284" lon="1.17199">
        <ele>150</ele>
        <time>2017-04-11T17:21:24Z</time>
      </trkpt>
      <trkpt lat="49.40291" lon="1.172">
        <ele>150</ele>
        <time>2017-04-11T17:21:24Z</time>
      </trkpt>
      <trkpt lat="49.40295" lon="1.17206">
        <ele>151</ele>
        <time>2017-04-11T17:21:24Z</time>
      </trkpt>
      <trkpt lat="49.40299" lon="1.1721">
        <ele>151</ele>
        <time>2017-04-11T17:21:24Z</time>
      </trkpt>
      <trkpt lat="49.40307" lon="1.17216">
        <ele>151</ele>
        <time>2017-04-11T17:21:45Z</time>
      </trkpt>
      <trkpt lat="49.40311" lon="1.17218">
        <ele>151</ele>
        <time>2017-04-11T17:21:45Z</time>
      </trkpt>
      <trkpt lat="49.40314" lon="1.1722">
        <ele>151</ele>
        <time>2017-04-11T17:21:45Z</time>
      </trkpt>
      <trkpt lat="49.40317" lon="1.17221">
        <ele>151</ele>
        <time>2017-04-11T17:21:45Z</time>
      </trkpt>
      <trkpt lat="49.40318" lon="1.17221">
        <ele>151</ele>
        <time>2017-04-11T17:22:00Z</time>
      </trkpt>
      <trkpt lat="49.40319" lon="1.17218">
        <ele>151</ele>
        <time>2017-04-11T17:22:00Z</time>
      </trkpt>
      <trkpt lat="49.40319" lon="1.17212">
        <ele>151</ele>
        <time>2017-04-11T17:22:00Z</time>
      </trkpt>
      <trkpt lat="49.4032" lon="1.17206">
        <ele>151</ele>
        <time>2017-04-11T17:22:00Z</time>
      </trkpt>
    </trkseg>
  </trk>
</gpx>